<?xml version="1.0" encoding="UTF-8" standalone="no" ?>
<gpx xmlns="http://www.topografix.com/GPX/1/1" xmlns:xsi="http://www.w3.org/2001/XMLSchema-instance" xsi:schemaLocation="http://www.topografix.com/GPX/1/1 http://www.topografix.com/GPX/1/1/gpx.xsd" version="1.1" creator="VisuGPX - https://www.visugpx.com">
  <metadata>
    <name>M.N. Ensuès</name>
    <desc><![CDATA[Belle boucle avec une bonne allure.]]></desc>
  </metadata>
  <trk>
    <name><![CDATA[M.N. Ensuès_1]]></name>
    <trkseg>
      <trkpt lat="43.33939" lon="5.19883">
        <ele>126</ele>
        <time>2015-04-16T12:06:15Z</time>
      </trkpt>
      <trkpt lat="43.33966" lon="5.1989">
        <ele>125</ele>
        <time>2015-04-16T12:09:43Z</time>
      </trkpt>
      <trkpt lat="43.33967" lon="5.1989">
        <ele>125</ele>
        <time>2015-04-16T12:09:45Z</time>
      </trkpt>
      <trkpt lat="43.33969" lon="5.1989">
        <ele>125</ele>
        <time>2015-04-16T12:09:47Z</time>
      </trkpt>
      <trkpt lat="43.3397" lon="5.1989">
        <ele>125</ele>
        <time>2015-04-16T12:09:48Z</time>
      </trkpt>
      <trkpt lat="43.33971" lon="5.1989">
        <ele>125</ele>
        <time>2015-04-16T12:09:50Z</time>
      </trkpt>
      <trkpt lat="43.33974" lon="5.1989">
        <ele>125</ele>
        <time>2015-04-16T12:09:52Z</time>
      </trkpt>
      <trkpt lat="43.33975" lon="5.19891">
        <ele>125</ele>
        <time>2015-04-16T12:09:53Z</time>
      </trkpt>
      <trkpt lat="43.33976" lon="5.19891">
        <ele>125</ele>
        <time>2015-04-16T12:09:54Z</time>
      </trkpt>
      <trkpt lat="43.33978" lon="5.19892">
        <ele>125</ele>
        <time>2015-04-16T12:09:56Z</time>
      </trkpt>
      <trkpt lat="43.33979" lon="5.19893">
        <ele>125</ele>
        <time>2015-04-16T12:09:57Z</time>
      </trkpt>
      <trkpt lat="43.33981" lon="5.19893">
        <ele>125</ele>
        <time>2015-04-16T12:09:58Z</time>
      </trkpt>
      <trkpt lat="43.33982" lon="5.19894">
        <ele>125</ele>
        <time>2015-04-16T12:09:59Z</time>
      </trkpt>
      <trkpt lat="43.33984" lon="5.19895">
        <ele>125</ele>
        <time>2015-04-16T12:10:00Z</time>
      </trkpt>
      <trkpt lat="43.33985" lon="5.19896">
        <ele>125</ele>
        <time>2015-04-16T12:10:01Z</time>
      </trkpt>
      <trkpt lat="43.33986" lon="5.19898">
        <ele>125</ele>
        <time>2015-04-16T12:10:02Z</time>
      </trkpt>
      <trkpt lat="43.33986" lon="5.19899">
        <ele>125</ele>
        <time>2015-04-16T12:10:03Z</time>
      </trkpt>
      <trkpt lat="43.33987" lon="5.19901">
        <ele>125</ele>
        <time>2015-04-16T12:10:04Z</time>
      </trkpt>
      <trkpt lat="43.33988" lon="5.19903">
        <ele>125</ele>
        <time>2015-04-16T12:10:05Z</time>
      </trkpt>
      <trkpt lat="43.33988" lon="5.19904">
        <ele>125</ele>
        <time>2015-04-16T12:10:06Z</time>
      </trkpt>
      <trkpt lat="43.33989" lon="5.19906">
        <ele>125</ele>
        <time>2015-04-16T12:10:07Z</time>
      </trkpt>
      <trkpt lat="43.33989" lon="5.19908">
        <ele>125</ele>
        <time>2015-04-16T12:10:08Z</time>
      </trkpt>
      <trkpt lat="43.3399" lon="5.19909">
        <ele>125</ele>
        <time>2015-04-16T12:10:09Z</time>
      </trkpt>
      <trkpt lat="43.3399" lon="5.19911">
        <ele>125</ele>
        <time>2015-04-16T12:10:10Z</time>
      </trkpt>
      <trkpt lat="43.33991" lon="5.19913">
        <ele>125</ele>
        <time>2015-04-16T12:10:11Z</time>
      </trkpt>
      <trkpt lat="43.33992" lon="5.19915">
        <ele>125</ele>
        <time>2015-04-16T12:10:13Z</time>
      </trkpt>
      <trkpt lat="43.33995" lon="5.19918">
        <ele>125</ele>
        <time>2015-04-16T12:10:15Z</time>
      </trkpt>
      <trkpt lat="43.33997" lon="5.1992">
        <ele>125</ele>
        <time>2015-04-16T12:10:17Z</time>
      </trkpt>
      <trkpt lat="43.33998" lon="5.19922">
        <ele>125</ele>
        <time>2015-04-16T12:10:19Z</time>
      </trkpt>
      <trkpt lat="43.34" lon="5.19924">
        <ele>125</ele>
        <time>2015-04-16T12:10:21Z</time>
      </trkpt>
      <trkpt lat="43.34002" lon="5.19924">
        <ele>125</ele>
        <time>2015-04-16T12:10:22Z</time>
      </trkpt>
      <trkpt lat="43.34003" lon="5.19926">
        <ele>125</ele>
        <time>2015-04-16T12:10:24Z</time>
      </trkpt>
      <trkpt lat="43.34005" lon="5.19928">
        <ele>125</ele>
        <time>2015-04-16T12:10:26Z</time>
      </trkpt>
      <trkpt lat="43.34007" lon="5.1993">
        <ele>125</ele>
        <time>2015-04-16T12:10:28Z</time>
      </trkpt>
      <trkpt lat="43.34008" lon="5.19931">
        <ele>125</ele>
        <time>2015-04-16T12:10:29Z</time>
      </trkpt>
      <trkpt lat="43.34009" lon="5.19932">
        <ele>125</ele>
        <time>2015-04-16T12:10:30Z</time>
      </trkpt>
      <trkpt lat="43.34011" lon="5.19934">
        <ele>125</ele>
        <time>2015-04-16T12:10:32Z</time>
      </trkpt>
      <trkpt lat="43.34012" lon="5.19935">
        <ele>125</ele>
        <time>2015-04-16T12:10:33Z</time>
      </trkpt>
      <trkpt lat="43.34013" lon="5.19936">
        <ele>125</ele>
        <time>2015-04-16T12:10:34Z</time>
      </trkpt>
      <trkpt lat="43.34015" lon="5.19937">
        <ele>125</ele>
        <time>2015-04-16T12:10:35Z</time>
      </trkpt>
      <trkpt lat="43.34016" lon="5.19938">
        <ele>125</ele>
        <time>2015-04-16T12:10:36Z</time>
      </trkpt>
      <trkpt lat="43.34017" lon="5.19939">
        <ele>125</ele>
        <time>2015-04-16T12:10:37Z</time>
      </trkpt>
      <trkpt lat="43.34019" lon="5.19941">
        <ele>125</ele>
        <time>2015-04-16T12:10:39Z</time>
      </trkpt>
      <trkpt lat="43.3402" lon="5.19942">
        <ele>125</ele>
        <time>2015-04-16T12:10:40Z</time>
      </trkpt>
      <trkpt lat="43.34022" lon="5.19943">
        <ele>125</ele>
        <time>2015-04-16T12:10:42Z</time>
      </trkpt>
      <trkpt lat="43.34023" lon="5.19944">
        <ele>125</ele>
        <time>2015-04-16T12:10:43Z</time>
      </trkpt>
      <trkpt lat="43.34024" lon="5.19944">
        <ele>125</ele>
        <time>2015-04-16T12:10:44Z</time>
      </trkpt>
      <trkpt lat="43.34026" lon="5.19945">
        <ele>125</ele>
        <time>2015-04-16T12:10:45Z</time>
      </trkpt>
      <trkpt lat="43.34027" lon="5.19946">
        <ele>125</ele>
        <time>2015-04-16T12:10:46Z</time>
      </trkpt>
      <trkpt lat="43.34028" lon="5.19946">
        <ele>125</ele>
        <time>2015-04-16T12:10:47Z</time>
      </trkpt>
      <trkpt lat="43.34029" lon="5.19947">
        <ele>125</ele>
        <time>2015-04-16T12:10:49Z</time>
      </trkpt>
      <trkpt lat="43.34027" lon="5.19946">
        <ele>125</ele>
        <time>2015-04-16T12:10:51Z</time>
      </trkpt>
      <trkpt lat="43.34026" lon="5.19947">
        <ele>125</ele>
        <time>2015-04-16T12:10:52Z</time>
      </trkpt>
      <trkpt lat="43.34025" lon="5.19946">
        <ele>125</ele>
        <time>2015-04-16T12:10:53Z</time>
      </trkpt>
      <trkpt lat="43.34023" lon="5.19947">
        <ele>125</ele>
        <time>2015-04-16T12:10:55Z</time>
      </trkpt>
      <trkpt lat="43.34022" lon="5.19947">
        <ele>125</ele>
        <time>2015-04-16T12:10:57Z</time>
      </trkpt>
      <trkpt lat="43.34021" lon="5.19949">
        <ele>125</ele>
        <time>2015-04-16T12:10:59Z</time>
      </trkpt>
      <trkpt lat="43.34019" lon="5.19951">
        <ele>125</ele>
        <time>2015-04-16T12:11:01Z</time>
      </trkpt>
      <trkpt lat="43.34018" lon="5.19952">
        <ele>125</ele>
        <time>2015-04-16T12:11:03Z</time>
      </trkpt>
      <trkpt lat="43.34018" lon="5.19954">
        <ele>125</ele>
        <time>2015-04-16T12:11:05Z</time>
      </trkpt>
      <trkpt lat="43.34017" lon="5.19956">
        <ele>125</ele>
        <time>2015-04-16T12:11:07Z</time>
      </trkpt>
      <trkpt lat="43.34016" lon="5.19958">
        <ele>125</ele>
        <time>2015-04-16T12:11:09Z</time>
      </trkpt>
      <trkpt lat="43.34015" lon="5.1996">
        <ele>125</ele>
        <time>2015-04-16T12:11:10Z</time>
      </trkpt>
      <trkpt lat="43.34014" lon="5.19963">
        <ele>125</ele>
        <time>2015-04-16T12:11:12Z</time>
      </trkpt>
      <trkpt lat="43.34013" lon="5.19965">
        <ele>124</ele>
        <time>2015-04-16T12:11:14Z</time>
      </trkpt>
      <trkpt lat="43.34012" lon="5.19967">
        <ele>124</ele>
        <time>2015-04-16T12:11:15Z</time>
      </trkpt>
      <trkpt lat="43.34011" lon="5.19968">
        <ele>124</ele>
        <time>2015-04-16T12:11:16Z</time>
      </trkpt>
      <trkpt lat="43.3401" lon="5.19971">
        <ele>123</ele>
        <time>2015-04-16T12:11:18Z</time>
      </trkpt>
      <trkpt lat="43.3401" lon="5.19972">
        <ele>123</ele>
        <time>2015-04-16T12:11:19Z</time>
      </trkpt>
      <trkpt lat="43.34009" lon="5.19974">
        <ele>123</ele>
        <time>2015-04-16T12:11:20Z</time>
      </trkpt>
      <trkpt lat="43.34009" lon="5.19977">
        <ele>123</ele>
        <time>2015-04-16T12:11:21Z</time>
      </trkpt>
      <trkpt lat="43.34008" lon="5.19979">
        <ele>123</ele>
        <time>2015-04-16T12:11:22Z</time>
      </trkpt>
      <trkpt lat="43.34007" lon="5.19982">
        <ele>122</ele>
        <time>2015-04-16T12:11:24Z</time>
      </trkpt>
      <trkpt lat="43.34007" lon="5.19983">
        <ele>122</ele>
        <time>2015-04-16T12:11:25Z</time>
      </trkpt>
      <trkpt lat="43.34006" lon="5.19985">
        <ele>121</ele>
        <time>2015-04-16T12:11:26Z</time>
      </trkpt>
      <trkpt lat="43.34005" lon="5.19987">
        <ele>121</ele>
        <time>2015-04-16T12:11:27Z</time>
      </trkpt>
      <trkpt lat="43.34003" lon="5.19989">
        <ele>120</ele>
        <time>2015-04-16T12:11:29Z</time>
      </trkpt>
      <trkpt lat="43.34002" lon="5.1999">
        <ele>120</ele>
        <time>2015-04-16T12:11:30Z</time>
      </trkpt>
      <trkpt lat="43.34001" lon="5.19991">
        <ele>120</ele>
        <time>2015-04-16T12:11:31Z</time>
      </trkpt>
      <trkpt lat="43.34" lon="5.19992">
        <ele>120</ele>
        <time>2015-04-16T12:11:32Z</time>
      </trkpt>
      <trkpt lat="43.33998" lon="5.19992">
        <ele>120</ele>
        <time>2015-04-16T12:11:33Z</time>
      </trkpt>
      <trkpt lat="43.33997" lon="5.19993">
        <ele>120</ele>
        <time>2015-04-16T12:11:34Z</time>
      </trkpt>
      <trkpt lat="43.33996" lon="5.19994">
        <ele>120</ele>
        <time>2015-04-16T12:11:35Z</time>
      </trkpt>
      <trkpt lat="43.33994" lon="5.19997">
        <ele>119</ele>
        <time>2015-04-16T12:11:37Z</time>
      </trkpt>
      <trkpt lat="43.33994" lon="5.19998">
        <ele>119</ele>
        <time>2015-04-16T12:11:38Z</time>
      </trkpt>
      <trkpt lat="43.33993" lon="5.2">
        <ele>119</ele>
        <time>2015-04-16T12:11:39Z</time>
      </trkpt>
      <trkpt lat="43.33993" lon="5.20003">
        <ele>118</ele>
        <time>2015-04-16T12:11:40Z</time>
      </trkpt>
      <trkpt lat="43.33993" lon="5.20005">
        <ele>118</ele>
        <time>2015-04-16T12:11:41Z</time>
      </trkpt>
      <trkpt lat="43.33993" lon="5.20007">
        <ele>118</ele>
        <time>2015-04-16T12:11:42Z</time>
      </trkpt>
      <trkpt lat="43.33992" lon="5.20009">
        <ele>118</ele>
        <time>2015-04-16T12:11:43Z</time>
      </trkpt>
      <trkpt lat="43.33992" lon="5.20011">
        <ele>118</ele>
        <time>2015-04-16T12:11:44Z</time>
      </trkpt>
      <trkpt lat="43.33992" lon="5.20013">
        <ele>118</ele>
        <time>2015-04-16T12:11:45Z</time>
      </trkpt>
      <trkpt lat="43.33992" lon="5.20014">
        <ele>118</ele>
        <time>2015-04-16T12:11:46Z</time>
      </trkpt>
      <trkpt lat="43.33992" lon="5.20016">
        <ele>118</ele>
        <time>2015-04-16T12:11:47Z</time>
      </trkpt>
      <trkpt lat="43.33992" lon="5.20018">
        <ele>118</ele>
        <time>2015-04-16T12:11:48Z</time>
      </trkpt>
      <trkpt lat="43.33992" lon="5.2002">
        <ele>118</ele>
        <time>2015-04-16T12:11:49Z</time>
      </trkpt>
      <trkpt lat="43.33992" lon="5.20022">
        <ele>118</ele>
        <time>2015-04-16T12:11:50Z</time>
      </trkpt>
      <trkpt lat="43.33992" lon="5.20024">
        <ele>118</ele>
        <time>2015-04-16T12:11:51Z</time>
      </trkpt>
      <trkpt lat="43.33992" lon="5.20026">
        <ele>117</ele>
        <time>2015-04-16T12:11:52Z</time>
      </trkpt>
      <trkpt lat="43.33991" lon="5.20027">
        <ele>117</ele>
        <time>2015-04-16T12:11:53Z</time>
      </trkpt>
      <trkpt lat="43.33991" lon="5.20029">
        <ele>117</ele>
        <time>2015-04-16T12:11:54Z</time>
      </trkpt>
      <trkpt lat="43.33991" lon="5.20031">
        <ele>117</ele>
        <time>2015-04-16T12:11:55Z</time>
      </trkpt>
      <trkpt lat="43.33992" lon="5.20033">
        <ele>117</ele>
        <time>2015-04-16T12:11:56Z</time>
      </trkpt>
      <trkpt lat="43.33992" lon="5.20035">
        <ele>117</ele>
        <time>2015-04-16T12:11:57Z</time>
      </trkpt>
      <trkpt lat="43.33992" lon="5.20036">
        <ele>117</ele>
        <time>2015-04-16T12:11:58Z</time>
      </trkpt>
      <trkpt lat="43.33992" lon="5.20038">
        <ele>117</ele>
        <time>2015-04-16T12:11:59Z</time>
      </trkpt>
      <trkpt lat="43.33992" lon="5.2004">
        <ele>117</ele>
        <time>2015-04-16T12:12:00Z</time>
      </trkpt>
      <trkpt lat="43.33993" lon="5.20042">
        <ele>116</ele>
        <time>2015-04-16T12:12:01Z</time>
      </trkpt>
      <trkpt lat="43.33993" lon="5.20044">
        <ele>116</ele>
        <time>2015-04-16T12:12:02Z</time>
      </trkpt>
      <trkpt lat="43.33993" lon="5.20047">
        <ele>116</ele>
        <time>2015-04-16T12:12:03Z</time>
      </trkpt>
      <trkpt lat="43.33994" lon="5.20049">
        <ele>116</ele>
        <time>2015-04-16T12:12:04Z</time>
      </trkpt>
      <trkpt lat="43.33994" lon="5.20051">
        <ele>116</ele>
        <time>2015-04-16T12:12:05Z</time>
      </trkpt>
      <trkpt lat="43.33994" lon="5.20053">
        <ele>116</ele>
        <time>2015-04-16T12:12:06Z</time>
      </trkpt>
      <trkpt lat="43.33995" lon="5.20055">
        <ele>116</ele>
        <time>2015-04-16T12:12:07Z</time>
      </trkpt>
      <trkpt lat="43.33995" lon="5.20057">
        <ele>116</ele>
        <time>2015-04-16T12:12:08Z</time>
      </trkpt>
      <trkpt lat="43.33995" lon="5.20059">
        <ele>116</ele>
        <time>2015-04-16T12:12:09Z</time>
      </trkpt>
      <trkpt lat="43.33995" lon="5.20061">
        <ele>115</ele>
        <time>2015-04-16T12:12:10Z</time>
      </trkpt>
      <trkpt lat="43.33995" lon="5.20063">
        <ele>115</ele>
        <time>2015-04-16T12:12:11Z</time>
      </trkpt>
      <trkpt lat="43.33995" lon="5.20065">
        <ele>115</ele>
        <time>2015-04-16T12:12:12Z</time>
      </trkpt>
      <trkpt lat="43.33996" lon="5.20066">
        <ele>115</ele>
        <time>2015-04-16T12:12:13Z</time>
      </trkpt>
      <trkpt lat="43.33995" lon="5.20069">
        <ele>115</ele>
        <time>2015-04-16T12:12:14Z</time>
      </trkpt>
      <trkpt lat="43.33995" lon="5.20071">
        <ele>115</ele>
        <time>2015-04-16T12:12:15Z</time>
      </trkpt>
      <trkpt lat="43.33995" lon="5.20073">
        <ele>115</ele>
        <time>2015-04-16T12:12:16Z</time>
      </trkpt>
      <trkpt lat="43.33995" lon="5.20075">
        <ele>115</ele>
        <time>2015-04-16T12:12:17Z</time>
      </trkpt>
      <trkpt lat="43.33994" lon="5.20077">
        <ele>115</ele>
        <time>2015-04-16T12:12:18Z</time>
      </trkpt>
      <trkpt lat="43.33994" lon="5.20079">
        <ele>114</ele>
        <time>2015-04-16T12:12:19Z</time>
      </trkpt>
      <trkpt lat="43.33994" lon="5.20081">
        <ele>114</ele>
        <time>2015-04-16T12:12:20Z</time>
      </trkpt>
      <trkpt lat="43.33993" lon="5.20083">
        <ele>114</ele>
        <time>2015-04-16T12:12:21Z</time>
      </trkpt>
      <trkpt lat="43.33993" lon="5.20084">
        <ele>114</ele>
        <time>2015-04-16T12:12:22Z</time>
      </trkpt>
      <trkpt lat="43.33992" lon="5.20087">
        <ele>114</ele>
        <time>2015-04-16T12:12:23Z</time>
      </trkpt>
      <trkpt lat="43.33992" lon="5.20089">
        <ele>114</ele>
        <time>2015-04-16T12:12:24Z</time>
      </trkpt>
      <trkpt lat="43.33991" lon="5.2009">
        <ele>114</ele>
        <time>2015-04-16T12:12:25Z</time>
      </trkpt>
      <trkpt lat="43.3399" lon="5.20092">
        <ele>113</ele>
        <time>2015-04-16T12:12:26Z</time>
      </trkpt>
      <trkpt lat="43.3399" lon="5.20093">
        <ele>113</ele>
        <time>2015-04-16T12:12:27Z</time>
      </trkpt>
      <trkpt lat="43.33989" lon="5.20095">
        <ele>113</ele>
        <time>2015-04-16T12:12:28Z</time>
      </trkpt>
      <trkpt lat="43.33989" lon="5.20097">
        <ele>113</ele>
        <time>2015-04-16T12:12:29Z</time>
      </trkpt>
      <trkpt lat="43.33988" lon="5.20099">
        <ele>113</ele>
        <time>2015-04-16T12:12:30Z</time>
      </trkpt>
      <trkpt lat="43.33987" lon="5.201">
        <ele>113</ele>
        <time>2015-04-16T12:12:31Z</time>
      </trkpt>
      <trkpt lat="43.33986" lon="5.20103">
        <ele>113</ele>
        <time>2015-04-16T12:12:33Z</time>
      </trkpt>
      <trkpt lat="43.33984" lon="5.20105">
        <ele>113</ele>
        <time>2015-04-16T12:12:35Z</time>
      </trkpt>
      <trkpt lat="43.33984" lon="5.20106">
        <ele>112</ele>
        <time>2015-04-16T12:12:36Z</time>
      </trkpt>
      <trkpt lat="43.33982" lon="5.20109">
        <ele>112</ele>
        <time>2015-04-16T12:12:38Z</time>
      </trkpt>
      <trkpt lat="43.33981" lon="5.2011">
        <ele>111</ele>
        <time>2015-04-16T12:12:39Z</time>
      </trkpt>
      <trkpt lat="43.3398" lon="5.20113">
        <ele>111</ele>
        <time>2015-04-16T12:12:41Z</time>
      </trkpt>
      <trkpt lat="43.3398" lon="5.20115">
        <ele>110</ele>
        <time>2015-04-16T12:12:43Z</time>
      </trkpt>
      <trkpt lat="43.3398" lon="5.20117">
        <ele>110</ele>
        <time>2015-04-16T12:12:44Z</time>
      </trkpt>
      <trkpt lat="43.33981" lon="5.20118">
        <ele>109</ele>
        <time>2015-04-16T12:12:45Z</time>
      </trkpt>
      <trkpt lat="43.33982" lon="5.2012">
        <ele>109</ele>
        <time>2015-04-16T12:12:46Z</time>
      </trkpt>
      <trkpt lat="43.33982" lon="5.20123">
        <ele>109</ele>
        <time>2015-04-16T12:12:47Z</time>
      </trkpt>
      <trkpt lat="43.33982" lon="5.20125">
        <ele>109</ele>
        <time>2015-04-16T12:12:48Z</time>
      </trkpt>
      <trkpt lat="43.33982" lon="5.20127">
        <ele>108</ele>
        <time>2015-04-16T12:12:49Z</time>
      </trkpt>
      <trkpt lat="43.33982" lon="5.20129">
        <ele>108</ele>
        <time>2015-04-16T12:12:50Z</time>
      </trkpt>
      <trkpt lat="43.33982" lon="5.20131">
        <ele>108</ele>
        <time>2015-04-16T12:12:51Z</time>
      </trkpt>
      <trkpt lat="43.33982" lon="5.20132">
        <ele>108</ele>
        <time>2015-04-16T12:12:52Z</time>
      </trkpt>
      <trkpt lat="43.33982" lon="5.20134">
        <ele>107</ele>
        <time>2015-04-16T12:12:53Z</time>
      </trkpt>
      <trkpt lat="43.33982" lon="5.20135">
        <ele>107</ele>
        <time>2015-04-16T12:12:54Z</time>
      </trkpt>
      <trkpt lat="43.33982" lon="5.20137">
        <ele>107</ele>
        <time>2015-04-16T12:12:55Z</time>
      </trkpt>
      <trkpt lat="43.33983" lon="5.20139">
        <ele>107</ele>
        <time>2015-04-16T12:12:56Z</time>
      </trkpt>
      <trkpt lat="43.33983" lon="5.2014">
        <ele>106</ele>
        <time>2015-04-16T12:12:57Z</time>
      </trkpt>
      <trkpt lat="43.33984" lon="5.20142">
        <ele>106</ele>
        <time>2015-04-16T12:12:58Z</time>
      </trkpt>
      <trkpt lat="43.33984" lon="5.20144">
        <ele>106</ele>
        <time>2015-04-16T12:12:59Z</time>
      </trkpt>
      <trkpt lat="43.33984" lon="5.20146">
        <ele>106</ele>
        <time>2015-04-16T12:13:00Z</time>
      </trkpt>
      <trkpt lat="43.33985" lon="5.20148">
        <ele>105</ele>
        <time>2015-04-16T12:13:01Z</time>
      </trkpt>
      <trkpt lat="43.33986" lon="5.20149">
        <ele>105</ele>
        <time>2015-04-16T12:13:02Z</time>
      </trkpt>
      <trkpt lat="43.33986" lon="5.20151">
        <ele>104</ele>
        <time>2015-04-16T12:13:03Z</time>
      </trkpt>
      <trkpt lat="43.33987" lon="5.20153">
        <ele>104</ele>
        <time>2015-04-16T12:13:04Z</time>
      </trkpt>
      <trkpt lat="43.33987" lon="5.20155">
        <ele>103</ele>
        <time>2015-04-16T12:13:05Z</time>
      </trkpt>
      <trkpt lat="43.33987" lon="5.20157">
        <ele>103</ele>
        <time>2015-04-16T12:13:06Z</time>
      </trkpt>
      <trkpt lat="43.33987" lon="5.20159">
        <ele>103</ele>
        <time>2015-04-16T12:13:07Z</time>
      </trkpt>
      <trkpt lat="43.33987" lon="5.2016">
        <ele>102</ele>
        <time>2015-04-16T12:13:08Z</time>
      </trkpt>
      <trkpt lat="43.33987" lon="5.20162">
        <ele>102</ele>
        <time>2015-04-16T12:13:09Z</time>
      </trkpt>
      <trkpt lat="43.33987" lon="5.20164">
        <ele>102</ele>
        <time>2015-04-16T12:13:10Z</time>
      </trkpt>
      <trkpt lat="43.33986" lon="5.20166">
        <ele>101</ele>
        <time>2015-04-16T12:13:12Z</time>
      </trkpt>
      <trkpt lat="43.33985" lon="5.20168">
        <ele>101</ele>
        <time>2015-04-16T12:13:13Z</time>
      </trkpt>
      <trkpt lat="43.33984" lon="5.20169">
        <ele>100</ele>
        <time>2015-04-16T12:13:14Z</time>
      </trkpt>
      <trkpt lat="43.33984" lon="5.20171">
        <ele>100</ele>
        <time>2015-04-16T12:13:15Z</time>
      </trkpt>
      <trkpt lat="43.33983" lon="5.20172">
        <ele>100</ele>
        <time>2015-04-16T12:13:16Z</time>
      </trkpt>
      <trkpt lat="43.33983" lon="5.20174">
        <ele>100</ele>
        <time>2015-04-16T12:13:17Z</time>
      </trkpt>
      <trkpt lat="43.33983" lon="5.20176">
        <ele>100</ele>
        <time>2015-04-16T12:13:18Z</time>
      </trkpt>
      <trkpt lat="43.33983" lon="5.20178">
        <ele>100</ele>
        <time>2015-04-16T12:13:19Z</time>
      </trkpt>
      <trkpt lat="43.33982" lon="5.2018">
        <ele>100</ele>
        <time>2015-04-16T12:13:20Z</time>
      </trkpt>
      <trkpt lat="43.33982" lon="5.20182">
        <ele>100</ele>
        <time>2015-04-16T12:13:21Z</time>
      </trkpt>
      <trkpt lat="43.33982" lon="5.20183">
        <ele>99</ele>
        <time>2015-04-16T12:13:22Z</time>
      </trkpt>
      <trkpt lat="43.33982" lon="5.20185">
        <ele>99</ele>
        <time>2015-04-16T12:13:23Z</time>
      </trkpt>
      <trkpt lat="43.33982" lon="5.20186">
        <ele>99</ele>
        <time>2015-04-16T12:13:24Z</time>
      </trkpt>
      <trkpt lat="43.33982" lon="5.20188">
        <ele>99</ele>
        <time>2015-04-16T12:13:25Z</time>
      </trkpt>
      <trkpt lat="43.33982" lon="5.2019">
        <ele>98</ele>
        <time>2015-04-16T12:13:26Z</time>
      </trkpt>
      <trkpt lat="43.33982" lon="5.20191">
        <ele>98</ele>
        <time>2015-04-16T12:13:27Z</time>
      </trkpt>
      <trkpt lat="43.33982" lon="5.20194">
        <ele>98</ele>
        <time>2015-04-16T12:13:29Z</time>
      </trkpt>
      <trkpt lat="43.33982" lon="5.20195">
        <ele>97</ele>
        <time>2015-04-16T12:13:30Z</time>
      </trkpt>
      <trkpt lat="43.33982" lon="5.20197">
        <ele>97</ele>
        <time>2015-04-16T12:13:31Z</time>
      </trkpt>
      <trkpt lat="43.33983" lon="5.20198">
        <ele>97</ele>
        <time>2015-04-16T12:13:32Z</time>
      </trkpt>
      <trkpt lat="43.33983" lon="5.202">
        <ele>96</ele>
        <time>2015-04-16T12:13:33Z</time>
      </trkpt>
      <trkpt lat="43.33983" lon="5.20202">
        <ele>96</ele>
        <time>2015-04-16T12:13:34Z</time>
      </trkpt>
      <trkpt lat="43.33983" lon="5.20203">
        <ele>96</ele>
        <time>2015-04-16T12:13:35Z</time>
      </trkpt>
      <trkpt lat="43.33983" lon="5.20205">
        <ele>96</ele>
        <time>2015-04-16T12:13:36Z</time>
      </trkpt>
      <trkpt lat="43.33983" lon="5.20207">
        <ele>96</ele>
        <time>2015-04-16T12:13:37Z</time>
      </trkpt>
      <trkpt lat="43.33982" lon="5.20209">
        <ele>95</ele>
        <time>2015-04-16T12:13:38Z</time>
      </trkpt>
      <trkpt lat="43.33982" lon="5.20211">
        <ele>95</ele>
        <time>2015-04-16T12:13:39Z</time>
      </trkpt>
      <trkpt lat="43.33982" lon="5.20212">
        <ele>95</ele>
        <time>2015-04-16T12:13:40Z</time>
      </trkpt>
      <trkpt lat="43.33982" lon="5.20214">
        <ele>95</ele>
        <time>2015-04-16T12:13:41Z</time>
      </trkpt>
      <trkpt lat="43.33982" lon="5.20216">
        <ele>95</ele>
        <time>2015-04-16T12:13:42Z</time>
      </trkpt>
      <trkpt lat="43.33982" lon="5.20218">
        <ele>94</ele>
        <time>2015-04-16T12:13:43Z</time>
      </trkpt>
      <trkpt lat="43.33983" lon="5.2022">
        <ele>94</ele>
        <time>2015-04-16T12:13:44Z</time>
      </trkpt>
      <trkpt lat="43.33984" lon="5.20221">
        <ele>94</ele>
        <time>2015-04-16T12:13:45Z</time>
      </trkpt>
      <trkpt lat="43.33984" lon="5.20223">
        <ele>94</ele>
        <time>2015-04-16T12:13:46Z</time>
      </trkpt>
      <trkpt lat="43.33986" lon="5.20225">
        <ele>94</ele>
        <time>2015-04-16T12:13:48Z</time>
      </trkpt>
      <trkpt lat="43.33987" lon="5.20226">
        <ele>94</ele>
        <time>2015-04-16T12:13:49Z</time>
      </trkpt>
      <trkpt lat="43.33989" lon="5.20227">
        <ele>94</ele>
        <time>2015-04-16T12:13:51Z</time>
      </trkpt>
      <trkpt lat="43.3399" lon="5.20229">
        <ele>93</ele>
        <time>2015-04-16T12:13:53Z</time>
      </trkpt>
      <trkpt lat="43.33991" lon="5.20231">
        <ele>93</ele>
        <time>2015-04-16T12:13:55Z</time>
      </trkpt>
      <trkpt lat="43.33991" lon="5.20233">
        <ele>93</ele>
        <time>2015-04-16T12:13:57Z</time>
      </trkpt>
      <trkpt lat="43.33991" lon="5.20235">
        <ele>92</ele>
        <time>2015-04-16T12:13:59Z</time>
      </trkpt>
      <trkpt lat="43.33991" lon="5.20238">
        <ele>92</ele>
        <time>2015-04-16T12:14:01Z</time>
      </trkpt>
      <trkpt lat="43.33991" lon="5.2024">
        <ele>91</ele>
        <time>2015-04-16T12:14:03Z</time>
      </trkpt>
      <trkpt lat="43.3399" lon="5.20242">
        <ele>91</ele>
        <time>2015-04-16T12:14:05Z</time>
      </trkpt>
      <trkpt lat="43.3399" lon="5.20244">
        <ele>90</ele>
        <time>2015-04-16T12:14:07Z</time>
      </trkpt>
      <trkpt lat="43.3399" lon="5.20246">
        <ele>90</ele>
        <time>2015-04-16T12:14:09Z</time>
      </trkpt>
      <trkpt lat="43.3399" lon="5.20248">
        <ele>89</ele>
        <time>2015-04-16T12:14:11Z</time>
      </trkpt>
      <trkpt lat="43.3399" lon="5.20249">
        <ele>89</ele>
        <time>2015-04-16T12:14:12Z</time>
      </trkpt>
      <trkpt lat="43.3399" lon="5.20251">
        <ele>89</ele>
        <time>2015-04-16T12:14:13Z</time>
      </trkpt>
      <trkpt lat="43.3399" lon="5.20253">
        <ele>89</ele>
        <time>2015-04-16T12:14:14Z</time>
      </trkpt>
      <trkpt lat="43.33989" lon="5.20254">
        <ele>88</ele>
        <time>2015-04-16T12:14:15Z</time>
      </trkpt>
      <trkpt lat="43.33989" lon="5.20256">
        <ele>88</ele>
        <time>2015-04-16T12:14:16Z</time>
      </trkpt>
      <trkpt lat="43.33989" lon="5.20258">
        <ele>87</ele>
        <time>2015-04-16T12:14:17Z</time>
      </trkpt>
      <trkpt lat="43.33989" lon="5.2026">
        <ele>87</ele>
        <time>2015-04-16T12:14:18Z</time>
      </trkpt>
      <trkpt lat="43.33988" lon="5.20262">
        <ele>87</ele>
        <time>2015-04-16T12:14:19Z</time>
      </trkpt>
      <trkpt lat="43.33988" lon="5.20265">
        <ele>87</ele>
        <time>2015-04-16T12:14:20Z</time>
      </trkpt>
      <trkpt lat="43.33988" lon="5.20267">
        <ele>87</ele>
        <time>2015-04-16T12:14:21Z</time>
      </trkpt>
      <trkpt lat="43.33989" lon="5.20269">
        <ele>87</ele>
        <time>2015-04-16T12:14:22Z</time>
      </trkpt>
      <trkpt lat="43.3399" lon="5.20272">
        <ele>86</ele>
        <time>2015-04-16T12:14:23Z</time>
      </trkpt>
      <trkpt lat="43.33991" lon="5.20275">
        <ele>86</ele>
        <time>2015-04-16T12:14:24Z</time>
      </trkpt>
      <trkpt lat="43.33993" lon="5.20277">
        <ele>86</ele>
        <time>2015-04-16T12:14:25Z</time>
      </trkpt>
      <trkpt lat="43.33994" lon="5.20279">
        <ele>86</ele>
        <time>2015-04-16T12:14:26Z</time>
      </trkpt>
      <trkpt lat="43.33995" lon="5.20281">
        <ele>85</ele>
        <time>2015-04-16T12:14:27Z</time>
      </trkpt>
      <trkpt lat="43.33997" lon="5.20283">
        <ele>85</ele>
        <time>2015-04-16T12:14:28Z</time>
      </trkpt>
      <trkpt lat="43.33998" lon="5.20284">
        <ele>85</ele>
        <time>2015-04-16T12:14:29Z</time>
      </trkpt>
      <trkpt lat="43.33999" lon="5.20286">
        <ele>85</ele>
        <time>2015-04-16T12:14:30Z</time>
      </trkpt>
      <trkpt lat="43.34" lon="5.20287">
        <ele>85</ele>
        <time>2015-04-16T12:14:31Z</time>
      </trkpt>
      <trkpt lat="43.34002" lon="5.20288">
        <ele>85</ele>
        <time>2015-04-16T12:14:32Z</time>
      </trkpt>
      <trkpt lat="43.34004" lon="5.20289">
        <ele>85</ele>
        <time>2015-04-16T12:14:33Z</time>
      </trkpt>
      <trkpt lat="43.34006" lon="5.20289">
        <ele>85</ele>
        <time>2015-04-16T12:14:34Z</time>
      </trkpt>
      <trkpt lat="43.34008" lon="5.2029">
        <ele>85</ele>
        <time>2015-04-16T12:14:35Z</time>
      </trkpt>
      <trkpt lat="43.3401" lon="5.2029">
        <ele>85</ele>
        <time>2015-04-16T12:14:36Z</time>
      </trkpt>
      <trkpt lat="43.34012" lon="5.20291">
        <ele>85</ele>
        <time>2015-04-16T12:14:37Z</time>
      </trkpt>
      <trkpt lat="43.34013" lon="5.20292">
        <ele>85</ele>
        <time>2015-04-16T12:14:38Z</time>
      </trkpt>
      <trkpt lat="43.34015" lon="5.20292">
        <ele>85</ele>
        <time>2015-04-16T12:14:39Z</time>
      </trkpt>
      <trkpt lat="43.34017" lon="5.20293">
        <ele>85</ele>
        <time>2015-04-16T12:14:40Z</time>
      </trkpt>
      <trkpt lat="43.34018" lon="5.20294">
        <ele>85</ele>
        <time>2015-04-16T12:14:41Z</time>
      </trkpt>
      <trkpt lat="43.3402" lon="5.20295">
        <ele>85</ele>
        <time>2015-04-16T12:14:42Z</time>
      </trkpt>
      <trkpt lat="43.34021" lon="5.20296">
        <ele>85</ele>
        <time>2015-04-16T12:14:44Z</time>
      </trkpt>
      <trkpt lat="43.34023" lon="5.20297">
        <ele>85</ele>
        <time>2015-04-16T12:14:45Z</time>
      </trkpt>
      <trkpt lat="43.34024" lon="5.20298">
        <ele>85</ele>
        <time>2015-04-16T12:14:46Z</time>
      </trkpt>
      <trkpt lat="43.34026" lon="5.20299">
        <ele>85</ele>
        <time>2015-04-16T12:14:47Z</time>
      </trkpt>
      <trkpt lat="43.34028" lon="5.203">
        <ele>85</ele>
        <time>2015-04-16T12:14:48Z</time>
      </trkpt>
      <trkpt lat="43.3403" lon="5.20301">
        <ele>85</ele>
        <time>2015-04-16T12:14:49Z</time>
      </trkpt>
      <trkpt lat="43.34031" lon="5.20302">
        <ele>85</ele>
        <time>2015-04-16T12:14:50Z</time>
      </trkpt>
      <trkpt lat="43.34033" lon="5.20303">
        <ele>85</ele>
        <time>2015-04-16T12:14:51Z</time>
      </trkpt>
      <trkpt lat="43.34035" lon="5.20304">
        <ele>85</ele>
        <time>2015-04-16T12:14:52Z</time>
      </trkpt>
      <trkpt lat="43.34037" lon="5.20305">
        <ele>85</ele>
        <time>2015-04-16T12:14:53Z</time>
      </trkpt>
      <trkpt lat="43.34038" lon="5.20306">
        <ele>85</ele>
        <time>2015-04-16T12:14:54Z</time>
      </trkpt>
      <trkpt lat="43.3404" lon="5.20307">
        <ele>85</ele>
        <time>2015-04-16T12:14:55Z</time>
      </trkpt>
      <trkpt lat="43.34041" lon="5.20308">
        <ele>85</ele>
        <time>2015-04-16T12:14:56Z</time>
      </trkpt>
      <trkpt lat="43.34043" lon="5.20309">
        <ele>85</ele>
        <time>2015-04-16T12:14:57Z</time>
      </trkpt>
      <trkpt lat="43.34044" lon="5.2031">
        <ele>85</ele>
        <time>2015-04-16T12:14:58Z</time>
      </trkpt>
      <trkpt lat="43.34045" lon="5.20311">
        <ele>85</ele>
        <time>2015-04-16T12:14:59Z</time>
      </trkpt>
      <trkpt lat="43.34047" lon="5.20311">
        <ele>85</ele>
        <time>2015-04-16T12:15:01Z</time>
      </trkpt>
      <trkpt lat="43.34049" lon="5.20312">
        <ele>85</ele>
        <time>2015-04-16T12:15:02Z</time>
      </trkpt>
      <trkpt lat="43.3405" lon="5.20313">
        <ele>85</ele>
        <time>2015-04-16T12:15:03Z</time>
      </trkpt>
      <trkpt lat="43.34052" lon="5.20313">
        <ele>85</ele>
        <time>2015-04-16T12:15:04Z</time>
      </trkpt>
      <trkpt lat="43.34053" lon="5.20314">
        <ele>85</ele>
        <time>2015-04-16T12:15:05Z</time>
      </trkpt>
      <trkpt lat="43.34055" lon="5.20315">
        <ele>85</ele>
        <time>2015-04-16T12:15:06Z</time>
      </trkpt>
      <trkpt lat="43.34056" lon="5.20316">
        <ele>85</ele>
        <time>2015-04-16T12:15:07Z</time>
      </trkpt>
      <trkpt lat="43.34058" lon="5.20316">
        <ele>85</ele>
        <time>2015-04-16T12:15:08Z</time>
      </trkpt>
      <trkpt lat="43.34059" lon="5.20317">
        <ele>85</ele>
        <time>2015-04-16T12:15:09Z</time>
      </trkpt>
      <trkpt lat="43.34061" lon="5.20318">
        <ele>85</ele>
        <time>2015-04-16T12:15:10Z</time>
      </trkpt>
      <trkpt lat="43.34063" lon="5.20319">
        <ele>85</ele>
        <time>2015-04-16T12:15:11Z</time>
      </trkpt>
      <trkpt lat="43.34064" lon="5.2032">
        <ele>85</ele>
        <time>2015-04-16T12:15:12Z</time>
      </trkpt>
      <trkpt lat="43.34066" lon="5.2032">
        <ele>85</ele>
        <time>2015-04-16T12:15:13Z</time>
      </trkpt>
      <trkpt lat="43.34067" lon="5.20321">
        <ele>85</ele>
        <time>2015-04-16T12:15:14Z</time>
      </trkpt>
      <trkpt lat="43.34069" lon="5.20322">
        <ele>85</ele>
        <time>2015-04-16T12:15:15Z</time>
      </trkpt>
      <trkpt lat="43.34071" lon="5.20323">
        <ele>85</ele>
        <time>2015-04-16T12:15:16Z</time>
      </trkpt>
      <trkpt lat="43.34072" lon="5.20324">
        <ele>85</ele>
        <time>2015-04-16T12:15:17Z</time>
      </trkpt>
      <trkpt lat="43.34074" lon="5.20325">
        <ele>85</ele>
        <time>2015-04-16T12:15:18Z</time>
      </trkpt>
      <trkpt lat="43.34075" lon="5.20326">
        <ele>85</ele>
        <time>2015-04-16T12:15:19Z</time>
      </trkpt>
      <trkpt lat="43.34076" lon="5.20327">
        <ele>85</ele>
        <time>2015-04-16T12:15:20Z</time>
      </trkpt>
      <trkpt lat="43.34078" lon="5.20328">
        <ele>85</ele>
        <time>2015-04-16T12:15:21Z</time>
      </trkpt>
      <trkpt lat="43.34079" lon="5.20329">
        <ele>85</ele>
        <time>2015-04-16T12:15:22Z</time>
      </trkpt>
      <trkpt lat="43.34081" lon="5.20329">
        <ele>85</ele>
        <time>2015-04-16T12:15:23Z</time>
      </trkpt>
      <trkpt lat="43.34082" lon="5.2033">
        <ele>85</ele>
        <time>2015-04-16T12:15:24Z</time>
      </trkpt>
      <trkpt lat="43.34083" lon="5.20331">
        <ele>85</ele>
        <time>2015-04-16T12:15:25Z</time>
      </trkpt>
      <trkpt lat="43.34085" lon="5.20332">
        <ele>85</ele>
        <time>2015-04-16T12:15:26Z</time>
      </trkpt>
      <trkpt lat="43.34086" lon="5.20333">
        <ele>85</ele>
        <time>2015-04-16T12:15:27Z</time>
      </trkpt>
      <trkpt lat="43.34088" lon="5.20334">
        <ele>85</ele>
        <time>2015-04-16T12:15:28Z</time>
      </trkpt>
      <trkpt lat="43.34089" lon="5.20335">
        <ele>85</ele>
        <time>2015-04-16T12:15:29Z</time>
      </trkpt>
      <trkpt lat="43.34091" lon="5.20336">
        <ele>85</ele>
        <time>2015-04-16T12:15:30Z</time>
      </trkpt>
      <trkpt lat="43.34093" lon="5.20337">
        <ele>85</ele>
        <time>2015-04-16T12:15:31Z</time>
      </trkpt>
      <trkpt lat="43.34094" lon="5.20337">
        <ele>85</ele>
        <time>2015-04-16T12:15:32Z</time>
      </trkpt>
      <trkpt lat="43.34096" lon="5.20338">
        <ele>85</ele>
        <time>2015-04-16T12:15:33Z</time>
      </trkpt>
      <trkpt lat="43.34097" lon="5.20339">
        <ele>85</ele>
        <time>2015-04-16T12:15:34Z</time>
      </trkpt>
      <trkpt lat="43.34099" lon="5.2034">
        <ele>85</ele>
        <time>2015-04-16T12:15:35Z</time>
      </trkpt>
      <trkpt lat="43.341" lon="5.2034">
        <ele>85</ele>
        <time>2015-04-16T12:15:36Z</time>
      </trkpt>
      <trkpt lat="43.34101" lon="5.20341">
        <ele>85</ele>
        <time>2015-04-16T12:15:37Z</time>
      </trkpt>
      <trkpt lat="43.34103" lon="5.20342">
        <ele>85</ele>
        <time>2015-04-16T12:15:38Z</time>
      </trkpt>
      <trkpt lat="43.34104" lon="5.20343">
        <ele>85</ele>
        <time>2015-04-16T12:15:39Z</time>
      </trkpt>
      <trkpt lat="43.34106" lon="5.20344">
        <ele>85</ele>
        <time>2015-04-16T12:15:40Z</time>
      </trkpt>
      <trkpt lat="43.34107" lon="5.20344">
        <ele>85</ele>
        <time>2015-04-16T12:15:41Z</time>
      </trkpt>
      <trkpt lat="43.34109" lon="5.20345">
        <ele>85</ele>
        <time>2015-04-16T12:15:42Z</time>
      </trkpt>
      <trkpt lat="43.3411" lon="5.20345">
        <ele>85</ele>
        <time>2015-04-16T12:15:43Z</time>
      </trkpt>
      <trkpt lat="43.34112" lon="5.20346">
        <ele>85</ele>
        <time>2015-04-16T12:15:44Z</time>
      </trkpt>
      <trkpt lat="43.34113" lon="5.20346">
        <ele>86</ele>
        <time>2015-04-16T12:15:45Z</time>
      </trkpt>
      <trkpt lat="43.34115" lon="5.20346">
        <ele>86</ele>
        <time>2015-04-16T12:15:46Z</time>
      </trkpt>
      <trkpt lat="43.34116" lon="5.20347">
        <ele>86</ele>
        <time>2015-04-16T12:15:47Z</time>
      </trkpt>
      <trkpt lat="43.34118" lon="5.20347">
        <ele>86</ele>
        <time>2015-04-16T12:15:48Z</time>
      </trkpt>
      <trkpt lat="43.34119" lon="5.20348">
        <ele>86</ele>
        <time>2015-04-16T12:15:49Z</time>
      </trkpt>
      <trkpt lat="43.3412" lon="5.20349">
        <ele>86</ele>
        <time>2015-04-16T12:15:50Z</time>
      </trkpt>
      <trkpt lat="43.34122" lon="5.20349">
        <ele>86</ele>
        <time>2015-04-16T12:15:51Z</time>
      </trkpt>
      <trkpt lat="43.34124" lon="5.2035">
        <ele>86</ele>
        <time>2015-04-16T12:15:52Z</time>
      </trkpt>
      <trkpt lat="43.34125" lon="5.2035">
        <ele>86</ele>
        <time>2015-04-16T12:15:53Z</time>
      </trkpt>
      <trkpt lat="43.34127" lon="5.20352">
        <ele>86</ele>
        <time>2015-04-16T12:15:54Z</time>
      </trkpt>
      <trkpt lat="43.34128" lon="5.20353">
        <ele>86</ele>
        <time>2015-04-16T12:15:55Z</time>
      </trkpt>
      <trkpt lat="43.3413" lon="5.20355">
        <ele>86</ele>
        <time>2015-04-16T12:15:57Z</time>
      </trkpt>
      <trkpt lat="43.34131" lon="5.20356">
        <ele>86</ele>
        <time>2015-04-16T12:15:58Z</time>
      </trkpt>
      <trkpt lat="43.34132" lon="5.20357">
        <ele>86</ele>
        <time>2015-04-16T12:15:59Z</time>
      </trkpt>
      <trkpt lat="43.34134" lon="5.2036">
        <ele>86</ele>
        <time>2015-04-16T12:16:01Z</time>
      </trkpt>
      <trkpt lat="43.34136" lon="5.20361">
        <ele>86</ele>
        <time>2015-04-16T12:16:02Z</time>
      </trkpt>
      <trkpt lat="43.34137" lon="5.20362">
        <ele>86</ele>
        <time>2015-04-16T12:16:03Z</time>
      </trkpt>
      <trkpt lat="43.34138" lon="5.20363">
        <ele>86</ele>
        <time>2015-04-16T12:16:04Z</time>
      </trkpt>
      <trkpt lat="43.34139" lon="5.20364">
        <ele>86</ele>
        <time>2015-04-16T12:16:05Z</time>
      </trkpt>
      <trkpt lat="43.3414" lon="5.20365">
        <ele>86</ele>
        <time>2015-04-16T12:16:06Z</time>
      </trkpt>
      <trkpt lat="43.34142" lon="5.20367">
        <ele>86</ele>
        <time>2015-04-16T12:16:08Z</time>
      </trkpt>
      <trkpt lat="43.34144" lon="5.20368">
        <ele>86</ele>
        <time>2015-04-16T12:16:09Z</time>
      </trkpt>
      <trkpt lat="43.34145" lon="5.20369">
        <ele>87</ele>
        <time>2015-04-16T12:16:10Z</time>
      </trkpt>
      <trkpt lat="43.34146" lon="5.2037">
        <ele>87</ele>
        <time>2015-04-16T12:16:11Z</time>
      </trkpt>
      <trkpt lat="43.34148" lon="5.20371">
        <ele>87</ele>
        <time>2015-04-16T12:16:12Z</time>
      </trkpt>
      <trkpt lat="43.34149" lon="5.20372">
        <ele>87</ele>
        <time>2015-04-16T12:16:13Z</time>
      </trkpt>
      <trkpt lat="43.3415" lon="5.20373">
        <ele>87</ele>
        <time>2015-04-16T12:16:14Z</time>
      </trkpt>
      <trkpt lat="43.34152" lon="5.20376">
        <ele>87</ele>
        <time>2015-04-16T12:16:16Z</time>
      </trkpt>
      <trkpt lat="43.34153" lon="5.20377">
        <ele>87</ele>
        <time>2015-04-16T12:16:17Z</time>
      </trkpt>
      <trkpt lat="43.34155" lon="5.20379">
        <ele>87</ele>
        <time>2015-04-16T12:16:19Z</time>
      </trkpt>
      <trkpt lat="43.34157" lon="5.20381">
        <ele>87</ele>
        <time>2015-04-16T12:16:21Z</time>
      </trkpt>
      <trkpt lat="43.34159" lon="5.20383">
        <ele>87</ele>
        <time>2015-04-16T12:16:23Z</time>
      </trkpt>
      <trkpt lat="43.3416" lon="5.20384">
        <ele>87</ele>
        <time>2015-04-16T12:16:24Z</time>
      </trkpt>
      <trkpt lat="43.34161" lon="5.20385">
        <ele>87</ele>
        <time>2015-04-16T12:16:25Z</time>
      </trkpt>
      <trkpt lat="43.34163" lon="5.20386">
        <ele>87</ele>
        <time>2015-04-16T12:16:27Z</time>
      </trkpt>
      <trkpt lat="43.34164" lon="5.20387">
        <ele>88</ele>
        <time>2015-04-16T12:16:28Z</time>
      </trkpt>
      <trkpt lat="43.34165" lon="5.20388">
        <ele>88</ele>
        <time>2015-04-16T12:16:29Z</time>
      </trkpt>
      <trkpt lat="43.34166" lon="5.20389">
        <ele>88</ele>
        <time>2015-04-16T12:16:30Z</time>
      </trkpt>
      <trkpt lat="43.34169" lon="5.20391">
        <ele>88</ele>
        <time>2015-04-16T12:16:32Z</time>
      </trkpt>
      <trkpt lat="43.34171" lon="5.20393">
        <ele>88</ele>
        <time>2015-04-16T12:16:34Z</time>
      </trkpt>
      <trkpt lat="43.34172" lon="5.20394">
        <ele>88</ele>
        <time>2015-04-16T12:16:35Z</time>
      </trkpt>
      <trkpt lat="43.34174" lon="5.20395">
        <ele>88</ele>
        <time>2015-04-16T12:16:36Z</time>
      </trkpt>
      <trkpt lat="43.34175" lon="5.20396">
        <ele>88</ele>
        <time>2015-04-16T12:16:37Z</time>
      </trkpt>
      <trkpt lat="43.34177" lon="5.20397">
        <ele>88</ele>
        <time>2015-04-16T12:16:38Z</time>
      </trkpt>
      <trkpt lat="43.34178" lon="5.20398">
        <ele>88</ele>
        <time>2015-04-16T12:16:39Z</time>
      </trkpt>
      <trkpt lat="43.3418" lon="5.20398">
        <ele>88</ele>
        <time>2015-04-16T12:16:40Z</time>
      </trkpt>
      <trkpt lat="43.34181" lon="5.20399">
        <ele>88</ele>
        <time>2015-04-16T12:16:41Z</time>
      </trkpt>
      <trkpt lat="43.34183" lon="5.204">
        <ele>88</ele>
        <time>2015-04-16T12:16:42Z</time>
      </trkpt>
      <trkpt lat="43.34184" lon="5.204">
        <ele>89</ele>
        <time>2015-04-16T12:16:43Z</time>
      </trkpt>
      <trkpt lat="43.34185" lon="5.20401">
        <ele>89</ele>
        <time>2015-04-16T12:16:44Z</time>
      </trkpt>
      <trkpt lat="43.34187" lon="5.20402">
        <ele>89</ele>
        <time>2015-04-16T12:16:45Z</time>
      </trkpt>
      <trkpt lat="43.34188" lon="5.20403">
        <ele>89</ele>
        <time>2015-04-16T12:16:46Z</time>
      </trkpt>
      <trkpt lat="43.3419" lon="5.20404">
        <ele>89</ele>
        <time>2015-04-16T12:16:47Z</time>
      </trkpt>
      <trkpt lat="43.34191" lon="5.20405">
        <ele>89</ele>
        <time>2015-04-16T12:16:48Z</time>
      </trkpt>
      <trkpt lat="43.34192" lon="5.20406">
        <ele>89</ele>
        <time>2015-04-16T12:16:49Z</time>
      </trkpt>
      <trkpt lat="43.34193" lon="5.20406">
        <ele>89</ele>
        <time>2015-04-16T12:16:50Z</time>
      </trkpt>
      <trkpt lat="43.34195" lon="5.20407">
        <ele>89</ele>
        <time>2015-04-16T12:16:51Z</time>
      </trkpt>
      <trkpt lat="43.34196" lon="5.20408">
        <ele>89</ele>
        <time>2015-04-16T12:16:52Z</time>
      </trkpt>
      <trkpt lat="43.34197" lon="5.20409">
        <ele>89</ele>
        <time>2015-04-16T12:16:53Z</time>
      </trkpt>
      <trkpt lat="43.342" lon="5.20412">
        <ele>90</ele>
        <time>2015-04-16T12:16:55Z</time>
      </trkpt>
      <trkpt lat="43.34202" lon="5.20414">
        <ele>90</ele>
        <time>2015-04-16T12:16:57Z</time>
      </trkpt>
      <trkpt lat="43.34203" lon="5.20415">
        <ele>90</ele>
        <time>2015-04-16T12:16:58Z</time>
      </trkpt>
      <trkpt lat="43.34204" lon="5.20416">
        <ele>90</ele>
        <time>2015-04-16T12:16:59Z</time>
      </trkpt>
      <trkpt lat="43.34206" lon="5.20419">
        <ele>90</ele>
        <time>2015-04-16T12:17:01Z</time>
      </trkpt>
      <trkpt lat="43.34208" lon="5.2042">
        <ele>90</ele>
        <time>2015-04-16T12:17:02Z</time>
      </trkpt>
      <trkpt lat="43.34209" lon="5.20422">
        <ele>90</ele>
        <time>2015-04-16T12:17:03Z</time>
      </trkpt>
      <trkpt lat="43.3421" lon="5.20423">
        <ele>90</ele>
        <time>2015-04-16T12:17:04Z</time>
      </trkpt>
      <trkpt lat="43.34211" lon="5.20424">
        <ele>90</ele>
        <time>2015-04-16T12:17:05Z</time>
      </trkpt>
      <trkpt lat="43.34213" lon="5.20426">
        <ele>90</ele>
        <time>2015-04-16T12:17:06Z</time>
      </trkpt>
      <trkpt lat="43.34214" lon="5.20427">
        <ele>90</ele>
        <time>2015-04-16T12:17:07Z</time>
      </trkpt>
      <trkpt lat="43.34215" lon="5.20428">
        <ele>91</ele>
        <time>2015-04-16T12:17:08Z</time>
      </trkpt>
      <trkpt lat="43.34217" lon="5.20429">
        <ele>91</ele>
        <time>2015-04-16T12:17:09Z</time>
      </trkpt>
      <trkpt lat="43.34218" lon="5.2043">
        <ele>91</ele>
        <time>2015-04-16T12:17:10Z</time>
      </trkpt>
      <trkpt lat="43.34219" lon="5.20431">
        <ele>92</ele>
        <time>2015-04-16T12:17:11Z</time>
      </trkpt>
      <trkpt lat="43.34221" lon="5.20431">
        <ele>92</ele>
        <time>2015-04-16T12:17:12Z</time>
      </trkpt>
      <trkpt lat="43.34222" lon="5.20432">
        <ele>92</ele>
        <time>2015-04-16T12:17:13Z</time>
      </trkpt>
      <trkpt lat="43.34223" lon="5.20433">
        <ele>92</ele>
        <time>2015-04-16T12:17:14Z</time>
      </trkpt>
      <trkpt lat="43.34224" lon="5.20435">
        <ele>93</ele>
        <time>2015-04-16T12:17:15Z</time>
      </trkpt>
      <trkpt lat="43.34226" lon="5.20436">
        <ele>93</ele>
        <time>2015-04-16T12:17:16Z</time>
      </trkpt>
      <trkpt lat="43.34227" lon="5.20438">
        <ele>93</ele>
        <time>2015-04-16T12:17:18Z</time>
      </trkpt>
      <trkpt lat="43.3423" lon="5.20439">
        <ele>93</ele>
        <time>2015-04-16T12:17:20Z</time>
      </trkpt>
      <trkpt lat="43.34232" lon="5.20441">
        <ele>93</ele>
        <time>2015-04-16T12:17:22Z</time>
      </trkpt>
      <trkpt lat="43.34233" lon="5.20442">
        <ele>93</ele>
        <time>2015-04-16T12:17:23Z</time>
      </trkpt>
      <trkpt lat="43.34235" lon="5.20444">
        <ele>93</ele>
        <time>2015-04-16T12:17:25Z</time>
      </trkpt>
      <trkpt lat="43.34237" lon="5.20446">
        <ele>93</ele>
        <time>2015-04-16T12:17:27Z</time>
      </trkpt>
      <trkpt lat="43.34238" lon="5.20447">
        <ele>93</ele>
        <time>2015-04-16T12:17:28Z</time>
      </trkpt>
      <trkpt lat="43.3424" lon="5.2045">
        <ele>93</ele>
        <time>2015-04-16T12:17:30Z</time>
      </trkpt>
      <trkpt lat="43.34241" lon="5.20451">
        <ele>93</ele>
        <time>2015-04-16T12:17:31Z</time>
      </trkpt>
      <trkpt lat="43.34242" lon="5.20453">
        <ele>92</ele>
        <time>2015-04-16T12:17:32Z</time>
      </trkpt>
      <trkpt lat="43.34243" lon="5.20455">
        <ele>92</ele>
        <time>2015-04-16T12:17:33Z</time>
      </trkpt>
      <trkpt lat="43.34245" lon="5.20457">
        <ele>91</ele>
        <time>2015-04-16T12:17:35Z</time>
      </trkpt>
      <trkpt lat="43.34246" lon="5.20459">
        <ele>90</ele>
        <time>2015-04-16T12:17:36Z</time>
      </trkpt>
      <trkpt lat="43.34247" lon="5.20461">
        <ele>90</ele>
        <time>2015-04-16T12:17:37Z</time>
      </trkpt>
      <trkpt lat="43.34248" lon="5.20463">
        <ele>89</ele>
        <time>2015-04-16T12:17:39Z</time>
      </trkpt>
      <trkpt lat="43.34249" lon="5.20465">
        <ele>88</ele>
        <time>2015-04-16T12:17:41Z</time>
      </trkpt>
      <trkpt lat="43.34251" lon="5.20467">
        <ele>88</ele>
        <time>2015-04-16T12:17:42Z</time>
      </trkpt>
      <trkpt lat="43.34252" lon="5.20468">
        <ele>87</ele>
        <time>2015-04-16T12:17:43Z</time>
      </trkpt>
      <trkpt lat="43.34253" lon="5.20469">
        <ele>87</ele>
        <time>2015-04-16T12:17:44Z</time>
      </trkpt>
      <trkpt lat="43.34255" lon="5.2047">
        <ele>87</ele>
        <time>2015-04-16T12:17:45Z</time>
      </trkpt>
      <trkpt lat="43.34256" lon="5.20471">
        <ele>87</ele>
        <time>2015-04-16T12:17:46Z</time>
      </trkpt>
      <trkpt lat="43.34257" lon="5.20472">
        <ele>87</ele>
        <time>2015-04-16T12:17:47Z</time>
      </trkpt>
      <trkpt lat="43.34259" lon="5.20473">
        <ele>87</ele>
        <time>2015-04-16T12:17:48Z</time>
      </trkpt>
      <trkpt lat="43.3426" lon="5.20474">
        <ele>87</ele>
        <time>2015-04-16T12:17:49Z</time>
      </trkpt>
      <trkpt lat="43.34261" lon="5.20475">
        <ele>87</ele>
        <time>2015-04-16T12:17:50Z</time>
      </trkpt>
      <trkpt lat="43.34262" lon="5.20476">
        <ele>87</ele>
        <time>2015-04-16T12:17:51Z</time>
      </trkpt>
      <trkpt lat="43.34263" lon="5.20478">
        <ele>87</ele>
        <time>2015-04-16T12:17:52Z</time>
      </trkpt>
      <trkpt lat="43.34264" lon="5.20479">
        <ele>87</ele>
        <time>2015-04-16T12:17:53Z</time>
      </trkpt>
      <trkpt lat="43.34266" lon="5.20482">
        <ele>87</ele>
        <time>2015-04-16T12:17:55Z</time>
      </trkpt>
      <trkpt lat="43.34267" lon="5.20483">
        <ele>87</ele>
        <time>2015-04-16T12:17:56Z</time>
      </trkpt>
      <trkpt lat="43.34267" lon="5.20485">
        <ele>87</ele>
        <time>2015-04-16T12:17:57Z</time>
      </trkpt>
      <trkpt lat="43.34268" lon="5.20487">
        <ele>87</ele>
        <time>2015-04-16T12:17:58Z</time>
      </trkpt>
      <trkpt lat="43.34269" lon="5.20489">
        <ele>86</ele>
        <time>2015-04-16T12:17:59Z</time>
      </trkpt>
      <trkpt lat="43.34269" lon="5.20491">
        <ele>86</ele>
        <time>2015-04-16T12:18:00Z</time>
      </trkpt>
      <trkpt lat="43.34269" lon="5.20493">
        <ele>86</ele>
        <time>2015-04-16T12:18:01Z</time>
      </trkpt>
      <trkpt lat="43.34268" lon="5.20495">
        <ele>86</ele>
        <time>2015-04-16T12:18:02Z</time>
      </trkpt>
      <trkpt lat="43.34267" lon="5.20497">
        <ele>86</ele>
        <time>2015-04-16T12:18:03Z</time>
      </trkpt>
      <trkpt lat="43.34267" lon="5.20498">
        <ele>86</ele>
        <time>2015-04-16T12:18:04Z</time>
      </trkpt>
      <trkpt lat="43.34266" lon="5.205">
        <ele>86</ele>
        <time>2015-04-16T12:18:05Z</time>
      </trkpt>
      <trkpt lat="43.34265" lon="5.20502">
        <ele>86</ele>
        <time>2015-04-16T12:18:06Z</time>
      </trkpt>
      <trkpt lat="43.34264" lon="5.20504">
        <ele>86</ele>
        <time>2015-04-16T12:18:07Z</time>
      </trkpt>
      <trkpt lat="43.34263" lon="5.20506">
        <ele>86</ele>
        <time>2015-04-16T12:18:08Z</time>
      </trkpt>
      <trkpt lat="43.34262" lon="5.20507">
        <ele>86</ele>
        <time>2015-04-16T12:18:09Z</time>
      </trkpt>
      <trkpt lat="43.34261" lon="5.20509">
        <ele>86</ele>
        <time>2015-04-16T12:18:10Z</time>
      </trkpt>
      <trkpt lat="43.34261" lon="5.20511">
        <ele>86</ele>
        <time>2015-04-16T12:18:11Z</time>
      </trkpt>
      <trkpt lat="43.3426" lon="5.20513">
        <ele>86</ele>
        <time>2015-04-16T12:18:12Z</time>
      </trkpt>
      <trkpt lat="43.34259" lon="5.20514">
        <ele>86</ele>
        <time>2015-04-16T12:18:13Z</time>
      </trkpt>
      <trkpt lat="43.34258" lon="5.20516">
        <ele>86</ele>
        <time>2015-04-16T12:18:14Z</time>
      </trkpt>
      <trkpt lat="43.34257" lon="5.20518">
        <ele>86</ele>
        <time>2015-04-16T12:18:15Z</time>
      </trkpt>
      <trkpt lat="43.34257" lon="5.2052">
        <ele>86</ele>
        <time>2015-04-16T12:18:16Z</time>
      </trkpt>
      <trkpt lat="43.34256" lon="5.20521">
        <ele>86</ele>
        <time>2015-04-16T12:18:17Z</time>
      </trkpt>
      <trkpt lat="43.34256" lon="5.20523">
        <ele>86</ele>
        <time>2015-04-16T12:18:18Z</time>
      </trkpt>
      <trkpt lat="43.34255" lon="5.20525">
        <ele>86</ele>
        <time>2015-04-16T12:18:19Z</time>
      </trkpt>
      <trkpt lat="43.34254" lon="5.20526">
        <ele>86</ele>
        <time>2015-04-16T12:18:20Z</time>
      </trkpt>
      <trkpt lat="43.34254" lon="5.20528">
        <ele>86</ele>
        <time>2015-04-16T12:18:21Z</time>
      </trkpt>
      <trkpt lat="43.34253" lon="5.2053">
        <ele>86</ele>
        <time>2015-04-16T12:18:22Z</time>
      </trkpt>
      <trkpt lat="43.34253" lon="5.20532">
        <ele>86</ele>
        <time>2015-04-16T12:18:23Z</time>
      </trkpt>
      <trkpt lat="43.34252" lon="5.20534">
        <ele>86</ele>
        <time>2015-04-16T12:18:24Z</time>
      </trkpt>
      <trkpt lat="43.34251" lon="5.20535">
        <ele>86</ele>
        <time>2015-04-16T12:18:25Z</time>
      </trkpt>
      <trkpt lat="43.34251" lon="5.20537">
        <ele>86</ele>
        <time>2015-04-16T12:18:26Z</time>
      </trkpt>
      <trkpt lat="43.3425" lon="5.20538">
        <ele>86</ele>
        <time>2015-04-16T12:18:27Z</time>
      </trkpt>
      <trkpt lat="43.34249" lon="5.2054">
        <ele>86</ele>
        <time>2015-04-16T12:18:28Z</time>
      </trkpt>
      <trkpt lat="43.34249" lon="5.20542">
        <ele>86</ele>
        <time>2015-04-16T12:18:29Z</time>
      </trkpt>
      <trkpt lat="43.34248" lon="5.20543">
        <ele>86</ele>
        <time>2015-04-16T12:18:30Z</time>
      </trkpt>
      <trkpt lat="43.34248" lon="5.20545">
        <ele>86</ele>
        <time>2015-04-16T12:18:31Z</time>
      </trkpt>
      <trkpt lat="43.34247" lon="5.20546">
        <ele>86</ele>
        <time>2015-04-16T12:18:32Z</time>
      </trkpt>
      <trkpt lat="43.34246" lon="5.20548">
        <ele>86</ele>
        <time>2015-04-16T12:18:33Z</time>
      </trkpt>
      <trkpt lat="43.34246" lon="5.20549">
        <ele>86</ele>
        <time>2015-04-16T12:18:34Z</time>
      </trkpt>
      <trkpt lat="43.34246" lon="5.20551">
        <ele>86</ele>
        <time>2015-04-16T12:18:35Z</time>
      </trkpt>
      <trkpt lat="43.34245" lon="5.20553">
        <ele>86</ele>
        <time>2015-04-16T12:18:36Z</time>
      </trkpt>
      <trkpt lat="43.34244" lon="5.20555">
        <ele>86</ele>
        <time>2015-04-16T12:18:37Z</time>
      </trkpt>
      <trkpt lat="43.34243" lon="5.20557">
        <ele>86</ele>
        <time>2015-04-16T12:18:39Z</time>
      </trkpt>
      <trkpt lat="43.34243" lon="5.20559">
        <ele>86</ele>
        <time>2015-04-16T12:18:40Z</time>
      </trkpt>
      <trkpt lat="43.34242" lon="5.20561">
        <ele>86</ele>
        <time>2015-04-16T12:18:41Z</time>
      </trkpt>
      <trkpt lat="43.34241" lon="5.20562">
        <ele>86</ele>
        <time>2015-04-16T12:18:42Z</time>
      </trkpt>
      <trkpt lat="43.3424" lon="5.20564">
        <ele>86</ele>
        <time>2015-04-16T12:18:43Z</time>
      </trkpt>
      <trkpt lat="43.3424" lon="5.20566">
        <ele>86</ele>
        <time>2015-04-16T12:18:44Z</time>
      </trkpt>
      <trkpt lat="43.3424" lon="5.20567">
        <ele>86</ele>
        <time>2015-04-16T12:18:45Z</time>
      </trkpt>
      <trkpt lat="43.34239" lon="5.2057">
        <ele>86</ele>
        <time>2015-04-16T12:18:47Z</time>
      </trkpt>
      <trkpt lat="43.34238" lon="5.20572">
        <ele>86</ele>
        <time>2015-04-16T12:18:48Z</time>
      </trkpt>
      <trkpt lat="43.34237" lon="5.20573">
        <ele>86</ele>
        <time>2015-04-16T12:18:49Z</time>
      </trkpt>
      <trkpt lat="43.34236" lon="5.20575">
        <ele>86</ele>
        <time>2015-04-16T12:18:50Z</time>
      </trkpt>
      <trkpt lat="43.34235" lon="5.20577">
        <ele>86</ele>
        <time>2015-04-16T12:18:52Z</time>
      </trkpt>
      <trkpt lat="43.34234" lon="5.20579">
        <ele>86</ele>
        <time>2015-04-16T12:18:53Z</time>
      </trkpt>
      <trkpt lat="43.34232" lon="5.20581">
        <ele>86</ele>
        <time>2015-04-16T12:18:55Z</time>
      </trkpt>
      <trkpt lat="43.3423" lon="5.20584">
        <ele>86</ele>
        <time>2015-04-16T12:18:57Z</time>
      </trkpt>
      <trkpt lat="43.34229" lon="5.20585">
        <ele>86</ele>
        <time>2015-04-16T12:18:58Z</time>
      </trkpt>
      <trkpt lat="43.34228" lon="5.20586">
        <ele>86</ele>
        <time>2015-04-16T12:18:59Z</time>
      </trkpt>
      <trkpt lat="43.34227" lon="5.20588">
        <ele>86</ele>
        <time>2015-04-16T12:19:00Z</time>
      </trkpt>
      <trkpt lat="43.34226" lon="5.20589">
        <ele>86</ele>
        <time>2015-04-16T12:19:01Z</time>
      </trkpt>
      <trkpt lat="43.34225" lon="5.20591">
        <ele>86</ele>
        <time>2015-04-16T12:19:02Z</time>
      </trkpt>
      <trkpt lat="43.34224" lon="5.20592">
        <ele>86</ele>
        <time>2015-04-16T12:19:03Z</time>
      </trkpt>
      <trkpt lat="43.34222" lon="5.20595">
        <ele>86</ele>
        <time>2015-04-16T12:19:05Z</time>
      </trkpt>
      <trkpt lat="43.34221" lon="5.20597">
        <ele>86</ele>
        <time>2015-04-16T12:19:06Z</time>
      </trkpt>
      <trkpt lat="43.34219" lon="5.20599">
        <ele>86</ele>
        <time>2015-04-16T12:19:08Z</time>
      </trkpt>
      <trkpt lat="43.34218" lon="5.20602">
        <ele>86</ele>
        <time>2015-04-16T12:19:10Z</time>
      </trkpt>
      <trkpt lat="43.34216" lon="5.20605">
        <ele>86</ele>
        <time>2015-04-16T12:19:12Z</time>
      </trkpt>
      <trkpt lat="43.34214" lon="5.20607">
        <ele>86</ele>
        <time>2015-04-16T12:19:14Z</time>
      </trkpt>
      <trkpt lat="43.34213" lon="5.20609">
        <ele>86</ele>
        <time>2015-04-16T12:19:16Z</time>
      </trkpt>
      <trkpt lat="43.34211" lon="5.2061">
        <ele>86</ele>
        <time>2015-04-16T12:19:17Z</time>
      </trkpt>
      <trkpt lat="43.3421" lon="5.2061">
        <ele>86</ele>
        <time>2015-04-16T12:19:18Z</time>
      </trkpt>
      <trkpt lat="43.34209" lon="5.20611">
        <ele>86</ele>
        <time>2015-04-16T12:19:19Z</time>
      </trkpt>
      <trkpt lat="43.34207" lon="5.20612">
        <ele>87</ele>
        <time>2015-04-16T12:19:21Z</time>
      </trkpt>
      <trkpt lat="43.34205" lon="5.20613">
        <ele>88</ele>
        <time>2015-04-16T12:19:23Z</time>
      </trkpt>
      <trkpt lat="43.34203" lon="5.20614">
        <ele>89</ele>
        <time>2015-04-16T12:19:25Z</time>
      </trkpt>
      <trkpt lat="43.34202" lon="5.20614">
        <ele>90</ele>
        <time>2015-04-16T12:19:27Z</time>
      </trkpt>
      <trkpt lat="43.342" lon="5.20616">
        <ele>92</ele>
        <time>2015-04-16T12:19:29Z</time>
      </trkpt>
      <trkpt lat="43.34198" lon="5.20617">
        <ele>93</ele>
        <time>2015-04-16T12:19:31Z</time>
      </trkpt>
      <trkpt lat="43.34196" lon="5.20617">
        <ele>94</ele>
        <time>2015-04-16T12:19:33Z</time>
      </trkpt>
      <trkpt lat="43.34195" lon="5.20618">
        <ele>94</ele>
        <time>2015-04-16T12:19:34Z</time>
      </trkpt>
      <trkpt lat="43.34194" lon="5.20618">
        <ele>94</ele>
        <time>2015-04-16T12:19:35Z</time>
      </trkpt>
      <trkpt lat="43.34192" lon="5.20619">
        <ele>95</ele>
        <time>2015-04-16T12:19:37Z</time>
      </trkpt>
      <trkpt lat="43.3419" lon="5.2062">
        <ele>95</ele>
        <time>2015-04-16T12:19:38Z</time>
      </trkpt>
      <trkpt lat="43.34189" lon="5.2062">
        <ele>96</ele>
        <time>2015-04-16T12:19:39Z</time>
      </trkpt>
      <trkpt lat="43.34188" lon="5.2062">
        <ele>96</ele>
        <time>2015-04-16T12:19:40Z</time>
      </trkpt>
      <trkpt lat="43.34185" lon="5.20621">
        <ele>96</ele>
        <time>2015-04-16T12:19:42Z</time>
      </trkpt>
      <trkpt lat="43.34184" lon="5.20621">
        <ele>96</ele>
        <time>2015-04-16T12:19:43Z</time>
      </trkpt>
      <trkpt lat="43.34183" lon="5.20622">
        <ele>96</ele>
        <time>2015-04-16T12:19:44Z</time>
      </trkpt>
      <trkpt lat="43.34182" lon="5.20622">
        <ele>96</ele>
        <time>2015-04-16T12:19:45Z</time>
      </trkpt>
      <trkpt lat="43.3418" lon="5.20622">
        <ele>96</ele>
        <time>2015-04-16T12:19:46Z</time>
      </trkpt>
      <trkpt lat="43.34179" lon="5.20623">
        <ele>96</ele>
        <time>2015-04-16T12:19:47Z</time>
      </trkpt>
      <trkpt lat="43.34177" lon="5.20623">
        <ele>96</ele>
        <time>2015-04-16T12:19:48Z</time>
      </trkpt>
      <trkpt lat="43.34176" lon="5.20623">
        <ele>96</ele>
        <time>2015-04-16T12:19:49Z</time>
      </trkpt>
      <trkpt lat="43.34175" lon="5.20624">
        <ele>96</ele>
        <time>2015-04-16T12:19:50Z</time>
      </trkpt>
      <trkpt lat="43.34174" lon="5.20624">
        <ele>96</ele>
        <time>2015-04-16T12:19:51Z</time>
      </trkpt>
      <trkpt lat="43.34172" lon="5.20624">
        <ele>96</ele>
        <time>2015-04-16T12:19:52Z</time>
      </trkpt>
      <trkpt lat="43.34171" lon="5.20625">
        <ele>96</ele>
        <time>2015-04-16T12:19:53Z</time>
      </trkpt>
      <trkpt lat="43.3417" lon="5.20625">
        <ele>96</ele>
        <time>2015-04-16T12:19:54Z</time>
      </trkpt>
      <trkpt lat="43.34168" lon="5.20626">
        <ele>96</ele>
        <time>2015-04-16T12:19:55Z</time>
      </trkpt>
      <trkpt lat="43.34167" lon="5.20627">
        <ele>96</ele>
        <time>2015-04-16T12:19:56Z</time>
      </trkpt>
      <trkpt lat="43.34166" lon="5.20628">
        <ele>96</ele>
        <time>2015-04-16T12:19:57Z</time>
      </trkpt>
      <trkpt lat="43.34164" lon="5.20629">
        <ele>96</ele>
        <time>2015-04-16T12:19:58Z</time>
      </trkpt>
      <trkpt lat="43.34163" lon="5.2063">
        <ele>96</ele>
        <time>2015-04-16T12:19:59Z</time>
      </trkpt>
      <trkpt lat="43.34162" lon="5.20631">
        <ele>96</ele>
        <time>2015-04-16T12:20:00Z</time>
      </trkpt>
      <trkpt lat="43.3416" lon="5.20632">
        <ele>96</ele>
        <time>2015-04-16T12:20:01Z</time>
      </trkpt>
      <trkpt lat="43.34159" lon="5.20633">
        <ele>96</ele>
        <time>2015-04-16T12:20:02Z</time>
      </trkpt>
      <trkpt lat="43.34158" lon="5.20635">
        <ele>96</ele>
        <time>2015-04-16T12:20:03Z</time>
      </trkpt>
      <trkpt lat="43.34157" lon="5.20636">
        <ele>96</ele>
        <time>2015-04-16T12:20:04Z</time>
      </trkpt>
      <trkpt lat="43.34156" lon="5.20638">
        <ele>96</ele>
        <time>2015-04-16T12:20:05Z</time>
      </trkpt>
      <trkpt lat="43.34156" lon="5.20639">
        <ele>96</ele>
        <time>2015-04-16T12:20:06Z</time>
      </trkpt>
      <trkpt lat="43.34155" lon="5.20641">
        <ele>96</ele>
        <time>2015-04-16T12:20:07Z</time>
      </trkpt>
      <trkpt lat="43.34154" lon="5.20642">
        <ele>96</ele>
        <time>2015-04-16T12:20:08Z</time>
      </trkpt>
      <trkpt lat="43.34153" lon="5.20644">
        <ele>96</ele>
        <time>2015-04-16T12:20:09Z</time>
      </trkpt>
      <trkpt lat="43.34152" lon="5.20645">
        <ele>96</ele>
        <time>2015-04-16T12:20:10Z</time>
      </trkpt>
      <trkpt lat="43.34151" lon="5.20647">
        <ele>96</ele>
        <time>2015-04-16T12:20:11Z</time>
      </trkpt>
      <trkpt lat="43.3415" lon="5.20649">
        <ele>96</ele>
        <time>2015-04-16T12:20:12Z</time>
      </trkpt>
      <trkpt lat="43.3415" lon="5.2065">
        <ele>96</ele>
        <time>2015-04-16T12:20:13Z</time>
      </trkpt>
      <trkpt lat="43.34149" lon="5.20652">
        <ele>96</ele>
        <time>2015-04-16T12:20:14Z</time>
      </trkpt>
      <trkpt lat="43.34148" lon="5.20654">
        <ele>96</ele>
        <time>2015-04-16T12:20:15Z</time>
      </trkpt>
      <trkpt lat="43.34147" lon="5.20655">
        <ele>96</ele>
        <time>2015-04-16T12:20:16Z</time>
      </trkpt>
      <trkpt lat="43.34146" lon="5.20657">
        <ele>96</ele>
        <time>2015-04-16T12:20:17Z</time>
      </trkpt>
      <trkpt lat="43.34146" lon="5.20659">
        <ele>96</ele>
        <time>2015-04-16T12:20:18Z</time>
      </trkpt>
      <trkpt lat="43.34145" lon="5.20661">
        <ele>96</ele>
        <time>2015-04-16T12:20:19Z</time>
      </trkpt>
      <trkpt lat="43.34144" lon="5.20662">
        <ele>96</ele>
        <time>2015-04-16T12:20:20Z</time>
      </trkpt>
      <trkpt lat="43.34144" lon="5.20664">
        <ele>96</ele>
        <time>2015-04-16T12:20:21Z</time>
      </trkpt>
      <trkpt lat="43.34143" lon="5.20666">
        <ele>96</ele>
        <time>2015-04-16T12:20:22Z</time>
      </trkpt>
      <trkpt lat="43.34143" lon="5.20668">
        <ele>96</ele>
        <time>2015-04-16T12:20:23Z</time>
      </trkpt>
      <trkpt lat="43.34142" lon="5.2067">
        <ele>96</ele>
        <time>2015-04-16T12:20:24Z</time>
      </trkpt>
      <trkpt lat="43.34142" lon="5.20672">
        <ele>96</ele>
        <time>2015-04-16T12:20:25Z</time>
      </trkpt>
      <trkpt lat="43.34141" lon="5.20674">
        <ele>96</ele>
        <time>2015-04-16T12:20:26Z</time>
      </trkpt>
      <trkpt lat="43.34141" lon="5.20676">
        <ele>96</ele>
        <time>2015-04-16T12:20:27Z</time>
      </trkpt>
      <trkpt lat="43.3414" lon="5.20677">
        <ele>96</ele>
        <time>2015-04-16T12:20:28Z</time>
      </trkpt>
      <trkpt lat="43.3414" lon="5.20679">
        <ele>96</ele>
        <time>2015-04-16T12:20:29Z</time>
      </trkpt>
      <trkpt lat="43.3414" lon="5.20681">
        <ele>96</ele>
        <time>2015-04-16T12:20:30Z</time>
      </trkpt>
      <trkpt lat="43.3414" lon="5.20683">
        <ele>96</ele>
        <time>2015-04-16T12:20:31Z</time>
      </trkpt>
      <trkpt lat="43.3414" lon="5.20684">
        <ele>96</ele>
        <time>2015-04-16T12:20:32Z</time>
      </trkpt>
      <trkpt lat="43.34139" lon="5.20686">
        <ele>96</ele>
        <time>2015-04-16T12:20:33Z</time>
      </trkpt>
      <trkpt lat="43.34139" lon="5.20688">
        <ele>96</ele>
        <time>2015-04-16T12:20:34Z</time>
      </trkpt>
      <trkpt lat="43.34139" lon="5.2069">
        <ele>96</ele>
        <time>2015-04-16T12:20:35Z</time>
      </trkpt>
      <trkpt lat="43.34139" lon="5.20692">
        <ele>96</ele>
        <time>2015-04-16T12:20:36Z</time>
      </trkpt>
      <trkpt lat="43.34139" lon="5.20694">
        <ele>96</ele>
        <time>2015-04-16T12:20:37Z</time>
      </trkpt>
      <trkpt lat="43.34139" lon="5.20695">
        <ele>96</ele>
        <time>2015-04-16T12:20:38Z</time>
      </trkpt>
      <trkpt lat="43.34139" lon="5.20697">
        <ele>96</ele>
        <time>2015-04-16T12:20:39Z</time>
      </trkpt>
      <trkpt lat="43.34139" lon="5.20699">
        <ele>96</ele>
        <time>2015-04-16T12:20:40Z</time>
      </trkpt>
      <trkpt lat="43.34139" lon="5.20701">
        <ele>96</ele>
        <time>2015-04-16T12:20:41Z</time>
      </trkpt>
      <trkpt lat="43.34139" lon="5.20703">
        <ele>96</ele>
        <time>2015-04-16T12:20:42Z</time>
      </trkpt>
      <trkpt lat="43.34139" lon="5.20705">
        <ele>96</ele>
        <time>2015-04-16T12:20:43Z</time>
      </trkpt>
      <trkpt lat="43.34139" lon="5.20707">
        <ele>96</ele>
        <time>2015-04-16T12:20:44Z</time>
      </trkpt>
      <trkpt lat="43.34139" lon="5.20709">
        <ele>96</ele>
        <time>2015-04-16T12:20:45Z</time>
      </trkpt>
      <trkpt lat="43.34139" lon="5.20711">
        <ele>96</ele>
        <time>2015-04-16T12:20:46Z</time>
      </trkpt>
      <trkpt lat="43.34139" lon="5.20713">
        <ele>96</ele>
        <time>2015-04-16T12:20:47Z</time>
      </trkpt>
      <trkpt lat="43.34138" lon="5.20715">
        <ele>96</ele>
        <time>2015-04-16T12:20:48Z</time>
      </trkpt>
      <trkpt lat="43.34138" lon="5.20717">
        <ele>96</ele>
        <time>2015-04-16T12:20:49Z</time>
      </trkpt>
      <trkpt lat="43.34138" lon="5.20719">
        <ele>96</ele>
        <time>2015-04-16T12:20:50Z</time>
      </trkpt>
      <trkpt lat="43.34137" lon="5.20721">
        <ele>96</ele>
        <time>2015-04-16T12:20:51Z</time>
      </trkpt>
      <trkpt lat="43.34137" lon="5.20722">
        <ele>96</ele>
        <time>2015-04-16T12:20:52Z</time>
      </trkpt>
      <trkpt lat="43.34136" lon="5.20724">
        <ele>96</ele>
        <time>2015-04-16T12:20:53Z</time>
      </trkpt>
      <trkpt lat="43.34135" lon="5.20726">
        <ele>96</ele>
        <time>2015-04-16T12:20:54Z</time>
      </trkpt>
      <trkpt lat="43.34135" lon="5.20728">
        <ele>96</ele>
        <time>2015-04-16T12:20:55Z</time>
      </trkpt>
      <trkpt lat="43.34134" lon="5.20729">
        <ele>97</ele>
        <time>2015-04-16T12:20:56Z</time>
      </trkpt>
      <trkpt lat="43.34134" lon="5.20731">
        <ele>97</ele>
        <time>2015-04-16T12:20:57Z</time>
      </trkpt>
      <trkpt lat="43.34133" lon="5.20733">
        <ele>97</ele>
        <time>2015-04-16T12:20:58Z</time>
      </trkpt>
      <trkpt lat="43.34132" lon="5.20735">
        <ele>97</ele>
        <time>2015-04-16T12:20:59Z</time>
      </trkpt>
      <trkpt lat="43.34132" lon="5.20737">
        <ele>97</ele>
        <time>2015-04-16T12:21:00Z</time>
      </trkpt>
      <trkpt lat="43.34132" lon="5.20739">
        <ele>97</ele>
        <time>2015-04-16T12:21:01Z</time>
      </trkpt>
      <trkpt lat="43.34131" lon="5.2074">
        <ele>97</ele>
        <time>2015-04-16T12:21:02Z</time>
      </trkpt>
      <trkpt lat="43.3413" lon="5.20742">
        <ele>97</ele>
        <time>2015-04-16T12:21:03Z</time>
      </trkpt>
      <trkpt lat="43.34129" lon="5.20744">
        <ele>97</ele>
        <time>2015-04-16T12:21:04Z</time>
      </trkpt>
      <trkpt lat="43.34129" lon="5.20746">
        <ele>97</ele>
        <time>2015-04-16T12:21:05Z</time>
      </trkpt>
      <trkpt lat="43.34128" lon="5.20748">
        <ele>97</ele>
        <time>2015-04-16T12:21:06Z</time>
      </trkpt>
      <trkpt lat="43.34128" lon="5.2075">
        <ele>97</ele>
        <time>2015-04-16T12:21:07Z</time>
      </trkpt>
      <trkpt lat="43.34127" lon="5.20751">
        <ele>97</ele>
        <time>2015-04-16T12:21:08Z</time>
      </trkpt>
      <trkpt lat="43.34127" lon="5.20753">
        <ele>97</ele>
        <time>2015-04-16T12:21:09Z</time>
      </trkpt>
      <trkpt lat="43.34126" lon="5.20755">
        <ele>98</ele>
        <time>2015-04-16T12:21:10Z</time>
      </trkpt>
      <trkpt lat="43.34125" lon="5.20756">
        <ele>98</ele>
        <time>2015-04-16T12:21:11Z</time>
      </trkpt>
      <trkpt lat="43.34125" lon="5.20758">
        <ele>98</ele>
        <time>2015-04-16T12:21:12Z</time>
      </trkpt>
      <trkpt lat="43.34124" lon="5.2076">
        <ele>98</ele>
        <time>2015-04-16T12:21:13Z</time>
      </trkpt>
      <trkpt lat="43.34124" lon="5.20762">
        <ele>98</ele>
        <time>2015-04-16T12:21:14Z</time>
      </trkpt>
      <trkpt lat="43.34123" lon="5.20763">
        <ele>98</ele>
        <time>2015-04-16T12:21:15Z</time>
      </trkpt>
      <trkpt lat="43.34122" lon="5.20765">
        <ele>98</ele>
        <time>2015-04-16T12:21:16Z</time>
      </trkpt>
      <trkpt lat="43.34121" lon="5.20766">
        <ele>98</ele>
        <time>2015-04-16T12:21:17Z</time>
      </trkpt>
      <trkpt lat="43.34121" lon="5.20768">
        <ele>98</ele>
        <time>2015-04-16T12:21:18Z</time>
      </trkpt>
      <trkpt lat="43.3412" lon="5.2077">
        <ele>98</ele>
        <time>2015-04-16T12:21:19Z</time>
      </trkpt>
      <trkpt lat="43.34119" lon="5.20772">
        <ele>99</ele>
        <time>2015-04-16T12:21:20Z</time>
      </trkpt>
      <trkpt lat="43.34119" lon="5.20773">
        <ele>99</ele>
        <time>2015-04-16T12:21:21Z</time>
      </trkpt>
      <trkpt lat="43.34118" lon="5.20775">
        <ele>99</ele>
        <time>2015-04-16T12:21:22Z</time>
      </trkpt>
      <trkpt lat="43.34118" lon="5.20777">
        <ele>99</ele>
        <time>2015-04-16T12:21:23Z</time>
      </trkpt>
      <trkpt lat="43.34117" lon="5.20779">
        <ele>99</ele>
        <time>2015-04-16T12:21:24Z</time>
      </trkpt>
      <trkpt lat="43.34116" lon="5.20781">
        <ele>99</ele>
        <time>2015-04-16T12:21:25Z</time>
      </trkpt>
      <trkpt lat="43.34116" lon="5.20782">
        <ele>99</ele>
        <time>2015-04-16T12:21:26Z</time>
      </trkpt>
      <trkpt lat="43.34115" lon="5.20784">
        <ele>99</ele>
        <time>2015-04-16T12:21:27Z</time>
      </trkpt>
      <trkpt lat="43.34114" lon="5.20785">
        <ele>99</ele>
        <time>2015-04-16T12:21:28Z</time>
      </trkpt>
      <trkpt lat="43.34113" lon="5.20787">
        <ele>99</ele>
        <time>2015-04-16T12:21:29Z</time>
      </trkpt>
      <trkpt lat="43.34113" lon="5.20788">
        <ele>100</ele>
        <time>2015-04-16T12:21:30Z</time>
      </trkpt>
      <trkpt lat="43.34112" lon="5.2079">
        <ele>100</ele>
        <time>2015-04-16T12:21:31Z</time>
      </trkpt>
      <trkpt lat="43.34111" lon="5.20791">
        <ele>100</ele>
        <time>2015-04-16T12:21:32Z</time>
      </trkpt>
      <trkpt lat="43.3411" lon="5.20794">
        <ele>100</ele>
        <time>2015-04-16T12:21:34Z</time>
      </trkpt>
      <trkpt lat="43.34109" lon="5.20796">
        <ele>101</ele>
        <time>2015-04-16T12:21:36Z</time>
      </trkpt>
      <trkpt lat="43.34107" lon="5.20798">
        <ele>101</ele>
        <time>2015-04-16T12:21:38Z</time>
      </trkpt>
      <trkpt lat="43.34106" lon="5.208">
        <ele>101</ele>
        <time>2015-04-16T12:21:40Z</time>
      </trkpt>
      <trkpt lat="43.34105" lon="5.20801">
        <ele>101</ele>
        <time>2015-04-16T12:21:42Z</time>
      </trkpt>
      <trkpt lat="43.34103" lon="5.20802">
        <ele>102</ele>
        <time>2015-04-16T12:21:45Z</time>
      </trkpt>
      <trkpt lat="43.34103" lon="5.208">
        <ele>103</ele>
        <time>2015-04-16T12:21:56Z</time>
      </trkpt>
      <trkpt lat="43.34102" lon="5.20802">
        <ele>104</ele>
        <time>2015-04-16T12:22:11Z</time>
      </trkpt>
      <trkpt lat="43.34102" lon="5.20803">
        <ele>104</ele>
        <time>2015-04-16T12:22:18Z</time>
      </trkpt>
      <trkpt lat="43.34103" lon="5.20802">
        <ele>104</ele>
        <time>2015-04-16T12:22:29Z</time>
      </trkpt>
      <trkpt lat="43.34101" lon="5.208">
        <ele>105</ele>
        <time>2015-04-16T12:22:47Z</time>
      </trkpt>
      <trkpt lat="43.341" lon="5.20799">
        <ele>105</ele>
        <time>2015-04-16T12:22:49Z</time>
      </trkpt>
      <trkpt lat="43.34099" lon="5.20798">
        <ele>105</ele>
        <time>2015-04-16T12:22:51Z</time>
      </trkpt>
      <trkpt lat="43.34097" lon="5.20797">
        <ele>106</ele>
        <time>2015-04-16T12:22:53Z</time>
      </trkpt>
      <trkpt lat="43.34095" lon="5.20796">
        <ele>106</ele>
        <time>2015-04-16T12:22:55Z</time>
      </trkpt>
      <trkpt lat="43.34094" lon="5.20795">
        <ele>106</ele>
        <time>2015-04-16T12:22:56Z</time>
      </trkpt>
      <trkpt lat="43.34093" lon="5.20795">
        <ele>106</ele>
        <time>2015-04-16T12:22:57Z</time>
      </trkpt>
      <trkpt lat="43.34092" lon="5.20794">
        <ele>106</ele>
        <time>2015-04-16T12:22:58Z</time>
      </trkpt>
      <trkpt lat="43.3409" lon="5.20793">
        <ele>106</ele>
        <time>2015-04-16T12:22:59Z</time>
      </trkpt>
      <trkpt lat="43.34089" lon="5.20792">
        <ele>107</ele>
        <time>2015-04-16T12:23:00Z</time>
      </trkpt>
      <trkpt lat="43.34088" lon="5.20792">
        <ele>107</ele>
        <time>2015-04-16T12:23:01Z</time>
      </trkpt>
      <trkpt lat="43.34087" lon="5.20791">
        <ele>107</ele>
        <time>2015-04-16T12:23:02Z</time>
      </trkpt>
      <trkpt lat="43.34085" lon="5.20791">
        <ele>107</ele>
        <time>2015-04-16T12:23:03Z</time>
      </trkpt>
      <trkpt lat="43.34084" lon="5.2079">
        <ele>107</ele>
        <time>2015-04-16T12:23:04Z</time>
      </trkpt>
      <trkpt lat="43.34083" lon="5.20789">
        <ele>108</ele>
        <time>2015-04-16T12:23:05Z</time>
      </trkpt>
      <trkpt lat="43.34082" lon="5.20788">
        <ele>108</ele>
        <time>2015-04-16T12:23:06Z</time>
      </trkpt>
      <trkpt lat="43.3408" lon="5.20787">
        <ele>108</ele>
        <time>2015-04-16T12:23:07Z</time>
      </trkpt>
      <trkpt lat="43.34079" lon="5.20787">
        <ele>108</ele>
        <time>2015-04-16T12:23:08Z</time>
      </trkpt>
      <trkpt lat="43.34078" lon="5.20786">
        <ele>108</ele>
        <time>2015-04-16T12:23:09Z</time>
      </trkpt>
      <trkpt lat="43.34077" lon="5.20785">
        <ele>108</ele>
        <time>2015-04-16T12:23:10Z</time>
      </trkpt>
      <trkpt lat="43.34075" lon="5.20784">
        <ele>108</ele>
        <time>2015-04-16T12:23:11Z</time>
      </trkpt>
      <trkpt lat="43.34074" lon="5.20783">
        <ele>108</ele>
        <time>2015-04-16T12:23:12Z</time>
      </trkpt>
      <trkpt lat="43.34072" lon="5.20783">
        <ele>108</ele>
        <time>2015-04-16T12:23:13Z</time>
      </trkpt>
      <trkpt lat="43.34071" lon="5.20783">
        <ele>108</ele>
        <time>2015-04-16T12:23:14Z</time>
      </trkpt>
      <trkpt lat="43.34069" lon="5.20782">
        <ele>108</ele>
        <time>2015-04-16T12:23:15Z</time>
      </trkpt>
      <trkpt lat="43.34068" lon="5.20781">
        <ele>108</ele>
        <time>2015-04-16T12:23:16Z</time>
      </trkpt>
      <trkpt lat="43.34067" lon="5.20781">
        <ele>108</ele>
        <time>2015-04-16T12:23:17Z</time>
      </trkpt>
      <trkpt lat="43.34065" lon="5.20781">
        <ele>108</ele>
        <time>2015-04-16T12:23:18Z</time>
      </trkpt>
      <trkpt lat="43.34064" lon="5.20781">
        <ele>108</ele>
        <time>2015-04-16T12:23:19Z</time>
      </trkpt>
      <trkpt lat="43.34063" lon="5.20781">
        <ele>108</ele>
        <time>2015-04-16T12:23:20Z</time>
      </trkpt>
      <trkpt lat="43.34061" lon="5.2078">
        <ele>108</ele>
        <time>2015-04-16T12:23:21Z</time>
      </trkpt>
      <trkpt lat="43.3406" lon="5.2078">
        <ele>109</ele>
        <time>2015-04-16T12:23:22Z</time>
      </trkpt>
      <trkpt lat="43.34058" lon="5.2078">
        <ele>109</ele>
        <time>2015-04-16T12:23:23Z</time>
      </trkpt>
      <trkpt lat="43.34057" lon="5.2078">
        <ele>109</ele>
        <time>2015-04-16T12:23:24Z</time>
      </trkpt>
      <trkpt lat="43.34055" lon="5.2078">
        <ele>109</ele>
        <time>2015-04-16T12:23:25Z</time>
      </trkpt>
      <trkpt lat="43.34054" lon="5.20781">
        <ele>109</ele>
        <time>2015-04-16T12:23:26Z</time>
      </trkpt>
      <trkpt lat="43.34053" lon="5.20781">
        <ele>109</ele>
        <time>2015-04-16T12:23:27Z</time>
      </trkpt>
      <trkpt lat="43.34051" lon="5.20782">
        <ele>109</ele>
        <time>2015-04-16T12:23:28Z</time>
      </trkpt>
      <trkpt lat="43.3405" lon="5.20783">
        <ele>109</ele>
        <time>2015-04-16T12:23:29Z</time>
      </trkpt>
      <trkpt lat="43.34049" lon="5.20784">
        <ele>109</ele>
        <time>2015-04-16T12:23:30Z</time>
      </trkpt>
      <trkpt lat="43.34047" lon="5.20785">
        <ele>109</ele>
        <time>2015-04-16T12:23:31Z</time>
      </trkpt>
      <trkpt lat="43.34046" lon="5.20788">
        <ele>109</ele>
        <time>2015-04-16T12:23:33Z</time>
      </trkpt>
      <trkpt lat="43.34045" lon="5.20789">
        <ele>109</ele>
        <time>2015-04-16T12:23:34Z</time>
      </trkpt>
      <trkpt lat="43.34045" lon="5.20791">
        <ele>109</ele>
        <time>2015-04-16T12:23:35Z</time>
      </trkpt>
      <trkpt lat="43.34044" lon="5.20792">
        <ele>109</ele>
        <time>2015-04-16T12:23:36Z</time>
      </trkpt>
      <trkpt lat="43.34043" lon="5.20794">
        <ele>109</ele>
        <time>2015-04-16T12:23:37Z</time>
      </trkpt>
      <trkpt lat="43.34042" lon="5.20795">
        <ele>109</ele>
        <time>2015-04-16T12:23:38Z</time>
      </trkpt>
      <trkpt lat="43.34041" lon="5.20798">
        <ele>109</ele>
        <time>2015-04-16T12:23:40Z</time>
      </trkpt>
      <trkpt lat="43.3404" lon="5.208">
        <ele>109</ele>
        <time>2015-04-16T12:23:41Z</time>
      </trkpt>
      <trkpt lat="43.3404" lon="5.20802">
        <ele>109</ele>
        <time>2015-04-16T12:23:42Z</time>
      </trkpt>
      <trkpt lat="43.34039" lon="5.20804">
        <ele>109</ele>
        <time>2015-04-16T12:23:43Z</time>
      </trkpt>
      <trkpt lat="43.34038" lon="5.20805">
        <ele>109</ele>
        <time>2015-04-16T12:23:44Z</time>
      </trkpt>
      <trkpt lat="43.34038" lon="5.20807">
        <ele>109</ele>
        <time>2015-04-16T12:23:45Z</time>
      </trkpt>
      <trkpt lat="43.34037" lon="5.20809">
        <ele>109</ele>
        <time>2015-04-16T12:23:46Z</time>
      </trkpt>
      <trkpt lat="43.34037" lon="5.20811">
        <ele>109</ele>
        <time>2015-04-16T12:23:47Z</time>
      </trkpt>
      <trkpt lat="43.34036" lon="5.20813">
        <ele>109</ele>
        <time>2015-04-16T12:23:48Z</time>
      </trkpt>
      <trkpt lat="43.34036" lon="5.20814">
        <ele>110</ele>
        <time>2015-04-16T12:23:49Z</time>
      </trkpt>
      <trkpt lat="43.34036" lon="5.20816">
        <ele>110</ele>
        <time>2015-04-16T12:23:50Z</time>
      </trkpt>
      <trkpt lat="43.34036" lon="5.20818">
        <ele>110</ele>
        <time>2015-04-16T12:23:51Z</time>
      </trkpt>
      <trkpt lat="43.34035" lon="5.2082">
        <ele>110</ele>
        <time>2015-04-16T12:23:52Z</time>
      </trkpt>
      <trkpt lat="43.34035" lon="5.20821">
        <ele>110</ele>
        <time>2015-04-16T12:23:53Z</time>
      </trkpt>
      <trkpt lat="43.34035" lon="5.20823">
        <ele>110</ele>
        <time>2015-04-16T12:23:54Z</time>
      </trkpt>
      <trkpt lat="43.34035" lon="5.20825">
        <ele>110</ele>
        <time>2015-04-16T12:23:55Z</time>
      </trkpt>
      <trkpt lat="43.34035" lon="5.20827">
        <ele>110</ele>
        <time>2015-04-16T12:23:56Z</time>
      </trkpt>
      <trkpt lat="43.34034" lon="5.20829">
        <ele>110</ele>
        <time>2015-04-16T12:23:57Z</time>
      </trkpt>
      <trkpt lat="43.34034" lon="5.2083">
        <ele>110</ele>
        <time>2015-04-16T12:23:58Z</time>
      </trkpt>
      <trkpt lat="43.34033" lon="5.20832">
        <ele>110</ele>
        <time>2015-04-16T12:23:59Z</time>
      </trkpt>
      <trkpt lat="43.34033" lon="5.20834">
        <ele>110</ele>
        <time>2015-04-16T12:24:00Z</time>
      </trkpt>
      <trkpt lat="43.34033" lon="5.20836">
        <ele>110</ele>
        <time>2015-04-16T12:24:01Z</time>
      </trkpt>
      <trkpt lat="43.34033" lon="5.20837">
        <ele>110</ele>
        <time>2015-04-16T12:24:02Z</time>
      </trkpt>
      <trkpt lat="43.34033" lon="5.20839">
        <ele>110</ele>
        <time>2015-04-16T12:24:03Z</time>
      </trkpt>
      <trkpt lat="43.34033" lon="5.20841">
        <ele>110</ele>
        <time>2015-04-16T12:24:04Z</time>
      </trkpt>
      <trkpt lat="43.34033" lon="5.20843">
        <ele>110</ele>
        <time>2015-04-16T12:24:05Z</time>
      </trkpt>
      <trkpt lat="43.34034" lon="5.20845">
        <ele>110</ele>
        <time>2015-04-16T12:24:06Z</time>
      </trkpt>
      <trkpt lat="43.34034" lon="5.20847">
        <ele>110</ele>
        <time>2015-04-16T12:24:07Z</time>
      </trkpt>
      <trkpt lat="43.34034" lon="5.20849">
        <ele>110</ele>
        <time>2015-04-16T12:24:08Z</time>
      </trkpt>
      <trkpt lat="43.34034" lon="5.20851">
        <ele>110</ele>
        <time>2015-04-16T12:24:09Z</time>
      </trkpt>
      <trkpt lat="43.34034" lon="5.20853">
        <ele>110</ele>
        <time>2015-04-16T12:24:10Z</time>
      </trkpt>
      <trkpt lat="43.34034" lon="5.20855">
        <ele>110</ele>
        <time>2015-04-16T12:24:11Z</time>
      </trkpt>
      <trkpt lat="43.34035" lon="5.20857">
        <ele>110</ele>
        <time>2015-04-16T12:24:12Z</time>
      </trkpt>
      <trkpt lat="43.34035" lon="5.20859">
        <ele>110</ele>
        <time>2015-04-16T12:24:13Z</time>
      </trkpt>
      <trkpt lat="43.34035" lon="5.2086">
        <ele>110</ele>
        <time>2015-04-16T12:24:14Z</time>
      </trkpt>
      <trkpt lat="43.34036" lon="5.20862">
        <ele>110</ele>
        <time>2015-04-16T12:24:15Z</time>
      </trkpt>
      <trkpt lat="43.34036" lon="5.20864">
        <ele>110</ele>
        <time>2015-04-16T12:24:16Z</time>
      </trkpt>
      <trkpt lat="43.34036" lon="5.20866">
        <ele>110</ele>
        <time>2015-04-16T12:24:17Z</time>
      </trkpt>
      <trkpt lat="43.34036" lon="5.20868">
        <ele>110</ele>
        <time>2015-04-16T12:24:18Z</time>
      </trkpt>
      <trkpt lat="43.34036" lon="5.2087">
        <ele>110</ele>
        <time>2015-04-16T12:24:19Z</time>
      </trkpt>
      <trkpt lat="43.34037" lon="5.20872">
        <ele>110</ele>
        <time>2015-04-16T12:24:20Z</time>
      </trkpt>
      <trkpt lat="43.34037" lon="5.20873">
        <ele>110</ele>
        <time>2015-04-16T12:24:21Z</time>
      </trkpt>
      <trkpt lat="43.34037" lon="5.20875">
        <ele>110</ele>
        <time>2015-04-16T12:24:22Z</time>
      </trkpt>
      <trkpt lat="43.34037" lon="5.20877">
        <ele>110</ele>
        <time>2015-04-16T12:24:23Z</time>
      </trkpt>
      <trkpt lat="43.34038" lon="5.20879">
        <ele>110</ele>
        <time>2015-04-16T12:24:24Z</time>
      </trkpt>
      <trkpt lat="43.34038" lon="5.20881">
        <ele>110</ele>
        <time>2015-04-16T12:24:25Z</time>
      </trkpt>
      <trkpt lat="43.34038" lon="5.20883">
        <ele>111</ele>
        <time>2015-04-16T12:24:26Z</time>
      </trkpt>
      <trkpt lat="43.34039" lon="5.20885">
        <ele>111</ele>
        <time>2015-04-16T12:24:27Z</time>
      </trkpt>
      <trkpt lat="43.34039" lon="5.20887">
        <ele>111</ele>
        <time>2015-04-16T12:24:28Z</time>
      </trkpt>
      <trkpt lat="43.34039" lon="5.20889">
        <ele>111</ele>
        <time>2015-04-16T12:24:29Z</time>
      </trkpt>
      <trkpt lat="43.34039" lon="5.20891">
        <ele>111</ele>
        <time>2015-04-16T12:24:30Z</time>
      </trkpt>
      <trkpt lat="43.3404" lon="5.20893">
        <ele>111</ele>
        <time>2015-04-16T12:24:31Z</time>
      </trkpt>
      <trkpt lat="43.3404" lon="5.20895">
        <ele>111</ele>
        <time>2015-04-16T12:24:32Z</time>
      </trkpt>
      <trkpt lat="43.3404" lon="5.20897">
        <ele>111</ele>
        <time>2015-04-16T12:24:33Z</time>
      </trkpt>
      <trkpt lat="43.3404" lon="5.20899">
        <ele>111</ele>
        <time>2015-04-16T12:24:34Z</time>
      </trkpt>
      <trkpt lat="43.3404" lon="5.20901">
        <ele>111</ele>
        <time>2015-04-16T12:24:35Z</time>
      </trkpt>
      <trkpt lat="43.3404" lon="5.20902">
        <ele>112</ele>
        <time>2015-04-16T12:24:36Z</time>
      </trkpt>
      <trkpt lat="43.34041" lon="5.20904">
        <ele>112</ele>
        <time>2015-04-16T12:24:37Z</time>
      </trkpt>
      <trkpt lat="43.34041" lon="5.20906">
        <ele>112</ele>
        <time>2015-04-16T12:24:38Z</time>
      </trkpt>
      <trkpt lat="43.34041" lon="5.20908">
        <ele>112</ele>
        <time>2015-04-16T12:24:39Z</time>
      </trkpt>
      <trkpt lat="43.34042" lon="5.2091">
        <ele>112</ele>
        <time>2015-04-16T12:24:40Z</time>
      </trkpt>
      <trkpt lat="43.34042" lon="5.20912">
        <ele>112</ele>
        <time>2015-04-16T12:24:41Z</time>
      </trkpt>
      <trkpt lat="43.34042" lon="5.20914">
        <ele>112</ele>
        <time>2015-04-16T12:24:42Z</time>
      </trkpt>
      <trkpt lat="43.34043" lon="5.20916">
        <ele>112</ele>
        <time>2015-04-16T12:24:43Z</time>
      </trkpt>
      <trkpt lat="43.34043" lon="5.20918">
        <ele>112</ele>
        <time>2015-04-16T12:24:44Z</time>
      </trkpt>
      <trkpt lat="43.34044" lon="5.2092">
        <ele>112</ele>
        <time>2015-04-16T12:24:45Z</time>
      </trkpt>
      <trkpt lat="43.34044" lon="5.20922">
        <ele>112</ele>
        <time>2015-04-16T12:24:46Z</time>
      </trkpt>
      <trkpt lat="43.34044" lon="5.20924">
        <ele>112</ele>
        <time>2015-04-16T12:24:47Z</time>
      </trkpt>
      <trkpt lat="43.34045" lon="5.20926">
        <ele>112</ele>
        <time>2015-04-16T12:24:48Z</time>
      </trkpt>
      <trkpt lat="43.34045" lon="5.20927">
        <ele>112</ele>
        <time>2015-04-16T12:24:49Z</time>
      </trkpt>
      <trkpt lat="43.34045" lon="5.20929">
        <ele>112</ele>
        <time>2015-04-16T12:24:50Z</time>
      </trkpt>
      <trkpt lat="43.34045" lon="5.20931">
        <ele>112</ele>
        <time>2015-04-16T12:24:51Z</time>
      </trkpt>
      <trkpt lat="43.34045" lon="5.20933">
        <ele>112</ele>
        <time>2015-04-16T12:24:52Z</time>
      </trkpt>
      <trkpt lat="43.34045" lon="5.20936">
        <ele>112</ele>
        <time>2015-04-16T12:24:53Z</time>
      </trkpt>
      <trkpt lat="43.34046" lon="5.20938">
        <ele>112</ele>
        <time>2015-04-16T12:24:54Z</time>
      </trkpt>
      <trkpt lat="43.34046" lon="5.2094">
        <ele>112</ele>
        <time>2015-04-16T12:24:55Z</time>
      </trkpt>
      <trkpt lat="43.34046" lon="5.20942">
        <ele>112</ele>
        <time>2015-04-16T12:24:56Z</time>
      </trkpt>
      <trkpt lat="43.34046" lon="5.20943">
        <ele>112</ele>
        <time>2015-04-16T12:24:57Z</time>
      </trkpt>
      <trkpt lat="43.34047" lon="5.20946">
        <ele>112</ele>
        <time>2015-04-16T12:24:58Z</time>
      </trkpt>
      <trkpt lat="43.34047" lon="5.20947">
        <ele>112</ele>
        <time>2015-04-16T12:24:59Z</time>
      </trkpt>
      <trkpt lat="43.34048" lon="5.20949">
        <ele>113</ele>
        <time>2015-04-16T12:25:00Z</time>
      </trkpt>
      <trkpt lat="43.34048" lon="5.20951">
        <ele>113</ele>
        <time>2015-04-16T12:25:01Z</time>
      </trkpt>
      <trkpt lat="43.34048" lon="5.20953">
        <ele>113</ele>
        <time>2015-04-16T12:25:02Z</time>
      </trkpt>
      <trkpt lat="43.34049" lon="5.20955">
        <ele>113</ele>
        <time>2015-04-16T12:25:03Z</time>
      </trkpt>
      <trkpt lat="43.34049" lon="5.20957">
        <ele>113</ele>
        <time>2015-04-16T12:25:04Z</time>
      </trkpt>
      <trkpt lat="43.3405" lon="5.20959">
        <ele>113</ele>
        <time>2015-04-16T12:25:05Z</time>
      </trkpt>
      <trkpt lat="43.3405" lon="5.20961">
        <ele>113</ele>
        <time>2015-04-16T12:25:06Z</time>
      </trkpt>
      <trkpt lat="43.34051" lon="5.20962">
        <ele>114</ele>
        <time>2015-04-16T12:25:07Z</time>
      </trkpt>
      <trkpt lat="43.34051" lon="5.20964">
        <ele>114</ele>
        <time>2015-04-16T12:25:08Z</time>
      </trkpt>
      <trkpt lat="43.34052" lon="5.20966">
        <ele>114</ele>
        <time>2015-04-16T12:25:09Z</time>
      </trkpt>
      <trkpt lat="43.34053" lon="5.20968">
        <ele>114</ele>
        <time>2015-04-16T12:25:10Z</time>
      </trkpt>
      <trkpt lat="43.34053" lon="5.2097">
        <ele>114</ele>
        <time>2015-04-16T12:25:11Z</time>
      </trkpt>
      <trkpt lat="43.34054" lon="5.20971">
        <ele>114</ele>
        <time>2015-04-16T12:25:12Z</time>
      </trkpt>
      <trkpt lat="43.34054" lon="5.20973">
        <ele>114</ele>
        <time>2015-04-16T12:25:13Z</time>
      </trkpt>
      <trkpt lat="43.34055" lon="5.20975">
        <ele>114</ele>
        <time>2015-04-16T12:25:14Z</time>
      </trkpt>
      <trkpt lat="43.34055" lon="5.20977">
        <ele>114</ele>
        <time>2015-04-16T12:25:15Z</time>
      </trkpt>
      <trkpt lat="43.34056" lon="5.20979">
        <ele>114</ele>
        <time>2015-04-16T12:25:16Z</time>
      </trkpt>
      <trkpt lat="43.34058" lon="5.20981">
        <ele>114</ele>
        <time>2015-04-16T12:25:17Z</time>
      </trkpt>
      <trkpt lat="43.34058" lon="5.20982">
        <ele>115</ele>
        <time>2015-04-16T12:25:18Z</time>
      </trkpt>
      <trkpt lat="43.34059" lon="5.20984">
        <ele>115</ele>
        <time>2015-04-16T12:25:19Z</time>
      </trkpt>
      <trkpt lat="43.3406" lon="5.20986">
        <ele>115</ele>
        <time>2015-04-16T12:25:20Z</time>
      </trkpt>
      <trkpt lat="43.34061" lon="5.20987">
        <ele>115</ele>
        <time>2015-04-16T12:25:21Z</time>
      </trkpt>
      <trkpt lat="43.34062" lon="5.20989">
        <ele>115</ele>
        <time>2015-04-16T12:25:22Z</time>
      </trkpt>
      <trkpt lat="43.34063" lon="5.20991">
        <ele>115</ele>
        <time>2015-04-16T12:25:23Z</time>
      </trkpt>
      <trkpt lat="43.34064" lon="5.20993">
        <ele>115</ele>
        <time>2015-04-16T12:25:24Z</time>
      </trkpt>
      <trkpt lat="43.34065" lon="5.20994">
        <ele>115</ele>
        <time>2015-04-16T12:25:25Z</time>
      </trkpt>
      <trkpt lat="43.34066" lon="5.20996">
        <ele>115</ele>
        <time>2015-04-16T12:25:26Z</time>
      </trkpt>
      <trkpt lat="43.34067" lon="5.20998">
        <ele>115</ele>
        <time>2015-04-16T12:25:27Z</time>
      </trkpt>
      <trkpt lat="43.34068" lon="5.20999">
        <ele>115</ele>
        <time>2015-04-16T12:25:28Z</time>
      </trkpt>
      <trkpt lat="43.34069" lon="5.21001">
        <ele>115</ele>
        <time>2015-04-16T12:25:29Z</time>
      </trkpt>
      <trkpt lat="43.3407" lon="5.21002">
        <ele>115</ele>
        <time>2015-04-16T12:25:30Z</time>
      </trkpt>
      <trkpt lat="43.34071" lon="5.21004">
        <ele>115</ele>
        <time>2015-04-16T12:25:31Z</time>
      </trkpt>
      <trkpt lat="43.34072" lon="5.21005">
        <ele>115</ele>
        <time>2015-04-16T12:25:32Z</time>
      </trkpt>
      <trkpt lat="43.34073" lon="5.21007">
        <ele>115</ele>
        <time>2015-04-16T12:25:33Z</time>
      </trkpt>
      <trkpt lat="43.34074" lon="5.21009">
        <ele>115</ele>
        <time>2015-04-16T12:25:34Z</time>
      </trkpt>
      <trkpt lat="43.34075" lon="5.2101">
        <ele>115</ele>
        <time>2015-04-16T12:25:35Z</time>
      </trkpt>
      <trkpt lat="43.34076" lon="5.21012">
        <ele>115</ele>
        <time>2015-04-16T12:25:36Z</time>
      </trkpt>
      <trkpt lat="43.34077" lon="5.21013">
        <ele>115</ele>
        <time>2015-04-16T12:25:37Z</time>
      </trkpt>
      <trkpt lat="43.34078" lon="5.21015">
        <ele>115</ele>
        <time>2015-04-16T12:25:38Z</time>
      </trkpt>
      <trkpt lat="43.34079" lon="5.21017">
        <ele>115</ele>
        <time>2015-04-16T12:25:39Z</time>
      </trkpt>
      <trkpt lat="43.3408" lon="5.21018">
        <ele>115</ele>
        <time>2015-04-16T12:25:40Z</time>
      </trkpt>
      <trkpt lat="43.34081" lon="5.2102">
        <ele>115</ele>
        <time>2015-04-16T12:25:41Z</time>
      </trkpt>
      <trkpt lat="43.34082" lon="5.21022">
        <ele>115</ele>
        <time>2015-04-16T12:25:42Z</time>
      </trkpt>
      <trkpt lat="43.34083" lon="5.21023">
        <ele>115</ele>
        <time>2015-04-16T12:25:43Z</time>
      </trkpt>
      <trkpt lat="43.34084" lon="5.21025">
        <ele>115</ele>
        <time>2015-04-16T12:25:44Z</time>
      </trkpt>
      <trkpt lat="43.34085" lon="5.21027">
        <ele>115</ele>
        <time>2015-04-16T12:25:45Z</time>
      </trkpt>
      <trkpt lat="43.34086" lon="5.21029">
        <ele>115</ele>
        <time>2015-04-16T12:25:46Z</time>
      </trkpt>
      <trkpt lat="43.34087" lon="5.2103">
        <ele>115</ele>
        <time>2015-04-16T12:25:47Z</time>
      </trkpt>
      <trkpt lat="43.34088" lon="5.21032">
        <ele>115</ele>
        <time>2015-04-16T12:25:48Z</time>
      </trkpt>
      <trkpt lat="43.34089" lon="5.21033">
        <ele>115</ele>
        <time>2015-04-16T12:25:49Z</time>
      </trkpt>
      <trkpt lat="43.3409" lon="5.21035">
        <ele>115</ele>
        <time>2015-04-16T12:25:50Z</time>
      </trkpt>
      <trkpt lat="43.34091" lon="5.21037">
        <ele>115</ele>
        <time>2015-04-16T12:25:51Z</time>
      </trkpt>
      <trkpt lat="43.34092" lon="5.21038">
        <ele>115</ele>
        <time>2015-04-16T12:25:52Z</time>
      </trkpt>
      <trkpt lat="43.34092" lon="5.2104">
        <ele>116</ele>
        <time>2015-04-16T12:25:53Z</time>
      </trkpt>
      <trkpt lat="43.34093" lon="5.21042">
        <ele>116</ele>
        <time>2015-04-16T12:25:54Z</time>
      </trkpt>
      <trkpt lat="43.34094" lon="5.21043">
        <ele>116</ele>
        <time>2015-04-16T12:25:55Z</time>
      </trkpt>
      <trkpt lat="43.34095" lon="5.21045">
        <ele>116</ele>
        <time>2015-04-16T12:25:56Z</time>
      </trkpt>
      <trkpt lat="43.34096" lon="5.21047">
        <ele>116</ele>
        <time>2015-04-16T12:25:57Z</time>
      </trkpt>
      <trkpt lat="43.34096" lon="5.21049">
        <ele>116</ele>
        <time>2015-04-16T12:25:58Z</time>
      </trkpt>
      <trkpt lat="43.34097" lon="5.21051">
        <ele>116</ele>
        <time>2015-04-16T12:25:59Z</time>
      </trkpt>
      <trkpt lat="43.34097" lon="5.21053">
        <ele>116</ele>
        <time>2015-04-16T12:26:00Z</time>
      </trkpt>
      <trkpt lat="43.34097" lon="5.21055">
        <ele>116</ele>
        <time>2015-04-16T12:26:01Z</time>
      </trkpt>
      <trkpt lat="43.34097" lon="5.21057">
        <ele>116</ele>
        <time>2015-04-16T12:26:02Z</time>
      </trkpt>
      <trkpt lat="43.34097" lon="5.21059">
        <ele>116</ele>
        <time>2015-04-16T12:26:03Z</time>
      </trkpt>
      <trkpt lat="43.34098" lon="5.21061">
        <ele>116</ele>
        <time>2015-04-16T12:26:04Z</time>
      </trkpt>
      <trkpt lat="43.34098" lon="5.21063">
        <ele>116</ele>
        <time>2015-04-16T12:26:05Z</time>
      </trkpt>
      <trkpt lat="43.34098" lon="5.21065">
        <ele>116</ele>
        <time>2015-04-16T12:26:06Z</time>
      </trkpt>
      <trkpt lat="43.34098" lon="5.21067">
        <ele>116</ele>
        <time>2015-04-16T12:26:07Z</time>
      </trkpt>
      <trkpt lat="43.34097" lon="5.21069">
        <ele>116</ele>
        <time>2015-04-16T12:26:08Z</time>
      </trkpt>
      <trkpt lat="43.34097" lon="5.21071">
        <ele>116</ele>
        <time>2015-04-16T12:26:09Z</time>
      </trkpt>
      <trkpt lat="43.34097" lon="5.21073">
        <ele>116</ele>
        <time>2015-04-16T12:26:10Z</time>
      </trkpt>
      <trkpt lat="43.34097" lon="5.21075">
        <ele>116</ele>
        <time>2015-04-16T12:26:11Z</time>
      </trkpt>
      <trkpt lat="43.34096" lon="5.21077">
        <ele>116</ele>
        <time>2015-04-16T12:26:12Z</time>
      </trkpt>
      <trkpt lat="43.34096" lon="5.21078">
        <ele>116</ele>
        <time>2015-04-16T12:26:13Z</time>
      </trkpt>
      <trkpt lat="43.34095" lon="5.2108">
        <ele>116</ele>
        <time>2015-04-16T12:26:14Z</time>
      </trkpt>
      <trkpt lat="43.34095" lon="5.21082">
        <ele>116</ele>
        <time>2015-04-16T12:26:15Z</time>
      </trkpt>
      <trkpt lat="43.34094" lon="5.21084">
        <ele>116</ele>
        <time>2015-04-16T12:26:16Z</time>
      </trkpt>
      <trkpt lat="43.34093" lon="5.21086">
        <ele>116</ele>
        <time>2015-04-16T12:26:17Z</time>
      </trkpt>
      <trkpt lat="43.34092" lon="5.21087">
        <ele>117</ele>
        <time>2015-04-16T12:26:18Z</time>
      </trkpt>
      <trkpt lat="43.34092" lon="5.21089">
        <ele>117</ele>
        <time>2015-04-16T12:26:19Z</time>
      </trkpt>
      <trkpt lat="43.34091" lon="5.21091">
        <ele>117</ele>
        <time>2015-04-16T12:26:20Z</time>
      </trkpt>
      <trkpt lat="43.3409" lon="5.21093">
        <ele>117</ele>
        <time>2015-04-16T12:26:21Z</time>
      </trkpt>
      <trkpt lat="43.34089" lon="5.21094">
        <ele>117</ele>
        <time>2015-04-16T12:26:22Z</time>
      </trkpt>
      <trkpt lat="43.34089" lon="5.21096">
        <ele>117</ele>
        <time>2015-04-16T12:26:23Z</time>
      </trkpt>
      <trkpt lat="43.34088" lon="5.21098">
        <ele>117</ele>
        <time>2015-04-16T12:26:24Z</time>
      </trkpt>
      <trkpt lat="43.34087" lon="5.211">
        <ele>117</ele>
        <time>2015-04-16T12:26:25Z</time>
      </trkpt>
      <trkpt lat="43.34086" lon="5.21101">
        <ele>118</ele>
        <time>2015-04-16T12:26:26Z</time>
      </trkpt>
      <trkpt lat="43.34085" lon="5.21103">
        <ele>118</ele>
        <time>2015-04-16T12:26:27Z</time>
      </trkpt>
      <trkpt lat="43.34084" lon="5.21105">
        <ele>118</ele>
        <time>2015-04-16T12:26:28Z</time>
      </trkpt>
      <trkpt lat="43.34084" lon="5.21107">
        <ele>118</ele>
        <time>2015-04-16T12:26:29Z</time>
      </trkpt>
      <trkpt lat="43.34082" lon="5.21108">
        <ele>118</ele>
        <time>2015-04-16T12:26:30Z</time>
      </trkpt>
      <trkpt lat="43.34082" lon="5.2111">
        <ele>118</ele>
        <time>2015-04-16T12:26:31Z</time>
      </trkpt>
      <trkpt lat="43.34081" lon="5.21112">
        <ele>118</ele>
        <time>2015-04-16T12:26:32Z</time>
      </trkpt>
      <trkpt lat="43.3408" lon="5.21114">
        <ele>119</ele>
        <time>2015-04-16T12:26:33Z</time>
      </trkpt>
      <trkpt lat="43.34079" lon="5.21115">
        <ele>119</ele>
        <time>2015-04-16T12:26:34Z</time>
      </trkpt>
      <trkpt lat="43.34078" lon="5.21117">
        <ele>119</ele>
        <time>2015-04-16T12:26:35Z</time>
      </trkpt>
      <trkpt lat="43.34077" lon="5.21119">
        <ele>119</ele>
        <time>2015-04-16T12:26:36Z</time>
      </trkpt>
      <trkpt lat="43.34077" lon="5.21121">
        <ele>119</ele>
        <time>2015-04-16T12:26:37Z</time>
      </trkpt>
      <trkpt lat="43.34076" lon="5.21123">
        <ele>119</ele>
        <time>2015-04-16T12:26:38Z</time>
      </trkpt>
      <trkpt lat="43.34075" lon="5.21125">
        <ele>119</ele>
        <time>2015-04-16T12:26:39Z</time>
      </trkpt>
      <trkpt lat="43.34074" lon="5.21126">
        <ele>119</ele>
        <time>2015-04-16T12:26:40Z</time>
      </trkpt>
      <trkpt lat="43.34073" lon="5.21128">
        <ele>119</ele>
        <time>2015-04-16T12:26:41Z</time>
      </trkpt>
      <trkpt lat="43.34072" lon="5.2113">
        <ele>119</ele>
        <time>2015-04-16T12:26:42Z</time>
      </trkpt>
      <trkpt lat="43.34072" lon="5.21132">
        <ele>119</ele>
        <time>2015-04-16T12:26:43Z</time>
      </trkpt>
      <trkpt lat="43.34071" lon="5.21134">
        <ele>120</ele>
        <time>2015-04-16T12:26:44Z</time>
      </trkpt>
      <trkpt lat="43.3407" lon="5.21135">
        <ele>120</ele>
        <time>2015-04-16T12:26:45Z</time>
      </trkpt>
      <trkpt lat="43.34069" lon="5.21137">
        <ele>120</ele>
        <time>2015-04-16T12:26:46Z</time>
      </trkpt>
      <trkpt lat="43.34068" lon="5.21139">
        <ele>120</ele>
        <time>2015-04-16T12:26:47Z</time>
      </trkpt>
      <trkpt lat="43.34067" lon="5.2114">
        <ele>120</ele>
        <time>2015-04-16T12:26:48Z</time>
      </trkpt>
      <trkpt lat="43.34066" lon="5.21142">
        <ele>120</ele>
        <time>2015-04-16T12:26:49Z</time>
      </trkpt>
      <trkpt lat="43.34066" lon="5.21144">
        <ele>120</ele>
        <time>2015-04-16T12:26:50Z</time>
      </trkpt>
      <trkpt lat="43.34065" lon="5.21145">
        <ele>120</ele>
        <time>2015-04-16T12:26:51Z</time>
      </trkpt>
      <trkpt lat="43.34064" lon="5.21147">
        <ele>120</ele>
        <time>2015-04-16T12:26:52Z</time>
      </trkpt>
      <trkpt lat="43.34063" lon="5.21149">
        <ele>120</ele>
        <time>2015-04-16T12:26:53Z</time>
      </trkpt>
      <trkpt lat="43.34062" lon="5.2115">
        <ele>120</ele>
        <time>2015-04-16T12:26:54Z</time>
      </trkpt>
      <trkpt lat="43.34061" lon="5.21152">
        <ele>120</ele>
        <time>2015-04-16T12:26:55Z</time>
      </trkpt>
      <trkpt lat="43.3406" lon="5.21153">
        <ele>121</ele>
        <time>2015-04-16T12:26:56Z</time>
      </trkpt>
      <trkpt lat="43.34059" lon="5.21155">
        <ele>121</ele>
        <time>2015-04-16T12:26:57Z</time>
      </trkpt>
      <trkpt lat="43.34057" lon="5.21158">
        <ele>121</ele>
        <time>2015-04-16T12:26:59Z</time>
      </trkpt>
      <trkpt lat="43.34056" lon="5.2116">
        <ele>121</ele>
        <time>2015-04-16T12:27:00Z</time>
      </trkpt>
      <trkpt lat="43.34054" lon="5.21162">
        <ele>121</ele>
        <time>2015-04-16T12:27:02Z</time>
      </trkpt>
      <trkpt lat="43.34053" lon="5.21164">
        <ele>121</ele>
        <time>2015-04-16T12:27:03Z</time>
      </trkpt>
      <trkpt lat="43.34052" lon="5.21165">
        <ele>121</ele>
        <time>2015-04-16T12:27:04Z</time>
      </trkpt>
      <trkpt lat="43.3405" lon="5.21166">
        <ele>122</ele>
        <time>2015-04-16T12:27:05Z</time>
      </trkpt>
      <trkpt lat="43.34049" lon="5.21167">
        <ele>122</ele>
        <time>2015-04-16T12:27:06Z</time>
      </trkpt>
      <trkpt lat="43.34048" lon="5.21168">
        <ele>122</ele>
        <time>2015-04-16T12:27:07Z</time>
      </trkpt>
      <trkpt lat="43.34046" lon="5.21169">
        <ele>122</ele>
        <time>2015-04-16T12:27:08Z</time>
      </trkpt>
      <trkpt lat="43.34045" lon="5.2117">
        <ele>123</ele>
        <time>2015-04-16T12:27:09Z</time>
      </trkpt>
      <trkpt lat="43.34044" lon="5.2117">
        <ele>123</ele>
        <time>2015-04-16T12:27:10Z</time>
      </trkpt>
      <trkpt lat="43.34042" lon="5.21171">
        <ele>123</ele>
        <time>2015-04-16T12:27:11Z</time>
      </trkpt>
      <trkpt lat="43.34041" lon="5.21171">
        <ele>124</ele>
        <time>2015-04-16T12:27:12Z</time>
      </trkpt>
      <trkpt lat="43.34039" lon="5.21171">
        <ele>124</ele>
        <time>2015-04-16T12:27:13Z</time>
      </trkpt>
      <trkpt lat="43.34038" lon="5.21171">
        <ele>125</ele>
        <time>2015-04-16T12:27:14Z</time>
      </trkpt>
      <trkpt lat="43.34037" lon="5.21171">
        <ele>125</ele>
        <time>2015-04-16T12:27:15Z</time>
      </trkpt>
      <trkpt lat="43.34035" lon="5.21171">
        <ele>125</ele>
        <time>2015-04-16T12:27:16Z</time>
      </trkpt>
      <trkpt lat="43.34034" lon="5.21171">
        <ele>125</ele>
        <time>2015-04-16T12:27:17Z</time>
      </trkpt>
      <trkpt lat="43.34033" lon="5.21171">
        <ele>126</ele>
        <time>2015-04-16T12:27:18Z</time>
      </trkpt>
      <trkpt lat="43.34032" lon="5.21171">
        <ele>126</ele>
        <time>2015-04-16T12:27:19Z</time>
      </trkpt>
      <trkpt lat="43.3403" lon="5.21171">
        <ele>126</ele>
        <time>2015-04-16T12:27:20Z</time>
      </trkpt>
      <trkpt lat="43.34029" lon="5.21171">
        <ele>127</ele>
        <time>2015-04-16T12:27:21Z</time>
      </trkpt>
      <trkpt lat="43.34027" lon="5.21171">
        <ele>127</ele>
        <time>2015-04-16T12:27:22Z</time>
      </trkpt>
      <trkpt lat="43.34026" lon="5.2117">
        <ele>127</ele>
        <time>2015-04-16T12:27:23Z</time>
      </trkpt>
      <trkpt lat="43.34024" lon="5.2117">
        <ele>127</ele>
        <time>2015-04-16T12:27:24Z</time>
      </trkpt>
      <trkpt lat="43.34023" lon="5.2117">
        <ele>128</ele>
        <time>2015-04-16T12:27:25Z</time>
      </trkpt>
      <trkpt lat="43.34022" lon="5.2117">
        <ele>128</ele>
        <time>2015-04-16T12:27:26Z</time>
      </trkpt>
      <trkpt lat="43.3402" lon="5.2117">
        <ele>128</ele>
        <time>2015-04-16T12:27:27Z</time>
      </trkpt>
      <trkpt lat="43.34019" lon="5.2117">
        <ele>128</ele>
        <time>2015-04-16T12:27:28Z</time>
      </trkpt>
      <trkpt lat="43.34017" lon="5.2117">
        <ele>129</ele>
        <time>2015-04-16T12:27:29Z</time>
      </trkpt>
      <trkpt lat="43.34016" lon="5.2117">
        <ele>129</ele>
        <time>2015-04-16T12:27:30Z</time>
      </trkpt>
      <trkpt lat="43.34015" lon="5.2117">
        <ele>129</ele>
        <time>2015-04-16T12:27:31Z</time>
      </trkpt>
      <trkpt lat="43.34013" lon="5.2117">
        <ele>129</ele>
        <time>2015-04-16T12:27:32Z</time>
      </trkpt>
      <trkpt lat="43.34012" lon="5.21171">
        <ele>129</ele>
        <time>2015-04-16T12:27:33Z</time>
      </trkpt>
      <trkpt lat="43.3401" lon="5.21171">
        <ele>130</ele>
        <time>2015-04-16T12:27:34Z</time>
      </trkpt>
      <trkpt lat="43.34009" lon="5.21172">
        <ele>130</ele>
        <time>2015-04-16T12:27:35Z</time>
      </trkpt>
      <trkpt lat="43.34007" lon="5.21172">
        <ele>130</ele>
        <time>2015-04-16T12:27:36Z</time>
      </trkpt>
      <trkpt lat="43.34006" lon="5.21173">
        <ele>130</ele>
        <time>2015-04-16T12:27:37Z</time>
      </trkpt>
      <trkpt lat="43.34004" lon="5.21173">
        <ele>131</ele>
        <time>2015-04-16T12:27:38Z</time>
      </trkpt>
      <trkpt lat="43.34003" lon="5.21174">
        <ele>131</ele>
        <time>2015-04-16T12:27:39Z</time>
      </trkpt>
      <trkpt lat="43.34002" lon="5.21175">
        <ele>131</ele>
        <time>2015-04-16T12:27:40Z</time>
      </trkpt>
      <trkpt lat="43.34" lon="5.21176">
        <ele>131</ele>
        <time>2015-04-16T12:27:41Z</time>
      </trkpt>
      <trkpt lat="43.33999" lon="5.21177">
        <ele>132</ele>
        <time>2015-04-16T12:27:42Z</time>
      </trkpt>
      <trkpt lat="43.33997" lon="5.21178">
        <ele>132</ele>
        <time>2015-04-16T12:27:43Z</time>
      </trkpt>
      <trkpt lat="43.33996" lon="5.21179">
        <ele>132</ele>
        <time>2015-04-16T12:27:44Z</time>
      </trkpt>
      <trkpt lat="43.33994" lon="5.21181">
        <ele>132</ele>
        <time>2015-04-16T12:27:46Z</time>
      </trkpt>
      <trkpt lat="43.33993" lon="5.21183">
        <ele>133</ele>
        <time>2015-04-16T12:27:47Z</time>
      </trkpt>
      <trkpt lat="43.33992" lon="5.21184">
        <ele>133</ele>
        <time>2015-04-16T12:27:48Z</time>
      </trkpt>
      <trkpt lat="43.33991" lon="5.21186">
        <ele>133</ele>
        <time>2015-04-16T12:27:49Z</time>
      </trkpt>
      <trkpt lat="43.3399" lon="5.21188">
        <ele>133</ele>
        <time>2015-04-16T12:27:50Z</time>
      </trkpt>
      <trkpt lat="43.33989" lon="5.21189">
        <ele>133</ele>
        <time>2015-04-16T12:27:51Z</time>
      </trkpt>
      <trkpt lat="43.33988" lon="5.21191">
        <ele>133</ele>
        <time>2015-04-16T12:27:52Z</time>
      </trkpt>
      <trkpt lat="43.33987" lon="5.21194">
        <ele>133</ele>
        <time>2015-04-16T12:27:54Z</time>
      </trkpt>
      <trkpt lat="43.33986" lon="5.21195">
        <ele>133</ele>
        <time>2015-04-16T12:27:55Z</time>
      </trkpt>
      <trkpt lat="43.33984" lon="5.21197">
        <ele>133</ele>
        <time>2015-04-16T12:27:56Z</time>
      </trkpt>
      <trkpt lat="43.33984" lon="5.21198">
        <ele>133</ele>
        <time>2015-04-16T12:27:57Z</time>
      </trkpt>
      <trkpt lat="43.33983" lon="5.212">
        <ele>133</ele>
        <time>2015-04-16T12:27:58Z</time>
      </trkpt>
      <trkpt lat="43.33982" lon="5.21201">
        <ele>133</ele>
        <time>2015-04-16T12:27:59Z</time>
      </trkpt>
      <trkpt lat="43.33981" lon="5.21203">
        <ele>133</ele>
        <time>2015-04-16T12:28:00Z</time>
      </trkpt>
      <trkpt lat="43.33981" lon="5.21204">
        <ele>133</ele>
        <time>2015-04-16T12:28:01Z</time>
      </trkpt>
      <trkpt lat="43.3398" lon="5.21206">
        <ele>134</ele>
        <time>2015-04-16T12:28:02Z</time>
      </trkpt>
      <trkpt lat="43.33978" lon="5.21209">
        <ele>134</ele>
        <time>2015-04-16T12:28:04Z</time>
      </trkpt>
      <trkpt lat="43.33977" lon="5.2121">
        <ele>134</ele>
        <time>2015-04-16T12:28:05Z</time>
      </trkpt>
      <trkpt lat="43.33976" lon="5.21212">
        <ele>134</ele>
        <time>2015-04-16T12:28:06Z</time>
      </trkpt>
      <trkpt lat="43.33976" lon="5.21213">
        <ele>134</ele>
        <time>2015-04-16T12:28:07Z</time>
      </trkpt>
      <trkpt lat="43.33975" lon="5.21215">
        <ele>134</ele>
        <time>2015-04-16T12:28:08Z</time>
      </trkpt>
      <trkpt lat="43.33974" lon="5.21216">
        <ele>134</ele>
        <time>2015-04-16T12:28:09Z</time>
      </trkpt>
      <trkpt lat="43.33973" lon="5.21218">
        <ele>134</ele>
        <time>2015-04-16T12:28:10Z</time>
      </trkpt>
      <trkpt lat="43.33972" lon="5.21219">
        <ele>134</ele>
        <time>2015-04-16T12:28:11Z</time>
      </trkpt>
      <trkpt lat="43.3397" lon="5.21222">
        <ele>134</ele>
        <time>2015-04-16T12:28:13Z</time>
      </trkpt>
      <trkpt lat="43.33969" lon="5.21224">
        <ele>134</ele>
        <time>2015-04-16T12:28:14Z</time>
      </trkpt>
      <trkpt lat="43.33969" lon="5.21225">
        <ele>135</ele>
        <time>2015-04-16T12:28:15Z</time>
      </trkpt>
      <trkpt lat="43.33968" lon="5.21227">
        <ele>135</ele>
        <time>2015-04-16T12:28:16Z</time>
      </trkpt>
      <trkpt lat="43.33967" lon="5.21228">
        <ele>135</ele>
        <time>2015-04-16T12:28:17Z</time>
      </trkpt>
      <trkpt lat="43.33966" lon="5.2123">
        <ele>135</ele>
        <time>2015-04-16T12:28:18Z</time>
      </trkpt>
      <trkpt lat="43.33965" lon="5.21231">
        <ele>135</ele>
        <time>2015-04-16T12:28:19Z</time>
      </trkpt>
      <trkpt lat="43.33965" lon="5.21233">
        <ele>135</ele>
        <time>2015-04-16T12:28:20Z</time>
      </trkpt>
      <trkpt lat="43.33964" lon="5.21234">
        <ele>135</ele>
        <time>2015-04-16T12:28:21Z</time>
      </trkpt>
      <trkpt lat="43.33963" lon="5.21236">
        <ele>136</ele>
        <time>2015-04-16T12:28:22Z</time>
      </trkpt>
      <trkpt lat="43.33963" lon="5.21238">
        <ele>136</ele>
        <time>2015-04-16T12:28:23Z</time>
      </trkpt>
      <trkpt lat="43.33962" lon="5.21239">
        <ele>136</ele>
        <time>2015-04-16T12:28:24Z</time>
      </trkpt>
      <trkpt lat="43.33961" lon="5.21241">
        <ele>136</ele>
        <time>2015-04-16T12:28:25Z</time>
      </trkpt>
      <trkpt lat="43.33961" lon="5.21243">
        <ele>136</ele>
        <time>2015-04-16T12:28:26Z</time>
      </trkpt>
      <trkpt lat="43.33961" lon="5.21245">
        <ele>136</ele>
        <time>2015-04-16T12:28:27Z</time>
      </trkpt>
      <trkpt lat="43.3396" lon="5.21247">
        <ele>136</ele>
        <time>2015-04-16T12:28:28Z</time>
      </trkpt>
      <trkpt lat="43.3396" lon="5.21249">
        <ele>136</ele>
        <time>2015-04-16T12:28:29Z</time>
      </trkpt>
      <trkpt lat="43.3396" lon="5.21251">
        <ele>136</ele>
        <time>2015-04-16T12:28:30Z</time>
      </trkpt>
      <trkpt lat="43.3396" lon="5.21252">
        <ele>136</ele>
        <time>2015-04-16T12:28:31Z</time>
      </trkpt>
      <trkpt lat="43.33959" lon="5.21254">
        <ele>137</ele>
        <time>2015-04-16T12:28:32Z</time>
      </trkpt>
      <trkpt lat="43.33958" lon="5.21256">
        <ele>137</ele>
        <time>2015-04-16T12:28:33Z</time>
      </trkpt>
      <trkpt lat="43.33958" lon="5.21257">
        <ele>137</ele>
        <time>2015-04-16T12:28:34Z</time>
      </trkpt>
      <trkpt lat="43.33958" lon="5.21259">
        <ele>137</ele>
        <time>2015-04-16T12:28:35Z</time>
      </trkpt>
      <trkpt lat="43.33957" lon="5.21261">
        <ele>137</ele>
        <time>2015-04-16T12:28:36Z</time>
      </trkpt>
      <trkpt lat="43.33957" lon="5.21263">
        <ele>137</ele>
        <time>2015-04-16T12:28:37Z</time>
      </trkpt>
      <trkpt lat="43.33956" lon="5.21265">
        <ele>137</ele>
        <time>2015-04-16T12:28:38Z</time>
      </trkpt>
      <trkpt lat="43.33955" lon="5.21266">
        <ele>137</ele>
        <time>2015-04-16T12:28:39Z</time>
      </trkpt>
      <trkpt lat="43.33955" lon="5.21268">
        <ele>137</ele>
        <time>2015-04-16T12:28:40Z</time>
      </trkpt>
      <trkpt lat="43.33954" lon="5.2127">
        <ele>137</ele>
        <time>2015-04-16T12:28:41Z</time>
      </trkpt>
      <trkpt lat="43.33953" lon="5.21272">
        <ele>137</ele>
        <time>2015-04-16T12:28:42Z</time>
      </trkpt>
      <trkpt lat="43.33952" lon="5.21273">
        <ele>137</ele>
        <time>2015-04-16T12:28:43Z</time>
      </trkpt>
      <trkpt lat="43.33951" lon="5.21275">
        <ele>137</ele>
        <time>2015-04-16T12:28:44Z</time>
      </trkpt>
      <trkpt lat="43.3395" lon="5.21276">
        <ele>137</ele>
        <time>2015-04-16T12:28:45Z</time>
      </trkpt>
      <trkpt lat="43.33948" lon="5.21278">
        <ele>137</ele>
        <time>2015-04-16T12:28:47Z</time>
      </trkpt>
      <trkpt lat="43.33947" lon="5.21279">
        <ele>137</ele>
        <time>2015-04-16T12:28:48Z</time>
      </trkpt>
      <trkpt lat="43.33945" lon="5.2128">
        <ele>137</ele>
        <time>2015-04-16T12:28:49Z</time>
      </trkpt>
      <trkpt lat="43.33944" lon="5.21281">
        <ele>137</ele>
        <time>2015-04-16T12:28:50Z</time>
      </trkpt>
      <trkpt lat="43.33942" lon="5.21282">
        <ele>137</ele>
        <time>2015-04-16T12:28:51Z</time>
      </trkpt>
      <trkpt lat="43.33941" lon="5.21283">
        <ele>137</ele>
        <time>2015-04-16T12:28:52Z</time>
      </trkpt>
      <trkpt lat="43.3394" lon="5.21283">
        <ele>137</ele>
        <time>2015-04-16T12:28:53Z</time>
      </trkpt>
      <trkpt lat="43.33939" lon="5.21284">
        <ele>137</ele>
        <time>2015-04-16T12:28:54Z</time>
      </trkpt>
      <trkpt lat="43.33937" lon="5.21285">
        <ele>137</ele>
        <time>2015-04-16T12:28:55Z</time>
      </trkpt>
      <trkpt lat="43.33936" lon="5.21285">
        <ele>137</ele>
        <time>2015-04-16T12:28:56Z</time>
      </trkpt>
      <trkpt lat="43.33934" lon="5.21286">
        <ele>137</ele>
        <time>2015-04-16T12:28:57Z</time>
      </trkpt>
      <trkpt lat="43.33933" lon="5.21286">
        <ele>137</ele>
        <time>2015-04-16T12:28:58Z</time>
      </trkpt>
      <trkpt lat="43.33931" lon="5.21287">
        <ele>137</ele>
        <time>2015-04-16T12:28:59Z</time>
      </trkpt>
      <trkpt lat="43.33929" lon="5.21287">
        <ele>137</ele>
        <time>2015-04-16T12:29:00Z</time>
      </trkpt>
      <trkpt lat="43.33928" lon="5.21287">
        <ele>137</ele>
        <time>2015-04-16T12:29:01Z</time>
      </trkpt>
      <trkpt lat="43.33926" lon="5.21287">
        <ele>137</ele>
        <time>2015-04-16T12:29:02Z</time>
      </trkpt>
      <trkpt lat="43.33925" lon="5.21287">
        <ele>137</ele>
        <time>2015-04-16T12:29:03Z</time>
      </trkpt>
      <trkpt lat="43.33923" lon="5.21287">
        <ele>137</ele>
        <time>2015-04-16T12:29:04Z</time>
      </trkpt>
      <trkpt lat="43.33921" lon="5.21288">
        <ele>137</ele>
        <time>2015-04-16T12:29:05Z</time>
      </trkpt>
      <trkpt lat="43.3392" lon="5.21288">
        <ele>137</ele>
        <time>2015-04-16T12:29:06Z</time>
      </trkpt>
      <trkpt lat="43.33918" lon="5.21288">
        <ele>137</ele>
        <time>2015-04-16T12:29:07Z</time>
      </trkpt>
      <trkpt lat="43.33916" lon="5.21289">
        <ele>137</ele>
        <time>2015-04-16T12:29:08Z</time>
      </trkpt>
      <trkpt lat="43.33915" lon="5.21289">
        <ele>137</ele>
        <time>2015-04-16T12:29:09Z</time>
      </trkpt>
      <trkpt lat="43.33913" lon="5.2129">
        <ele>137</ele>
        <time>2015-04-16T12:29:10Z</time>
      </trkpt>
      <trkpt lat="43.33912" lon="5.21291">
        <ele>137</ele>
        <time>2015-04-16T12:29:11Z</time>
      </trkpt>
      <trkpt lat="43.3391" lon="5.21291">
        <ele>137</ele>
        <time>2015-04-16T12:29:12Z</time>
      </trkpt>
      <trkpt lat="43.33909" lon="5.21292">
        <ele>137</ele>
        <time>2015-04-16T12:29:13Z</time>
      </trkpt>
      <trkpt lat="43.33908" lon="5.21293">
        <ele>138</ele>
        <time>2015-04-16T12:29:14Z</time>
      </trkpt>
      <trkpt lat="43.33907" lon="5.21294">
        <ele>138</ele>
        <time>2015-04-16T12:29:15Z</time>
      </trkpt>
      <trkpt lat="43.33905" lon="5.21295">
        <ele>138</ele>
        <time>2015-04-16T12:29:16Z</time>
      </trkpt>
      <trkpt lat="43.33904" lon="5.21296">
        <ele>138</ele>
        <time>2015-04-16T12:29:17Z</time>
      </trkpt>
      <trkpt lat="43.33903" lon="5.21297">
        <ele>138</ele>
        <time>2015-04-16T12:29:18Z</time>
      </trkpt>
      <trkpt lat="43.33902" lon="5.21298">
        <ele>138</ele>
        <time>2015-04-16T12:29:19Z</time>
      </trkpt>
      <trkpt lat="43.339" lon="5.21299">
        <ele>138</ele>
        <time>2015-04-16T12:29:20Z</time>
      </trkpt>
      <trkpt lat="43.33899" lon="5.213">
        <ele>139</ele>
        <time>2015-04-16T12:29:21Z</time>
      </trkpt>
      <trkpt lat="43.33898" lon="5.21302">
        <ele>139</ele>
        <time>2015-04-16T12:29:22Z</time>
      </trkpt>
      <trkpt lat="43.33897" lon="5.21303">
        <ele>139</ele>
        <time>2015-04-16T12:29:23Z</time>
      </trkpt>
      <trkpt lat="43.33895" lon="5.21304">
        <ele>139</ele>
        <time>2015-04-16T12:29:24Z</time>
      </trkpt>
      <trkpt lat="43.33894" lon="5.21305">
        <ele>139</ele>
        <time>2015-04-16T12:29:25Z</time>
      </trkpt>
      <trkpt lat="43.33893" lon="5.21306">
        <ele>139</ele>
        <time>2015-04-16T12:29:26Z</time>
      </trkpt>
      <trkpt lat="43.33891" lon="5.21307">
        <ele>139</ele>
        <time>2015-04-16T12:29:27Z</time>
      </trkpt>
      <trkpt lat="43.3389" lon="5.21308">
        <ele>139</ele>
        <time>2015-04-16T12:29:28Z</time>
      </trkpt>
      <trkpt lat="43.33889" lon="5.21308">
        <ele>140</ele>
        <time>2015-04-16T12:29:29Z</time>
      </trkpt>
      <trkpt lat="43.33887" lon="5.21309">
        <ele>140</ele>
        <time>2015-04-16T12:29:30Z</time>
      </trkpt>
      <trkpt lat="43.33886" lon="5.2131">
        <ele>140</ele>
        <time>2015-04-16T12:29:31Z</time>
      </trkpt>
      <trkpt lat="43.33884" lon="5.21311">
        <ele>140</ele>
        <time>2015-04-16T12:29:32Z</time>
      </trkpt>
      <trkpt lat="43.33883" lon="5.21311">
        <ele>140</ele>
        <time>2015-04-16T12:29:33Z</time>
      </trkpt>
      <trkpt lat="43.33882" lon="5.21312">
        <ele>140</ele>
        <time>2015-04-16T12:29:34Z</time>
      </trkpt>
      <trkpt lat="43.3388" lon="5.21312">
        <ele>140</ele>
        <time>2015-04-16T12:29:35Z</time>
      </trkpt>
      <trkpt lat="43.33879" lon="5.21313">
        <ele>140</ele>
        <time>2015-04-16T12:29:36Z</time>
      </trkpt>
      <trkpt lat="43.33877" lon="5.21313">
        <ele>140</ele>
        <time>2015-04-16T12:29:37Z</time>
      </trkpt>
      <trkpt lat="43.33876" lon="5.21313">
        <ele>140</ele>
        <time>2015-04-16T12:29:38Z</time>
      </trkpt>
      <trkpt lat="43.33874" lon="5.21313">
        <ele>140</ele>
        <time>2015-04-16T12:29:39Z</time>
      </trkpt>
      <trkpt lat="43.33873" lon="5.21314">
        <ele>140</ele>
        <time>2015-04-16T12:29:40Z</time>
      </trkpt>
      <trkpt lat="43.33871" lon="5.21314">
        <ele>140</ele>
        <time>2015-04-16T12:29:41Z</time>
      </trkpt>
      <trkpt lat="43.3387" lon="5.21314">
        <ele>140</ele>
        <time>2015-04-16T12:29:42Z</time>
      </trkpt>
      <trkpt lat="43.33868" lon="5.21314">
        <ele>140</ele>
        <time>2015-04-16T12:29:43Z</time>
      </trkpt>
      <trkpt lat="43.33867" lon="5.21314">
        <ele>140</ele>
        <time>2015-04-16T12:29:44Z</time>
      </trkpt>
      <trkpt lat="43.33865" lon="5.21314">
        <ele>140</ele>
        <time>2015-04-16T12:29:45Z</time>
      </trkpt>
      <trkpt lat="43.33864" lon="5.21314">
        <ele>140</ele>
        <time>2015-04-16T12:29:46Z</time>
      </trkpt>
      <trkpt lat="43.33862" lon="5.21314">
        <ele>140</ele>
        <time>2015-04-16T12:29:47Z</time>
      </trkpt>
      <trkpt lat="43.3386" lon="5.21314">
        <ele>140</ele>
        <time>2015-04-16T12:29:48Z</time>
      </trkpt>
      <trkpt lat="43.33859" lon="5.21314">
        <ele>140</ele>
        <time>2015-04-16T12:29:49Z</time>
      </trkpt>
      <trkpt lat="43.33857" lon="5.21314">
        <ele>140</ele>
        <time>2015-04-16T12:29:50Z</time>
      </trkpt>
      <trkpt lat="43.33856" lon="5.21314">
        <ele>140</ele>
        <time>2015-04-16T12:29:51Z</time>
      </trkpt>
      <trkpt lat="43.33855" lon="5.21314">
        <ele>140</ele>
        <time>2015-04-16T12:29:52Z</time>
      </trkpt>
      <trkpt lat="43.33853" lon="5.21314">
        <ele>140</ele>
        <time>2015-04-16T12:29:53Z</time>
      </trkpt>
      <trkpt lat="43.33852" lon="5.21314">
        <ele>140</ele>
        <time>2015-04-16T12:29:54Z</time>
      </trkpt>
      <trkpt lat="43.3385" lon="5.21314">
        <ele>140</ele>
        <time>2015-04-16T12:29:55Z</time>
      </trkpt>
      <trkpt lat="43.33849" lon="5.21314">
        <ele>140</ele>
        <time>2015-04-16T12:29:56Z</time>
      </trkpt>
      <trkpt lat="43.33847" lon="5.21314">
        <ele>140</ele>
        <time>2015-04-16T12:29:57Z</time>
      </trkpt>
      <trkpt lat="43.33846" lon="5.21314">
        <ele>140</ele>
        <time>2015-04-16T12:29:58Z</time>
      </trkpt>
      <trkpt lat="43.33844" lon="5.21314">
        <ele>140</ele>
        <time>2015-04-16T12:29:59Z</time>
      </trkpt>
      <trkpt lat="43.33842" lon="5.21314">
        <ele>140</ele>
        <time>2015-04-16T12:30:00Z</time>
      </trkpt>
      <trkpt lat="43.33841" lon="5.21314">
        <ele>140</ele>
        <time>2015-04-16T12:30:01Z</time>
      </trkpt>
      <trkpt lat="43.3384" lon="5.21314">
        <ele>140</ele>
        <time>2015-04-16T12:30:02Z</time>
      </trkpt>
      <trkpt lat="43.33838" lon="5.21314">
        <ele>140</ele>
        <time>2015-04-16T12:30:03Z</time>
      </trkpt>
      <trkpt lat="43.33836" lon="5.21314">
        <ele>140</ele>
        <time>2015-04-16T12:30:04Z</time>
      </trkpt>
      <trkpt lat="43.33835" lon="5.21314">
        <ele>140</ele>
        <time>2015-04-16T12:30:05Z</time>
      </trkpt>
      <trkpt lat="43.33834" lon="5.21314">
        <ele>140</ele>
        <time>2015-04-16T12:30:06Z</time>
      </trkpt>
      <trkpt lat="43.33832" lon="5.21314">
        <ele>140</ele>
        <time>2015-04-16T12:30:07Z</time>
      </trkpt>
      <trkpt lat="43.33831" lon="5.21314">
        <ele>140</ele>
        <time>2015-04-16T12:30:08Z</time>
      </trkpt>
      <trkpt lat="43.33829" lon="5.21314">
        <ele>140</ele>
        <time>2015-04-16T12:30:09Z</time>
      </trkpt>
      <trkpt lat="43.33827" lon="5.21314">
        <ele>140</ele>
        <time>2015-04-16T12:30:10Z</time>
      </trkpt>
      <trkpt lat="43.33826" lon="5.21314">
        <ele>140</ele>
        <time>2015-04-16T12:30:11Z</time>
      </trkpt>
      <trkpt lat="43.33825" lon="5.21314">
        <ele>140</ele>
        <time>2015-04-16T12:30:12Z</time>
      </trkpt>
      <trkpt lat="43.33823" lon="5.21314">
        <ele>140</ele>
        <time>2015-04-16T12:30:13Z</time>
      </trkpt>
      <trkpt lat="43.33821" lon="5.21314">
        <ele>140</ele>
        <time>2015-04-16T12:30:14Z</time>
      </trkpt>
      <trkpt lat="43.3382" lon="5.21314">
        <ele>140</ele>
        <time>2015-04-16T12:30:15Z</time>
      </trkpt>
      <trkpt lat="43.33818" lon="5.21314">
        <ele>140</ele>
        <time>2015-04-16T12:30:16Z</time>
      </trkpt>
      <trkpt lat="43.33817" lon="5.21314">
        <ele>140</ele>
        <time>2015-04-16T12:30:17Z</time>
      </trkpt>
      <trkpt lat="43.33815" lon="5.21314">
        <ele>140</ele>
        <time>2015-04-16T12:30:18Z</time>
      </trkpt>
      <trkpt lat="43.33814" lon="5.21314">
        <ele>140</ele>
        <time>2015-04-16T12:30:19Z</time>
      </trkpt>
      <trkpt lat="43.33812" lon="5.21314">
        <ele>140</ele>
        <time>2015-04-16T12:30:20Z</time>
      </trkpt>
      <trkpt lat="43.33811" lon="5.21314">
        <ele>140</ele>
        <time>2015-04-16T12:30:21Z</time>
      </trkpt>
      <trkpt lat="43.33809" lon="5.21315">
        <ele>140</ele>
        <time>2015-04-16T12:30:22Z</time>
      </trkpt>
      <trkpt lat="43.33808" lon="5.21316">
        <ele>140</ele>
        <time>2015-04-16T12:30:23Z</time>
      </trkpt>
      <trkpt lat="43.33806" lon="5.21316">
        <ele>140</ele>
        <time>2015-04-16T12:30:24Z</time>
      </trkpt>
      <trkpt lat="43.33804" lon="5.21317">
        <ele>140</ele>
        <time>2015-04-16T12:30:25Z</time>
      </trkpt>
      <trkpt lat="43.33803" lon="5.21317">
        <ele>140</ele>
        <time>2015-04-16T12:30:26Z</time>
      </trkpt>
      <trkpt lat="43.33802" lon="5.21318">
        <ele>140</ele>
        <time>2015-04-16T12:30:27Z</time>
      </trkpt>
      <trkpt lat="43.338" lon="5.21319">
        <ele>140</ele>
        <time>2015-04-16T12:30:28Z</time>
      </trkpt>
      <trkpt lat="43.33799" lon="5.2132">
        <ele>140</ele>
        <time>2015-04-16T12:30:29Z</time>
      </trkpt>
      <trkpt lat="43.33797" lon="5.21322">
        <ele>140</ele>
        <time>2015-04-16T12:30:30Z</time>
      </trkpt>
      <trkpt lat="43.33796" lon="5.21323">
        <ele>140</ele>
        <time>2015-04-16T12:30:31Z</time>
      </trkpt>
      <trkpt lat="43.33794" lon="5.21324">
        <ele>140</ele>
        <time>2015-04-16T12:30:32Z</time>
      </trkpt>
      <trkpt lat="43.33793" lon="5.21325">
        <ele>140</ele>
        <time>2015-04-16T12:30:33Z</time>
      </trkpt>
      <trkpt lat="43.33792" lon="5.21326">
        <ele>140</ele>
        <time>2015-04-16T12:30:34Z</time>
      </trkpt>
      <trkpt lat="43.33791" lon="5.21327">
        <ele>140</ele>
        <time>2015-04-16T12:30:35Z</time>
      </trkpt>
      <trkpt lat="43.3379" lon="5.21329">
        <ele>140</ele>
        <time>2015-04-16T12:30:36Z</time>
      </trkpt>
      <trkpt lat="43.33789" lon="5.21331">
        <ele>140</ele>
        <time>2015-04-16T12:30:37Z</time>
      </trkpt>
      <trkpt lat="43.33788" lon="5.21333">
        <ele>140</ele>
        <time>2015-04-16T12:30:38Z</time>
      </trkpt>
      <trkpt lat="43.33787" lon="5.21334">
        <ele>140</ele>
        <time>2015-04-16T12:30:39Z</time>
      </trkpt>
      <trkpt lat="43.33786" lon="5.21336">
        <ele>140</ele>
        <time>2015-04-16T12:30:40Z</time>
      </trkpt>
      <trkpt lat="43.33785" lon="5.21337">
        <ele>140</ele>
        <time>2015-04-16T12:30:41Z</time>
      </trkpt>
      <trkpt lat="43.33783" lon="5.21339">
        <ele>140</ele>
        <time>2015-04-16T12:30:42Z</time>
      </trkpt>
      <trkpt lat="43.33782" lon="5.2134">
        <ele>140</ele>
        <time>2015-04-16T12:30:43Z</time>
      </trkpt>
      <trkpt lat="43.33781" lon="5.21341">
        <ele>140</ele>
        <time>2015-04-16T12:30:44Z</time>
      </trkpt>
      <trkpt lat="43.3378" lon="5.21343">
        <ele>140</ele>
        <time>2015-04-16T12:30:45Z</time>
      </trkpt>
      <trkpt lat="43.33778" lon="5.21344">
        <ele>140</ele>
        <time>2015-04-16T12:30:46Z</time>
      </trkpt>
      <trkpt lat="43.33777" lon="5.21345">
        <ele>140</ele>
        <time>2015-04-16T12:30:47Z</time>
      </trkpt>
      <trkpt lat="43.33776" lon="5.21346">
        <ele>140</ele>
        <time>2015-04-16T12:30:48Z</time>
      </trkpt>
      <trkpt lat="43.33774" lon="5.21346">
        <ele>140</ele>
        <time>2015-04-16T12:30:49Z</time>
      </trkpt>
      <trkpt lat="43.33773" lon="5.21347">
        <ele>140</ele>
        <time>2015-04-16T12:30:50Z</time>
      </trkpt>
      <trkpt lat="43.33771" lon="5.21347">
        <ele>140</ele>
        <time>2015-04-16T12:30:51Z</time>
      </trkpt>
      <trkpt lat="43.3377" lon="5.21347">
        <ele>140</ele>
        <time>2015-04-16T12:30:52Z</time>
      </trkpt>
      <trkpt lat="43.33768" lon="5.21346">
        <ele>140</ele>
        <time>2015-04-16T12:30:53Z</time>
      </trkpt>
      <trkpt lat="43.33767" lon="5.21345">
        <ele>140</ele>
        <time>2015-04-16T12:30:54Z</time>
      </trkpt>
      <trkpt lat="43.33765" lon="5.21344">
        <ele>140</ele>
        <time>2015-04-16T12:30:55Z</time>
      </trkpt>
      <trkpt lat="43.33765" lon="5.21343">
        <ele>140</ele>
        <time>2015-04-16T12:30:56Z</time>
      </trkpt>
      <trkpt lat="43.33764" lon="5.21341">
        <ele>140</ele>
        <time>2015-04-16T12:30:57Z</time>
      </trkpt>
      <trkpt lat="43.33763" lon="5.21339">
        <ele>140</ele>
        <time>2015-04-16T12:30:58Z</time>
      </trkpt>
      <trkpt lat="43.33762" lon="5.21337">
        <ele>140</ele>
        <time>2015-04-16T12:30:59Z</time>
      </trkpt>
      <trkpt lat="43.33762" lon="5.21336">
        <ele>140</ele>
        <time>2015-04-16T12:31:00Z</time>
      </trkpt>
      <trkpt lat="43.3376" lon="5.21334">
        <ele>140</ele>
        <time>2015-04-16T12:31:01Z</time>
      </trkpt>
      <trkpt lat="43.3376" lon="5.21332">
        <ele>140</ele>
        <time>2015-04-16T12:31:02Z</time>
      </trkpt>
      <trkpt lat="43.33759" lon="5.2133">
        <ele>140</ele>
        <time>2015-04-16T12:31:03Z</time>
      </trkpt>
      <trkpt lat="43.33757" lon="5.21329">
        <ele>140</ele>
        <time>2015-04-16T12:31:04Z</time>
      </trkpt>
      <trkpt lat="43.33757" lon="5.21327">
        <ele>140</ele>
        <time>2015-04-16T12:31:05Z</time>
      </trkpt>
      <trkpt lat="43.33756" lon="5.21325">
        <ele>140</ele>
        <time>2015-04-16T12:31:06Z</time>
      </trkpt>
      <trkpt lat="43.33755" lon="5.21322">
        <ele>139</ele>
        <time>2015-04-16T12:31:07Z</time>
      </trkpt>
      <trkpt lat="43.33754" lon="5.21321">
        <ele>139</ele>
        <time>2015-04-16T12:31:08Z</time>
      </trkpt>
      <trkpt lat="43.33753" lon="5.21319">
        <ele>139</ele>
        <time>2015-04-16T12:31:09Z</time>
      </trkpt>
      <trkpt lat="43.33752" lon="5.21317">
        <ele>139</ele>
        <time>2015-04-16T12:31:10Z</time>
      </trkpt>
      <trkpt lat="43.33751" lon="5.21316">
        <ele>138</ele>
        <time>2015-04-16T12:31:11Z</time>
      </trkpt>
      <trkpt lat="43.3375" lon="5.21314">
        <ele>138</ele>
        <time>2015-04-16T12:31:12Z</time>
      </trkpt>
      <trkpt lat="43.33749" lon="5.21313">
        <ele>138</ele>
        <time>2015-04-16T12:31:13Z</time>
      </trkpt>
      <trkpt lat="43.33748" lon="5.21311">
        <ele>138</ele>
        <time>2015-04-16T12:31:14Z</time>
      </trkpt>
      <trkpt lat="43.33747" lon="5.2131">
        <ele>138</ele>
        <time>2015-04-16T12:31:15Z</time>
      </trkpt>
      <trkpt lat="43.33746" lon="5.21309">
        <ele>137</ele>
        <time>2015-04-16T12:31:16Z</time>
      </trkpt>
      <trkpt lat="43.33744" lon="5.21307">
        <ele>137</ele>
        <time>2015-04-16T12:31:17Z</time>
      </trkpt>
      <trkpt lat="43.33743" lon="5.21306">
        <ele>137</ele>
        <time>2015-04-16T12:31:18Z</time>
      </trkpt>
      <trkpt lat="43.33742" lon="5.21305">
        <ele>137</ele>
        <time>2015-04-16T12:31:19Z</time>
      </trkpt>
      <trkpt lat="43.33741" lon="5.21303">
        <ele>137</ele>
        <time>2015-04-16T12:31:20Z</time>
      </trkpt>
      <trkpt lat="43.33739" lon="5.21302">
        <ele>137</ele>
        <time>2015-04-16T12:31:21Z</time>
      </trkpt>
      <trkpt lat="43.33738" lon="5.21301">
        <ele>137</ele>
        <time>2015-04-16T12:31:22Z</time>
      </trkpt>
      <trkpt lat="43.33736" lon="5.21301">
        <ele>137</ele>
        <time>2015-04-16T12:31:23Z</time>
      </trkpt>
      <trkpt lat="43.33735" lon="5.213">
        <ele>137</ele>
        <time>2015-04-16T12:31:24Z</time>
      </trkpt>
      <trkpt lat="43.33733" lon="5.21299">
        <ele>137</ele>
        <time>2015-04-16T12:31:25Z</time>
      </trkpt>
      <trkpt lat="43.33732" lon="5.21298">
        <ele>137</ele>
        <time>2015-04-16T12:31:26Z</time>
      </trkpt>
      <trkpt lat="43.3373" lon="5.21298">
        <ele>137</ele>
        <time>2015-04-16T12:31:27Z</time>
      </trkpt>
      <trkpt lat="43.33729" lon="5.21298">
        <ele>137</ele>
        <time>2015-04-16T12:31:28Z</time>
      </trkpt>
      <trkpt lat="43.33727" lon="5.21299">
        <ele>137</ele>
        <time>2015-04-16T12:31:29Z</time>
      </trkpt>
      <trkpt lat="43.33726" lon="5.21299">
        <ele>137</ele>
        <time>2015-04-16T12:31:30Z</time>
      </trkpt>
      <trkpt lat="43.33724" lon="5.213">
        <ele>136</ele>
        <time>2015-04-16T12:31:31Z</time>
      </trkpt>
      <trkpt lat="43.33723" lon="5.21301">
        <ele>136</ele>
        <time>2015-04-16T12:31:32Z</time>
      </trkpt>
      <trkpt lat="43.33721" lon="5.21303">
        <ele>136</ele>
        <time>2015-04-16T12:31:33Z</time>
      </trkpt>
      <trkpt lat="43.3372" lon="5.21304">
        <ele>136</ele>
        <time>2015-04-16T12:31:34Z</time>
      </trkpt>
      <trkpt lat="43.33719" lon="5.21306">
        <ele>135</ele>
        <time>2015-04-16T12:31:35Z</time>
      </trkpt>
      <trkpt lat="43.33718" lon="5.21308">
        <ele>135</ele>
        <time>2015-04-16T12:31:36Z</time>
      </trkpt>
      <trkpt lat="43.33717" lon="5.2131">
        <ele>135</ele>
        <time>2015-04-16T12:31:37Z</time>
      </trkpt>
      <trkpt lat="43.33716" lon="5.21312">
        <ele>135</ele>
        <time>2015-04-16T12:31:38Z</time>
      </trkpt>
      <trkpt lat="43.33715" lon="5.21314">
        <ele>135</ele>
        <time>2015-04-16T12:31:39Z</time>
      </trkpt>
      <trkpt lat="43.33715" lon="5.21316">
        <ele>134</ele>
        <time>2015-04-16T12:31:40Z</time>
      </trkpt>
      <trkpt lat="43.33715" lon="5.21318">
        <ele>134</ele>
        <time>2015-04-16T12:31:41Z</time>
      </trkpt>
      <trkpt lat="43.33714" lon="5.21321">
        <ele>134</ele>
        <time>2015-04-16T12:31:42Z</time>
      </trkpt>
      <trkpt lat="43.33714" lon="5.21323">
        <ele>134</ele>
        <time>2015-04-16T12:31:43Z</time>
      </trkpt>
      <trkpt lat="43.33714" lon="5.21325">
        <ele>133</ele>
        <time>2015-04-16T12:31:44Z</time>
      </trkpt>
      <trkpt lat="43.33713" lon="5.21327">
        <ele>133</ele>
        <time>2015-04-16T12:31:45Z</time>
      </trkpt>
      <trkpt lat="43.33713" lon="5.21329">
        <ele>133</ele>
        <time>2015-04-16T12:31:46Z</time>
      </trkpt>
      <trkpt lat="43.33713" lon="5.21332">
        <ele>132</ele>
        <time>2015-04-16T12:31:47Z</time>
      </trkpt>
      <trkpt lat="43.33713" lon="5.21334">
        <ele>132</ele>
        <time>2015-04-16T12:31:48Z</time>
      </trkpt>
      <trkpt lat="43.33713" lon="5.21336">
        <ele>132</ele>
        <time>2015-04-16T12:31:49Z</time>
      </trkpt>
      <trkpt lat="43.33714" lon="5.21338">
        <ele>132</ele>
        <time>2015-04-16T12:31:50Z</time>
      </trkpt>
      <trkpt lat="43.33714" lon="5.2134">
        <ele>131</ele>
        <time>2015-04-16T12:31:51Z</time>
      </trkpt>
      <trkpt lat="43.33715" lon="5.21342">
        <ele>131</ele>
        <time>2015-04-16T12:31:53Z</time>
      </trkpt>
      <trkpt lat="43.33716" lon="5.21344">
        <ele>131</ele>
        <time>2015-04-16T12:31:54Z</time>
      </trkpt>
      <trkpt lat="43.33716" lon="5.21346">
        <ele>130</ele>
        <time>2015-04-16T12:31:55Z</time>
      </trkpt>
      <trkpt lat="43.33716" lon="5.21348">
        <ele>130</ele>
        <time>2015-04-16T12:31:56Z</time>
      </trkpt>
      <trkpt lat="43.33716" lon="5.2135">
        <ele>130</ele>
        <time>2015-04-16T12:31:57Z</time>
      </trkpt>
      <trkpt lat="43.33716" lon="5.21352">
        <ele>130</ele>
        <time>2015-04-16T12:31:58Z</time>
      </trkpt>
      <trkpt lat="43.33717" lon="5.21354">
        <ele>130</ele>
        <time>2015-04-16T12:31:59Z</time>
      </trkpt>
      <trkpt lat="43.33717" lon="5.21356">
        <ele>130</ele>
        <time>2015-04-16T12:32:00Z</time>
      </trkpt>
      <trkpt lat="43.33718" lon="5.21358">
        <ele>130</ele>
        <time>2015-04-16T12:32:01Z</time>
      </trkpt>
      <trkpt lat="43.33718" lon="5.2136">
        <ele>130</ele>
        <time>2015-04-16T12:32:02Z</time>
      </trkpt>
      <trkpt lat="43.33718" lon="5.21362">
        <ele>129</ele>
        <time>2015-04-16T12:32:03Z</time>
      </trkpt>
      <trkpt lat="43.33718" lon="5.21364">
        <ele>129</ele>
        <time>2015-04-16T12:32:04Z</time>
      </trkpt>
      <trkpt lat="43.33718" lon="5.21366">
        <ele>129</ele>
        <time>2015-04-16T12:32:05Z</time>
      </trkpt>
      <trkpt lat="43.33719" lon="5.21368">
        <ele>129</ele>
        <time>2015-04-16T12:32:06Z</time>
      </trkpt>
      <trkpt lat="43.33719" lon="5.21371">
        <ele>128</ele>
        <time>2015-04-16T12:32:07Z</time>
      </trkpt>
      <trkpt lat="43.33719" lon="5.21373">
        <ele>128</ele>
        <time>2015-04-16T12:32:08Z</time>
      </trkpt>
      <trkpt lat="43.3372" lon="5.21375">
        <ele>128</ele>
        <time>2015-04-16T12:32:09Z</time>
      </trkpt>
      <trkpt lat="43.3372" lon="5.21377">
        <ele>127</ele>
        <time>2015-04-16T12:32:10Z</time>
      </trkpt>
      <trkpt lat="43.3372" lon="5.21379">
        <ele>127</ele>
        <time>2015-04-16T12:32:11Z</time>
      </trkpt>
      <trkpt lat="43.33721" lon="5.21381">
        <ele>127</ele>
        <time>2015-04-16T12:32:12Z</time>
      </trkpt>
      <trkpt lat="43.33721" lon="5.21383">
        <ele>127</ele>
        <time>2015-04-16T12:32:13Z</time>
      </trkpt>
      <trkpt lat="43.33722" lon="5.21385">
        <ele>127</ele>
        <time>2015-04-16T12:32:14Z</time>
      </trkpt>
      <trkpt lat="43.33722" lon="5.21387">
        <ele>127</ele>
        <time>2015-04-16T12:32:15Z</time>
      </trkpt>
      <trkpt lat="43.33722" lon="5.2139">
        <ele>127</ele>
        <time>2015-04-16T12:32:16Z</time>
      </trkpt>
      <trkpt lat="43.33722" lon="5.21391">
        <ele>126</ele>
        <time>2015-04-16T12:32:17Z</time>
      </trkpt>
      <trkpt lat="43.33722" lon="5.21393">
        <ele>126</ele>
        <time>2015-04-16T12:32:18Z</time>
      </trkpt>
      <trkpt lat="43.33721" lon="5.21396">
        <ele>126</ele>
        <time>2015-04-16T12:32:19Z</time>
      </trkpt>
      <trkpt lat="43.33721" lon="5.21398">
        <ele>126</ele>
        <time>2015-04-16T12:32:20Z</time>
      </trkpt>
      <trkpt lat="43.3372" lon="5.214">
        <ele>125</ele>
        <time>2015-04-16T12:32:21Z</time>
      </trkpt>
      <trkpt lat="43.3372" lon="5.21402">
        <ele>125</ele>
        <time>2015-04-16T12:32:22Z</time>
      </trkpt>
      <trkpt lat="43.3372" lon="5.21404">
        <ele>125</ele>
        <time>2015-04-16T12:32:23Z</time>
      </trkpt>
      <trkpt lat="43.33719" lon="5.21406">
        <ele>125</ele>
        <time>2015-04-16T12:32:24Z</time>
      </trkpt>
      <trkpt lat="43.33719" lon="5.21408">
        <ele>125</ele>
        <time>2015-04-16T12:32:25Z</time>
      </trkpt>
      <trkpt lat="43.33718" lon="5.2141">
        <ele>125</ele>
        <time>2015-04-16T12:32:26Z</time>
      </trkpt>
      <trkpt lat="43.33718" lon="5.21413">
        <ele>124</ele>
        <time>2015-04-16T12:32:27Z</time>
      </trkpt>
      <trkpt lat="43.33717" lon="5.21415">
        <ele>124</ele>
        <time>2015-04-16T12:32:28Z</time>
      </trkpt>
      <trkpt lat="43.33717" lon="5.21417">
        <ele>124</ele>
        <time>2015-04-16T12:32:29Z</time>
      </trkpt>
      <trkpt lat="43.33717" lon="5.21419">
        <ele>124</ele>
        <time>2015-04-16T12:32:30Z</time>
      </trkpt>
      <trkpt lat="43.33716" lon="5.21421">
        <ele>124</ele>
        <time>2015-04-16T12:32:31Z</time>
      </trkpt>
      <trkpt lat="43.33716" lon="5.21423">
        <ele>124</ele>
        <time>2015-04-16T12:32:32Z</time>
      </trkpt>
      <trkpt lat="43.33715" lon="5.21426">
        <ele>124</ele>
        <time>2015-04-16T12:32:33Z</time>
      </trkpt>
      <trkpt lat="43.33715" lon="5.21428">
        <ele>123</ele>
        <time>2015-04-16T12:32:34Z</time>
      </trkpt>
      <trkpt lat="43.33715" lon="5.2143">
        <ele>123</ele>
        <time>2015-04-16T12:32:35Z</time>
      </trkpt>
      <trkpt lat="43.33715" lon="5.21432">
        <ele>123</ele>
        <time>2015-04-16T12:32:36Z</time>
      </trkpt>
      <trkpt lat="43.33714" lon="5.21434">
        <ele>123</ele>
        <time>2015-04-16T12:32:37Z</time>
      </trkpt>
      <trkpt lat="43.33714" lon="5.21437">
        <ele>122</ele>
        <time>2015-04-16T12:32:38Z</time>
      </trkpt>
      <trkpt lat="43.33713" lon="5.21439">
        <ele>122</ele>
        <time>2015-04-16T12:32:39Z</time>
      </trkpt>
      <trkpt lat="43.33713" lon="5.21442">
        <ele>122</ele>
        <time>2015-04-16T12:32:40Z</time>
      </trkpt>
      <trkpt lat="43.33712" lon="5.21444">
        <ele>122</ele>
        <time>2015-04-16T12:32:41Z</time>
      </trkpt>
      <trkpt lat="43.33712" lon="5.21446">
        <ele>122</ele>
        <time>2015-04-16T12:32:42Z</time>
      </trkpt>
      <trkpt lat="43.33711" lon="5.21448">
        <ele>121</ele>
        <time>2015-04-16T12:32:43Z</time>
      </trkpt>
      <trkpt lat="43.33711" lon="5.2145">
        <ele>121</ele>
        <time>2015-04-16T12:32:44Z</time>
      </trkpt>
      <trkpt lat="43.33711" lon="5.21452">
        <ele>121</ele>
        <time>2015-04-16T12:32:45Z</time>
      </trkpt>
      <trkpt lat="43.33711" lon="5.21454">
        <ele>121</ele>
        <time>2015-04-16T12:32:46Z</time>
      </trkpt>
      <trkpt lat="43.33711" lon="5.21457">
        <ele>120</ele>
        <time>2015-04-16T12:32:47Z</time>
      </trkpt>
      <trkpt lat="43.3371" lon="5.21459">
        <ele>120</ele>
        <time>2015-04-16T12:32:48Z</time>
      </trkpt>
      <trkpt lat="43.3371" lon="5.21461">
        <ele>120</ele>
        <time>2015-04-16T12:32:49Z</time>
      </trkpt>
      <trkpt lat="43.33709" lon="5.21463">
        <ele>120</ele>
        <time>2015-04-16T12:32:50Z</time>
      </trkpt>
      <trkpt lat="43.33709" lon="5.21466">
        <ele>120</ele>
        <time>2015-04-16T12:32:51Z</time>
      </trkpt>
      <trkpt lat="43.33709" lon="5.21468">
        <ele>120</ele>
        <time>2015-04-16T12:32:52Z</time>
      </trkpt>
      <trkpt lat="43.33708" lon="5.21471">
        <ele>120</ele>
        <time>2015-04-16T12:32:53Z</time>
      </trkpt>
      <trkpt lat="43.33708" lon="5.21473">
        <ele>120</ele>
        <time>2015-04-16T12:32:54Z</time>
      </trkpt>
      <trkpt lat="43.33708" lon="5.21476">
        <ele>120</ele>
        <time>2015-04-16T12:32:55Z</time>
      </trkpt>
      <trkpt lat="43.33707" lon="5.21478">
        <ele>119</ele>
        <time>2015-04-16T12:32:56Z</time>
      </trkpt>
      <trkpt lat="43.33706" lon="5.2148">
        <ele>119</ele>
        <time>2015-04-16T12:32:57Z</time>
      </trkpt>
      <trkpt lat="43.33706" lon="5.21482">
        <ele>119</ele>
        <time>2015-04-16T12:32:58Z</time>
      </trkpt>
      <trkpt lat="43.33705" lon="5.21484">
        <ele>119</ele>
        <time>2015-04-16T12:32:59Z</time>
      </trkpt>
      <trkpt lat="43.33704" lon="5.21486">
        <ele>119</ele>
        <time>2015-04-16T12:33:00Z</time>
      </trkpt>
      <trkpt lat="43.33703" lon="5.21488">
        <ele>119</ele>
        <time>2015-04-16T12:33:01Z</time>
      </trkpt>
      <trkpt lat="43.33702" lon="5.2149">
        <ele>119</ele>
        <time>2015-04-16T12:33:02Z</time>
      </trkpt>
      <trkpt lat="43.33701" lon="5.21491">
        <ele>119</ele>
        <time>2015-04-16T12:33:03Z</time>
      </trkpt>
      <trkpt lat="43.337" lon="5.21493">
        <ele>119</ele>
        <time>2015-04-16T12:33:04Z</time>
      </trkpt>
      <trkpt lat="43.33699" lon="5.21494">
        <ele>119</ele>
        <time>2015-04-16T12:33:05Z</time>
      </trkpt>
      <trkpt lat="43.33697" lon="5.21496">
        <ele>119</ele>
        <time>2015-04-16T12:33:06Z</time>
      </trkpt>
      <trkpt lat="43.33696" lon="5.21497">
        <ele>119</ele>
        <time>2015-04-16T12:33:07Z</time>
      </trkpt>
      <trkpt lat="43.33695" lon="5.21498">
        <ele>119</ele>
        <time>2015-04-16T12:33:08Z</time>
      </trkpt>
      <trkpt lat="43.33694" lon="5.215">
        <ele>119</ele>
        <time>2015-04-16T12:33:09Z</time>
      </trkpt>
      <trkpt lat="43.33692" lon="5.21501">
        <ele>119</ele>
        <time>2015-04-16T12:33:10Z</time>
      </trkpt>
      <trkpt lat="43.33691" lon="5.21502">
        <ele>119</ele>
        <time>2015-04-16T12:33:11Z</time>
      </trkpt>
      <trkpt lat="43.33689" lon="5.21503">
        <ele>119</ele>
        <time>2015-04-16T12:33:12Z</time>
      </trkpt>
      <trkpt lat="43.33688" lon="5.21505">
        <ele>119</ele>
        <time>2015-04-16T12:33:13Z</time>
      </trkpt>
      <trkpt lat="43.33687" lon="5.21506">
        <ele>119</ele>
        <time>2015-04-16T12:33:14Z</time>
      </trkpt>
      <trkpt lat="43.33686" lon="5.21508">
        <ele>119</ele>
        <time>2015-04-16T12:33:15Z</time>
      </trkpt>
      <trkpt lat="43.33685" lon="5.21509">
        <ele>119</ele>
        <time>2015-04-16T12:33:16Z</time>
      </trkpt>
      <trkpt lat="43.33683" lon="5.2151">
        <ele>119</ele>
        <time>2015-04-16T12:33:17Z</time>
      </trkpt>
      <trkpt lat="43.33682" lon="5.21511">
        <ele>119</ele>
        <time>2015-04-16T12:33:18Z</time>
      </trkpt>
      <trkpt lat="43.33681" lon="5.21513">
        <ele>119</ele>
        <time>2015-04-16T12:33:19Z</time>
      </trkpt>
      <trkpt lat="43.3368" lon="5.21513">
        <ele>119</ele>
        <time>2015-04-16T12:33:20Z</time>
      </trkpt>
      <trkpt lat="43.33678" lon="5.21514">
        <ele>119</ele>
        <time>2015-04-16T12:33:21Z</time>
      </trkpt>
      <trkpt lat="43.33677" lon="5.21515">
        <ele>119</ele>
        <time>2015-04-16T12:33:22Z</time>
      </trkpt>
      <trkpt lat="43.33675" lon="5.21516">
        <ele>119</ele>
        <time>2015-04-16T12:33:23Z</time>
      </trkpt>
      <trkpt lat="43.33673" lon="5.21517">
        <ele>119</ele>
        <time>2015-04-16T12:33:24Z</time>
      </trkpt>
      <trkpt lat="43.33672" lon="5.21518">
        <ele>119</ele>
        <time>2015-04-16T12:33:25Z</time>
      </trkpt>
      <trkpt lat="43.3367" lon="5.21519">
        <ele>119</ele>
        <time>2015-04-16T12:33:26Z</time>
      </trkpt>
      <trkpt lat="43.33668" lon="5.2152">
        <ele>119</ele>
        <time>2015-04-16T12:33:27Z</time>
      </trkpt>
      <trkpt lat="43.33667" lon="5.21521">
        <ele>119</ele>
        <time>2015-04-16T12:33:28Z</time>
      </trkpt>
      <trkpt lat="43.33665" lon="5.21522">
        <ele>119</ele>
        <time>2015-04-16T12:33:29Z</time>
      </trkpt>
      <trkpt lat="43.33664" lon="5.21523">
        <ele>119</ele>
        <time>2015-04-16T12:33:30Z</time>
      </trkpt>
      <trkpt lat="43.33662" lon="5.21524">
        <ele>119</ele>
        <time>2015-04-16T12:33:31Z</time>
      </trkpt>
      <trkpt lat="43.33661" lon="5.21526">
        <ele>119</ele>
        <time>2015-04-16T12:33:32Z</time>
      </trkpt>
      <trkpt lat="43.3366" lon="5.21527">
        <ele>119</ele>
        <time>2015-04-16T12:33:33Z</time>
      </trkpt>
      <trkpt lat="43.33658" lon="5.21528">
        <ele>119</ele>
        <time>2015-04-16T12:33:34Z</time>
      </trkpt>
      <trkpt lat="43.33657" lon="5.21529">
        <ele>119</ele>
        <time>2015-04-16T12:33:35Z</time>
      </trkpt>
      <trkpt lat="43.33656" lon="5.21531">
        <ele>119</ele>
        <time>2015-04-16T12:33:36Z</time>
      </trkpt>
      <trkpt lat="43.33654" lon="5.21532">
        <ele>119</ele>
        <time>2015-04-16T12:33:37Z</time>
      </trkpt>
      <trkpt lat="43.33653" lon="5.21533">
        <ele>119</ele>
        <time>2015-04-16T12:33:38Z</time>
      </trkpt>
      <trkpt lat="43.33651" lon="5.21534">
        <ele>119</ele>
        <time>2015-04-16T12:33:39Z</time>
      </trkpt>
      <trkpt lat="43.3365" lon="5.21535">
        <ele>118</ele>
        <time>2015-04-16T12:33:40Z</time>
      </trkpt>
      <trkpt lat="43.33649" lon="5.21536">
        <ele>118</ele>
        <time>2015-04-16T12:33:41Z</time>
      </trkpt>
      <trkpt lat="43.33647" lon="5.21538">
        <ele>118</ele>
        <time>2015-04-16T12:33:42Z</time>
      </trkpt>
      <trkpt lat="43.33646" lon="5.21539">
        <ele>118</ele>
        <time>2015-04-16T12:33:43Z</time>
      </trkpt>
      <trkpt lat="43.33645" lon="5.2154">
        <ele>118</ele>
        <time>2015-04-16T12:33:44Z</time>
      </trkpt>
      <trkpt lat="43.33643" lon="5.21542">
        <ele>118</ele>
        <time>2015-04-16T12:33:45Z</time>
      </trkpt>
      <trkpt lat="43.33642" lon="5.21544">
        <ele>118</ele>
        <time>2015-04-16T12:33:46Z</time>
      </trkpt>
      <trkpt lat="43.33641" lon="5.21545">
        <ele>118</ele>
        <time>2015-04-16T12:33:47Z</time>
      </trkpt>
      <trkpt lat="43.3364" lon="5.21547">
        <ele>117</ele>
        <time>2015-04-16T12:33:48Z</time>
      </trkpt>
      <trkpt lat="43.33639" lon="5.21549">
        <ele>117</ele>
        <time>2015-04-16T12:33:49Z</time>
      </trkpt>
      <trkpt lat="43.33638" lon="5.21551">
        <ele>117</ele>
        <time>2015-04-16T12:33:50Z</time>
      </trkpt>
      <trkpt lat="43.33637" lon="5.21553">
        <ele>116</ele>
        <time>2015-04-16T12:33:51Z</time>
      </trkpt>
      <trkpt lat="43.33636" lon="5.21554">
        <ele>116</ele>
        <time>2015-04-16T12:33:52Z</time>
      </trkpt>
      <trkpt lat="43.33636" lon="5.21557">
        <ele>116</ele>
        <time>2015-04-16T12:33:53Z</time>
      </trkpt>
      <trkpt lat="43.33635" lon="5.21559">
        <ele>116</ele>
        <time>2015-04-16T12:33:54Z</time>
      </trkpt>
      <trkpt lat="43.33635" lon="5.21561">
        <ele>115</ele>
        <time>2015-04-16T12:33:55Z</time>
      </trkpt>
      <trkpt lat="43.33634" lon="5.21563">
        <ele>115</ele>
        <time>2015-04-16T12:33:56Z</time>
      </trkpt>
      <trkpt lat="43.33633" lon="5.21565">
        <ele>115</ele>
        <time>2015-04-16T12:33:57Z</time>
      </trkpt>
      <trkpt lat="43.33633" lon="5.21567">
        <ele>115</ele>
        <time>2015-04-16T12:33:58Z</time>
      </trkpt>
      <trkpt lat="43.33633" lon="5.21569">
        <ele>114</ele>
        <time>2015-04-16T12:33:59Z</time>
      </trkpt>
      <trkpt lat="43.33633" lon="5.21572">
        <ele>114</ele>
        <time>2015-04-16T12:34:00Z</time>
      </trkpt>
      <trkpt lat="43.33633" lon="5.21574">
        <ele>114</ele>
        <time>2015-04-16T12:34:01Z</time>
      </trkpt>
      <trkpt lat="43.33633" lon="5.21576">
        <ele>113</ele>
        <time>2015-04-16T12:34:02Z</time>
      </trkpt>
      <trkpt lat="43.33633" lon="5.21579">
        <ele>113</ele>
        <time>2015-04-16T12:34:03Z</time>
      </trkpt>
      <trkpt lat="43.33633" lon="5.21581">
        <ele>112</ele>
        <time>2015-04-16T12:34:04Z</time>
      </trkpt>
      <trkpt lat="43.33633" lon="5.21583">
        <ele>112</ele>
        <time>2015-04-16T12:34:05Z</time>
      </trkpt>
      <trkpt lat="43.33633" lon="5.21586">
        <ele>112</ele>
        <time>2015-04-16T12:34:06Z</time>
      </trkpt>
      <trkpt lat="43.33633" lon="5.21588">
        <ele>111</ele>
        <time>2015-04-16T12:34:07Z</time>
      </trkpt>
      <trkpt lat="43.33633" lon="5.2159">
        <ele>111</ele>
        <time>2015-04-16T12:34:08Z</time>
      </trkpt>
      <trkpt lat="43.33633" lon="5.21593">
        <ele>111</ele>
        <time>2015-04-16T12:34:09Z</time>
      </trkpt>
      <trkpt lat="43.33633" lon="5.21595">
        <ele>110</ele>
        <time>2015-04-16T12:34:10Z</time>
      </trkpt>
      <trkpt lat="43.33633" lon="5.21597">
        <ele>110</ele>
        <time>2015-04-16T12:34:11Z</time>
      </trkpt>
      <trkpt lat="43.33633" lon="5.216">
        <ele>110</ele>
        <time>2015-04-16T12:34:12Z</time>
      </trkpt>
      <trkpt lat="43.33633" lon="5.21602">
        <ele>109</ele>
        <time>2015-04-16T12:34:13Z</time>
      </trkpt>
      <trkpt lat="43.33633" lon="5.21604">
        <ele>109</ele>
        <time>2015-04-16T12:34:14Z</time>
      </trkpt>
      <trkpt lat="43.33633" lon="5.21607">
        <ele>108</ele>
        <time>2015-04-16T12:34:15Z</time>
      </trkpt>
      <trkpt lat="43.33633" lon="5.21609">
        <ele>108</ele>
        <time>2015-04-16T12:34:16Z</time>
      </trkpt>
      <trkpt lat="43.33633" lon="5.21611">
        <ele>108</ele>
        <time>2015-04-16T12:34:17Z</time>
      </trkpt>
      <trkpt lat="43.33633" lon="5.21614">
        <ele>107</ele>
        <time>2015-04-16T12:34:18Z</time>
      </trkpt>
      <trkpt lat="43.33633" lon="5.21616">
        <ele>107</ele>
        <time>2015-04-16T12:34:19Z</time>
      </trkpt>
      <trkpt lat="43.33633" lon="5.21618">
        <ele>106</ele>
        <time>2015-04-16T12:34:20Z</time>
      </trkpt>
      <trkpt lat="43.33633" lon="5.2162">
        <ele>106</ele>
        <time>2015-04-16T12:34:21Z</time>
      </trkpt>
      <trkpt lat="43.33633" lon="5.21622">
        <ele>106</ele>
        <time>2015-04-16T12:34:22Z</time>
      </trkpt>
      <trkpt lat="43.33633" lon="5.21625">
        <ele>105</ele>
        <time>2015-04-16T12:34:23Z</time>
      </trkpt>
      <trkpt lat="43.33633" lon="5.21627">
        <ele>105</ele>
        <time>2015-04-16T12:34:24Z</time>
      </trkpt>
      <trkpt lat="43.33633" lon="5.2163">
        <ele>104</ele>
        <time>2015-04-16T12:34:25Z</time>
      </trkpt>
      <trkpt lat="43.33633" lon="5.21632">
        <ele>104</ele>
        <time>2015-04-16T12:34:26Z</time>
      </trkpt>
      <trkpt lat="43.33633" lon="5.21634">
        <ele>104</ele>
        <time>2015-04-16T12:34:27Z</time>
      </trkpt>
      <trkpt lat="43.33632" lon="5.21636">
        <ele>103</ele>
        <time>2015-04-16T12:34:28Z</time>
      </trkpt>
      <trkpt lat="43.33632" lon="5.21639">
        <ele>103</ele>
        <time>2015-04-16T12:34:29Z</time>
      </trkpt>
      <trkpt lat="43.33632" lon="5.21641">
        <ele>103</ele>
        <time>2015-04-16T12:34:30Z</time>
      </trkpt>
      <trkpt lat="43.33632" lon="5.21644">
        <ele>103</ele>
        <time>2015-04-16T12:34:31Z</time>
      </trkpt>
      <trkpt lat="43.33632" lon="5.21646">
        <ele>102</ele>
        <time>2015-04-16T12:34:32Z</time>
      </trkpt>
      <trkpt lat="43.33632" lon="5.21649">
        <ele>102</ele>
        <time>2015-04-16T12:34:33Z</time>
      </trkpt>
      <trkpt lat="43.33632" lon="5.21651">
        <ele>102</ele>
        <time>2015-04-16T12:34:34Z</time>
      </trkpt>
      <trkpt lat="43.33632" lon="5.21654">
        <ele>102</ele>
        <time>2015-04-16T12:34:35Z</time>
      </trkpt>
      <trkpt lat="43.33632" lon="5.21656">
        <ele>102</ele>
        <time>2015-04-16T12:34:36Z</time>
      </trkpt>
      <trkpt lat="43.33632" lon="5.21658">
        <ele>102</ele>
        <time>2015-04-16T12:34:37Z</time>
      </trkpt>
      <trkpt lat="43.33631" lon="5.21661">
        <ele>101</ele>
        <time>2015-04-16T12:34:38Z</time>
      </trkpt>
      <trkpt lat="43.33631" lon="5.21663">
        <ele>101</ele>
        <time>2015-04-16T12:34:39Z</time>
      </trkpt>
      <trkpt lat="43.33631" lon="5.21665">
        <ele>101</ele>
        <time>2015-04-16T12:34:40Z</time>
      </trkpt>
      <trkpt lat="43.33631" lon="5.21667">
        <ele>101</ele>
        <time>2015-04-16T12:34:41Z</time>
      </trkpt>
      <trkpt lat="43.3363" lon="5.21669">
        <ele>101</ele>
        <time>2015-04-16T12:34:42Z</time>
      </trkpt>
      <trkpt lat="43.3363" lon="5.21672">
        <ele>101</ele>
        <time>2015-04-16T12:34:43Z</time>
      </trkpt>
      <trkpt lat="43.3363" lon="5.21674">
        <ele>101</ele>
        <time>2015-04-16T12:34:44Z</time>
      </trkpt>
      <trkpt lat="43.3363" lon="5.21676">
        <ele>101</ele>
        <time>2015-04-16T12:34:45Z</time>
      </trkpt>
      <trkpt lat="43.3363" lon="5.21678">
        <ele>101</ele>
        <time>2015-04-16T12:34:46Z</time>
      </trkpt>
      <trkpt lat="43.33629" lon="5.2168">
        <ele>101</ele>
        <time>2015-04-16T12:34:47Z</time>
      </trkpt>
      <trkpt lat="43.33629" lon="5.21683">
        <ele>101</ele>
        <time>2015-04-16T12:34:48Z</time>
      </trkpt>
      <trkpt lat="43.33629" lon="5.21685">
        <ele>101</ele>
        <time>2015-04-16T12:34:49Z</time>
      </trkpt>
      <trkpt lat="43.33629" lon="5.21687">
        <ele>100</ele>
        <time>2015-04-16T12:34:50Z</time>
      </trkpt>
      <trkpt lat="43.33629" lon="5.21689">
        <ele>100</ele>
        <time>2015-04-16T12:34:51Z</time>
      </trkpt>
      <trkpt lat="43.33629" lon="5.21691">
        <ele>100</ele>
        <time>2015-04-16T12:34:52Z</time>
      </trkpt>
      <trkpt lat="43.33629" lon="5.21693">
        <ele>100</ele>
        <time>2015-04-16T12:34:53Z</time>
      </trkpt>
      <trkpt lat="43.33629" lon="5.21696">
        <ele>100</ele>
        <time>2015-04-16T12:34:54Z</time>
      </trkpt>
      <trkpt lat="43.33629" lon="5.21698">
        <ele>100</ele>
        <time>2015-04-16T12:34:55Z</time>
      </trkpt>
      <trkpt lat="43.33629" lon="5.217">
        <ele>100</ele>
        <time>2015-04-16T12:34:56Z</time>
      </trkpt>
      <trkpt lat="43.33629" lon="5.21702">
        <ele>100</ele>
        <time>2015-04-16T12:34:57Z</time>
      </trkpt>
      <trkpt lat="43.33628" lon="5.21704">
        <ele>100</ele>
        <time>2015-04-16T12:34:58Z</time>
      </trkpt>
      <trkpt lat="43.33628" lon="5.21706">
        <ele>100</ele>
        <time>2015-04-16T12:34:59Z</time>
      </trkpt>
      <trkpt lat="43.33628" lon="5.21708">
        <ele>99</ele>
        <time>2015-04-16T12:35:00Z</time>
      </trkpt>
      <trkpt lat="43.33629" lon="5.2171">
        <ele>99</ele>
        <time>2015-04-16T12:35:01Z</time>
      </trkpt>
      <trkpt lat="43.33629" lon="5.21712">
        <ele>99</ele>
        <time>2015-04-16T12:35:02Z</time>
      </trkpt>
      <trkpt lat="43.3363" lon="5.21714">
        <ele>99</ele>
        <time>2015-04-16T12:35:03Z</time>
      </trkpt>
      <trkpt lat="43.33631" lon="5.21716">
        <ele>99</ele>
        <time>2015-04-16T12:35:04Z</time>
      </trkpt>
      <trkpt lat="43.33632" lon="5.21719">
        <ele>99</ele>
        <time>2015-04-16T12:35:05Z</time>
      </trkpt>
      <trkpt lat="43.33632" lon="5.21721">
        <ele>98</ele>
        <time>2015-04-16T12:35:06Z</time>
      </trkpt>
      <trkpt lat="43.33633" lon="5.21723">
        <ele>98</ele>
        <time>2015-04-16T12:35:07Z</time>
      </trkpt>
      <trkpt lat="43.33634" lon="5.21725">
        <ele>98</ele>
        <time>2015-04-16T12:35:08Z</time>
      </trkpt>
      <trkpt lat="43.33634" lon="5.21727">
        <ele>98</ele>
        <time>2015-04-16T12:35:09Z</time>
      </trkpt>
      <trkpt lat="43.33635" lon="5.21729">
        <ele>98</ele>
        <time>2015-04-16T12:35:10Z</time>
      </trkpt>
      <trkpt lat="43.33635" lon="5.21731">
        <ele>98</ele>
        <time>2015-04-16T12:35:11Z</time>
      </trkpt>
      <trkpt lat="43.33635" lon="5.21732">
        <ele>97</ele>
        <time>2015-04-16T12:35:12Z</time>
      </trkpt>
      <trkpt lat="43.33636" lon="5.21735">
        <ele>97</ele>
        <time>2015-04-16T12:35:13Z</time>
      </trkpt>
      <trkpt lat="43.33636" lon="5.21737">
        <ele>97</ele>
        <time>2015-04-16T12:35:14Z</time>
      </trkpt>
      <trkpt lat="43.33635" lon="5.21739">
        <ele>97</ele>
        <time>2015-04-16T12:35:15Z</time>
      </trkpt>
      <trkpt lat="43.33634" lon="5.21741">
        <ele>96</ele>
        <time>2015-04-16T12:35:16Z</time>
      </trkpt>
      <trkpt lat="43.33633" lon="5.21742">
        <ele>96</ele>
        <time>2015-04-16T12:35:17Z</time>
      </trkpt>
      <trkpt lat="43.33631" lon="5.21743">
        <ele>96</ele>
        <time>2015-04-16T12:35:18Z</time>
      </trkpt>
      <trkpt lat="43.33629" lon="5.21744">
        <ele>96</ele>
        <time>2015-04-16T12:35:19Z</time>
      </trkpt>
      <trkpt lat="43.33627" lon="5.21744">
        <ele>96</ele>
        <time>2015-04-16T12:35:20Z</time>
      </trkpt>
      <trkpt lat="43.33626" lon="5.21743">
        <ele>95</ele>
        <time>2015-04-16T12:35:21Z</time>
      </trkpt>
      <trkpt lat="43.33624" lon="5.21742">
        <ele>95</ele>
        <time>2015-04-16T12:35:22Z</time>
      </trkpt>
      <trkpt lat="43.33622" lon="5.21741">
        <ele>95</ele>
        <time>2015-04-16T12:35:23Z</time>
      </trkpt>
      <trkpt lat="43.33621" lon="5.21739">
        <ele>95</ele>
        <time>2015-04-16T12:35:24Z</time>
      </trkpt>
      <trkpt lat="43.3362" lon="5.21737">
        <ele>95</ele>
        <time>2015-04-16T12:35:25Z</time>
      </trkpt>
      <trkpt lat="43.33618" lon="5.21736">
        <ele>94</ele>
        <time>2015-04-16T12:35:27Z</time>
      </trkpt>
      <trkpt lat="43.33616" lon="5.21734">
        <ele>94</ele>
        <time>2015-04-16T12:35:29Z</time>
      </trkpt>
      <trkpt lat="43.33614" lon="5.21732">
        <ele>94</ele>
        <time>2015-04-16T12:35:30Z</time>
      </trkpt>
      <trkpt lat="43.33613" lon="5.2173">
        <ele>93</ele>
        <time>2015-04-16T12:35:31Z</time>
      </trkpt>
      <trkpt lat="43.33612" lon="5.21728">
        <ele>93</ele>
        <time>2015-04-16T12:35:32Z</time>
      </trkpt>
      <trkpt lat="43.33611" lon="5.21726">
        <ele>93</ele>
        <time>2015-04-16T12:35:33Z</time>
      </trkpt>
      <trkpt lat="43.33611" lon="5.21725">
        <ele>93</ele>
        <time>2015-04-16T12:35:34Z</time>
      </trkpt>
      <trkpt lat="43.3361" lon="5.21723">
        <ele>93</ele>
        <time>2015-04-16T12:35:35Z</time>
      </trkpt>
      <trkpt lat="43.33609" lon="5.21721">
        <ele>93</ele>
        <time>2015-04-16T12:35:36Z</time>
      </trkpt>
      <trkpt lat="43.33609" lon="5.21719">
        <ele>93</ele>
        <time>2015-04-16T12:35:37Z</time>
      </trkpt>
      <trkpt lat="43.33609" lon="5.21716">
        <ele>93</ele>
        <time>2015-04-16T12:35:38Z</time>
      </trkpt>
      <trkpt lat="43.33608" lon="5.21714">
        <ele>92</ele>
        <time>2015-04-16T12:35:39Z</time>
      </trkpt>
      <trkpt lat="43.33608" lon="5.21712">
        <ele>92</ele>
        <time>2015-04-16T12:35:40Z</time>
      </trkpt>
      <trkpt lat="43.33607" lon="5.21709">
        <ele>92</ele>
        <time>2015-04-16T12:35:41Z</time>
      </trkpt>
      <trkpt lat="43.33607" lon="5.21707">
        <ele>92</ele>
        <time>2015-04-16T12:35:42Z</time>
      </trkpt>
      <trkpt lat="43.33607" lon="5.21706">
        <ele>92</ele>
        <time>2015-04-16T12:35:43Z</time>
      </trkpt>
      <trkpt lat="43.33607" lon="5.21704">
        <ele>92</ele>
        <time>2015-04-16T12:35:44Z</time>
      </trkpt>
      <trkpt lat="43.33609" lon="5.21702">
        <ele>92</ele>
        <time>2015-04-16T12:35:46Z</time>
      </trkpt>
      <trkpt lat="43.3361" lon="5.21699">
        <ele>92</ele>
        <time>2015-04-16T12:35:48Z</time>
      </trkpt>
      <trkpt lat="43.3361" lon="5.21698">
        <ele>92</ele>
        <time>2015-04-16T12:35:49Z</time>
      </trkpt>
      <trkpt lat="43.33611" lon="5.21696">
        <ele>92</ele>
        <time>2015-04-16T12:35:50Z</time>
      </trkpt>
      <trkpt lat="43.33611" lon="5.21694">
        <ele>92</ele>
        <time>2015-04-16T12:35:51Z</time>
      </trkpt>
      <trkpt lat="43.33611" lon="5.21693">
        <ele>92</ele>
        <time>2015-04-16T12:35:52Z</time>
      </trkpt>
      <trkpt lat="43.3361" lon="5.21691">
        <ele>92</ele>
        <time>2015-04-16T12:35:54Z</time>
      </trkpt>
      <trkpt lat="43.33609" lon="5.21691">
        <ele>92</ele>
        <time>2015-04-16T12:35:56Z</time>
      </trkpt>
      <trkpt lat="43.33608" lon="5.21691">
        <ele>92</ele>
        <time>2015-04-16T12:35:57Z</time>
      </trkpt>
      <trkpt lat="43.33606" lon="5.21691">
        <ele>92</ele>
        <time>2015-04-16T12:35:58Z</time>
      </trkpt>
      <trkpt lat="43.33605" lon="5.21692">
        <ele>92</ele>
        <time>2015-04-16T12:35:59Z</time>
      </trkpt>
      <trkpt lat="43.33603" lon="5.21695">
        <ele>92</ele>
        <time>2015-04-16T12:36:01Z</time>
      </trkpt>
      <trkpt lat="43.33603" lon="5.21697">
        <ele>92</ele>
        <time>2015-04-16T12:36:02Z</time>
      </trkpt>
      <trkpt lat="43.33602" lon="5.21699">
        <ele>92</ele>
        <time>2015-04-16T12:36:03Z</time>
      </trkpt>
      <trkpt lat="43.33601" lon="5.21701">
        <ele>92</ele>
        <time>2015-04-16T12:36:04Z</time>
      </trkpt>
      <trkpt lat="43.33601" lon="5.21703">
        <ele>92</ele>
        <time>2015-04-16T12:36:05Z</time>
      </trkpt>
      <trkpt lat="43.33601" lon="5.21704">
        <ele>92</ele>
        <time>2015-04-16T12:36:06Z</time>
      </trkpt>
      <trkpt lat="43.33601" lon="5.21707">
        <ele>92</ele>
        <time>2015-04-16T12:36:07Z</time>
      </trkpt>
      <trkpt lat="43.33602" lon="5.21709">
        <ele>92</ele>
        <time>2015-04-16T12:36:08Z</time>
      </trkpt>
      <trkpt lat="43.33602" lon="5.21711">
        <ele>92</ele>
        <time>2015-04-16T12:36:09Z</time>
      </trkpt>
      <trkpt lat="43.33602" lon="5.21713">
        <ele>92</ele>
        <time>2015-04-16T12:36:10Z</time>
      </trkpt>
      <trkpt lat="43.33602" lon="5.21715">
        <ele>92</ele>
        <time>2015-04-16T12:36:11Z</time>
      </trkpt>
      <trkpt lat="43.33602" lon="5.21717">
        <ele>92</ele>
        <time>2015-04-16T12:36:12Z</time>
      </trkpt>
      <trkpt lat="43.33602" lon="5.21719">
        <ele>92</ele>
        <time>2015-04-16T12:36:13Z</time>
      </trkpt>
      <trkpt lat="43.33602" lon="5.21721">
        <ele>92</ele>
        <time>2015-04-16T12:36:14Z</time>
      </trkpt>
      <trkpt lat="43.33603" lon="5.21723">
        <ele>92</ele>
        <time>2015-04-16T12:36:15Z</time>
      </trkpt>
      <trkpt lat="43.33603" lon="5.21725">
        <ele>92</ele>
        <time>2015-04-16T12:36:16Z</time>
      </trkpt>
      <trkpt lat="43.33603" lon="5.21727">
        <ele>92</ele>
        <time>2015-04-16T12:36:17Z</time>
      </trkpt>
      <trkpt lat="43.33603" lon="5.21729">
        <ele>92</ele>
        <time>2015-04-16T12:36:18Z</time>
      </trkpt>
      <trkpt lat="43.33603" lon="5.21731">
        <ele>91</ele>
        <time>2015-04-16T12:36:19Z</time>
      </trkpt>
      <trkpt lat="43.33604" lon="5.21733">
        <ele>91</ele>
        <time>2015-04-16T12:36:20Z</time>
      </trkpt>
      <trkpt lat="43.33604" lon="5.21735">
        <ele>91</ele>
        <time>2015-04-16T12:36:21Z</time>
      </trkpt>
      <trkpt lat="43.33602" lon="5.21737">
        <ele>90</ele>
        <time>2015-04-16T12:36:23Z</time>
      </trkpt>
      <trkpt lat="43.336" lon="5.2174">
        <ele>89</ele>
        <time>2015-04-16T12:36:25Z</time>
      </trkpt>
      <trkpt lat="43.336" lon="5.21742">
        <ele>89</ele>
        <time>2015-04-16T12:36:26Z</time>
      </trkpt>
      <trkpt lat="43.33599" lon="5.21744">
        <ele>89</ele>
        <time>2015-04-16T12:36:27Z</time>
      </trkpt>
      <trkpt lat="43.33599" lon="5.21745">
        <ele>89</ele>
        <time>2015-04-16T12:36:28Z</time>
      </trkpt>
      <trkpt lat="43.33599" lon="5.21748">
        <ele>88</ele>
        <time>2015-04-16T12:36:29Z</time>
      </trkpt>
      <trkpt lat="43.336" lon="5.21749">
        <ele>88</ele>
        <time>2015-04-16T12:36:30Z</time>
      </trkpt>
      <trkpt lat="43.336" lon="5.21751">
        <ele>88</ele>
        <time>2015-04-16T12:36:31Z</time>
      </trkpt>
      <trkpt lat="43.33601" lon="5.21753">
        <ele>88</ele>
        <time>2015-04-16T12:36:32Z</time>
      </trkpt>
      <trkpt lat="43.33602" lon="5.21755">
        <ele>88</ele>
        <time>2015-04-16T12:36:33Z</time>
      </trkpt>
      <trkpt lat="43.33603" lon="5.21756">
        <ele>87</ele>
        <time>2015-04-16T12:36:34Z</time>
      </trkpt>
      <trkpt lat="43.33604" lon="5.21758">
        <ele>87</ele>
        <time>2015-04-16T12:36:35Z</time>
      </trkpt>
      <trkpt lat="43.33605" lon="5.21759">
        <ele>87</ele>
        <time>2015-04-16T12:36:36Z</time>
      </trkpt>
      <trkpt lat="43.33606" lon="5.21762">
        <ele>86</ele>
        <time>2015-04-16T12:36:38Z</time>
      </trkpt>
      <trkpt lat="43.33607" lon="5.21764">
        <ele>86</ele>
        <time>2015-04-16T12:36:39Z</time>
      </trkpt>
      <trkpt lat="43.33609" lon="5.21766">
        <ele>85</ele>
        <time>2015-04-16T12:36:41Z</time>
      </trkpt>
      <trkpt lat="43.3361" lon="5.21768">
        <ele>85</ele>
        <time>2015-04-16T12:36:42Z</time>
      </trkpt>
      <trkpt lat="43.33611" lon="5.21769">
        <ele>84</ele>
        <time>2015-04-16T12:36:43Z</time>
      </trkpt>
      <trkpt lat="43.33612" lon="5.21771">
        <ele>83</ele>
        <time>2015-04-16T12:36:44Z</time>
      </trkpt>
      <trkpt lat="43.33613" lon="5.21772">
        <ele>83</ele>
        <time>2015-04-16T12:36:45Z</time>
      </trkpt>
      <trkpt lat="43.33614" lon="5.21774">
        <ele>83</ele>
        <time>2015-04-16T12:36:46Z</time>
      </trkpt>
      <trkpt lat="43.33614" lon="5.21775">
        <ele>82</ele>
        <time>2015-04-16T12:36:47Z</time>
      </trkpt>
      <trkpt lat="43.33615" lon="5.21777">
        <ele>82</ele>
        <time>2015-04-16T12:36:48Z</time>
      </trkpt>
      <trkpt lat="43.33616" lon="5.21779">
        <ele>82</ele>
        <time>2015-04-16T12:36:49Z</time>
      </trkpt>
      <trkpt lat="43.33617" lon="5.21781">
        <ele>81</ele>
        <time>2015-04-16T12:36:50Z</time>
      </trkpt>
      <trkpt lat="43.33617" lon="5.21783">
        <ele>81</ele>
        <time>2015-04-16T12:36:51Z</time>
      </trkpt>
      <trkpt lat="43.33617" lon="5.21785">
        <ele>81</ele>
        <time>2015-04-16T12:36:52Z</time>
      </trkpt>
      <trkpt lat="43.33618" lon="5.21787">
        <ele>80</ele>
        <time>2015-04-16T12:36:53Z</time>
      </trkpt>
      <trkpt lat="43.33619" lon="5.2179">
        <ele>80</ele>
        <time>2015-04-16T12:36:54Z</time>
      </trkpt>
      <trkpt lat="43.33619" lon="5.21792">
        <ele>80</ele>
        <time>2015-04-16T12:36:55Z</time>
      </trkpt>
      <trkpt lat="43.3362" lon="5.21793">
        <ele>79</ele>
        <time>2015-04-16T12:36:56Z</time>
      </trkpt>
      <trkpt lat="43.33621" lon="5.21795">
        <ele>79</ele>
        <time>2015-04-16T12:36:57Z</time>
      </trkpt>
      <trkpt lat="43.33622" lon="5.21797">
        <ele>79</ele>
        <time>2015-04-16T12:36:58Z</time>
      </trkpt>
      <trkpt lat="43.33623" lon="5.21799">
        <ele>79</ele>
        <time>2015-04-16T12:36:59Z</time>
      </trkpt>
      <trkpt lat="43.33624" lon="5.218">
        <ele>79</ele>
        <time>2015-04-16T12:37:00Z</time>
      </trkpt>
      <trkpt lat="43.33625" lon="5.21802">
        <ele>79</ele>
        <time>2015-04-16T12:37:01Z</time>
      </trkpt>
      <trkpt lat="43.33627" lon="5.21804">
        <ele>79</ele>
        <time>2015-04-16T12:37:02Z</time>
      </trkpt>
      <trkpt lat="43.33628" lon="5.21805">
        <ele>79</ele>
        <time>2015-04-16T12:37:03Z</time>
      </trkpt>
      <trkpt lat="43.33629" lon="5.21807">
        <ele>79</ele>
        <time>2015-04-16T12:37:04Z</time>
      </trkpt>
      <trkpt lat="43.3363" lon="5.21808">
        <ele>79</ele>
        <time>2015-04-16T12:37:05Z</time>
      </trkpt>
      <trkpt lat="43.33631" lon="5.2181">
        <ele>79</ele>
        <time>2015-04-16T12:37:06Z</time>
      </trkpt>
      <trkpt lat="43.33633" lon="5.21811">
        <ele>79</ele>
        <time>2015-04-16T12:37:07Z</time>
      </trkpt>
      <trkpt lat="43.33634" lon="5.21812">
        <ele>79</ele>
        <time>2015-04-16T12:37:08Z</time>
      </trkpt>
      <trkpt lat="43.33636" lon="5.21813">
        <ele>79</ele>
        <time>2015-04-16T12:37:09Z</time>
      </trkpt>
      <trkpt lat="43.33638" lon="5.21814">
        <ele>79</ele>
        <time>2015-04-16T12:37:10Z</time>
      </trkpt>
      <trkpt lat="43.33639" lon="5.21815">
        <ele>79</ele>
        <time>2015-04-16T12:37:11Z</time>
      </trkpt>
      <trkpt lat="43.33641" lon="5.21816">
        <ele>79</ele>
        <time>2015-04-16T12:37:12Z</time>
      </trkpt>
      <trkpt lat="43.33642" lon="5.21816">
        <ele>79</ele>
        <time>2015-04-16T12:37:13Z</time>
      </trkpt>
      <trkpt lat="43.33644" lon="5.21817">
        <ele>79</ele>
        <time>2015-04-16T12:37:14Z</time>
      </trkpt>
      <trkpt lat="43.33645" lon="5.21818">
        <ele>79</ele>
        <time>2015-04-16T12:37:15Z</time>
      </trkpt>
      <trkpt lat="43.33647" lon="5.21819">
        <ele>79</ele>
        <time>2015-04-16T12:37:16Z</time>
      </trkpt>
      <trkpt lat="43.33649" lon="5.2182">
        <ele>79</ele>
        <time>2015-04-16T12:37:17Z</time>
      </trkpt>
      <trkpt lat="43.3365" lon="5.21821">
        <ele>79</ele>
        <time>2015-04-16T12:37:18Z</time>
      </trkpt>
      <trkpt lat="43.33651" lon="5.21823">
        <ele>79</ele>
        <time>2015-04-16T12:37:19Z</time>
      </trkpt>
      <trkpt lat="43.33653" lon="5.21824">
        <ele>79</ele>
        <time>2015-04-16T12:37:20Z</time>
      </trkpt>
      <trkpt lat="43.33654" lon="5.21825">
        <ele>79</ele>
        <time>2015-04-16T12:37:21Z</time>
      </trkpt>
      <trkpt lat="43.33656" lon="5.21826">
        <ele>79</ele>
        <time>2015-04-16T12:37:22Z</time>
      </trkpt>
      <trkpt lat="43.33657" lon="5.21827">
        <ele>79</ele>
        <time>2015-04-16T12:37:23Z</time>
      </trkpt>
      <trkpt lat="43.33659" lon="5.21828">
        <ele>79</ele>
        <time>2015-04-16T12:37:24Z</time>
      </trkpt>
      <trkpt lat="43.33661" lon="5.21829">
        <ele>79</ele>
        <time>2015-04-16T12:37:25Z</time>
      </trkpt>
      <trkpt lat="43.33662" lon="5.2183">
        <ele>79</ele>
        <time>2015-04-16T12:37:26Z</time>
      </trkpt>
      <trkpt lat="43.33664" lon="5.21831">
        <ele>79</ele>
        <time>2015-04-16T12:37:27Z</time>
      </trkpt>
      <trkpt lat="43.33665" lon="5.21832">
        <ele>79</ele>
        <time>2015-04-16T12:37:28Z</time>
      </trkpt>
      <trkpt lat="43.33667" lon="5.21834">
        <ele>79</ele>
        <time>2015-04-16T12:37:29Z</time>
      </trkpt>
      <trkpt lat="43.33668" lon="5.21835">
        <ele>79</ele>
        <time>2015-04-16T12:37:30Z</time>
      </trkpt>
      <trkpt lat="43.33669" lon="5.21836">
        <ele>79</ele>
        <time>2015-04-16T12:37:31Z</time>
      </trkpt>
      <trkpt lat="43.33671" lon="5.21838">
        <ele>79</ele>
        <time>2015-04-16T12:37:32Z</time>
      </trkpt>
      <trkpt lat="43.33672" lon="5.21839">
        <ele>79</ele>
        <time>2015-04-16T12:37:33Z</time>
      </trkpt>
      <trkpt lat="43.33673" lon="5.21841">
        <ele>79</ele>
        <time>2015-04-16T12:37:34Z</time>
      </trkpt>
      <trkpt lat="43.33674" lon="5.21843">
        <ele>79</ele>
        <time>2015-04-16T12:37:35Z</time>
      </trkpt>
      <trkpt lat="43.33675" lon="5.21845">
        <ele>78</ele>
        <time>2015-04-16T12:37:36Z</time>
      </trkpt>
      <trkpt lat="43.33675" lon="5.21847">
        <ele>78</ele>
        <time>2015-04-16T12:37:37Z</time>
      </trkpt>
      <trkpt lat="43.33675" lon="5.2185">
        <ele>78</ele>
        <time>2015-04-16T12:37:38Z</time>
      </trkpt>
      <trkpt lat="43.33675" lon="5.21852">
        <ele>78</ele>
        <time>2015-04-16T12:37:39Z</time>
      </trkpt>
      <trkpt lat="43.33675" lon="5.21854">
        <ele>78</ele>
        <time>2015-04-16T12:37:40Z</time>
      </trkpt>
      <trkpt lat="43.33674" lon="5.21857">
        <ele>78</ele>
        <time>2015-04-16T12:37:41Z</time>
      </trkpt>
      <trkpt lat="43.33674" lon="5.21859">
        <ele>78</ele>
        <time>2015-04-16T12:37:42Z</time>
      </trkpt>
      <trkpt lat="43.33673" lon="5.21861">
        <ele>78</ele>
        <time>2015-04-16T12:37:43Z</time>
      </trkpt>
      <trkpt lat="43.33672" lon="5.21863">
        <ele>78</ele>
        <time>2015-04-16T12:37:44Z</time>
      </trkpt>
      <trkpt lat="43.33671" lon="5.21865">
        <ele>78</ele>
        <time>2015-04-16T12:37:45Z</time>
      </trkpt>
      <trkpt lat="43.3367" lon="5.21867">
        <ele>78</ele>
        <time>2015-04-16T12:37:46Z</time>
      </trkpt>
      <trkpt lat="43.33669" lon="5.21868">
        <ele>78</ele>
        <time>2015-04-16T12:37:47Z</time>
      </trkpt>
      <trkpt lat="43.33668" lon="5.21869">
        <ele>78</ele>
        <time>2015-04-16T12:37:48Z</time>
      </trkpt>
      <trkpt lat="43.33666" lon="5.21871">
        <ele>78</ele>
        <time>2015-04-16T12:37:49Z</time>
      </trkpt>
      <trkpt lat="43.33665" lon="5.21872">
        <ele>78</ele>
        <time>2015-04-16T12:37:50Z</time>
      </trkpt>
      <trkpt lat="43.33664" lon="5.21873">
        <ele>78</ele>
        <time>2015-04-16T12:37:51Z</time>
      </trkpt>
      <trkpt lat="43.33662" lon="5.21874">
        <ele>78</ele>
        <time>2015-04-16T12:37:52Z</time>
      </trkpt>
      <trkpt lat="43.33661" lon="5.21876">
        <ele>77</ele>
        <time>2015-04-16T12:37:53Z</time>
      </trkpt>
      <trkpt lat="43.3366" lon="5.21877">
        <ele>77</ele>
        <time>2015-04-16T12:37:54Z</time>
      </trkpt>
      <trkpt lat="43.33658" lon="5.21878">
        <ele>77</ele>
        <time>2015-04-16T12:37:55Z</time>
      </trkpt>
      <trkpt lat="43.33657" lon="5.21879">
        <ele>77</ele>
        <time>2015-04-16T12:37:56Z</time>
      </trkpt>
      <trkpt lat="43.33655" lon="5.2188">
        <ele>76</ele>
        <time>2015-04-16T12:37:57Z</time>
      </trkpt>
      <trkpt lat="43.33654" lon="5.21881">
        <ele>76</ele>
        <time>2015-04-16T12:37:58Z</time>
      </trkpt>
      <trkpt lat="43.33652" lon="5.21882">
        <ele>76</ele>
        <time>2015-04-16T12:37:59Z</time>
      </trkpt>
      <trkpt lat="43.3365" lon="5.21883">
        <ele>76</ele>
        <time>2015-04-16T12:38:00Z</time>
      </trkpt>
      <trkpt lat="43.33649" lon="5.21884">
        <ele>76</ele>
        <time>2015-04-16T12:38:01Z</time>
      </trkpt>
      <trkpt lat="43.33647" lon="5.21885">
        <ele>76</ele>
        <time>2015-04-16T12:38:02Z</time>
      </trkpt>
      <trkpt lat="43.33646" lon="5.21886">
        <ele>76</ele>
        <time>2015-04-16T12:38:03Z</time>
      </trkpt>
      <trkpt lat="43.33644" lon="5.21886">
        <ele>75</ele>
        <time>2015-04-16T12:38:04Z</time>
      </trkpt>
      <trkpt lat="43.33643" lon="5.21887">
        <ele>75</ele>
        <time>2015-04-16T12:38:05Z</time>
      </trkpt>
      <trkpt lat="43.33641" lon="5.21888">
        <ele>75</ele>
        <time>2015-04-16T12:38:06Z</time>
      </trkpt>
      <trkpt lat="43.33639" lon="5.21889">
        <ele>75</ele>
        <time>2015-04-16T12:38:07Z</time>
      </trkpt>
      <trkpt lat="43.33637" lon="5.21889">
        <ele>75</ele>
        <time>2015-04-16T12:38:08Z</time>
      </trkpt>
      <trkpt lat="43.33635" lon="5.2189">
        <ele>75</ele>
        <time>2015-04-16T12:38:09Z</time>
      </trkpt>
      <trkpt lat="43.33633" lon="5.21891">
        <ele>75</ele>
        <time>2015-04-16T12:38:10Z</time>
      </trkpt>
      <trkpt lat="43.33632" lon="5.21891">
        <ele>75</ele>
        <time>2015-04-16T12:38:11Z</time>
      </trkpt>
      <trkpt lat="43.3363" lon="5.21892">
        <ele>75</ele>
        <time>2015-04-16T12:38:12Z</time>
      </trkpt>
      <trkpt lat="43.33629" lon="5.21893">
        <ele>75</ele>
        <time>2015-04-16T12:38:13Z</time>
      </trkpt>
      <trkpt lat="43.33627" lon="5.21894">
        <ele>75</ele>
        <time>2015-04-16T12:38:14Z</time>
      </trkpt>
      <trkpt lat="43.33625" lon="5.21894">
        <ele>75</ele>
        <time>2015-04-16T12:38:15Z</time>
      </trkpt>
      <trkpt lat="43.33623" lon="5.21894">
        <ele>75</ele>
        <time>2015-04-16T12:38:16Z</time>
      </trkpt>
      <trkpt lat="43.33621" lon="5.21895">
        <ele>75</ele>
        <time>2015-04-16T12:38:17Z</time>
      </trkpt>
      <trkpt lat="43.3362" lon="5.21894">
        <ele>75</ele>
        <time>2015-04-16T12:38:18Z</time>
      </trkpt>
      <trkpt lat="43.33617" lon="5.21894">
        <ele>75</ele>
        <time>2015-04-16T12:38:19Z</time>
      </trkpt>
      <trkpt lat="43.33616" lon="5.21894">
        <ele>75</ele>
        <time>2015-04-16T12:38:20Z</time>
      </trkpt>
      <trkpt lat="43.33614" lon="5.21893">
        <ele>75</ele>
        <time>2015-04-16T12:38:21Z</time>
      </trkpt>
      <trkpt lat="43.33612" lon="5.21893">
        <ele>75</ele>
        <time>2015-04-16T12:38:22Z</time>
      </trkpt>
      <trkpt lat="43.3361" lon="5.21893">
        <ele>74</ele>
        <time>2015-04-16T12:38:23Z</time>
      </trkpt>
      <trkpt lat="43.33609" lon="5.21893">
        <ele>74</ele>
        <time>2015-04-16T12:38:24Z</time>
      </trkpt>
      <trkpt lat="43.33607" lon="5.21893">
        <ele>74</ele>
        <time>2015-04-16T12:38:25Z</time>
      </trkpt>
      <trkpt lat="43.33605" lon="5.21893">
        <ele>74</ele>
        <time>2015-04-16T12:38:26Z</time>
      </trkpt>
      <trkpt lat="43.33603" lon="5.21893">
        <ele>74</ele>
        <time>2015-04-16T12:38:27Z</time>
      </trkpt>
      <trkpt lat="43.33601" lon="5.21893">
        <ele>74</ele>
        <time>2015-04-16T12:38:28Z</time>
      </trkpt>
      <trkpt lat="43.336" lon="5.21893">
        <ele>74</ele>
        <time>2015-04-16T12:38:29Z</time>
      </trkpt>
      <trkpt lat="43.33598" lon="5.21893">
        <ele>74</ele>
        <time>2015-04-16T12:38:30Z</time>
      </trkpt>
      <trkpt lat="43.33597" lon="5.21894">
        <ele>74</ele>
        <time>2015-04-16T12:38:31Z</time>
      </trkpt>
      <trkpt lat="43.33595" lon="5.21894">
        <ele>74</ele>
        <time>2015-04-16T12:38:32Z</time>
      </trkpt>
      <trkpt lat="43.33594" lon="5.21895">
        <ele>74</ele>
        <time>2015-04-16T12:38:33Z</time>
      </trkpt>
      <trkpt lat="43.33593" lon="5.21895">
        <ele>74</ele>
        <time>2015-04-16T12:38:34Z</time>
      </trkpt>
      <trkpt lat="43.33591" lon="5.21896">
        <ele>73</ele>
        <time>2015-04-16T12:38:35Z</time>
      </trkpt>
      <trkpt lat="43.3359" lon="5.21897">
        <ele>73</ele>
        <time>2015-04-16T12:38:36Z</time>
      </trkpt>
      <trkpt lat="43.33589" lon="5.21899">
        <ele>73</ele>
        <time>2015-04-16T12:38:37Z</time>
      </trkpt>
      <trkpt lat="43.33588" lon="5.219">
        <ele>73</ele>
        <time>2015-04-16T12:38:38Z</time>
      </trkpt>
      <trkpt lat="43.33587" lon="5.21902">
        <ele>72</ele>
        <time>2015-04-16T12:38:39Z</time>
      </trkpt>
      <trkpt lat="43.33587" lon="5.21904">
        <ele>72</ele>
        <time>2015-04-16T12:38:40Z</time>
      </trkpt>
      <trkpt lat="43.33586" lon="5.21906">
        <ele>71</ele>
        <time>2015-04-16T12:38:41Z</time>
      </trkpt>
      <trkpt lat="43.33585" lon="5.21907">
        <ele>71</ele>
        <time>2015-04-16T12:38:42Z</time>
      </trkpt>
      <trkpt lat="43.33584" lon="5.21909">
        <ele>70</ele>
        <time>2015-04-16T12:38:43Z</time>
      </trkpt>
      <trkpt lat="43.33584" lon="5.21911">
        <ele>70</ele>
        <time>2015-04-16T12:38:44Z</time>
      </trkpt>
      <trkpt lat="43.33583" lon="5.21913">
        <ele>69</ele>
        <time>2015-04-16T12:38:45Z</time>
      </trkpt>
      <trkpt lat="43.33583" lon="5.21915">
        <ele>69</ele>
        <time>2015-04-16T12:38:46Z</time>
      </trkpt>
      <trkpt lat="43.33582" lon="5.21917">
        <ele>69</ele>
        <time>2015-04-16T12:38:47Z</time>
      </trkpt>
      <trkpt lat="43.33581" lon="5.21919">
        <ele>68</ele>
        <time>2015-04-16T12:38:48Z</time>
      </trkpt>
      <trkpt lat="43.3358" lon="5.21921">
        <ele>68</ele>
        <time>2015-04-16T12:38:49Z</time>
      </trkpt>
      <trkpt lat="43.3358" lon="5.21923">
        <ele>68</ele>
        <time>2015-04-16T12:38:50Z</time>
      </trkpt>
      <trkpt lat="43.33579" lon="5.21925">
        <ele>68</ele>
        <time>2015-04-16T12:38:51Z</time>
      </trkpt>
      <trkpt lat="43.33579" lon="5.21927">
        <ele>67</ele>
        <time>2015-04-16T12:38:52Z</time>
      </trkpt>
      <trkpt lat="43.33578" lon="5.2193">
        <ele>67</ele>
        <time>2015-04-16T12:38:53Z</time>
      </trkpt>
      <trkpt lat="43.33578" lon="5.21932">
        <ele>67</ele>
        <time>2015-04-16T12:38:54Z</time>
      </trkpt>
      <trkpt lat="43.33577" lon="5.21934">
        <ele>67</ele>
        <time>2015-04-16T12:38:55Z</time>
      </trkpt>
      <trkpt lat="43.33576" lon="5.21936">
        <ele>67</ele>
        <time>2015-04-16T12:38:56Z</time>
      </trkpt>
      <trkpt lat="43.33575" lon="5.21939">
        <ele>67</ele>
        <time>2015-04-16T12:38:58Z</time>
      </trkpt>
      <trkpt lat="43.33575" lon="5.21941">
        <ele>67</ele>
        <time>2015-04-16T12:38:59Z</time>
      </trkpt>
      <trkpt lat="43.33575" lon="5.21944">
        <ele>67</ele>
        <time>2015-04-16T12:39:01Z</time>
      </trkpt>
      <trkpt lat="43.33574" lon="5.21946">
        <ele>67</ele>
        <time>2015-04-16T12:39:03Z</time>
      </trkpt>
      <trkpt lat="43.33574" lon="5.21948">
        <ele>67</ele>
        <time>2015-04-16T12:39:06Z</time>
      </trkpt>
      <trkpt lat="43.33574" lon="5.2195">
        <ele>67</ele>
        <time>2015-04-16T12:39:07Z</time>
      </trkpt>
      <trkpt lat="43.33574" lon="5.21952">
        <ele>67</ele>
        <time>2015-04-16T12:39:08Z</time>
      </trkpt>
      <trkpt lat="43.33574" lon="5.21954">
        <ele>67</ele>
        <time>2015-04-16T12:39:09Z</time>
      </trkpt>
      <trkpt lat="43.33574" lon="5.21956">
        <ele>67</ele>
        <time>2015-04-16T12:39:10Z</time>
      </trkpt>
      <trkpt lat="43.33575" lon="5.21958">
        <ele>67</ele>
        <time>2015-04-16T12:39:11Z</time>
      </trkpt>
      <trkpt lat="43.33575" lon="5.2196">
        <ele>67</ele>
        <time>2015-04-16T12:39:12Z</time>
      </trkpt>
      <trkpt lat="43.33575" lon="5.21962">
        <ele>67</ele>
        <time>2015-04-16T12:39:13Z</time>
      </trkpt>
      <trkpt lat="43.33575" lon="5.21964">
        <ele>67</ele>
        <time>2015-04-16T12:39:14Z</time>
      </trkpt>
      <trkpt lat="43.33575" lon="5.21965">
        <ele>67</ele>
        <time>2015-04-16T12:39:15Z</time>
      </trkpt>
      <trkpt lat="43.33575" lon="5.21967">
        <ele>67</ele>
        <time>2015-04-16T12:39:16Z</time>
      </trkpt>
      <trkpt lat="43.33575" lon="5.21969">
        <ele>67</ele>
        <time>2015-04-16T12:39:17Z</time>
      </trkpt>
      <trkpt lat="43.33575" lon="5.21972">
        <ele>67</ele>
        <time>2015-04-16T12:39:18Z</time>
      </trkpt>
      <trkpt lat="43.33575" lon="5.21974">
        <ele>67</ele>
        <time>2015-04-16T12:39:19Z</time>
      </trkpt>
      <trkpt lat="43.33576" lon="5.21976">
        <ele>67</ele>
        <time>2015-04-16T12:39:20Z</time>
      </trkpt>
      <trkpt lat="43.33576" lon="5.21978">
        <ele>67</ele>
        <time>2015-04-16T12:39:21Z</time>
      </trkpt>
      <trkpt lat="43.33576" lon="5.2198">
        <ele>67</ele>
        <time>2015-04-16T12:39:22Z</time>
      </trkpt>
      <trkpt lat="43.33576" lon="5.21982">
        <ele>67</ele>
        <time>2015-04-16T12:39:23Z</time>
      </trkpt>
      <trkpt lat="43.33576" lon="5.21984">
        <ele>67</ele>
        <time>2015-04-16T12:39:24Z</time>
      </trkpt>
      <trkpt lat="43.33575" lon="5.21986">
        <ele>67</ele>
        <time>2015-04-16T12:39:25Z</time>
      </trkpt>
      <trkpt lat="43.33575" lon="5.21988">
        <ele>67</ele>
        <time>2015-04-16T12:39:26Z</time>
      </trkpt>
      <trkpt lat="43.33575" lon="5.2199">
        <ele>67</ele>
        <time>2015-04-16T12:39:27Z</time>
      </trkpt>
      <trkpt lat="43.33575" lon="5.21991">
        <ele>67</ele>
        <time>2015-04-16T12:39:28Z</time>
      </trkpt>
      <trkpt lat="43.33575" lon="5.21993">
        <ele>67</ele>
        <time>2015-04-16T12:39:29Z</time>
      </trkpt>
      <trkpt lat="43.33574" lon="5.21995">
        <ele>67</ele>
        <time>2015-04-16T12:39:30Z</time>
      </trkpt>
      <trkpt lat="43.33574" lon="5.21997">
        <ele>67</ele>
        <time>2015-04-16T12:39:31Z</time>
      </trkpt>
      <trkpt lat="43.33574" lon="5.21999">
        <ele>67</ele>
        <time>2015-04-16T12:39:32Z</time>
      </trkpt>
      <trkpt lat="43.33574" lon="5.22001">
        <ele>67</ele>
        <time>2015-04-16T12:39:33Z</time>
      </trkpt>
      <trkpt lat="43.33574" lon="5.22003">
        <ele>67</ele>
        <time>2015-04-16T12:39:34Z</time>
      </trkpt>
      <trkpt lat="43.33573" lon="5.22005">
        <ele>67</ele>
        <time>2015-04-16T12:39:35Z</time>
      </trkpt>
      <trkpt lat="43.33573" lon="5.22007">
        <ele>67</ele>
        <time>2015-04-16T12:39:36Z</time>
      </trkpt>
      <trkpt lat="43.33573" lon="5.22009">
        <ele>67</ele>
        <time>2015-04-16T12:39:37Z</time>
      </trkpt>
      <trkpt lat="43.33572" lon="5.22011">
        <ele>67</ele>
        <time>2015-04-16T12:39:38Z</time>
      </trkpt>
      <trkpt lat="43.33572" lon="5.22013">
        <ele>67</ele>
        <time>2015-04-16T12:39:39Z</time>
      </trkpt>
      <trkpt lat="43.33572" lon="5.22015">
        <ele>67</ele>
        <time>2015-04-16T12:39:40Z</time>
      </trkpt>
      <trkpt lat="43.33572" lon="5.22016">
        <ele>67</ele>
        <time>2015-04-16T12:39:41Z</time>
      </trkpt>
      <trkpt lat="43.33572" lon="5.22018">
        <ele>67</ele>
        <time>2015-04-16T12:39:42Z</time>
      </trkpt>
      <trkpt lat="43.33573" lon="5.2202">
        <ele>67</ele>
        <time>2015-04-16T12:39:43Z</time>
      </trkpt>
      <trkpt lat="43.33573" lon="5.22022">
        <ele>67</ele>
        <time>2015-04-16T12:39:44Z</time>
      </trkpt>
      <trkpt lat="43.33574" lon="5.22024">
        <ele>67</ele>
        <time>2015-04-16T12:39:45Z</time>
      </trkpt>
      <trkpt lat="43.33574" lon="5.22025">
        <ele>67</ele>
        <time>2015-04-16T12:39:46Z</time>
      </trkpt>
      <trkpt lat="43.33576" lon="5.22027">
        <ele>67</ele>
        <time>2015-04-16T12:39:48Z</time>
      </trkpt>
      <trkpt lat="43.33577" lon="5.22029">
        <ele>67</ele>
        <time>2015-04-16T12:39:50Z</time>
      </trkpt>
      <trkpt lat="43.33579" lon="5.22031">
        <ele>67</ele>
        <time>2015-04-16T12:39:52Z</time>
      </trkpt>
      <trkpt lat="43.3358" lon="5.22033">
        <ele>67</ele>
        <time>2015-04-16T12:39:54Z</time>
      </trkpt>
      <trkpt lat="43.33582" lon="5.22035">
        <ele>67</ele>
        <time>2015-04-16T12:39:56Z</time>
      </trkpt>
      <trkpt lat="43.33583" lon="5.22036">
        <ele>68</ele>
        <time>2015-04-16T12:39:57Z</time>
      </trkpt>
      <trkpt lat="43.33585" lon="5.22037">
        <ele>68</ele>
        <time>2015-04-16T12:39:58Z</time>
      </trkpt>
      <trkpt lat="43.33586" lon="5.22038">
        <ele>68</ele>
        <time>2015-04-16T12:39:59Z</time>
      </trkpt>
      <trkpt lat="43.33587" lon="5.22038">
        <ele>69</ele>
        <time>2015-04-16T12:40:00Z</time>
      </trkpt>
      <trkpt lat="43.3359" lon="5.22041">
        <ele>69</ele>
        <time>2015-04-16T12:40:02Z</time>
      </trkpt>
      <trkpt lat="43.33591" lon="5.22042">
        <ele>70</ele>
        <time>2015-04-16T12:40:03Z</time>
      </trkpt>
      <trkpt lat="43.33593" lon="5.22045">
        <ele>70</ele>
        <time>2015-04-16T12:40:05Z</time>
      </trkpt>
      <trkpt lat="43.33594" lon="5.22046">
        <ele>70</ele>
        <time>2015-04-16T12:40:06Z</time>
      </trkpt>
      <trkpt lat="43.33595" lon="5.22048">
        <ele>71</ele>
        <time>2015-04-16T12:40:07Z</time>
      </trkpt>
      <trkpt lat="43.33595" lon="5.22049">
        <ele>71</ele>
        <time>2015-04-16T12:40:08Z</time>
      </trkpt>
      <trkpt lat="43.33596" lon="5.22051">
        <ele>71</ele>
        <time>2015-04-16T12:40:09Z</time>
      </trkpt>
      <trkpt lat="43.33597" lon="5.22053">
        <ele>71</ele>
        <time>2015-04-16T12:40:10Z</time>
      </trkpt>
      <trkpt lat="43.33597" lon="5.22054">
        <ele>71</ele>
        <time>2015-04-16T12:40:11Z</time>
      </trkpt>
      <trkpt lat="43.33598" lon="5.22056">
        <ele>71</ele>
        <time>2015-04-16T12:40:12Z</time>
      </trkpt>
      <trkpt lat="43.336" lon="5.22058">
        <ele>71</ele>
        <time>2015-04-16T12:40:14Z</time>
      </trkpt>
      <trkpt lat="43.33601" lon="5.2206">
        <ele>71</ele>
        <time>2015-04-16T12:40:16Z</time>
      </trkpt>
      <trkpt lat="43.33603" lon="5.22061">
        <ele>71</ele>
        <time>2015-04-16T12:40:18Z</time>
      </trkpt>
      <trkpt lat="43.33605" lon="5.22062">
        <ele>72</ele>
        <time>2015-04-16T12:40:20Z</time>
      </trkpt>
      <trkpt lat="43.33606" lon="5.22062">
        <ele>72</ele>
        <time>2015-04-16T12:40:21Z</time>
      </trkpt>
      <trkpt lat="43.33609" lon="5.22063">
        <ele>73</ele>
        <time>2015-04-16T12:40:23Z</time>
      </trkpt>
      <trkpt lat="43.3361" lon="5.22065">
        <ele>73</ele>
        <time>2015-04-16T12:40:25Z</time>
      </trkpt>
      <trkpt lat="43.33612" lon="5.22067">
        <ele>74</ele>
        <time>2015-04-16T12:40:27Z</time>
      </trkpt>
      <trkpt lat="43.33614" lon="5.22069">
        <ele>74</ele>
        <time>2015-04-16T12:40:29Z</time>
      </trkpt>
      <trkpt lat="43.33615" lon="5.22071">
        <ele>74</ele>
        <time>2015-04-16T12:40:31Z</time>
      </trkpt>
      <trkpt lat="43.33618" lon="5.22073">
        <ele>75</ele>
        <time>2015-04-16T12:40:33Z</time>
      </trkpt>
      <trkpt lat="43.3362" lon="5.22074">
        <ele>75</ele>
        <time>2015-04-16T12:40:35Z</time>
      </trkpt>
      <trkpt lat="43.33621" lon="5.22075">
        <ele>75</ele>
        <time>2015-04-16T12:40:36Z</time>
      </trkpt>
      <trkpt lat="43.33622" lon="5.22075">
        <ele>75</ele>
        <time>2015-04-16T12:40:37Z</time>
      </trkpt>
      <trkpt lat="43.33624" lon="5.22076">
        <ele>75</ele>
        <time>2015-04-16T12:40:38Z</time>
      </trkpt>
      <trkpt lat="43.33625" lon="5.22076">
        <ele>76</ele>
        <time>2015-04-16T12:40:39Z</time>
      </trkpt>
      <trkpt lat="43.33626" lon="5.22076">
        <ele>76</ele>
        <time>2015-04-16T12:40:40Z</time>
      </trkpt>
      <trkpt lat="43.33627" lon="5.22076">
        <ele>76</ele>
        <time>2015-04-16T12:40:41Z</time>
      </trkpt>
      <trkpt lat="43.33629" lon="5.22077">
        <ele>76</ele>
        <time>2015-04-16T12:40:42Z</time>
      </trkpt>
      <trkpt lat="43.3363" lon="5.22076">
        <ele>76</ele>
        <time>2015-04-16T12:40:43Z</time>
      </trkpt>
      <trkpt lat="43.33631" lon="5.22076">
        <ele>76</ele>
        <time>2015-04-16T12:40:44Z</time>
      </trkpt>
      <trkpt lat="43.33633" lon="5.22076">
        <ele>76</ele>
        <time>2015-04-16T12:40:45Z</time>
      </trkpt>
      <trkpt lat="43.33634" lon="5.22075">
        <ele>76</ele>
        <time>2015-04-16T12:40:46Z</time>
      </trkpt>
      <trkpt lat="43.33635" lon="5.22075">
        <ele>76</ele>
        <time>2015-04-16T12:40:47Z</time>
      </trkpt>
      <trkpt lat="43.33636" lon="5.22074">
        <ele>77</ele>
        <time>2015-04-16T12:40:48Z</time>
      </trkpt>
      <trkpt lat="43.33638" lon="5.22074">
        <ele>77</ele>
        <time>2015-04-16T12:40:49Z</time>
      </trkpt>
      <trkpt lat="43.33639" lon="5.22073">
        <ele>77</ele>
        <time>2015-04-16T12:40:51Z</time>
      </trkpt>
      <trkpt lat="43.3364" lon="5.22073">
        <ele>78</ele>
        <time>2015-04-16T12:41:22Z</time>
      </trkpt>
      <trkpt lat="43.33639" lon="5.22072">
        <ele>80</ele>
        <time>2015-04-16T12:41:43Z</time>
      </trkpt>
      <trkpt lat="43.33641" lon="5.22072">
        <ele>82</ele>
        <time>2015-04-16T12:42:00Z</time>
      </trkpt>
      <trkpt lat="43.33642" lon="5.22074">
        <ele>82</ele>
        <time>2015-04-16T12:42:04Z</time>
      </trkpt>
      <trkpt lat="43.33641" lon="5.22072">
        <ele>82</ele>
        <time>2015-04-16T12:42:18Z</time>
      </trkpt>
      <trkpt lat="43.3364" lon="5.22072">
        <ele>82</ele>
        <time>2015-04-16T12:43:00Z</time>
      </trkpt>
      <trkpt lat="43.33639" lon="5.2207">
        <ele>83</ele>
        <time>2015-04-16T12:43:05Z</time>
      </trkpt>
      <trkpt lat="43.3364" lon="5.2207">
        <ele>84</ele>
        <time>2015-04-16T12:43:12Z</time>
      </trkpt>
      <trkpt lat="43.33642" lon="5.22069">
        <ele>84</ele>
        <time>2015-04-16T12:43:15Z</time>
      </trkpt>
      <trkpt lat="43.33643" lon="5.22069">
        <ele>84</ele>
        <time>2015-04-16T12:43:22Z</time>
      </trkpt>
      <trkpt lat="43.33644" lon="5.22069">
        <ele>84</ele>
        <time>2015-04-16T12:43:41Z</time>
      </trkpt>
      <trkpt lat="43.33645" lon="5.22069">
        <ele>84</ele>
        <time>2015-04-16T12:43:48Z</time>
      </trkpt>
      <trkpt lat="43.33646" lon="5.22071">
        <ele>84</ele>
        <time>2015-04-16T12:44:03Z</time>
      </trkpt>
      <trkpt lat="43.33644" lon="5.22072">
        <ele>84</ele>
        <time>2015-04-16T12:44:33Z</time>
      </trkpt>
      <trkpt lat="43.33646" lon="5.22071">
        <ele>84</ele>
        <time>2015-04-16T12:44:45Z</time>
      </trkpt>
      <trkpt lat="43.33647" lon="5.22072">
        <ele>84</ele>
        <time>2015-04-16T12:44:46Z</time>
      </trkpt>
      <trkpt lat="43.33648" lon="5.2207">
        <ele>84</ele>
        <time>2015-04-16T12:44:48Z</time>
      </trkpt>
      <trkpt lat="43.3365" lon="5.22068">
        <ele>84</ele>
        <time>2015-04-16T12:44:50Z</time>
      </trkpt>
      <trkpt lat="43.33652" lon="5.22067">
        <ele>84</ele>
        <time>2015-04-16T12:44:52Z</time>
      </trkpt>
      <trkpt lat="43.33653" lon="5.22067">
        <ele>84</ele>
        <time>2015-04-16T12:44:53Z</time>
      </trkpt>
      <trkpt lat="43.33654" lon="5.22065">
        <ele>84</ele>
        <time>2015-04-16T12:44:55Z</time>
      </trkpt>
      <trkpt lat="43.33655" lon="5.22064">
        <ele>85</ele>
        <time>2015-04-16T12:44:57Z</time>
      </trkpt>
      <trkpt lat="43.33657" lon="5.22063">
        <ele>86</ele>
        <time>2015-04-16T12:44:59Z</time>
      </trkpt>
      <trkpt lat="43.33658" lon="5.22063">
        <ele>87</ele>
        <time>2015-04-16T12:45:01Z</time>
      </trkpt>
      <trkpt lat="43.33659" lon="5.22061">
        <ele>88</ele>
        <time>2015-04-16T12:45:04Z</time>
      </trkpt>
      <trkpt lat="43.33661" lon="5.22059">
        <ele>90</ele>
        <time>2015-04-16T12:45:07Z</time>
      </trkpt>
      <trkpt lat="43.33662" lon="5.22059">
        <ele>91</ele>
        <time>2015-04-16T12:45:09Z</time>
      </trkpt>
      <trkpt lat="43.33663" lon="5.22058">
        <ele>92</ele>
        <time>2015-04-16T12:45:11Z</time>
      </trkpt>
      <trkpt lat="43.33665" lon="5.22058">
        <ele>93</ele>
        <time>2015-04-16T12:45:13Z</time>
      </trkpt>
      <trkpt lat="43.33667" lon="5.22057">
        <ele>94</ele>
        <time>2015-04-16T12:45:15Z</time>
      </trkpt>
      <trkpt lat="43.33669" lon="5.22056">
        <ele>95</ele>
        <time>2015-04-16T12:45:18Z</time>
      </trkpt>
      <trkpt lat="43.3367" lon="5.22055">
        <ele>96</ele>
        <time>2015-04-16T12:45:20Z</time>
      </trkpt>
      <trkpt lat="43.33673" lon="5.22055">
        <ele>96</ele>
        <time>2015-04-16T12:45:22Z</time>
      </trkpt>
      <trkpt lat="43.33674" lon="5.22055">
        <ele>96</ele>
        <time>2015-04-16T12:45:23Z</time>
      </trkpt>
      <trkpt lat="43.33675" lon="5.22055">
        <ele>97</ele>
        <time>2015-04-16T12:45:24Z</time>
      </trkpt>
      <trkpt lat="43.33677" lon="5.22055">
        <ele>97</ele>
        <time>2015-04-16T12:45:26Z</time>
      </trkpt>
      <trkpt lat="43.33679" lon="5.22055">
        <ele>98</ele>
        <time>2015-04-16T12:45:28Z</time>
      </trkpt>
      <trkpt lat="43.33681" lon="5.22055">
        <ele>98</ele>
        <time>2015-04-16T12:45:30Z</time>
      </trkpt>
      <trkpt lat="43.33683" lon="5.22056">
        <ele>98</ele>
        <time>2015-04-16T12:45:32Z</time>
      </trkpt>
      <trkpt lat="43.33684" lon="5.22056">
        <ele>98</ele>
        <time>2015-04-16T12:45:33Z</time>
      </trkpt>
      <trkpt lat="43.33686" lon="5.22056">
        <ele>99</ele>
        <time>2015-04-16T12:45:35Z</time>
      </trkpt>
      <trkpt lat="43.33688" lon="5.22056">
        <ele>99</ele>
        <time>2015-04-16T12:45:37Z</time>
      </trkpt>
      <trkpt lat="43.3369" lon="5.22056">
        <ele>99</ele>
        <time>2015-04-16T12:45:39Z</time>
      </trkpt>
      <trkpt lat="43.33691" lon="5.22056">
        <ele>100</ele>
        <time>2015-04-16T12:45:41Z</time>
      </trkpt>
      <trkpt lat="43.33693" lon="5.22056">
        <ele>100</ele>
        <time>2015-04-16T12:45:43Z</time>
      </trkpt>
      <trkpt lat="43.33694" lon="5.22057">
        <ele>100</ele>
        <time>2015-04-16T12:45:44Z</time>
      </trkpt>
      <trkpt lat="43.33696" lon="5.22058">
        <ele>101</ele>
        <time>2015-04-16T12:45:46Z</time>
      </trkpt>
      <trkpt lat="43.33698" lon="5.22058">
        <ele>101</ele>
        <time>2015-04-16T12:45:47Z</time>
      </trkpt>
      <trkpt lat="43.33699" lon="5.22059">
        <ele>101</ele>
        <time>2015-04-16T12:45:48Z</time>
      </trkpt>
      <trkpt lat="43.337" lon="5.22059">
        <ele>101</ele>
        <time>2015-04-16T12:45:49Z</time>
      </trkpt>
      <trkpt lat="43.33702" lon="5.2206">
        <ele>101</ele>
        <time>2015-04-16T12:45:51Z</time>
      </trkpt>
      <trkpt lat="43.33704" lon="5.2206">
        <ele>101</ele>
        <time>2015-04-16T12:45:53Z</time>
      </trkpt>
      <trkpt lat="43.33706" lon="5.22062">
        <ele>101</ele>
        <time>2015-04-16T12:45:56Z</time>
      </trkpt>
      <trkpt lat="43.33708" lon="5.22063">
        <ele>101</ele>
        <time>2015-04-16T12:45:58Z</time>
      </trkpt>
      <trkpt lat="43.33709" lon="5.22064">
        <ele>101</ele>
        <time>2015-04-16T12:45:59Z</time>
      </trkpt>
      <trkpt lat="43.33711" lon="5.22064">
        <ele>101</ele>
        <time>2015-04-16T12:46:00Z</time>
      </trkpt>
      <trkpt lat="43.33712" lon="5.22064">
        <ele>101</ele>
        <time>2015-04-16T12:46:01Z</time>
      </trkpt>
      <trkpt lat="43.33714" lon="5.22064">
        <ele>101</ele>
        <time>2015-04-16T12:46:03Z</time>
      </trkpt>
      <trkpt lat="43.33715" lon="5.22066">
        <ele>101</ele>
        <time>2015-04-16T12:46:05Z</time>
      </trkpt>
      <trkpt lat="43.33716" lon="5.22067">
        <ele>101</ele>
        <time>2015-04-16T12:46:08Z</time>
      </trkpt>
      <trkpt lat="43.33718" lon="5.22067">
        <ele>103</ele>
        <time>2015-04-16T12:46:11Z</time>
      </trkpt>
      <trkpt lat="43.3372" lon="5.22068">
        <ele>103</ele>
        <time>2015-04-16T12:46:13Z</time>
      </trkpt>
      <trkpt lat="43.33721" lon="5.22069">
        <ele>104</ele>
        <time>2015-04-16T12:46:15Z</time>
      </trkpt>
      <trkpt lat="43.33723" lon="5.22071">
        <ele>104</ele>
        <time>2015-04-16T12:46:17Z</time>
      </trkpt>
      <trkpt lat="43.33724" lon="5.22073">
        <ele>104</ele>
        <time>2015-04-16T12:46:19Z</time>
      </trkpt>
      <trkpt lat="43.33725" lon="5.22074">
        <ele>104</ele>
        <time>2015-04-16T12:46:21Z</time>
      </trkpt>
      <trkpt lat="43.33727" lon="5.22076">
        <ele>104</ele>
        <time>2015-04-16T12:46:23Z</time>
      </trkpt>
      <trkpt lat="43.33729" lon="5.22076">
        <ele>105</ele>
        <time>2015-04-16T12:46:25Z</time>
      </trkpt>
      <trkpt lat="43.3373" lon="5.22076">
        <ele>105</ele>
        <time>2015-04-16T12:46:27Z</time>
      </trkpt>
      <trkpt lat="43.33731" lon="5.22076">
        <ele>105</ele>
        <time>2015-04-16T12:46:29Z</time>
      </trkpt>
      <trkpt lat="43.33733" lon="5.22077">
        <ele>106</ele>
        <time>2015-04-16T12:46:31Z</time>
      </trkpt>
      <trkpt lat="43.33734" lon="5.22077">
        <ele>107</ele>
        <time>2015-04-16T12:46:33Z</time>
      </trkpt>
      <trkpt lat="43.33736" lon="5.22077">
        <ele>108</ele>
        <time>2015-04-16T12:46:35Z</time>
      </trkpt>
      <trkpt lat="43.33737" lon="5.22078">
        <ele>108</ele>
        <time>2015-04-16T12:46:36Z</time>
      </trkpt>
      <trkpt lat="43.33739" lon="5.22078">
        <ele>109</ele>
        <time>2015-04-16T12:46:38Z</time>
      </trkpt>
      <trkpt lat="43.33741" lon="5.22079">
        <ele>109</ele>
        <time>2015-04-16T12:46:40Z</time>
      </trkpt>
      <trkpt lat="43.33742" lon="5.22079">
        <ele>109</ele>
        <time>2015-04-16T12:46:42Z</time>
      </trkpt>
      <trkpt lat="43.33744" lon="5.2208">
        <ele>110</ele>
        <time>2015-04-16T12:46:44Z</time>
      </trkpt>
      <trkpt lat="43.33746" lon="5.22081">
        <ele>110</ele>
        <time>2015-04-16T12:46:46Z</time>
      </trkpt>
      <trkpt lat="43.33748" lon="5.22082">
        <ele>110</ele>
        <time>2015-04-16T12:46:48Z</time>
      </trkpt>
      <trkpt lat="43.33749" lon="5.22081">
        <ele>110</ele>
        <time>2015-04-16T12:46:50Z</time>
      </trkpt>
      <trkpt lat="43.33751" lon="5.22082">
        <ele>111</ele>
        <time>2015-04-16T12:46:52Z</time>
      </trkpt>
      <trkpt lat="43.33752" lon="5.22082">
        <ele>111</ele>
        <time>2015-04-16T12:46:54Z</time>
      </trkpt>
      <trkpt lat="43.33754" lon="5.22082">
        <ele>111</ele>
        <time>2015-04-16T12:46:56Z</time>
      </trkpt>
      <trkpt lat="43.33755" lon="5.22082">
        <ele>112</ele>
        <time>2015-04-16T12:46:57Z</time>
      </trkpt>
      <trkpt lat="43.33757" lon="5.22083">
        <ele>112</ele>
        <time>2015-04-16T12:46:59Z</time>
      </trkpt>
      <trkpt lat="43.33758" lon="5.22083">
        <ele>113</ele>
        <time>2015-04-16T12:47:01Z</time>
      </trkpt>
      <trkpt lat="43.3376" lon="5.22084">
        <ele>114</ele>
        <time>2015-04-16T12:47:03Z</time>
      </trkpt>
      <trkpt lat="43.33761" lon="5.22083">
        <ele>114</ele>
        <time>2015-04-16T12:47:05Z</time>
      </trkpt>
      <trkpt lat="43.33762" lon="5.22082">
        <ele>115</ele>
        <time>2015-04-16T12:47:07Z</time>
      </trkpt>
      <trkpt lat="43.33764" lon="5.22083">
        <ele>115</ele>
        <time>2015-04-16T12:47:08Z</time>
      </trkpt>
      <trkpt lat="43.33765" lon="5.22083">
        <ele>115</ele>
        <time>2015-04-16T12:47:10Z</time>
      </trkpt>
      <trkpt lat="43.33767" lon="5.22083">
        <ele>115</ele>
        <time>2015-04-16T12:47:12Z</time>
      </trkpt>
      <trkpt lat="43.33768" lon="5.22083">
        <ele>115</ele>
        <time>2015-04-16T12:47:14Z</time>
      </trkpt>
      <trkpt lat="43.3377" lon="5.22083">
        <ele>116</ele>
        <time>2015-04-16T12:47:16Z</time>
      </trkpt>
      <trkpt lat="43.33771" lon="5.22082">
        <ele>116</ele>
        <time>2015-04-16T12:47:18Z</time>
      </trkpt>
      <trkpt lat="43.33773" lon="5.22083">
        <ele>117</ele>
        <time>2015-04-16T12:47:21Z</time>
      </trkpt>
      <trkpt lat="43.33775" lon="5.22082">
        <ele>118</ele>
        <time>2015-04-16T12:47:23Z</time>
      </trkpt>
      <trkpt lat="43.33777" lon="5.22083">
        <ele>118</ele>
        <time>2015-04-16T12:47:25Z</time>
      </trkpt>
      <trkpt lat="43.33778" lon="5.22083">
        <ele>118</ele>
        <time>2015-04-16T12:47:27Z</time>
      </trkpt>
      <trkpt lat="43.3378" lon="5.22083">
        <ele>118</ele>
        <time>2015-04-16T12:47:29Z</time>
      </trkpt>
      <trkpt lat="43.33781" lon="5.22083">
        <ele>119</ele>
        <time>2015-04-16T12:47:31Z</time>
      </trkpt>
      <trkpt lat="43.33783" lon="5.22083">
        <ele>119</ele>
        <time>2015-04-16T12:47:33Z</time>
      </trkpt>
      <trkpt lat="43.33784" lon="5.22084">
        <ele>120</ele>
        <time>2015-04-16T12:47:35Z</time>
      </trkpt>
      <trkpt lat="43.33785" lon="5.22084">
        <ele>120</ele>
        <time>2015-04-16T12:47:37Z</time>
      </trkpt>
      <trkpt lat="43.33786" lon="5.22084">
        <ele>120</ele>
        <time>2015-04-16T12:47:39Z</time>
      </trkpt>
      <trkpt lat="43.33788" lon="5.22085">
        <ele>120</ele>
        <time>2015-04-16T12:47:41Z</time>
      </trkpt>
      <trkpt lat="43.33789" lon="5.22086">
        <ele>121</ele>
        <time>2015-04-16T12:47:43Z</time>
      </trkpt>
      <trkpt lat="43.33791" lon="5.22086">
        <ele>121</ele>
        <time>2015-04-16T12:47:45Z</time>
      </trkpt>
      <trkpt lat="43.33794" lon="5.22088">
        <ele>121</ele>
        <time>2015-04-16T12:47:47Z</time>
      </trkpt>
      <trkpt lat="43.33795" lon="5.2209">
        <ele>122</ele>
        <time>2015-04-16T12:47:49Z</time>
      </trkpt>
      <trkpt lat="43.33797" lon="5.22091">
        <ele>122</ele>
        <time>2015-04-16T12:47:51Z</time>
      </trkpt>
      <trkpt lat="43.33798" lon="5.22092">
        <ele>122</ele>
        <time>2015-04-16T12:47:52Z</time>
      </trkpt>
      <trkpt lat="43.33801" lon="5.22093">
        <ele>123</ele>
        <time>2015-04-16T12:47:54Z</time>
      </trkpt>
      <trkpt lat="43.33802" lon="5.22094">
        <ele>123</ele>
        <time>2015-04-16T12:47:55Z</time>
      </trkpt>
      <trkpt lat="43.33803" lon="5.22095">
        <ele>123</ele>
        <time>2015-04-16T12:47:56Z</time>
      </trkpt>
      <trkpt lat="43.33804" lon="5.22095">
        <ele>123</ele>
        <time>2015-04-16T12:47:57Z</time>
      </trkpt>
      <trkpt lat="43.33806" lon="5.22096">
        <ele>124</ele>
        <time>2015-04-16T12:47:59Z</time>
      </trkpt>
      <trkpt lat="43.33807" lon="5.22097">
        <ele>124</ele>
        <time>2015-04-16T12:48:00Z</time>
      </trkpt>
      <trkpt lat="43.33809" lon="5.22098">
        <ele>124</ele>
        <time>2015-04-16T12:48:01Z</time>
      </trkpt>
      <trkpt lat="43.3381" lon="5.22098">
        <ele>124</ele>
        <time>2015-04-16T12:48:02Z</time>
      </trkpt>
      <trkpt lat="43.33811" lon="5.22098">
        <ele>124</ele>
        <time>2015-04-16T12:48:03Z</time>
      </trkpt>
      <trkpt lat="43.33812" lon="5.22098">
        <ele>124</ele>
        <time>2015-04-16T12:48:04Z</time>
      </trkpt>
      <trkpt lat="43.33814" lon="5.22099">
        <ele>124</ele>
        <time>2015-04-16T12:48:05Z</time>
      </trkpt>
      <trkpt lat="43.33815" lon="5.22099">
        <ele>124</ele>
        <time>2015-04-16T12:48:06Z</time>
      </trkpt>
      <trkpt lat="43.33817" lon="5.22099">
        <ele>124</ele>
        <time>2015-04-16T12:48:07Z</time>
      </trkpt>
      <trkpt lat="43.33818" lon="5.221">
        <ele>124</ele>
        <time>2015-04-16T12:48:08Z</time>
      </trkpt>
      <trkpt lat="43.33819" lon="5.221">
        <ele>124</ele>
        <time>2015-04-16T12:48:09Z</time>
      </trkpt>
      <trkpt lat="43.3382" lon="5.22101">
        <ele>124</ele>
        <time>2015-04-16T12:48:10Z</time>
      </trkpt>
      <trkpt lat="43.33822" lon="5.22101">
        <ele>124</ele>
        <time>2015-04-16T12:48:11Z</time>
      </trkpt>
      <trkpt lat="43.33824" lon="5.22101">
        <ele>125</ele>
        <time>2015-04-16T12:48:13Z</time>
      </trkpt>
      <trkpt lat="43.33825" lon="5.22102">
        <ele>125</ele>
        <time>2015-04-16T12:48:14Z</time>
      </trkpt>
      <trkpt lat="43.33826" lon="5.22102">
        <ele>125</ele>
        <time>2015-04-16T12:48:15Z</time>
      </trkpt>
      <trkpt lat="43.33828" lon="5.22102">
        <ele>125</ele>
        <time>2015-04-16T12:48:16Z</time>
      </trkpt>
      <trkpt lat="43.33829" lon="5.22103">
        <ele>125</ele>
        <time>2015-04-16T12:48:17Z</time>
      </trkpt>
      <trkpt lat="43.3383" lon="5.22103">
        <ele>125</ele>
        <time>2015-04-16T12:48:18Z</time>
      </trkpt>
      <trkpt lat="43.33831" lon="5.22104">
        <ele>125</ele>
        <time>2015-04-16T12:48:19Z</time>
      </trkpt>
      <trkpt lat="43.33833" lon="5.22104">
        <ele>125</ele>
        <time>2015-04-16T12:48:20Z</time>
      </trkpt>
      <trkpt lat="43.33834" lon="5.22105">
        <ele>125</ele>
        <time>2015-04-16T12:48:21Z</time>
      </trkpt>
      <trkpt lat="43.33836" lon="5.22106">
        <ele>126</ele>
        <time>2015-04-16T12:48:23Z</time>
      </trkpt>
      <trkpt lat="43.33838" lon="5.22106">
        <ele>126</ele>
        <time>2015-04-16T12:48:24Z</time>
      </trkpt>
      <trkpt lat="43.33839" lon="5.22107">
        <ele>126</ele>
        <time>2015-04-16T12:48:25Z</time>
      </trkpt>
      <trkpt lat="43.3384" lon="5.22107">
        <ele>126</ele>
        <time>2015-04-16T12:48:26Z</time>
      </trkpt>
      <trkpt lat="43.33842" lon="5.22108">
        <ele>126</ele>
        <time>2015-04-16T12:48:28Z</time>
      </trkpt>
      <trkpt lat="43.33844" lon="5.22108">
        <ele>126</ele>
        <time>2015-04-16T12:48:30Z</time>
      </trkpt>
      <trkpt lat="43.33845" lon="5.22107">
        <ele>127</ele>
        <time>2015-04-16T12:48:32Z</time>
      </trkpt>
      <trkpt lat="43.33847" lon="5.22107">
        <ele>128</ele>
        <time>2015-04-16T12:48:34Z</time>
      </trkpt>
      <trkpt lat="43.33848" lon="5.22106">
        <ele>129</ele>
        <time>2015-04-16T12:48:36Z</time>
      </trkpt>
      <trkpt lat="43.33849" lon="5.22106">
        <ele>130</ele>
        <time>2015-04-16T12:48:38Z</time>
      </trkpt>
      <trkpt lat="43.33851" lon="5.22106">
        <ele>131</ele>
        <time>2015-04-16T12:48:40Z</time>
      </trkpt>
      <trkpt lat="43.33852" lon="5.22106">
        <ele>132</ele>
        <time>2015-04-16T12:48:41Z</time>
      </trkpt>
      <trkpt lat="43.33854" lon="5.22105">
        <ele>133</ele>
        <time>2015-04-16T12:48:44Z</time>
      </trkpt>
      <trkpt lat="43.33855" lon="5.22105">
        <ele>134</ele>
        <time>2015-04-16T12:48:46Z</time>
      </trkpt>
      <trkpt lat="43.33857" lon="5.22105">
        <ele>135</ele>
        <time>2015-04-16T12:48:48Z</time>
      </trkpt>
      <trkpt lat="43.33858" lon="5.22105">
        <ele>136</ele>
        <time>2015-04-16T12:48:50Z</time>
      </trkpt>
      <trkpt lat="43.3386" lon="5.22105">
        <ele>137</ele>
        <time>2015-04-16T12:48:52Z</time>
      </trkpt>
      <trkpt lat="43.33862" lon="5.22106">
        <ele>137</ele>
        <time>2015-04-16T12:48:54Z</time>
      </trkpt>
      <trkpt lat="43.33864" lon="5.22107">
        <ele>138</ele>
        <time>2015-04-16T12:48:56Z</time>
      </trkpt>
      <trkpt lat="43.33866" lon="5.22109">
        <ele>138</ele>
        <time>2015-04-16T12:48:58Z</time>
      </trkpt>
      <trkpt lat="43.33868" lon="5.2211">
        <ele>138</ele>
        <time>2015-04-16T12:49:00Z</time>
      </trkpt>
      <trkpt lat="43.33869" lon="5.22111">
        <ele>138</ele>
        <time>2015-04-16T12:49:01Z</time>
      </trkpt>
      <trkpt lat="43.3387" lon="5.22112">
        <ele>138</ele>
        <time>2015-04-16T12:49:02Z</time>
      </trkpt>
      <trkpt lat="43.33872" lon="5.22113">
        <ele>138</ele>
        <time>2015-04-16T12:49:04Z</time>
      </trkpt>
      <trkpt lat="43.33874" lon="5.22115">
        <ele>138</ele>
        <time>2015-04-16T12:49:06Z</time>
      </trkpt>
      <trkpt lat="43.33876" lon="5.22115">
        <ele>138</ele>
        <time>2015-04-16T12:49:07Z</time>
      </trkpt>
      <trkpt lat="43.33877" lon="5.22116">
        <ele>138</ele>
        <time>2015-04-16T12:49:08Z</time>
      </trkpt>
      <trkpt lat="43.33878" lon="5.22117">
        <ele>138</ele>
        <time>2015-04-16T12:49:09Z</time>
      </trkpt>
      <trkpt lat="43.33879" lon="5.22118">
        <ele>138</ele>
        <time>2015-04-16T12:49:10Z</time>
      </trkpt>
      <trkpt lat="43.3388" lon="5.22119">
        <ele>138</ele>
        <time>2015-04-16T12:49:11Z</time>
      </trkpt>
      <trkpt lat="43.33882" lon="5.2212">
        <ele>138</ele>
        <time>2015-04-16T12:49:13Z</time>
      </trkpt>
      <trkpt lat="43.33884" lon="5.22122">
        <ele>138</ele>
        <time>2015-04-16T12:49:15Z</time>
      </trkpt>
      <trkpt lat="43.33886" lon="5.22123">
        <ele>138</ele>
        <time>2015-04-16T12:49:16Z</time>
      </trkpt>
      <trkpt lat="43.33887" lon="5.22125">
        <ele>138</ele>
        <time>2015-04-16T12:49:18Z</time>
      </trkpt>
      <trkpt lat="43.33889" lon="5.22126">
        <ele>139</ele>
        <time>2015-04-16T12:49:20Z</time>
      </trkpt>
      <trkpt lat="43.33891" lon="5.22128">
        <ele>139</ele>
        <time>2015-04-16T12:49:22Z</time>
      </trkpt>
      <trkpt lat="43.33893" lon="5.22129">
        <ele>139</ele>
        <time>2015-04-16T12:49:24Z</time>
      </trkpt>
      <trkpt lat="43.33895" lon="5.22131">
        <ele>139</ele>
        <time>2015-04-16T12:49:26Z</time>
      </trkpt>
      <trkpt lat="43.33897" lon="5.22132">
        <ele>139</ele>
        <time>2015-04-16T12:49:28Z</time>
      </trkpt>
      <trkpt lat="43.33898" lon="5.22133">
        <ele>139</ele>
        <time>2015-04-16T12:49:30Z</time>
      </trkpt>
      <trkpt lat="43.339" lon="5.22132">
        <ele>139</ele>
        <time>2015-04-16T12:49:32Z</time>
      </trkpt>
      <trkpt lat="43.33901" lon="5.22132">
        <ele>140</ele>
        <time>2015-04-16T12:49:34Z</time>
      </trkpt>
      <trkpt lat="43.33903" lon="5.22133">
        <ele>141</ele>
        <time>2015-04-16T12:49:36Z</time>
      </trkpt>
      <trkpt lat="43.33905" lon="5.22133">
        <ele>141</ele>
        <time>2015-04-16T12:49:38Z</time>
      </trkpt>
      <trkpt lat="43.33906" lon="5.22133">
        <ele>142</ele>
        <time>2015-04-16T12:49:40Z</time>
      </trkpt>
      <trkpt lat="43.33908" lon="5.22134">
        <ele>143</ele>
        <time>2015-04-16T12:49:42Z</time>
      </trkpt>
      <trkpt lat="43.3391" lon="5.22134">
        <ele>143</ele>
        <time>2015-04-16T12:49:44Z</time>
      </trkpt>
      <trkpt lat="43.33911" lon="5.22135">
        <ele>143</ele>
        <time>2015-04-16T12:49:46Z</time>
      </trkpt>
      <trkpt lat="43.33913" lon="5.22135">
        <ele>143</ele>
        <time>2015-04-16T12:49:48Z</time>
      </trkpt>
      <trkpt lat="43.33915" lon="5.22134">
        <ele>144</ele>
        <time>2015-04-16T12:49:50Z</time>
      </trkpt>
      <trkpt lat="43.33916" lon="5.22134">
        <ele>145</ele>
        <time>2015-04-16T12:49:52Z</time>
      </trkpt>
      <trkpt lat="43.33918" lon="5.22134">
        <ele>145</ele>
        <time>2015-04-16T12:49:52Z</time>
      </trkpt>
      <trkpt lat="43.3392" lon="5.22135">
        <ele>146</ele>
        <time>2015-04-16T12:49:55Z</time>
      </trkpt>
      <trkpt lat="43.33922" lon="5.22135">
        <ele>146</ele>
        <time>2015-04-16T12:49:57Z</time>
      </trkpt>
      <trkpt lat="43.33924" lon="5.22135">
        <ele>147</ele>
        <time>2015-04-16T12:49:59Z</time>
      </trkpt>
      <trkpt lat="43.33926" lon="5.22135">
        <ele>147</ele>
        <time>2015-04-16T12:50:00Z</time>
      </trkpt>
      <trkpt lat="43.33928" lon="5.22135">
        <ele>148</ele>
        <time>2015-04-16T12:50:03Z</time>
      </trkpt>
      <trkpt lat="43.33929" lon="5.22136">
        <ele>148</ele>
        <time>2015-04-16T12:50:04Z</time>
      </trkpt>
      <trkpt lat="43.33931" lon="5.22137">
        <ele>148</ele>
        <time>2015-04-16T12:50:06Z</time>
      </trkpt>
      <trkpt lat="43.33934" lon="5.22137">
        <ele>148</ele>
        <time>2015-04-16T12:50:07Z</time>
      </trkpt>
      <trkpt lat="43.33935" lon="5.22137">
        <ele>148</ele>
        <time>2015-04-16T12:50:09Z</time>
      </trkpt>
      <trkpt lat="43.33937" lon="5.22137">
        <ele>148</ele>
        <time>2015-04-16T12:50:11Z</time>
      </trkpt>
      <trkpt lat="43.33938" lon="5.22137">
        <ele>148</ele>
        <time>2015-04-16T12:50:12Z</time>
      </trkpt>
      <trkpt lat="43.33939" lon="5.22137">
        <ele>148</ele>
        <time>2015-04-16T12:50:13Z</time>
      </trkpt>
      <trkpt lat="43.33941" lon="5.22136">
        <ele>148</ele>
        <time>2015-04-16T12:50:15Z</time>
      </trkpt>
      <trkpt lat="43.33942" lon="5.22136">
        <ele>148</ele>
        <time>2015-04-16T12:50:16Z</time>
      </trkpt>
      <trkpt lat="43.33944" lon="5.22136">
        <ele>148</ele>
        <time>2015-04-16T12:50:17Z</time>
      </trkpt>
      <trkpt lat="43.33945" lon="5.22135">
        <ele>148</ele>
        <time>2015-04-16T12:50:19Z</time>
      </trkpt>
      <trkpt lat="43.33947" lon="5.22134">
        <ele>148</ele>
        <time>2015-04-16T12:50:20Z</time>
      </trkpt>
      <trkpt lat="43.33949" lon="5.22133">
        <ele>148</ele>
        <time>2015-04-16T12:50:22Z</time>
      </trkpt>
      <trkpt lat="43.33951" lon="5.22132">
        <ele>148</ele>
        <time>2015-04-16T12:50:24Z</time>
      </trkpt>
      <trkpt lat="43.33953" lon="5.22131">
        <ele>148</ele>
        <time>2015-04-16T12:50:26Z</time>
      </trkpt>
      <trkpt lat="43.33955" lon="5.2213">
        <ele>148</ele>
        <time>2015-04-16T12:50:28Z</time>
      </trkpt>
      <trkpt lat="43.33957" lon="5.2213">
        <ele>148</ele>
        <time>2015-04-16T12:50:29Z</time>
      </trkpt>
      <trkpt lat="43.33958" lon="5.2213">
        <ele>148</ele>
        <time>2015-04-16T12:50:30Z</time>
      </trkpt>
      <trkpt lat="43.33959" lon="5.2213">
        <ele>148</ele>
        <time>2015-04-16T12:50:31Z</time>
      </trkpt>
      <trkpt lat="43.33961" lon="5.2213">
        <ele>149</ele>
        <time>2015-04-16T12:50:33Z</time>
      </trkpt>
      <trkpt lat="43.33963" lon="5.2213">
        <ele>149</ele>
        <time>2015-04-16T12:50:35Z</time>
      </trkpt>
      <trkpt lat="43.33965" lon="5.22129">
        <ele>149</ele>
        <time>2015-04-16T12:50:37Z</time>
      </trkpt>
      <trkpt lat="43.33966" lon="5.2213">
        <ele>149</ele>
        <time>2015-04-16T12:50:38Z</time>
      </trkpt>
      <trkpt lat="43.33967" lon="5.2213">
        <ele>150</ele>
        <time>2015-04-16T12:50:39Z</time>
      </trkpt>
      <trkpt lat="43.33969" lon="5.2213">
        <ele>150</ele>
        <time>2015-04-16T12:50:40Z</time>
      </trkpt>
      <trkpt lat="43.3397" lon="5.2213">
        <ele>150</ele>
        <time>2015-04-16T12:50:41Z</time>
      </trkpt>
      <trkpt lat="43.33971" lon="5.2213">
        <ele>150</ele>
        <time>2015-04-16T12:50:42Z</time>
      </trkpt>
      <trkpt lat="43.33972" lon="5.2213">
        <ele>150</ele>
        <time>2015-04-16T12:50:43Z</time>
      </trkpt>
      <trkpt lat="43.33973" lon="5.2213">
        <ele>150</ele>
        <time>2015-04-16T12:50:44Z</time>
      </trkpt>
      <trkpt lat="43.33976" lon="5.2213">
        <ele>151</ele>
        <time>2015-04-16T12:50:45Z</time>
      </trkpt>
      <trkpt lat="43.33977" lon="5.2213">
        <ele>151</ele>
        <time>2015-04-16T12:50:47Z</time>
      </trkpt>
      <trkpt lat="43.33978" lon="5.2213">
        <ele>151</ele>
        <time>2015-04-16T12:50:48Z</time>
      </trkpt>
      <trkpt lat="43.33979" lon="5.22131">
        <ele>151</ele>
        <time>2015-04-16T12:50:49Z</time>
      </trkpt>
      <trkpt lat="43.33981" lon="5.2213">
        <ele>151</ele>
        <time>2015-04-16T12:50:50Z</time>
      </trkpt>
      <trkpt lat="43.33982" lon="5.2213">
        <ele>151</ele>
        <time>2015-04-16T12:50:51Z</time>
      </trkpt>
      <trkpt lat="43.33983" lon="5.2213">
        <ele>151</ele>
        <time>2015-04-16T12:50:51Z</time>
      </trkpt>
      <trkpt lat="43.33984" lon="5.2213">
        <ele>151</ele>
        <time>2015-04-16T12:50:53Z</time>
      </trkpt>
      <trkpt lat="43.33986" lon="5.2213">
        <ele>151</ele>
        <time>2015-04-16T12:50:54Z</time>
      </trkpt>
      <trkpt lat="43.33987" lon="5.2213">
        <ele>152</ele>
        <time>2015-04-16T12:50:55Z</time>
      </trkpt>
      <trkpt lat="43.33989" lon="5.2213">
        <ele>152</ele>
        <time>2015-04-16T12:50:56Z</time>
      </trkpt>
      <trkpt lat="43.3399" lon="5.22129">
        <ele>152</ele>
        <time>2015-04-16T12:50:57Z</time>
      </trkpt>
      <trkpt lat="43.33991" lon="5.22129">
        <ele>152</ele>
        <time>2015-04-16T12:50:58Z</time>
      </trkpt>
      <trkpt lat="43.33993" lon="5.22128">
        <ele>152</ele>
        <time>2015-04-16T12:51:00Z</time>
      </trkpt>
      <trkpt lat="43.33995" lon="5.22127">
        <ele>152</ele>
        <time>2015-04-16T12:51:02Z</time>
      </trkpt>
      <trkpt lat="43.33996" lon="5.22127">
        <ele>152</ele>
        <time>2015-04-16T12:51:03Z</time>
      </trkpt>
      <trkpt lat="43.33998" lon="5.22126">
        <ele>152</ele>
        <time>2015-04-16T12:51:05Z</time>
      </trkpt>
      <trkpt lat="43.34" lon="5.22126">
        <ele>153</ele>
        <time>2015-04-16T12:51:06Z</time>
      </trkpt>
      <trkpt lat="43.34001" lon="5.22126">
        <ele>153</ele>
        <time>2015-04-16T12:51:07Z</time>
      </trkpt>
      <trkpt lat="43.34002" lon="5.22125">
        <ele>153</ele>
        <time>2015-04-16T12:51:08Z</time>
      </trkpt>
      <trkpt lat="43.34004" lon="5.22125">
        <ele>153</ele>
        <time>2015-04-16T12:51:10Z</time>
      </trkpt>
      <trkpt lat="43.34006" lon="5.22125">
        <ele>153</ele>
        <time>2015-04-16T12:51:11Z</time>
      </trkpt>
      <trkpt lat="43.34007" lon="5.22125">
        <ele>153</ele>
        <time>2015-04-16T12:51:12Z</time>
      </trkpt>
      <trkpt lat="43.34008" lon="5.22125">
        <ele>153</ele>
        <time>2015-04-16T12:51:13Z</time>
      </trkpt>
      <trkpt lat="43.3401" lon="5.22124">
        <ele>153</ele>
        <time>2015-04-16T12:51:14Z</time>
      </trkpt>
      <trkpt lat="43.34011" lon="5.22124">
        <ele>153</ele>
        <time>2015-04-16T12:51:15Z</time>
      </trkpt>
      <trkpt lat="43.34013" lon="5.22124">
        <ele>153</ele>
        <time>2015-04-16T12:51:17Z</time>
      </trkpt>
      <trkpt lat="43.34015" lon="5.22124">
        <ele>153</ele>
        <time>2015-04-16T12:51:19Z</time>
      </trkpt>
      <trkpt lat="43.34017" lon="5.22124">
        <ele>154</ele>
        <time>2015-04-16T12:51:19Z</time>
      </trkpt>
      <trkpt lat="43.34018" lon="5.22124">
        <ele>154</ele>
        <time>2015-04-16T12:51:20Z</time>
      </trkpt>
      <trkpt lat="43.34019" lon="5.22124">
        <ele>154</ele>
        <time>2015-04-16T12:51:21Z</time>
      </trkpt>
      <trkpt lat="43.34021" lon="5.22124">
        <ele>154</ele>
        <time>2015-04-16T12:51:22Z</time>
      </trkpt>
      <trkpt lat="43.34022" lon="5.22124">
        <ele>154</ele>
        <time>2015-04-16T12:51:23Z</time>
      </trkpt>
      <trkpt lat="43.34023" lon="5.22124">
        <ele>155</ele>
        <time>2015-04-16T12:51:25Z</time>
      </trkpt>
      <trkpt lat="43.34024" lon="5.22124">
        <ele>155</ele>
        <time>2015-04-16T12:51:26Z</time>
      </trkpt>
      <trkpt lat="43.34026" lon="5.22124">
        <ele>155</ele>
        <time>2015-04-16T12:51:27Z</time>
      </trkpt>
      <trkpt lat="43.34027" lon="5.22124">
        <ele>155</ele>
        <time>2015-04-16T12:51:27Z</time>
      </trkpt>
      <trkpt lat="43.34028" lon="5.22123">
        <ele>155</ele>
        <time>2015-04-16T12:51:29Z</time>
      </trkpt>
      <trkpt lat="43.34029" lon="5.22123">
        <ele>155</ele>
        <time>2015-04-16T12:51:30Z</time>
      </trkpt>
      <trkpt lat="43.3403" lon="5.22123">
        <ele>155</ele>
        <time>2015-04-16T12:51:31Z</time>
      </trkpt>
      <trkpt lat="43.34032" lon="5.22123">
        <ele>155</ele>
        <time>2015-04-16T12:51:31Z</time>
      </trkpt>
      <trkpt lat="43.34033" lon="5.22123">
        <ele>155</ele>
        <time>2015-04-16T12:51:33Z</time>
      </trkpt>
      <trkpt lat="43.34034" lon="5.22123">
        <ele>155</ele>
        <time>2015-04-16T12:51:33Z</time>
      </trkpt>
      <trkpt lat="43.34035" lon="5.22123">
        <ele>156</ele>
        <time>2015-04-16T12:51:35Z</time>
      </trkpt>
      <trkpt lat="43.34037" lon="5.22123">
        <ele>156</ele>
        <time>2015-04-16T12:51:35Z</time>
      </trkpt>
      <trkpt lat="43.34038" lon="5.22123">
        <ele>156</ele>
        <time>2015-04-16T12:51:36Z</time>
      </trkpt>
      <trkpt lat="43.34039" lon="5.22123">
        <ele>156</ele>
        <time>2015-04-16T12:51:37Z</time>
      </trkpt>
      <trkpt lat="43.34041" lon="5.22123">
        <ele>156</ele>
        <time>2015-04-16T12:51:39Z</time>
      </trkpt>
      <trkpt lat="43.34042" lon="5.22123">
        <ele>156</ele>
        <time>2015-04-16T12:51:39Z</time>
      </trkpt>
      <trkpt lat="43.34044" lon="5.22123">
        <ele>156</ele>
        <time>2015-04-16T12:51:41Z</time>
      </trkpt>
      <trkpt lat="43.34045" lon="5.22122">
        <ele>157</ele>
        <time>2015-04-16T12:51:42Z</time>
      </trkpt>
      <trkpt lat="43.34046" lon="5.22122">
        <ele>157</ele>
        <time>2015-04-16T12:51:43Z</time>
      </trkpt>
      <trkpt lat="43.34047" lon="5.22122">
        <ele>157</ele>
        <time>2015-04-16T12:51:43Z</time>
      </trkpt>
      <trkpt lat="43.34049" lon="5.22121">
        <ele>157</ele>
        <time>2015-04-16T12:51:46Z</time>
      </trkpt>
      <trkpt lat="43.34051" lon="5.2212">
        <ele>157</ele>
        <time>2015-04-16T12:51:47Z</time>
      </trkpt>
      <trkpt lat="43.34053" lon="5.22119">
        <ele>158</ele>
        <time>2015-04-16T12:51:50Z</time>
      </trkpt>
      <trkpt lat="43.34055" lon="5.22117">
        <ele>158</ele>
        <time>2015-04-16T12:51:52Z</time>
      </trkpt>
      <trkpt lat="43.34057" lon="5.22115">
        <ele>158</ele>
        <time>2015-04-16T12:51:54Z</time>
      </trkpt>
      <trkpt lat="43.34058" lon="5.22115">
        <ele>158</ele>
        <time>2015-04-16T12:51:55Z</time>
      </trkpt>
      <trkpt lat="43.3406" lon="5.22113">
        <ele>159</ele>
        <time>2015-04-16T12:51:57Z</time>
      </trkpt>
      <trkpt lat="43.34062" lon="5.22112">
        <ele>159</ele>
        <time>2015-04-16T12:51:59Z</time>
      </trkpt>
      <trkpt lat="43.34064" lon="5.2211">
        <ele>160</ele>
        <time>2015-04-16T12:52:01Z</time>
      </trkpt>
      <trkpt lat="43.34066" lon="5.22109">
        <ele>161</ele>
        <time>2015-04-16T12:52:03Z</time>
      </trkpt>
      <trkpt lat="43.34068" lon="5.22108">
        <ele>161</ele>
        <time>2015-04-16T12:52:05Z</time>
      </trkpt>
      <trkpt lat="43.34069" lon="5.22107">
        <ele>162</ele>
        <time>2015-04-16T12:52:05Z</time>
      </trkpt>
      <trkpt lat="43.3407" lon="5.22106">
        <ele>162</ele>
        <time>2015-04-16T12:52:07Z</time>
      </trkpt>
      <trkpt lat="43.34072" lon="5.22105">
        <ele>162</ele>
        <time>2015-04-16T12:52:09Z</time>
      </trkpt>
      <trkpt lat="43.34074" lon="5.22104">
        <ele>162</ele>
        <time>2015-04-16T12:52:11Z</time>
      </trkpt>
      <trkpt lat="43.34076" lon="5.22103">
        <ele>163</ele>
        <time>2015-04-16T12:52:12Z</time>
      </trkpt>
      <trkpt lat="43.34078" lon="5.22102">
        <ele>163</ele>
        <time>2015-04-16T12:52:15Z</time>
      </trkpt>
      <trkpt lat="43.3408" lon="5.22101">
        <ele>164</ele>
        <time>2015-04-16T12:52:17Z</time>
      </trkpt>
      <trkpt lat="43.34082" lon="5.22101">
        <ele>164</ele>
        <time>2015-04-16T12:52:18Z</time>
      </trkpt>
      <trkpt lat="43.34084" lon="5.22101">
        <ele>164</ele>
        <time>2015-04-16T12:52:21Z</time>
      </trkpt>
      <trkpt lat="43.34086" lon="5.22101">
        <ele>165</ele>
        <time>2015-04-16T12:52:23Z</time>
      </trkpt>
      <trkpt lat="43.34088" lon="5.22101">
        <ele>165</ele>
        <time>2015-04-16T12:52:24Z</time>
      </trkpt>
      <trkpt lat="43.34089" lon="5.22101">
        <ele>165</ele>
        <time>2015-04-16T12:52:26Z</time>
      </trkpt>
      <trkpt lat="43.3409" lon="5.22101">
        <ele>165</ele>
        <time>2015-04-16T12:52:27Z</time>
      </trkpt>
      <trkpt lat="43.34092" lon="5.22101">
        <ele>165</ele>
        <time>2015-04-16T12:52:27Z</time>
      </trkpt>
      <trkpt lat="43.34093" lon="5.22102">
        <ele>165</ele>
        <time>2015-04-16T12:52:30Z</time>
      </trkpt>
      <trkpt lat="43.34095" lon="5.22103">
        <ele>165</ele>
        <time>2015-04-16T12:52:32Z</time>
      </trkpt>
      <trkpt lat="43.34097" lon="5.22103">
        <ele>165</ele>
        <time>2015-04-16T12:52:33Z</time>
      </trkpt>
      <trkpt lat="43.34098" lon="5.22103">
        <ele>165</ele>
        <time>2015-04-16T12:52:33Z</time>
      </trkpt>
      <trkpt lat="43.341" lon="5.22104">
        <ele>165</ele>
        <time>2015-04-16T12:52:35Z</time>
      </trkpt>
      <trkpt lat="43.34102" lon="5.22104">
        <ele>166</ele>
        <time>2015-04-16T12:52:38Z</time>
      </trkpt>
      <trkpt lat="43.34104" lon="5.22104">
        <ele>166</ele>
        <time>2015-04-16T12:52:39Z</time>
      </trkpt>
      <trkpt lat="43.34106" lon="5.22104">
        <ele>167</ele>
        <time>2015-04-16T12:52:42Z</time>
      </trkpt>
      <trkpt lat="43.34107" lon="5.22104">
        <ele>168</ele>
        <time>2015-04-16T12:52:44Z</time>
      </trkpt>
      <trkpt lat="43.34109" lon="5.22104">
        <ele>168</ele>
        <time>2015-04-16T12:52:45Z</time>
      </trkpt>
      <trkpt lat="43.34111" lon="5.22104">
        <ele>168</ele>
        <time>2015-04-16T12:52:46Z</time>
      </trkpt>
      <trkpt lat="43.34112" lon="5.22104">
        <ele>169</ele>
        <time>2015-04-16T12:52:49Z</time>
      </trkpt>
      <trkpt lat="43.34114" lon="5.22104">
        <ele>169</ele>
        <time>2015-04-16T12:52:51Z</time>
      </trkpt>
      <trkpt lat="43.34116" lon="5.22102">
        <ele>169</ele>
        <time>2015-04-16T12:52:52Z</time>
      </trkpt>
      <trkpt lat="43.34117" lon="5.221">
        <ele>170</ele>
        <time>2015-04-16T12:52:55Z</time>
      </trkpt>
      <trkpt lat="43.34119" lon="5.22099">
        <ele>171</ele>
        <time>2015-04-16T12:52:57Z</time>
      </trkpt>
      <trkpt lat="43.3412" lon="5.22098">
        <ele>171</ele>
        <time>2015-04-16T12:52:58Z</time>
      </trkpt>
      <trkpt lat="43.34122" lon="5.22097">
        <ele>171</ele>
        <time>2015-04-16T12:53:01Z</time>
      </trkpt>
      <trkpt lat="43.34123" lon="5.22095">
        <ele>171</ele>
        <time>2015-04-16T12:53:03Z</time>
      </trkpt>
      <trkpt lat="43.34125" lon="5.22093">
        <ele>172</ele>
        <time>2015-04-16T12:53:04Z</time>
      </trkpt>
      <trkpt lat="43.34126" lon="5.22091">
        <ele>172</ele>
        <time>2015-04-16T12:53:07Z</time>
      </trkpt>
      <trkpt lat="43.34126" lon="5.22089">
        <ele>172</ele>
        <time>2015-04-16T12:53:09Z</time>
      </trkpt>
      <trkpt lat="43.34126" lon="5.22087">
        <ele>172</ele>
        <time>2015-04-16T12:53:10Z</time>
      </trkpt>
      <trkpt lat="43.34124" lon="5.22085">
        <ele>172</ele>
        <time>2015-04-16T12:53:12Z</time>
      </trkpt>
      <trkpt lat="43.34123" lon="5.22083">
        <ele>172</ele>
        <time>2015-04-16T12:53:13Z</time>
      </trkpt>
      <trkpt lat="43.34121" lon="5.22081">
        <ele>173</ele>
        <time>2015-04-16T12:53:15Z</time>
      </trkpt>
      <trkpt lat="43.3412" lon="5.22078">
        <ele>173</ele>
        <time>2015-04-16T12:53:18Z</time>
      </trkpt>
      <trkpt lat="43.34118" lon="5.22077">
        <ele>174</ele>
        <time>2015-04-16T12:53:19Z</time>
      </trkpt>
      <trkpt lat="43.34116" lon="5.22075">
        <ele>174</ele>
        <time>2015-04-16T12:53:21Z</time>
      </trkpt>
      <trkpt lat="43.34115" lon="5.22073">
        <ele>174</ele>
        <time>2015-04-16T12:53:24Z</time>
      </trkpt>
      <trkpt lat="43.34113" lon="5.22071">
        <ele>174</ele>
        <time>2015-04-16T12:53:25Z</time>
      </trkpt>
      <trkpt lat="43.34111" lon="5.22069">
        <ele>174</ele>
        <time>2015-04-16T12:53:27Z</time>
      </trkpt>
      <trkpt lat="43.3411" lon="5.22068">
        <ele>174</ele>
        <time>2015-04-16T12:53:30Z</time>
      </trkpt>
      <trkpt lat="43.34108" lon="5.22066">
        <ele>174</ele>
        <time>2015-04-16T12:53:31Z</time>
      </trkpt>
      <trkpt lat="43.34108" lon="5.22064">
        <ele>175</ele>
        <time>2015-04-16T12:53:33Z</time>
      </trkpt>
      <trkpt lat="43.34106" lon="5.22062">
        <ele>175</ele>
        <time>2015-04-16T12:53:35Z</time>
      </trkpt>
      <trkpt lat="43.34105" lon="5.22059">
        <ele>175</ele>
        <time>2015-04-16T12:53:36Z</time>
      </trkpt>
      <trkpt lat="43.34104" lon="5.22057">
        <ele>175</ele>
        <time>2015-04-16T12:53:38Z</time>
      </trkpt>
      <trkpt lat="43.34103" lon="5.22054">
        <ele>176</ele>
        <time>2015-04-16T12:53:41Z</time>
      </trkpt>
      <trkpt lat="43.34102" lon="5.22052">
        <ele>176</ele>
        <time>2015-04-16T12:53:43Z</time>
      </trkpt>
      <trkpt lat="43.34102" lon="5.2205">
        <ele>177</ele>
        <time>2015-04-16T12:53:44Z</time>
      </trkpt>
      <trkpt lat="43.34102" lon="5.22047">
        <ele>177</ele>
        <time>2015-04-16T12:53:47Z</time>
      </trkpt>
      <trkpt lat="43.34102" lon="5.22045">
        <ele>178</ele>
        <time>2015-04-16T12:53:48Z</time>
      </trkpt>
      <trkpt lat="43.34102" lon="5.22044">
        <ele>178</ele>
        <time>2015-04-16T12:53:49Z</time>
      </trkpt>
      <trkpt lat="43.34102" lon="5.22042">
        <ele>178</ele>
        <time>2015-04-16T12:53:52Z</time>
      </trkpt>
      <trkpt lat="43.34101" lon="5.2204">
        <ele>179</ele>
        <time>2015-04-16T12:53:53Z</time>
      </trkpt>
      <trkpt lat="43.34101" lon="5.22037">
        <ele>179</ele>
        <time>2015-04-16T12:53:55Z</time>
      </trkpt>
      <trkpt lat="43.34101" lon="5.22035">
        <ele>180</ele>
        <time>2015-04-16T12:53:58Z</time>
      </trkpt>
      <trkpt lat="43.341" lon="5.22033">
        <ele>180</ele>
        <time>2015-04-16T12:53:59Z</time>
      </trkpt>
      <trkpt lat="43.341" lon="5.2203">
        <ele>181</ele>
        <time>2015-04-16T12:54:01Z</time>
      </trkpt>
      <trkpt lat="43.34099" lon="5.22028">
        <ele>181</ele>
        <time>2015-04-16T12:54:04Z</time>
      </trkpt>
      <trkpt lat="43.34098" lon="5.22026">
        <ele>181</ele>
        <time>2015-04-16T12:54:06Z</time>
      </trkpt>
      <trkpt lat="43.34097" lon="5.22023">
        <ele>182</ele>
        <time>2015-04-16T12:54:07Z</time>
      </trkpt>
      <trkpt lat="43.34096" lon="5.22022">
        <ele>182</ele>
        <time>2015-04-16T12:54:09Z</time>
      </trkpt>
      <trkpt lat="43.34095" lon="5.2202">
        <ele>182</ele>
        <time>2015-04-16T12:54:09Z</time>
      </trkpt>
      <trkpt lat="43.34095" lon="5.22019">
        <ele>182</ele>
        <time>2015-04-16T12:54:10Z</time>
      </trkpt>
      <trkpt lat="43.34095" lon="5.22016">
        <ele>183</ele>
        <time>2015-04-16T12:54:12Z</time>
      </trkpt>
      <trkpt lat="43.34094" lon="5.22014">
        <ele>183</ele>
        <time>2015-04-16T12:54:14Z</time>
      </trkpt>
      <trkpt lat="43.34094" lon="5.22013">
        <ele>183</ele>
        <time>2015-04-16T12:54:14Z</time>
      </trkpt>
      <trkpt lat="43.34094" lon="5.22011">
        <ele>183</ele>
        <time>2015-04-16T12:54:15Z</time>
      </trkpt>
      <trkpt lat="43.34094" lon="5.22009">
        <ele>183</ele>
        <time>2015-04-16T12:54:16Z</time>
      </trkpt>
      <trkpt lat="43.34095" lon="5.22008">
        <ele>183</ele>
        <time>2015-04-16T12:54:17Z</time>
      </trkpt>
      <trkpt lat="43.34095" lon="5.22006">
        <ele>183</ele>
        <time>2015-04-16T12:54:19Z</time>
      </trkpt>
      <trkpt lat="43.34095" lon="5.22005">
        <ele>183</ele>
        <time>2015-04-16T12:54:19Z</time>
      </trkpt>
      <trkpt lat="43.34097" lon="5.22003">
        <ele>183</ele>
        <time>2015-04-16T12:54:21Z</time>
      </trkpt>
      <trkpt lat="43.34099" lon="5.22003">
        <ele>183</ele>
        <time>2015-04-16T12:54:24Z</time>
      </trkpt>
      <trkpt lat="43.34101" lon="5.22003">
        <ele>184</ele>
        <time>2015-04-16T12:54:25Z</time>
      </trkpt>
      <trkpt lat="43.34103" lon="5.22004">
        <ele>184</ele>
        <time>2015-04-16T12:54:27Z</time>
      </trkpt>
      <trkpt lat="43.34105" lon="5.22005">
        <ele>184</ele>
        <time>2015-04-16T12:54:30Z</time>
      </trkpt>
      <trkpt lat="43.34106" lon="5.22007">
        <ele>185</ele>
        <time>2015-04-16T12:54:31Z</time>
      </trkpt>
      <trkpt lat="43.34108" lon="5.22008">
        <ele>185</ele>
        <time>2015-04-16T12:54:33Z</time>
      </trkpt>
      <trkpt lat="43.3411" lon="5.2201">
        <ele>185</ele>
        <time>2015-04-16T12:54:36Z</time>
      </trkpt>
      <trkpt lat="43.34112" lon="5.22011">
        <ele>185</ele>
        <time>2015-04-16T12:54:37Z</time>
      </trkpt>
      <trkpt lat="43.34113" lon="5.22011">
        <ele>186</ele>
        <time>2015-04-16T12:54:38Z</time>
      </trkpt>
      <trkpt lat="43.34114" lon="5.22011">
        <ele>186</ele>
        <time>2015-04-16T12:54:39Z</time>
      </trkpt>
      <trkpt lat="43.34116" lon="5.22011">
        <ele>186</ele>
        <time>2015-04-16T12:54:42Z</time>
      </trkpt>
      <trkpt lat="43.34118" lon="5.2201">
        <ele>186</ele>
        <time>2015-04-16T12:54:43Z</time>
      </trkpt>
      <trkpt lat="43.34119" lon="5.22008">
        <ele>187</ele>
        <time>2015-04-16T12:54:45Z</time>
      </trkpt>
      <trkpt lat="43.34121" lon="5.22006">
        <ele>187</ele>
        <time>2015-04-16T12:54:48Z</time>
      </trkpt>
      <trkpt lat="43.34121" lon="5.22004">
        <ele>187</ele>
        <time>2015-04-16T12:54:48Z</time>
      </trkpt>
      <trkpt lat="43.34121" lon="5.22002">
        <ele>188</ele>
        <time>2015-04-16T12:54:50Z</time>
      </trkpt>
      <trkpt lat="43.34121" lon="5.22">
        <ele>188</ele>
        <time>2015-04-16T12:54:51Z</time>
      </trkpt>
      <trkpt lat="43.34121" lon="5.21998">
        <ele>188</ele>
        <time>2015-04-16T12:54:53Z</time>
      </trkpt>
      <trkpt lat="43.3412" lon="5.21995">
        <ele>188</ele>
        <time>2015-04-16T12:54:54Z</time>
      </trkpt>
      <trkpt lat="43.34121" lon="5.21993">
        <ele>188</ele>
        <time>2015-04-16T12:54:55Z</time>
      </trkpt>
      <trkpt lat="43.34121" lon="5.21991">
        <ele>189</ele>
        <time>2015-04-16T12:54:58Z</time>
      </trkpt>
      <trkpt lat="43.34121" lon="5.21988">
        <ele>189</ele>
        <time>2015-04-16T12:54:59Z</time>
      </trkpt>
      <trkpt lat="43.34122" lon="5.21986">
        <ele>189</ele>
        <time>2015-04-16T12:55:00Z</time>
      </trkpt>
      <trkpt lat="43.34123" lon="5.21984">
        <ele>190</ele>
        <time>2015-04-16T12:55:03Z</time>
      </trkpt>
      <trkpt lat="43.34124" lon="5.21981">
        <ele>190</ele>
        <time>2015-04-16T12:55:04Z</time>
      </trkpt>
      <trkpt lat="43.34125" lon="5.2198">
        <ele>190</ele>
        <time>2015-04-16T12:55:06Z</time>
      </trkpt>
      <trkpt lat="43.34126" lon="5.21978">
        <ele>191</ele>
        <time>2015-04-16T12:55:10Z</time>
      </trkpt>
      <trkpt lat="43.34127" lon="5.21978">
        <ele>191</ele>
        <time>2015-04-16T12:55:11Z</time>
      </trkpt>
      <trkpt lat="43.34127" lon="5.2198">
        <ele>192</ele>
        <time>2015-04-16T12:56:15Z</time>
      </trkpt>
      <trkpt lat="43.34129" lon="5.2198">
        <ele>192</ele>
        <time>2015-04-16T12:57:11Z</time>
      </trkpt>
      <trkpt lat="43.34129" lon="5.21978">
        <ele>192</ele>
        <time>2015-04-16T12:57:41Z</time>
      </trkpt>
      <trkpt lat="43.34127" lon="5.21978">
        <ele>192</ele>
        <time>2015-04-16T12:57:58Z</time>
      </trkpt>
      <trkpt lat="43.34126" lon="5.21977">
        <ele>192</ele>
        <time>2015-04-16T12:58:12Z</time>
      </trkpt>
      <trkpt lat="43.34126" lon="5.21979">
        <ele>192</ele>
        <time>2015-04-16T12:58:44Z</time>
      </trkpt>
      <trkpt lat="43.34126" lon="5.2198">
        <ele>192</ele>
        <time>2015-04-16T13:00:28Z</time>
      </trkpt>
      <trkpt lat="43.34127" lon="5.2198">
        <ele>192</ele>
        <time>2015-04-16T13:00:58Z</time>
      </trkpt>
      <trkpt lat="43.34126" lon="5.21979">
        <ele>192</ele>
        <time>2015-04-16T13:01:32Z</time>
      </trkpt>
      <trkpt lat="43.34126" lon="5.21981">
        <ele>192</ele>
        <time>2015-04-16T13:01:55Z</time>
      </trkpt>
      <trkpt lat="43.34126" lon="5.21982">
        <ele>192</ele>
        <time>2015-04-16T13:02:17Z</time>
      </trkpt>
      <trkpt lat="43.34127" lon="5.21983">
        <ele>192</ele>
        <time>2015-04-16T13:02:36Z</time>
      </trkpt>
      <trkpt lat="43.34129" lon="5.21983">
        <ele>192</ele>
        <time>2015-04-16T13:03:14Z</time>
      </trkpt>
      <trkpt lat="43.3413" lon="5.21986">
        <ele>192</ele>
        <time>2015-04-16T13:03:17Z</time>
      </trkpt>
      <trkpt lat="43.3413" lon="5.21988">
        <ele>192</ele>
        <time>2015-04-16T13:03:19Z</time>
      </trkpt>
      <trkpt lat="43.3413" lon="5.21989">
        <ele>192</ele>
        <time>2015-04-16T13:03:20Z</time>
      </trkpt>
      <trkpt lat="43.3413" lon="5.21991">
        <ele>192</ele>
        <time>2015-04-16T13:03:21Z</time>
      </trkpt>
      <trkpt lat="43.34132" lon="5.21993">
        <ele>192</ele>
        <time>2015-04-16T13:03:23Z</time>
      </trkpt>
      <trkpt lat="43.34133" lon="5.21995">
        <ele>192</ele>
        <time>2015-04-16T13:03:25Z</time>
      </trkpt>
      <trkpt lat="43.34134" lon="5.21996">
        <ele>192</ele>
        <time>2015-04-16T13:03:26Z</time>
      </trkpt>
      <trkpt lat="43.34136" lon="5.21999">
        <ele>192</ele>
        <time>2015-04-16T13:03:28Z</time>
      </trkpt>
      <trkpt lat="43.34137" lon="5.22">
        <ele>192</ele>
        <time>2015-04-16T13:03:29Z</time>
      </trkpt>
      <trkpt lat="43.34138" lon="5.22001">
        <ele>192</ele>
        <time>2015-04-16T13:03:30Z</time>
      </trkpt>
      <trkpt lat="43.3414" lon="5.22002">
        <ele>192</ele>
        <time>2015-04-16T13:03:31Z</time>
      </trkpt>
      <trkpt lat="43.34141" lon="5.22003">
        <ele>192</ele>
        <time>2015-04-16T13:03:32Z</time>
      </trkpt>
      <trkpt lat="43.34142" lon="5.22004">
        <ele>192</ele>
        <time>2015-04-16T13:03:33Z</time>
      </trkpt>
      <trkpt lat="43.34143" lon="5.22004">
        <ele>192</ele>
        <time>2015-04-16T13:03:34Z</time>
      </trkpt>
      <trkpt lat="43.34145" lon="5.22005">
        <ele>192</ele>
        <time>2015-04-16T13:03:35Z</time>
      </trkpt>
      <trkpt lat="43.34146" lon="5.22006">
        <ele>192</ele>
        <time>2015-04-16T13:03:36Z</time>
      </trkpt>
      <trkpt lat="43.34148" lon="5.22008">
        <ele>192</ele>
        <time>2015-04-16T13:03:38Z</time>
      </trkpt>
      <trkpt lat="43.34149" lon="5.22009">
        <ele>192</ele>
        <time>2015-04-16T13:03:39Z</time>
      </trkpt>
      <trkpt lat="43.3415" lon="5.22009">
        <ele>192</ele>
        <time>2015-04-16T13:03:40Z</time>
      </trkpt>
      <trkpt lat="43.34152" lon="5.2201">
        <ele>192</ele>
        <time>2015-04-16T13:03:41Z</time>
      </trkpt>
      <trkpt lat="43.34153" lon="5.22011">
        <ele>192</ele>
        <time>2015-04-16T13:03:42Z</time>
      </trkpt>
      <trkpt lat="43.34154" lon="5.22012">
        <ele>192</ele>
        <time>2015-04-16T13:03:43Z</time>
      </trkpt>
      <trkpt lat="43.34155" lon="5.22013">
        <ele>193</ele>
        <time>2015-04-16T13:03:44Z</time>
      </trkpt>
      <trkpt lat="43.34156" lon="5.22014">
        <ele>193</ele>
        <time>2015-04-16T13:03:45Z</time>
      </trkpt>
      <trkpt lat="43.34158" lon="5.22014">
        <ele>193</ele>
        <time>2015-04-16T13:03:46Z</time>
      </trkpt>
      <trkpt lat="43.34159" lon="5.22015">
        <ele>193</ele>
        <time>2015-04-16T13:03:47Z</time>
      </trkpt>
      <trkpt lat="43.3416" lon="5.22015">
        <ele>193</ele>
        <time>2015-04-16T13:03:48Z</time>
      </trkpt>
      <trkpt lat="43.34162" lon="5.22017">
        <ele>193</ele>
        <time>2015-04-16T13:03:50Z</time>
      </trkpt>
      <trkpt lat="43.34163" lon="5.22018">
        <ele>193</ele>
        <time>2015-04-16T13:03:51Z</time>
      </trkpt>
      <trkpt lat="43.34164" lon="5.22018">
        <ele>193</ele>
        <time>2015-04-16T13:03:52Z</time>
      </trkpt>
      <trkpt lat="43.34166" lon="5.22019">
        <ele>194</ele>
        <time>2015-04-16T13:03:53Z</time>
      </trkpt>
      <trkpt lat="43.34167" lon="5.2202">
        <ele>194</ele>
        <time>2015-04-16T13:03:54Z</time>
      </trkpt>
      <trkpt lat="43.34168" lon="5.2202">
        <ele>194</ele>
        <time>2015-04-16T13:03:55Z</time>
      </trkpt>
      <trkpt lat="43.34169" lon="5.22021">
        <ele>194</ele>
        <time>2015-04-16T13:03:56Z</time>
      </trkpt>
      <trkpt lat="43.34171" lon="5.22022">
        <ele>194</ele>
        <time>2015-04-16T13:03:57Z</time>
      </trkpt>
      <trkpt lat="43.34172" lon="5.22023">
        <ele>194</ele>
        <time>2015-04-16T13:03:58Z</time>
      </trkpt>
      <trkpt lat="43.34173" lon="5.22023">
        <ele>194</ele>
        <time>2015-04-16T13:03:59Z</time>
      </trkpt>
      <trkpt lat="43.34174" lon="5.22024">
        <ele>194</ele>
        <time>2015-04-16T13:04:00Z</time>
      </trkpt>
      <trkpt lat="43.34175" lon="5.22025">
        <ele>194</ele>
        <time>2015-04-16T13:04:01Z</time>
      </trkpt>
      <trkpt lat="43.34177" lon="5.22026">
        <ele>194</ele>
        <time>2015-04-16T13:04:03Z</time>
      </trkpt>
      <trkpt lat="43.34179" lon="5.22027">
        <ele>195</ele>
        <time>2015-04-16T13:04:04Z</time>
      </trkpt>
      <trkpt lat="43.3418" lon="5.22028">
        <ele>195</ele>
        <time>2015-04-16T13:04:05Z</time>
      </trkpt>
      <trkpt lat="43.34181" lon="5.22029">
        <ele>195</ele>
        <time>2015-04-16T13:04:06Z</time>
      </trkpt>
      <trkpt lat="43.34182" lon="5.22029">
        <ele>195</ele>
        <time>2015-04-16T13:04:07Z</time>
      </trkpt>
      <trkpt lat="43.34184" lon="5.22031">
        <ele>195</ele>
        <time>2015-04-16T13:04:09Z</time>
      </trkpt>
      <trkpt lat="43.34185" lon="5.22032">
        <ele>195</ele>
        <time>2015-04-16T13:04:10Z</time>
      </trkpt>
      <trkpt lat="43.34187" lon="5.22034">
        <ele>195</ele>
        <time>2015-04-16T13:04:12Z</time>
      </trkpt>
      <trkpt lat="43.3419" lon="5.22037">
        <ele>196</ele>
        <time>2015-04-16T13:04:14Z</time>
      </trkpt>
      <trkpt lat="43.34192" lon="5.22039">
        <ele>196</ele>
        <time>2015-04-16T13:04:16Z</time>
      </trkpt>
      <trkpt lat="43.34194" lon="5.22041">
        <ele>196</ele>
        <time>2015-04-16T13:04:18Z</time>
      </trkpt>
      <trkpt lat="43.34195" lon="5.22043">
        <ele>196</ele>
        <time>2015-04-16T13:04:20Z</time>
      </trkpt>
      <trkpt lat="43.34197" lon="5.22046">
        <ele>196</ele>
        <time>2015-04-16T13:04:22Z</time>
      </trkpt>
      <trkpt lat="43.34198" lon="5.22048">
        <ele>196</ele>
        <time>2015-04-16T13:04:23Z</time>
      </trkpt>
      <trkpt lat="43.34199" lon="5.22049">
        <ele>196</ele>
        <time>2015-04-16T13:04:24Z</time>
      </trkpt>
      <trkpt lat="43.342" lon="5.22051">
        <ele>196</ele>
        <time>2015-04-16T13:04:25Z</time>
      </trkpt>
      <trkpt lat="43.342" lon="5.22052">
        <ele>196</ele>
        <time>2015-04-16T13:04:26Z</time>
      </trkpt>
      <trkpt lat="43.34201" lon="5.22054">
        <ele>196</ele>
        <time>2015-04-16T13:04:27Z</time>
      </trkpt>
      <trkpt lat="43.34201" lon="5.22056">
        <ele>196</ele>
        <time>2015-04-16T13:04:28Z</time>
      </trkpt>
      <trkpt lat="43.34202" lon="5.22057">
        <ele>196</ele>
        <time>2015-04-16T13:04:29Z</time>
      </trkpt>
      <trkpt lat="43.34202" lon="5.22059">
        <ele>197</ele>
        <time>2015-04-16T13:04:30Z</time>
      </trkpt>
      <trkpt lat="43.34203" lon="5.22061">
        <ele>197</ele>
        <time>2015-04-16T13:04:31Z</time>
      </trkpt>
      <trkpt lat="43.34203" lon="5.22063">
        <ele>197</ele>
        <time>2015-04-16T13:04:32Z</time>
      </trkpt>
      <trkpt lat="43.34203" lon="5.22065">
        <ele>197</ele>
        <time>2015-04-16T13:04:33Z</time>
      </trkpt>
      <trkpt lat="43.34203" lon="5.22067">
        <ele>197</ele>
        <time>2015-04-16T13:04:34Z</time>
      </trkpt>
      <trkpt lat="43.34203" lon="5.22069">
        <ele>197</ele>
        <time>2015-04-16T13:04:35Z</time>
      </trkpt>
      <trkpt lat="43.34203" lon="5.22071">
        <ele>197</ele>
        <time>2015-04-16T13:04:36Z</time>
      </trkpt>
      <trkpt lat="43.34203" lon="5.22072">
        <ele>197</ele>
        <time>2015-04-16T13:04:37Z</time>
      </trkpt>
      <trkpt lat="43.34203" lon="5.22074">
        <ele>197</ele>
        <time>2015-04-16T13:04:38Z</time>
      </trkpt>
      <trkpt lat="43.34203" lon="5.22076">
        <ele>197</ele>
        <time>2015-04-16T13:04:39Z</time>
      </trkpt>
      <trkpt lat="43.34203" lon="5.22078">
        <ele>197</ele>
        <time>2015-04-16T13:04:40Z</time>
      </trkpt>
      <trkpt lat="43.34203" lon="5.2208">
        <ele>197</ele>
        <time>2015-04-16T13:04:41Z</time>
      </trkpt>
      <trkpt lat="43.34203" lon="5.22082">
        <ele>198</ele>
        <time>2015-04-16T13:04:42Z</time>
      </trkpt>
      <trkpt lat="43.34203" lon="5.22084">
        <ele>198</ele>
        <time>2015-04-16T13:04:43Z</time>
      </trkpt>
      <trkpt lat="43.34203" lon="5.22085">
        <ele>198</ele>
        <time>2015-04-16T13:04:44Z</time>
      </trkpt>
      <trkpt lat="43.34203" lon="5.22087">
        <ele>198</ele>
        <time>2015-04-16T13:04:45Z</time>
      </trkpt>
      <trkpt lat="43.34203" lon="5.22089">
        <ele>198</ele>
        <time>2015-04-16T13:04:46Z</time>
      </trkpt>
      <trkpt lat="43.34203" lon="5.22091">
        <ele>198</ele>
        <time>2015-04-16T13:04:47Z</time>
      </trkpt>
      <trkpt lat="43.34202" lon="5.22093">
        <ele>198</ele>
        <time>2015-04-16T13:04:48Z</time>
      </trkpt>
      <trkpt lat="43.34202" lon="5.22094">
        <ele>198</ele>
        <time>2015-04-16T13:04:49Z</time>
      </trkpt>
      <trkpt lat="43.34202" lon="5.22096">
        <ele>198</ele>
        <time>2015-04-16T13:04:50Z</time>
      </trkpt>
      <trkpt lat="43.34202" lon="5.22098">
        <ele>198</ele>
        <time>2015-04-16T13:04:51Z</time>
      </trkpt>
      <trkpt lat="43.34202" lon="5.221">
        <ele>198</ele>
        <time>2015-04-16T13:04:52Z</time>
      </trkpt>
      <trkpt lat="43.34201" lon="5.22102">
        <ele>198</ele>
        <time>2015-04-16T13:04:53Z</time>
      </trkpt>
      <trkpt lat="43.34201" lon="5.22104">
        <ele>199</ele>
        <time>2015-04-16T13:04:54Z</time>
      </trkpt>
      <trkpt lat="43.34201" lon="5.22105">
        <ele>199</ele>
        <time>2015-04-16T13:04:55Z</time>
      </trkpt>
      <trkpt lat="43.34201" lon="5.22107">
        <ele>199</ele>
        <time>2015-04-16T13:04:56Z</time>
      </trkpt>
      <trkpt lat="43.34201" lon="5.22109">
        <ele>199</ele>
        <time>2015-04-16T13:04:57Z</time>
      </trkpt>
      <trkpt lat="43.342" lon="5.22111">
        <ele>200</ele>
        <time>2015-04-16T13:04:58Z</time>
      </trkpt>
      <trkpt lat="43.342" lon="5.22112">
        <ele>200</ele>
        <time>2015-04-16T13:04:59Z</time>
      </trkpt>
      <trkpt lat="43.342" lon="5.22114">
        <ele>200</ele>
        <time>2015-04-16T13:05:00Z</time>
      </trkpt>
      <trkpt lat="43.34199" lon="5.22116">
        <ele>200</ele>
        <time>2015-04-16T13:05:01Z</time>
      </trkpt>
      <trkpt lat="43.34199" lon="5.22118">
        <ele>200</ele>
        <time>2015-04-16T13:05:02Z</time>
      </trkpt>
      <trkpt lat="43.34199" lon="5.22119">
        <ele>200</ele>
        <time>2015-04-16T13:05:03Z</time>
      </trkpt>
      <trkpt lat="43.34199" lon="5.22121">
        <ele>200</ele>
        <time>2015-04-16T13:05:04Z</time>
      </trkpt>
      <trkpt lat="43.34198" lon="5.22122">
        <ele>200</ele>
        <time>2015-04-16T13:05:05Z</time>
      </trkpt>
      <trkpt lat="43.34198" lon="5.22124">
        <ele>201</ele>
        <time>2015-04-16T13:05:06Z</time>
      </trkpt>
      <trkpt lat="43.34198" lon="5.22126">
        <ele>201</ele>
        <time>2015-04-16T13:05:07Z</time>
      </trkpt>
      <trkpt lat="43.34198" lon="5.22127">
        <ele>201</ele>
        <time>2015-04-16T13:05:08Z</time>
      </trkpt>
      <trkpt lat="43.34198" lon="5.22129">
        <ele>201</ele>
        <time>2015-04-16T13:05:09Z</time>
      </trkpt>
      <trkpt lat="43.34197" lon="5.22131">
        <ele>201</ele>
        <time>2015-04-16T13:05:10Z</time>
      </trkpt>
      <trkpt lat="43.34197" lon="5.22133">
        <ele>201</ele>
        <time>2015-04-16T13:05:11Z</time>
      </trkpt>
      <trkpt lat="43.34196" lon="5.22135">
        <ele>201</ele>
        <time>2015-04-16T13:05:12Z</time>
      </trkpt>
      <trkpt lat="43.34196" lon="5.22137">
        <ele>201</ele>
        <time>2015-04-16T13:05:13Z</time>
      </trkpt>
      <trkpt lat="43.34196" lon="5.22139">
        <ele>201</ele>
        <time>2015-04-16T13:05:14Z</time>
      </trkpt>
      <trkpt lat="43.34195" lon="5.22141">
        <ele>201</ele>
        <time>2015-04-16T13:05:15Z</time>
      </trkpt>
      <trkpt lat="43.34195" lon="5.22142">
        <ele>201</ele>
        <time>2015-04-16T13:05:16Z</time>
      </trkpt>
      <trkpt lat="43.34195" lon="5.22144">
        <ele>201</ele>
        <time>2015-04-16T13:05:17Z</time>
      </trkpt>
      <trkpt lat="43.34195" lon="5.22146">
        <ele>201</ele>
        <time>2015-04-16T13:05:18Z</time>
      </trkpt>
      <trkpt lat="43.34194" lon="5.22148">
        <ele>201</ele>
        <time>2015-04-16T13:05:19Z</time>
      </trkpt>
      <trkpt lat="43.34194" lon="5.2215">
        <ele>202</ele>
        <time>2015-04-16T13:05:20Z</time>
      </trkpt>
      <trkpt lat="43.34194" lon="5.22151">
        <ele>202</ele>
        <time>2015-04-16T13:05:21Z</time>
      </trkpt>
      <trkpt lat="43.34194" lon="5.22153">
        <ele>202</ele>
        <time>2015-04-16T13:05:22Z</time>
      </trkpt>
      <trkpt lat="43.34194" lon="5.22155">
        <ele>202</ele>
        <time>2015-04-16T13:05:23Z</time>
      </trkpt>
      <trkpt lat="43.34193" lon="5.22156">
        <ele>202</ele>
        <time>2015-04-16T13:05:24Z</time>
      </trkpt>
      <trkpt lat="43.34193" lon="5.22158">
        <ele>202</ele>
        <time>2015-04-16T13:05:25Z</time>
      </trkpt>
      <trkpt lat="43.34192" lon="5.2216">
        <ele>202</ele>
        <time>2015-04-16T13:05:26Z</time>
      </trkpt>
      <trkpt lat="43.34192" lon="5.22162">
        <ele>202</ele>
        <time>2015-04-16T13:05:27Z</time>
      </trkpt>
      <trkpt lat="43.34192" lon="5.22164">
        <ele>202</ele>
        <time>2015-04-16T13:05:28Z</time>
      </trkpt>
      <trkpt lat="43.34191" lon="5.22165">
        <ele>202</ele>
        <time>2015-04-16T13:05:29Z</time>
      </trkpt>
      <trkpt lat="43.34191" lon="5.22167">
        <ele>202</ele>
        <time>2015-04-16T13:05:30Z</time>
      </trkpt>
      <trkpt lat="43.3419" lon="5.22169">
        <ele>202</ele>
        <time>2015-04-16T13:05:31Z</time>
      </trkpt>
      <trkpt lat="43.3419" lon="5.22171">
        <ele>202</ele>
        <time>2015-04-16T13:05:32Z</time>
      </trkpt>
      <trkpt lat="43.3419" lon="5.22173">
        <ele>202</ele>
        <time>2015-04-16T13:05:33Z</time>
      </trkpt>
      <trkpt lat="43.34189" lon="5.22175">
        <ele>202</ele>
        <time>2015-04-16T13:05:34Z</time>
      </trkpt>
      <trkpt lat="43.34189" lon="5.22176">
        <ele>202</ele>
        <time>2015-04-16T13:05:35Z</time>
      </trkpt>
      <trkpt lat="43.34188" lon="5.22178">
        <ele>203</ele>
        <time>2015-04-16T13:05:36Z</time>
      </trkpt>
      <trkpt lat="43.34188" lon="5.2218">
        <ele>203</ele>
        <time>2015-04-16T13:05:37Z</time>
      </trkpt>
      <trkpt lat="43.34188" lon="5.22182">
        <ele>203</ele>
        <time>2015-04-16T13:05:38Z</time>
      </trkpt>
      <trkpt lat="43.34187" lon="5.22183">
        <ele>203</ele>
        <time>2015-04-16T13:05:39Z</time>
      </trkpt>
      <trkpt lat="43.34187" lon="5.22185">
        <ele>203</ele>
        <time>2015-04-16T13:05:40Z</time>
      </trkpt>
      <trkpt lat="43.34187" lon="5.22187">
        <ele>203</ele>
        <time>2015-04-16T13:05:41Z</time>
      </trkpt>
      <trkpt lat="43.34186" lon="5.22189">
        <ele>203</ele>
        <time>2015-04-16T13:05:42Z</time>
      </trkpt>
      <trkpt lat="43.34186" lon="5.2219">
        <ele>203</ele>
        <time>2015-04-16T13:05:43Z</time>
      </trkpt>
      <trkpt lat="43.34185" lon="5.22192">
        <ele>203</ele>
        <time>2015-04-16T13:05:44Z</time>
      </trkpt>
      <trkpt lat="43.34185" lon="5.22194">
        <ele>203</ele>
        <time>2015-04-16T13:05:45Z</time>
      </trkpt>
      <trkpt lat="43.34185" lon="5.22196">
        <ele>203</ele>
        <time>2015-04-16T13:05:46Z</time>
      </trkpt>
      <trkpt lat="43.34184" lon="5.22197">
        <ele>203</ele>
        <time>2015-04-16T13:05:47Z</time>
      </trkpt>
      <trkpt lat="43.34184" lon="5.22199">
        <ele>203</ele>
        <time>2015-04-16T13:05:48Z</time>
      </trkpt>
      <trkpt lat="43.34183" lon="5.22201">
        <ele>203</ele>
        <time>2015-04-16T13:05:49Z</time>
      </trkpt>
      <trkpt lat="43.34183" lon="5.22203">
        <ele>203</ele>
        <time>2015-04-16T13:05:50Z</time>
      </trkpt>
      <trkpt lat="43.34182" lon="5.22205">
        <ele>204</ele>
        <time>2015-04-16T13:05:51Z</time>
      </trkpt>
      <trkpt lat="43.34182" lon="5.22206">
        <ele>204</ele>
        <time>2015-04-16T13:05:52Z</time>
      </trkpt>
      <trkpt lat="43.34181" lon="5.22208">
        <ele>204</ele>
        <time>2015-04-16T13:05:53Z</time>
      </trkpt>
      <trkpt lat="43.3418" lon="5.2221">
        <ele>204</ele>
        <time>2015-04-16T13:05:54Z</time>
      </trkpt>
      <trkpt lat="43.3418" lon="5.22212">
        <ele>204</ele>
        <time>2015-04-16T13:05:55Z</time>
      </trkpt>
      <trkpt lat="43.34179" lon="5.22213">
        <ele>204</ele>
        <time>2015-04-16T13:05:56Z</time>
      </trkpt>
      <trkpt lat="43.34178" lon="5.22215">
        <ele>204</ele>
        <time>2015-04-16T13:05:57Z</time>
      </trkpt>
      <trkpt lat="43.34177" lon="5.22217">
        <ele>204</ele>
        <time>2015-04-16T13:05:58Z</time>
      </trkpt>
      <trkpt lat="43.34177" lon="5.22218">
        <ele>204</ele>
        <time>2015-04-16T13:05:59Z</time>
      </trkpt>
      <trkpt lat="43.34176" lon="5.2222">
        <ele>204</ele>
        <time>2015-04-16T13:06:00Z</time>
      </trkpt>
      <trkpt lat="43.34175" lon="5.22221">
        <ele>204</ele>
        <time>2015-04-16T13:06:01Z</time>
      </trkpt>
      <trkpt lat="43.34174" lon="5.22223">
        <ele>205</ele>
        <time>2015-04-16T13:06:02Z</time>
      </trkpt>
      <trkpt lat="43.34173" lon="5.22225">
        <ele>205</ele>
        <time>2015-04-16T13:06:03Z</time>
      </trkpt>
      <trkpt lat="43.34172" lon="5.22226">
        <ele>205</ele>
        <time>2015-04-16T13:06:04Z</time>
      </trkpt>
      <trkpt lat="43.34171" lon="5.22228">
        <ele>205</ele>
        <time>2015-04-16T13:06:05Z</time>
      </trkpt>
      <trkpt lat="43.3417" lon="5.22229">
        <ele>205</ele>
        <time>2015-04-16T13:06:06Z</time>
      </trkpt>
      <trkpt lat="43.34169" lon="5.22232">
        <ele>205</ele>
        <time>2015-04-16T13:06:08Z</time>
      </trkpt>
      <trkpt lat="43.34167" lon="5.22234">
        <ele>205</ele>
        <time>2015-04-16T13:06:09Z</time>
      </trkpt>
      <trkpt lat="43.34166" lon="5.22235">
        <ele>205</ele>
        <time>2015-04-16T13:06:10Z</time>
      </trkpt>
      <trkpt lat="43.34164" lon="5.22238">
        <ele>205</ele>
        <time>2015-04-16T13:06:12Z</time>
      </trkpt>
      <trkpt lat="43.34163" lon="5.22239">
        <ele>205</ele>
        <time>2015-04-16T13:06:13Z</time>
      </trkpt>
      <trkpt lat="43.34162" lon="5.2224">
        <ele>205</ele>
        <time>2015-04-16T13:06:14Z</time>
      </trkpt>
      <trkpt lat="43.34161" lon="5.22242">
        <ele>205</ele>
        <time>2015-04-16T13:06:15Z</time>
      </trkpt>
      <trkpt lat="43.34161" lon="5.22244">
        <ele>205</ele>
        <time>2015-04-16T13:06:16Z</time>
      </trkpt>
      <trkpt lat="43.3416" lon="5.22245">
        <ele>205</ele>
        <time>2015-04-16T13:06:17Z</time>
      </trkpt>
      <trkpt lat="43.34159" lon="5.22247">
        <ele>205</ele>
        <time>2015-04-16T13:06:18Z</time>
      </trkpt>
      <trkpt lat="43.34158" lon="5.22249">
        <ele>205</ele>
        <time>2015-04-16T13:06:19Z</time>
      </trkpt>
      <trkpt lat="43.34158" lon="5.22251">
        <ele>205</ele>
        <time>2015-04-16T13:06:20Z</time>
      </trkpt>
      <trkpt lat="43.34158" lon="5.22252">
        <ele>205</ele>
        <time>2015-04-16T13:06:21Z</time>
      </trkpt>
      <trkpt lat="43.34158" lon="5.22254">
        <ele>205</ele>
        <time>2015-04-16T13:06:22Z</time>
      </trkpt>
      <trkpt lat="43.34158" lon="5.22256">
        <ele>205</ele>
        <time>2015-04-16T13:06:23Z</time>
      </trkpt>
      <trkpt lat="43.34158" lon="5.22258">
        <ele>205</ele>
        <time>2015-04-16T13:06:24Z</time>
      </trkpt>
      <trkpt lat="43.34158" lon="5.22259">
        <ele>205</ele>
        <time>2015-04-16T13:06:25Z</time>
      </trkpt>
      <trkpt lat="43.34159" lon="5.22261">
        <ele>205</ele>
        <time>2015-04-16T13:06:26Z</time>
      </trkpt>
      <trkpt lat="43.3416" lon="5.22262">
        <ele>205</ele>
        <time>2015-04-16T13:06:27Z</time>
      </trkpt>
      <trkpt lat="43.34161" lon="5.22264">
        <ele>206</ele>
        <time>2015-04-16T13:06:28Z</time>
      </trkpt>
      <trkpt lat="43.34161" lon="5.22265">
        <ele>206</ele>
        <time>2015-04-16T13:06:29Z</time>
      </trkpt>
      <trkpt lat="43.34161" lon="5.22267">
        <ele>206</ele>
        <time>2015-04-16T13:06:31Z</time>
      </trkpt>
      <trkpt lat="43.34163" lon="5.22268">
        <ele>206</ele>
        <time>2015-04-16T13:06:33Z</time>
      </trkpt>
      <trkpt lat="43.34164" lon="5.22269">
        <ele>206</ele>
        <time>2015-04-16T13:06:34Z</time>
      </trkpt>
      <trkpt lat="43.34166" lon="5.2227">
        <ele>206</ele>
        <time>2015-04-16T13:06:35Z</time>
      </trkpt>
      <trkpt lat="43.34167" lon="5.22271">
        <ele>206</ele>
        <time>2015-04-16T13:06:36Z</time>
      </trkpt>
      <trkpt lat="43.34168" lon="5.22272">
        <ele>206</ele>
        <time>2015-04-16T13:06:37Z</time>
      </trkpt>
      <trkpt lat="43.3417" lon="5.22272">
        <ele>206</ele>
        <time>2015-04-16T13:06:38Z</time>
      </trkpt>
      <trkpt lat="43.34172" lon="5.22273">
        <ele>206</ele>
        <time>2015-04-16T13:06:39Z</time>
      </trkpt>
      <trkpt lat="43.34173" lon="5.22274">
        <ele>206</ele>
        <time>2015-04-16T13:06:40Z</time>
      </trkpt>
      <trkpt lat="43.34174" lon="5.22274">
        <ele>206</ele>
        <time>2015-04-16T13:06:41Z</time>
      </trkpt>
      <trkpt lat="43.34176" lon="5.22274">
        <ele>206</ele>
        <time>2015-04-16T13:06:42Z</time>
      </trkpt>
      <trkpt lat="43.34177" lon="5.22275">
        <ele>206</ele>
        <time>2015-04-16T13:06:43Z</time>
      </trkpt>
      <trkpt lat="43.34178" lon="5.22275">
        <ele>206</ele>
        <time>2015-04-16T13:06:44Z</time>
      </trkpt>
      <trkpt lat="43.3418" lon="5.22275">
        <ele>206</ele>
        <time>2015-04-16T13:06:45Z</time>
      </trkpt>
      <trkpt lat="43.34181" lon="5.22276">
        <ele>206</ele>
        <time>2015-04-16T13:06:46Z</time>
      </trkpt>
      <trkpt lat="43.34183" lon="5.22276">
        <ele>206</ele>
        <time>2015-04-16T13:06:47Z</time>
      </trkpt>
      <trkpt lat="43.34184" lon="5.22276">
        <ele>206</ele>
        <time>2015-04-16T13:06:48Z</time>
      </trkpt>
      <trkpt lat="43.34186" lon="5.22276">
        <ele>206</ele>
        <time>2015-04-16T13:06:49Z</time>
      </trkpt>
      <trkpt lat="43.34187" lon="5.22277">
        <ele>206</ele>
        <time>2015-04-16T13:06:50Z</time>
      </trkpt>
      <trkpt lat="43.34189" lon="5.22277">
        <ele>206</ele>
        <time>2015-04-16T13:06:51Z</time>
      </trkpt>
      <trkpt lat="43.34191" lon="5.22277">
        <ele>206</ele>
        <time>2015-04-16T13:06:52Z</time>
      </trkpt>
      <trkpt lat="43.34192" lon="5.22278">
        <ele>206</ele>
        <time>2015-04-16T13:06:53Z</time>
      </trkpt>
      <trkpt lat="43.34194" lon="5.22278">
        <ele>206</ele>
        <time>2015-04-16T13:06:54Z</time>
      </trkpt>
      <trkpt lat="43.34195" lon="5.22278">
        <ele>206</ele>
        <time>2015-04-16T13:06:55Z</time>
      </trkpt>
      <trkpt lat="43.34197" lon="5.22278">
        <ele>206</ele>
        <time>2015-04-16T13:06:56Z</time>
      </trkpt>
      <trkpt lat="43.34198" lon="5.22278">
        <ele>206</ele>
        <time>2015-04-16T13:06:57Z</time>
      </trkpt>
      <trkpt lat="43.342" lon="5.22278">
        <ele>206</ele>
        <time>2015-04-16T13:06:58Z</time>
      </trkpt>
      <trkpt lat="43.34201" lon="5.22278">
        <ele>206</ele>
        <time>2015-04-16T13:06:59Z</time>
      </trkpt>
      <trkpt lat="43.34203" lon="5.22278">
        <ele>206</ele>
        <time>2015-04-16T13:07:00Z</time>
      </trkpt>
      <trkpt lat="43.34204" lon="5.22278">
        <ele>206</ele>
        <time>2015-04-16T13:07:01Z</time>
      </trkpt>
      <trkpt lat="43.34206" lon="5.22277">
        <ele>206</ele>
        <time>2015-04-16T13:07:02Z</time>
      </trkpt>
      <trkpt lat="43.34207" lon="5.22277">
        <ele>206</ele>
        <time>2015-04-16T13:07:03Z</time>
      </trkpt>
      <trkpt lat="43.34209" lon="5.22276">
        <ele>206</ele>
        <time>2015-04-16T13:07:04Z</time>
      </trkpt>
      <trkpt lat="43.34211" lon="5.22275">
        <ele>206</ele>
        <time>2015-04-16T13:07:05Z</time>
      </trkpt>
      <trkpt lat="43.34212" lon="5.22275">
        <ele>206</ele>
        <time>2015-04-16T13:07:06Z</time>
      </trkpt>
      <trkpt lat="43.34214" lon="5.22274">
        <ele>206</ele>
        <time>2015-04-16T13:07:07Z</time>
      </trkpt>
      <trkpt lat="43.34215" lon="5.22273">
        <ele>206</ele>
        <time>2015-04-16T13:07:08Z</time>
      </trkpt>
      <trkpt lat="43.34216" lon="5.22272">
        <ele>206</ele>
        <time>2015-04-16T13:07:09Z</time>
      </trkpt>
      <trkpt lat="43.34218" lon="5.2227">
        <ele>206</ele>
        <time>2015-04-16T13:07:11Z</time>
      </trkpt>
      <trkpt lat="43.3422" lon="5.22269">
        <ele>206</ele>
        <time>2015-04-16T13:07:12Z</time>
      </trkpt>
      <trkpt lat="43.34221" lon="5.22268">
        <ele>206</ele>
        <time>2015-04-16T13:07:13Z</time>
      </trkpt>
      <trkpt lat="43.34222" lon="5.22267">
        <ele>206</ele>
        <time>2015-04-16T13:07:14Z</time>
      </trkpt>
      <trkpt lat="43.34223" lon="5.22266">
        <ele>206</ele>
        <time>2015-04-16T13:07:15Z</time>
      </trkpt>
      <trkpt lat="43.34225" lon="5.22265">
        <ele>206</ele>
        <time>2015-04-16T13:07:16Z</time>
      </trkpt>
      <trkpt lat="43.34226" lon="5.22264">
        <ele>206</ele>
        <time>2015-04-16T13:07:17Z</time>
      </trkpt>
      <trkpt lat="43.34227" lon="5.22263">
        <ele>206</ele>
        <time>2015-04-16T13:07:18Z</time>
      </trkpt>
      <trkpt lat="43.34228" lon="5.22262">
        <ele>206</ele>
        <time>2015-04-16T13:07:19Z</time>
      </trkpt>
      <trkpt lat="43.34229" lon="5.22261">
        <ele>206</ele>
        <time>2015-04-16T13:07:20Z</time>
      </trkpt>
      <trkpt lat="43.3423" lon="5.2226">
        <ele>206</ele>
        <time>2015-04-16T13:07:21Z</time>
      </trkpt>
      <trkpt lat="43.34232" lon="5.22259">
        <ele>206</ele>
        <time>2015-04-16T13:07:22Z</time>
      </trkpt>
      <trkpt lat="43.34233" lon="5.22258">
        <ele>206</ele>
        <time>2015-04-16T13:07:23Z</time>
      </trkpt>
      <trkpt lat="43.34235" lon="5.22255">
        <ele>206</ele>
        <time>2015-04-16T13:07:25Z</time>
      </trkpt>
      <trkpt lat="43.34237" lon="5.22254">
        <ele>206</ele>
        <time>2015-04-16T13:07:26Z</time>
      </trkpt>
      <trkpt lat="43.34238" lon="5.22253">
        <ele>206</ele>
        <time>2015-04-16T13:07:27Z</time>
      </trkpt>
      <trkpt lat="43.3424" lon="5.2225">
        <ele>206</ele>
        <time>2015-04-16T13:07:29Z</time>
      </trkpt>
      <trkpt lat="43.34242" lon="5.22247">
        <ele>206</ele>
        <time>2015-04-16T13:07:31Z</time>
      </trkpt>
      <trkpt lat="43.34243" lon="5.22246">
        <ele>206</ele>
        <time>2015-04-16T13:07:32Z</time>
      </trkpt>
      <trkpt lat="43.34245" lon="5.22243">
        <ele>206</ele>
        <time>2015-04-16T13:07:34Z</time>
      </trkpt>
      <trkpt lat="43.34246" lon="5.22242">
        <ele>206</ele>
        <time>2015-04-16T13:07:35Z</time>
      </trkpt>
      <trkpt lat="43.34248" lon="5.22239">
        <ele>206</ele>
        <time>2015-04-16T13:07:37Z</time>
      </trkpt>
      <trkpt lat="43.3425" lon="5.22237">
        <ele>206</ele>
        <time>2015-04-16T13:07:39Z</time>
      </trkpt>
      <trkpt lat="43.34252" lon="5.22234">
        <ele>206</ele>
        <time>2015-04-16T13:07:41Z</time>
      </trkpt>
      <trkpt lat="43.34253" lon="5.22232">
        <ele>206</ele>
        <time>2015-04-16T13:07:43Z</time>
      </trkpt>
      <trkpt lat="43.34256" lon="5.2223">
        <ele>206</ele>
        <time>2015-04-16T13:07:45Z</time>
      </trkpt>
      <trkpt lat="43.34258" lon="5.22227">
        <ele>206</ele>
        <time>2015-04-16T13:07:47Z</time>
      </trkpt>
      <trkpt lat="43.34259" lon="5.22226">
        <ele>206</ele>
        <time>2015-04-16T13:07:48Z</time>
      </trkpt>
      <trkpt lat="43.3426" lon="5.22226">
        <ele>206</ele>
        <time>2015-04-16T13:07:49Z</time>
      </trkpt>
      <trkpt lat="43.34261" lon="5.22225">
        <ele>206</ele>
        <time>2015-04-16T13:07:50Z</time>
      </trkpt>
      <trkpt lat="43.34262" lon="5.22224">
        <ele>206</ele>
        <time>2015-04-16T13:07:51Z</time>
      </trkpt>
      <trkpt lat="43.34264" lon="5.22223">
        <ele>206</ele>
        <time>2015-04-16T13:07:52Z</time>
      </trkpt>
      <trkpt lat="43.34265" lon="5.22223">
        <ele>206</ele>
        <time>2015-04-16T13:07:53Z</time>
      </trkpt>
      <trkpt lat="43.34267" lon="5.22222">
        <ele>206</ele>
        <time>2015-04-16T13:07:54Z</time>
      </trkpt>
      <trkpt lat="43.34268" lon="5.22222">
        <ele>206</ele>
        <time>2015-04-16T13:07:55Z</time>
      </trkpt>
      <trkpt lat="43.34269" lon="5.22222">
        <ele>206</ele>
        <time>2015-04-16T13:07:56Z</time>
      </trkpt>
      <trkpt lat="43.34271" lon="5.22222">
        <ele>206</ele>
        <time>2015-04-16T13:07:57Z</time>
      </trkpt>
      <trkpt lat="43.34272" lon="5.22222">
        <ele>206</ele>
        <time>2015-04-16T13:07:58Z</time>
      </trkpt>
      <trkpt lat="43.34274" lon="5.22222">
        <ele>206</ele>
        <time>2015-04-16T13:07:59Z</time>
      </trkpt>
      <trkpt lat="43.34275" lon="5.22222">
        <ele>206</ele>
        <time>2015-04-16T13:08:00Z</time>
      </trkpt>
      <trkpt lat="43.34277" lon="5.22222">
        <ele>205</ele>
        <time>2015-04-16T13:08:01Z</time>
      </trkpt>
      <trkpt lat="43.34278" lon="5.22223">
        <ele>205</ele>
        <time>2015-04-16T13:08:03Z</time>
      </trkpt>
      <trkpt lat="43.3428" lon="5.22223">
        <ele>205</ele>
        <time>2015-04-16T13:08:03Z</time>
      </trkpt>
      <trkpt lat="43.34281" lon="5.22223">
        <ele>205</ele>
        <time>2015-04-16T13:08:04Z</time>
      </trkpt>
      <trkpt lat="43.34282" lon="5.22224">
        <ele>205</ele>
        <time>2015-04-16T13:08:05Z</time>
      </trkpt>
      <trkpt lat="43.34283" lon="5.22224">
        <ele>205</ele>
        <time>2015-04-16T13:08:06Z</time>
      </trkpt>
      <trkpt lat="43.34285" lon="5.22224">
        <ele>205</ele>
        <time>2015-04-16T13:08:07Z</time>
      </trkpt>
      <trkpt lat="43.34286" lon="5.22225">
        <ele>205</ele>
        <time>2015-04-16T13:08:09Z</time>
      </trkpt>
      <trkpt lat="43.34288" lon="5.22226">
        <ele>205</ele>
        <time>2015-04-16T13:08:11Z</time>
      </trkpt>
      <trkpt lat="43.3429" lon="5.22226">
        <ele>205</ele>
        <time>2015-04-16T13:08:13Z</time>
      </trkpt>
      <trkpt lat="43.34291" lon="5.22226">
        <ele>205</ele>
        <time>2015-04-16T13:08:14Z</time>
      </trkpt>
      <trkpt lat="43.34292" lon="5.22228">
        <ele>205</ele>
        <time>2015-04-16T13:08:16Z</time>
      </trkpt>
      <trkpt lat="43.34294" lon="5.22228">
        <ele>205</ele>
        <time>2015-04-16T13:08:20Z</time>
      </trkpt>
      <trkpt lat="43.34296" lon="5.2223">
        <ele>204</ele>
        <time>2015-04-16T13:08:22Z</time>
      </trkpt>
      <trkpt lat="43.34297" lon="5.22231">
        <ele>204</ele>
        <time>2015-04-16T13:08:23Z</time>
      </trkpt>
      <trkpt lat="43.34298" lon="5.22232">
        <ele>204</ele>
        <time>2015-04-16T13:08:24Z</time>
      </trkpt>
      <trkpt lat="43.343" lon="5.22233">
        <ele>204</ele>
        <time>2015-04-16T13:08:25Z</time>
      </trkpt>
      <trkpt lat="43.34301" lon="5.22234">
        <ele>204</ele>
        <time>2015-04-16T13:08:26Z</time>
      </trkpt>
      <trkpt lat="43.34303" lon="5.22236">
        <ele>204</ele>
        <time>2015-04-16T13:08:28Z</time>
      </trkpt>
      <trkpt lat="43.34304" lon="5.22237">
        <ele>204</ele>
        <time>2015-04-16T13:08:29Z</time>
      </trkpt>
      <trkpt lat="43.34306" lon="5.2224">
        <ele>204</ele>
        <time>2015-04-16T13:08:31Z</time>
      </trkpt>
      <trkpt lat="43.34308" lon="5.22243">
        <ele>203</ele>
        <time>2015-04-16T13:08:33Z</time>
      </trkpt>
      <trkpt lat="43.34309" lon="5.22244">
        <ele>203</ele>
        <time>2015-04-16T13:08:34Z</time>
      </trkpt>
      <trkpt lat="43.34309" lon="5.22246">
        <ele>203</ele>
        <time>2015-04-16T13:08:35Z</time>
      </trkpt>
      <trkpt lat="43.3431" lon="5.22247">
        <ele>203</ele>
        <time>2015-04-16T13:08:36Z</time>
      </trkpt>
      <trkpt lat="43.34311" lon="5.22249">
        <ele>203</ele>
        <time>2015-04-16T13:08:37Z</time>
      </trkpt>
      <trkpt lat="43.34311" lon="5.22251">
        <ele>203</ele>
        <time>2015-04-16T13:08:38Z</time>
      </trkpt>
      <trkpt lat="43.34312" lon="5.22253">
        <ele>203</ele>
        <time>2015-04-16T13:08:39Z</time>
      </trkpt>
      <trkpt lat="43.34312" lon="5.22255">
        <ele>202</ele>
        <time>2015-04-16T13:08:40Z</time>
      </trkpt>
      <trkpt lat="43.34312" lon="5.22257">
        <ele>202</ele>
        <time>2015-04-16T13:08:41Z</time>
      </trkpt>
      <trkpt lat="43.34312" lon="5.22259">
        <ele>202</ele>
        <time>2015-04-16T13:08:42Z</time>
      </trkpt>
      <trkpt lat="43.34312" lon="5.22261">
        <ele>202</ele>
        <time>2015-04-16T13:08:43Z</time>
      </trkpt>
      <trkpt lat="43.34312" lon="5.22262">
        <ele>202</ele>
        <time>2015-04-16T13:08:44Z</time>
      </trkpt>
      <trkpt lat="43.34312" lon="5.22264">
        <ele>202</ele>
        <time>2015-04-16T13:08:45Z</time>
      </trkpt>
      <trkpt lat="43.34311" lon="5.22266">
        <ele>201</ele>
        <time>2015-04-16T13:08:46Z</time>
      </trkpt>
      <trkpt lat="43.34311" lon="5.22268">
        <ele>201</ele>
        <time>2015-04-16T13:08:47Z</time>
      </trkpt>
      <trkpt lat="43.34311" lon="5.2227">
        <ele>201</ele>
        <time>2015-04-16T13:08:48Z</time>
      </trkpt>
      <trkpt lat="43.34311" lon="5.22272">
        <ele>201</ele>
        <time>2015-04-16T13:08:49Z</time>
      </trkpt>
      <trkpt lat="43.34311" lon="5.22274">
        <ele>200</ele>
        <time>2015-04-16T13:08:50Z</time>
      </trkpt>
      <trkpt lat="43.3431" lon="5.22276">
        <ele>200</ele>
        <time>2015-04-16T13:08:51Z</time>
      </trkpt>
      <trkpt lat="43.3431" lon="5.22278">
        <ele>200</ele>
        <time>2015-04-16T13:08:52Z</time>
      </trkpt>
      <trkpt lat="43.3431" lon="5.2228">
        <ele>200</ele>
        <time>2015-04-16T13:08:53Z</time>
      </trkpt>
      <trkpt lat="43.34309" lon="5.22282">
        <ele>200</ele>
        <time>2015-04-16T13:08:54Z</time>
      </trkpt>
      <trkpt lat="43.34309" lon="5.22284">
        <ele>200</ele>
        <time>2015-04-16T13:08:55Z</time>
      </trkpt>
      <trkpt lat="43.34308" lon="5.22286">
        <ele>200</ele>
        <time>2015-04-16T13:08:56Z</time>
      </trkpt>
      <trkpt lat="43.34308" lon="5.22287">
        <ele>200</ele>
        <time>2015-04-16T13:08:57Z</time>
      </trkpt>
      <trkpt lat="43.34307" lon="5.22289">
        <ele>200</ele>
        <time>2015-04-16T13:08:58Z</time>
      </trkpt>
      <trkpt lat="43.34306" lon="5.22291">
        <ele>200</ele>
        <time>2015-04-16T13:08:59Z</time>
      </trkpt>
      <trkpt lat="43.34306" lon="5.22293">
        <ele>199</ele>
        <time>2015-04-16T13:09:00Z</time>
      </trkpt>
      <trkpt lat="43.34305" lon="5.22294">
        <ele>199</ele>
        <time>2015-04-16T13:09:01Z</time>
      </trkpt>
      <trkpt lat="43.34304" lon="5.22296">
        <ele>199</ele>
        <time>2015-04-16T13:09:02Z</time>
      </trkpt>
      <trkpt lat="43.34303" lon="5.22297">
        <ele>199</ele>
        <time>2015-04-16T13:09:03Z</time>
      </trkpt>
      <trkpt lat="43.34302" lon="5.22299">
        <ele>199</ele>
        <time>2015-04-16T13:09:04Z</time>
      </trkpt>
      <trkpt lat="43.34301" lon="5.223">
        <ele>199</ele>
        <time>2015-04-16T13:09:05Z</time>
      </trkpt>
      <trkpt lat="43.343" lon="5.22302">
        <ele>199</ele>
        <time>2015-04-16T13:09:06Z</time>
      </trkpt>
      <trkpt lat="43.34299" lon="5.22304">
        <ele>199</ele>
        <time>2015-04-16T13:09:07Z</time>
      </trkpt>
      <trkpt lat="43.34299" lon="5.22305">
        <ele>199</ele>
        <time>2015-04-16T13:09:08Z</time>
      </trkpt>
      <trkpt lat="43.34298" lon="5.22307">
        <ele>199</ele>
        <time>2015-04-16T13:09:09Z</time>
      </trkpt>
      <trkpt lat="43.34298" lon="5.22308">
        <ele>199</ele>
        <time>2015-04-16T13:09:10Z</time>
      </trkpt>
      <trkpt lat="43.34298" lon="5.2231">
        <ele>199</ele>
        <time>2015-04-16T13:09:11Z</time>
      </trkpt>
      <trkpt lat="43.34298" lon="5.22312">
        <ele>199</ele>
        <time>2015-04-16T13:09:12Z</time>
      </trkpt>
      <trkpt lat="43.34298" lon="5.22313">
        <ele>199</ele>
        <time>2015-04-16T13:09:13Z</time>
      </trkpt>
      <trkpt lat="43.34299" lon="5.22315">
        <ele>199</ele>
        <time>2015-04-16T13:09:14Z</time>
      </trkpt>
      <trkpt lat="43.34301" lon="5.22317">
        <ele>199</ele>
        <time>2015-04-16T13:09:16Z</time>
      </trkpt>
      <trkpt lat="43.34302" lon="5.22318">
        <ele>199</ele>
        <time>2015-04-16T13:09:17Z</time>
      </trkpt>
      <trkpt lat="43.34304" lon="5.22318">
        <ele>198</ele>
        <time>2015-04-16T13:09:18Z</time>
      </trkpt>
      <trkpt lat="43.34305" lon="5.22319">
        <ele>198</ele>
        <time>2015-04-16T13:09:19Z</time>
      </trkpt>
      <trkpt lat="43.34306" lon="5.2232">
        <ele>198</ele>
        <time>2015-04-16T13:09:20Z</time>
      </trkpt>
      <trkpt lat="43.34307" lon="5.22321">
        <ele>198</ele>
        <time>2015-04-16T13:09:21Z</time>
      </trkpt>
      <trkpt lat="43.34309" lon="5.22321">
        <ele>197</ele>
        <time>2015-04-16T13:09:22Z</time>
      </trkpt>
      <trkpt lat="43.3431" lon="5.22321">
        <ele>197</ele>
        <time>2015-04-16T13:09:23Z</time>
      </trkpt>
      <trkpt lat="43.34312" lon="5.22322">
        <ele>197</ele>
        <time>2015-04-16T13:09:24Z</time>
      </trkpt>
      <trkpt lat="43.34313" lon="5.22322">
        <ele>197</ele>
        <time>2015-04-16T13:09:25Z</time>
      </trkpt>
      <trkpt lat="43.34314" lon="5.22323">
        <ele>197</ele>
        <time>2015-04-16T13:09:26Z</time>
      </trkpt>
      <trkpt lat="43.34315" lon="5.22323">
        <ele>196</ele>
        <time>2015-04-16T13:09:27Z</time>
      </trkpt>
      <trkpt lat="43.34317" lon="5.22323">
        <ele>196</ele>
        <time>2015-04-16T13:09:28Z</time>
      </trkpt>
      <trkpt lat="43.34318" lon="5.22324">
        <ele>196</ele>
        <time>2015-04-16T13:09:29Z</time>
      </trkpt>
      <trkpt lat="43.3432" lon="5.22325">
        <ele>196</ele>
        <time>2015-04-16T13:09:30Z</time>
      </trkpt>
      <trkpt lat="43.34321" lon="5.22325">
        <ele>195</ele>
        <time>2015-04-16T13:09:31Z</time>
      </trkpt>
      <trkpt lat="43.34322" lon="5.22326">
        <ele>195</ele>
        <time>2015-04-16T13:09:32Z</time>
      </trkpt>
      <trkpt lat="43.34323" lon="5.22327">
        <ele>195</ele>
        <time>2015-04-16T13:09:33Z</time>
      </trkpt>
      <trkpt lat="43.34325" lon="5.22327">
        <ele>195</ele>
        <time>2015-04-16T13:09:34Z</time>
      </trkpt>
      <trkpt lat="43.34326" lon="5.22328">
        <ele>195</ele>
        <time>2015-04-16T13:09:35Z</time>
      </trkpt>
      <trkpt lat="43.34327" lon="5.22329">
        <ele>195</ele>
        <time>2015-04-16T13:09:36Z</time>
      </trkpt>
      <trkpt lat="43.34328" lon="5.2233">
        <ele>195</ele>
        <time>2015-04-16T13:09:37Z</time>
      </trkpt>
      <trkpt lat="43.34329" lon="5.22331">
        <ele>195</ele>
        <time>2015-04-16T13:09:38Z</time>
      </trkpt>
      <trkpt lat="43.3433" lon="5.22331">
        <ele>195</ele>
        <time>2015-04-16T13:09:39Z</time>
      </trkpt>
      <trkpt lat="43.34332" lon="5.22332">
        <ele>195</ele>
        <time>2015-04-16T13:09:40Z</time>
      </trkpt>
      <trkpt lat="43.34333" lon="5.22333">
        <ele>195</ele>
        <time>2015-04-16T13:09:41Z</time>
      </trkpt>
      <trkpt lat="43.34334" lon="5.22335">
        <ele>195</ele>
        <time>2015-04-16T13:09:42Z</time>
      </trkpt>
      <trkpt lat="43.34335" lon="5.22336">
        <ele>195</ele>
        <time>2015-04-16T13:09:43Z</time>
      </trkpt>
      <trkpt lat="43.34336" lon="5.22337">
        <ele>195</ele>
        <time>2015-04-16T13:09:44Z</time>
      </trkpt>
      <trkpt lat="43.34338" lon="5.22338">
        <ele>195</ele>
        <time>2015-04-16T13:09:45Z</time>
      </trkpt>
      <trkpt lat="43.34339" lon="5.22339">
        <ele>195</ele>
        <time>2015-04-16T13:09:46Z</time>
      </trkpt>
      <trkpt lat="43.3434" lon="5.22341">
        <ele>195</ele>
        <time>2015-04-16T13:09:47Z</time>
      </trkpt>
      <trkpt lat="43.34342" lon="5.22343">
        <ele>195</ele>
        <time>2015-04-16T13:09:49Z</time>
      </trkpt>
      <trkpt lat="43.34343" lon="5.22344">
        <ele>195</ele>
        <time>2015-04-16T13:09:50Z</time>
      </trkpt>
      <trkpt lat="43.34344" lon="5.22345">
        <ele>195</ele>
        <time>2015-04-16T13:09:51Z</time>
      </trkpt>
      <trkpt lat="43.34346" lon="5.22347">
        <ele>195</ele>
        <time>2015-04-16T13:09:52Z</time>
      </trkpt>
      <trkpt lat="43.34347" lon="5.22348">
        <ele>195</ele>
        <time>2015-04-16T13:09:53Z</time>
      </trkpt>
      <trkpt lat="43.34348" lon="5.22349">
        <ele>195</ele>
        <time>2015-04-16T13:09:54Z</time>
      </trkpt>
      <trkpt lat="43.34349" lon="5.2235">
        <ele>195</ele>
        <time>2015-04-16T13:09:55Z</time>
      </trkpt>
      <trkpt lat="43.34351" lon="5.22351">
        <ele>195</ele>
        <time>2015-04-16T13:09:56Z</time>
      </trkpt>
      <trkpt lat="43.34352" lon="5.22352">
        <ele>195</ele>
        <time>2015-04-16T13:09:57Z</time>
      </trkpt>
      <trkpt lat="43.34353" lon="5.22354">
        <ele>195</ele>
        <time>2015-04-16T13:09:58Z</time>
      </trkpt>
      <trkpt lat="43.34354" lon="5.22355">
        <ele>195</ele>
        <time>2015-04-16T13:09:59Z</time>
      </trkpt>
      <trkpt lat="43.34355" lon="5.22356">
        <ele>195</ele>
        <time>2015-04-16T13:10:00Z</time>
      </trkpt>
      <trkpt lat="43.34356" lon="5.22357">
        <ele>195</ele>
        <time>2015-04-16T13:10:01Z</time>
      </trkpt>
      <trkpt lat="43.34357" lon="5.22358">
        <ele>195</ele>
        <time>2015-04-16T13:10:02Z</time>
      </trkpt>
      <trkpt lat="43.34359" lon="5.22359">
        <ele>195</ele>
        <time>2015-04-16T13:10:03Z</time>
      </trkpt>
      <trkpt lat="43.3436" lon="5.2236">
        <ele>195</ele>
        <time>2015-04-16T13:10:04Z</time>
      </trkpt>
      <trkpt lat="43.34361" lon="5.22361">
        <ele>195</ele>
        <time>2015-04-16T13:10:05Z</time>
      </trkpt>
      <trkpt lat="43.34363" lon="5.22362">
        <ele>195</ele>
        <time>2015-04-16T13:10:06Z</time>
      </trkpt>
      <trkpt lat="43.34364" lon="5.22363">
        <ele>195</ele>
        <time>2015-04-16T13:10:07Z</time>
      </trkpt>
      <trkpt lat="43.34365" lon="5.22364">
        <ele>195</ele>
        <time>2015-04-16T13:10:08Z</time>
      </trkpt>
      <trkpt lat="43.34366" lon="5.22365">
        <ele>195</ele>
        <time>2015-04-16T13:10:09Z</time>
      </trkpt>
      <trkpt lat="43.34368" lon="5.22366">
        <ele>195</ele>
        <time>2015-04-16T13:10:10Z</time>
      </trkpt>
      <trkpt lat="43.34369" lon="5.22367">
        <ele>195</ele>
        <time>2015-04-16T13:10:11Z</time>
      </trkpt>
      <trkpt lat="43.3437" lon="5.22368">
        <ele>195</ele>
        <time>2015-04-16T13:10:12Z</time>
      </trkpt>
      <trkpt lat="43.34372" lon="5.22369">
        <ele>195</ele>
        <time>2015-04-16T13:10:13Z</time>
      </trkpt>
      <trkpt lat="43.34373" lon="5.2237">
        <ele>195</ele>
        <time>2015-04-16T13:10:14Z</time>
      </trkpt>
      <trkpt lat="43.34374" lon="5.22371">
        <ele>195</ele>
        <time>2015-04-16T13:10:15Z</time>
      </trkpt>
      <trkpt lat="43.34375" lon="5.22372">
        <ele>195</ele>
        <time>2015-04-16T13:10:16Z</time>
      </trkpt>
      <trkpt lat="43.34377" lon="5.22373">
        <ele>195</ele>
        <time>2015-04-16T13:10:17Z</time>
      </trkpt>
      <trkpt lat="43.34378" lon="5.22374">
        <ele>195</ele>
        <time>2015-04-16T13:10:18Z</time>
      </trkpt>
      <trkpt lat="43.3438" lon="5.22374">
        <ele>195</ele>
        <time>2015-04-16T13:10:19Z</time>
      </trkpt>
      <trkpt lat="43.34381" lon="5.22375">
        <ele>195</ele>
        <time>2015-04-16T13:10:20Z</time>
      </trkpt>
      <trkpt lat="43.34382" lon="5.22375">
        <ele>195</ele>
        <time>2015-04-16T13:10:21Z</time>
      </trkpt>
      <trkpt lat="43.34384" lon="5.22376">
        <ele>195</ele>
        <time>2015-04-16T13:10:22Z</time>
      </trkpt>
      <trkpt lat="43.34385" lon="5.22377">
        <ele>195</ele>
        <time>2015-04-16T13:10:23Z</time>
      </trkpt>
      <trkpt lat="43.34386" lon="5.22378">
        <ele>195</ele>
        <time>2015-04-16T13:10:24Z</time>
      </trkpt>
      <trkpt lat="43.34388" lon="5.22379">
        <ele>195</ele>
        <time>2015-04-16T13:10:25Z</time>
      </trkpt>
      <trkpt lat="43.34389" lon="5.22379">
        <ele>195</ele>
        <time>2015-04-16T13:10:26Z</time>
      </trkpt>
      <trkpt lat="43.34391" lon="5.2238">
        <ele>195</ele>
        <time>2015-04-16T13:10:27Z</time>
      </trkpt>
      <trkpt lat="43.34392" lon="5.22381">
        <ele>195</ele>
        <time>2015-04-16T13:10:28Z</time>
      </trkpt>
      <trkpt lat="43.34393" lon="5.22382">
        <ele>195</ele>
        <time>2015-04-16T13:10:29Z</time>
      </trkpt>
      <trkpt lat="43.34394" lon="5.22383">
        <ele>195</ele>
        <time>2015-04-16T13:10:30Z</time>
      </trkpt>
      <trkpt lat="43.34396" lon="5.22384">
        <ele>195</ele>
        <time>2015-04-16T13:10:31Z</time>
      </trkpt>
      <trkpt lat="43.34397" lon="5.22385">
        <ele>195</ele>
        <time>2015-04-16T13:10:32Z</time>
      </trkpt>
      <trkpt lat="43.34398" lon="5.22386">
        <ele>195</ele>
        <time>2015-04-16T13:10:33Z</time>
      </trkpt>
      <trkpt lat="43.34399" lon="5.22387">
        <ele>195</ele>
        <time>2015-04-16T13:10:34Z</time>
      </trkpt>
      <trkpt lat="43.34401" lon="5.22388">
        <ele>195</ele>
        <time>2015-04-16T13:10:35Z</time>
      </trkpt>
      <trkpt lat="43.34402" lon="5.22389">
        <ele>195</ele>
        <time>2015-04-16T13:10:36Z</time>
      </trkpt>
      <trkpt lat="43.34404" lon="5.2239">
        <ele>195</ele>
        <time>2015-04-16T13:10:37Z</time>
      </trkpt>
      <trkpt lat="43.34405" lon="5.22391">
        <ele>195</ele>
        <time>2015-04-16T13:10:38Z</time>
      </trkpt>
      <trkpt lat="43.34406" lon="5.22392">
        <ele>195</ele>
        <time>2015-04-16T13:10:39Z</time>
      </trkpt>
      <trkpt lat="43.34407" lon="5.22393">
        <ele>195</ele>
        <time>2015-04-16T13:10:40Z</time>
      </trkpt>
      <trkpt lat="43.34409" lon="5.22394">
        <ele>195</ele>
        <time>2015-04-16T13:10:41Z</time>
      </trkpt>
      <trkpt lat="43.3441" lon="5.22395">
        <ele>195</ele>
        <time>2015-04-16T13:10:42Z</time>
      </trkpt>
      <trkpt lat="43.34411" lon="5.22396">
        <ele>195</ele>
        <time>2015-04-16T13:10:43Z</time>
      </trkpt>
      <trkpt lat="43.34413" lon="5.22397">
        <ele>195</ele>
        <time>2015-04-16T13:10:44Z</time>
      </trkpt>
      <trkpt lat="43.34414" lon="5.22398">
        <ele>194</ele>
        <time>2015-04-16T13:10:45Z</time>
      </trkpt>
      <trkpt lat="43.34415" lon="5.22399">
        <ele>194</ele>
        <time>2015-04-16T13:10:46Z</time>
      </trkpt>
      <trkpt lat="43.34417" lon="5.22399">
        <ele>194</ele>
        <time>2015-04-16T13:10:47Z</time>
      </trkpt>
      <trkpt lat="43.34418" lon="5.224">
        <ele>194</ele>
        <time>2015-04-16T13:10:48Z</time>
      </trkpt>
      <trkpt lat="43.3442" lon="5.22401">
        <ele>194</ele>
        <time>2015-04-16T13:10:49Z</time>
      </trkpt>
      <trkpt lat="43.34421" lon="5.22402">
        <ele>194</ele>
        <time>2015-04-16T13:10:50Z</time>
      </trkpt>
      <trkpt lat="43.34423" lon="5.22403">
        <ele>194</ele>
        <time>2015-04-16T13:10:51Z</time>
      </trkpt>
      <trkpt lat="43.34424" lon="5.22404">
        <ele>194</ele>
        <time>2015-04-16T13:10:52Z</time>
      </trkpt>
      <trkpt lat="43.34425" lon="5.22404">
        <ele>194</ele>
        <time>2015-04-16T13:10:53Z</time>
      </trkpt>
      <trkpt lat="43.34427" lon="5.22405">
        <ele>194</ele>
        <time>2015-04-16T13:10:54Z</time>
      </trkpt>
      <trkpt lat="43.34428" lon="5.22406">
        <ele>194</ele>
        <time>2015-04-16T13:10:55Z</time>
      </trkpt>
      <trkpt lat="43.3443" lon="5.22407">
        <ele>193</ele>
        <time>2015-04-16T13:10:56Z</time>
      </trkpt>
      <trkpt lat="43.34431" lon="5.22407">
        <ele>193</ele>
        <time>2015-04-16T13:10:57Z</time>
      </trkpt>
      <trkpt lat="43.34433" lon="5.22408">
        <ele>193</ele>
        <time>2015-04-16T13:10:58Z</time>
      </trkpt>
      <trkpt lat="43.34434" lon="5.22409">
        <ele>193</ele>
        <time>2015-04-16T13:10:59Z</time>
      </trkpt>
      <trkpt lat="43.34435" lon="5.2241">
        <ele>193</ele>
        <time>2015-04-16T13:11:00Z</time>
      </trkpt>
      <trkpt lat="43.34437" lon="5.2241">
        <ele>193</ele>
        <time>2015-04-16T13:11:01Z</time>
      </trkpt>
      <trkpt lat="43.34438" lon="5.22411">
        <ele>193</ele>
        <time>2015-04-16T13:11:02Z</time>
      </trkpt>
      <trkpt lat="43.3444" lon="5.22412">
        <ele>193</ele>
        <time>2015-04-16T13:11:03Z</time>
      </trkpt>
      <trkpt lat="43.34441" lon="5.22413">
        <ele>192</ele>
        <time>2015-04-16T13:11:04Z</time>
      </trkpt>
      <trkpt lat="43.34443" lon="5.22413">
        <ele>192</ele>
        <time>2015-04-16T13:11:05Z</time>
      </trkpt>
      <trkpt lat="43.34444" lon="5.22414">
        <ele>192</ele>
        <time>2015-04-16T13:11:06Z</time>
      </trkpt>
      <trkpt lat="43.34446" lon="5.22414">
        <ele>192</ele>
        <time>2015-04-16T13:11:07Z</time>
      </trkpt>
      <trkpt lat="43.34447" lon="5.22414">
        <ele>192</ele>
        <time>2015-04-16T13:11:08Z</time>
      </trkpt>
      <trkpt lat="43.34448" lon="5.22415">
        <ele>192</ele>
        <time>2015-04-16T13:11:09Z</time>
      </trkpt>
      <trkpt lat="43.3445" lon="5.22415">
        <ele>192</ele>
        <time>2015-04-16T13:11:10Z</time>
      </trkpt>
      <trkpt lat="43.34451" lon="5.22416">
        <ele>192</ele>
        <time>2015-04-16T13:11:11Z</time>
      </trkpt>
      <trkpt lat="43.34453" lon="5.22416">
        <ele>192</ele>
        <time>2015-04-16T13:11:12Z</time>
      </trkpt>
      <trkpt lat="43.34454" lon="5.22417">
        <ele>192</ele>
        <time>2015-04-16T13:11:13Z</time>
      </trkpt>
      <trkpt lat="43.34455" lon="5.22418">
        <ele>192</ele>
        <time>2015-04-16T13:11:14Z</time>
      </trkpt>
      <trkpt lat="43.34457" lon="5.22418">
        <ele>192</ele>
        <time>2015-04-16T13:11:15Z</time>
      </trkpt>
      <trkpt lat="43.34458" lon="5.2242">
        <ele>192</ele>
        <time>2015-04-16T13:11:16Z</time>
      </trkpt>
      <trkpt lat="43.34459" lon="5.22421">
        <ele>192</ele>
        <time>2015-04-16T13:11:17Z</time>
      </trkpt>
      <trkpt lat="43.3446" lon="5.22422">
        <ele>192</ele>
        <time>2015-04-16T13:11:18Z</time>
      </trkpt>
      <trkpt lat="43.34461" lon="5.22424">
        <ele>192</ele>
        <time>2015-04-16T13:11:19Z</time>
      </trkpt>
      <trkpt lat="43.34462" lon="5.22426">
        <ele>191</ele>
        <time>2015-04-16T13:11:20Z</time>
      </trkpt>
      <trkpt lat="43.34463" lon="5.22428">
        <ele>191</ele>
        <time>2015-04-16T13:11:21Z</time>
      </trkpt>
      <trkpt lat="43.34463" lon="5.22429">
        <ele>191</ele>
        <time>2015-04-16T13:11:22Z</time>
      </trkpt>
      <trkpt lat="43.34464" lon="5.22431">
        <ele>191</ele>
        <time>2015-04-16T13:11:23Z</time>
      </trkpt>
      <trkpt lat="43.34465" lon="5.22433">
        <ele>191</ele>
        <time>2015-04-16T13:11:24Z</time>
      </trkpt>
      <trkpt lat="43.34465" lon="5.22435">
        <ele>191</ele>
        <time>2015-04-16T13:11:25Z</time>
      </trkpt>
      <trkpt lat="43.34465" lon="5.22437">
        <ele>191</ele>
        <time>2015-04-16T13:11:26Z</time>
      </trkpt>
      <trkpt lat="43.34465" lon="5.22439">
        <ele>191</ele>
        <time>2015-04-16T13:11:27Z</time>
      </trkpt>
      <trkpt lat="43.34466" lon="5.22441">
        <ele>191</ele>
        <time>2015-04-16T13:11:28Z</time>
      </trkpt>
      <trkpt lat="43.34466" lon="5.22443">
        <ele>190</ele>
        <time>2015-04-16T13:11:29Z</time>
      </trkpt>
      <trkpt lat="43.34466" lon="5.22445">
        <ele>190</ele>
        <time>2015-04-16T13:11:30Z</time>
      </trkpt>
      <trkpt lat="43.34467" lon="5.22447">
        <ele>190</ele>
        <time>2015-04-16T13:11:31Z</time>
      </trkpt>
      <trkpt lat="43.34467" lon="5.2245">
        <ele>190</ele>
        <time>2015-04-16T13:11:32Z</time>
      </trkpt>
      <trkpt lat="43.34467" lon="5.22452">
        <ele>190</ele>
        <time>2015-04-16T13:11:33Z</time>
      </trkpt>
      <trkpt lat="43.34467" lon="5.22454">
        <ele>190</ele>
        <time>2015-04-16T13:11:34Z</time>
      </trkpt>
      <trkpt lat="43.34467" lon="5.22456">
        <ele>190</ele>
        <time>2015-04-16T13:11:35Z</time>
      </trkpt>
      <trkpt lat="43.34467" lon="5.22458">
        <ele>190</ele>
        <time>2015-04-16T13:11:36Z</time>
      </trkpt>
      <trkpt lat="43.34467" lon="5.2246">
        <ele>190</ele>
        <time>2015-04-16T13:11:37Z</time>
      </trkpt>
      <trkpt lat="43.34467" lon="5.22462">
        <ele>190</ele>
        <time>2015-04-16T13:11:38Z</time>
      </trkpt>
      <trkpt lat="43.34467" lon="5.22464">
        <ele>189</ele>
        <time>2015-04-16T13:11:39Z</time>
      </trkpt>
      <trkpt lat="43.34467" lon="5.22466">
        <ele>189</ele>
        <time>2015-04-16T13:11:40Z</time>
      </trkpt>
      <trkpt lat="43.34467" lon="5.22468">
        <ele>189</ele>
        <time>2015-04-16T13:11:41Z</time>
      </trkpt>
      <trkpt lat="43.34468" lon="5.2247">
        <ele>189</ele>
        <time>2015-04-16T13:11:42Z</time>
      </trkpt>
      <trkpt lat="43.34468" lon="5.22472">
        <ele>189</ele>
        <time>2015-04-16T13:11:43Z</time>
      </trkpt>
      <trkpt lat="43.34468" lon="5.22474">
        <ele>189</ele>
        <time>2015-04-16T13:11:44Z</time>
      </trkpt>
      <trkpt lat="43.34468" lon="5.22475">
        <ele>189</ele>
        <time>2015-04-16T13:11:45Z</time>
      </trkpt>
      <trkpt lat="43.34469" lon="5.22477">
        <ele>189</ele>
        <time>2015-04-16T13:11:46Z</time>
      </trkpt>
      <trkpt lat="43.34469" lon="5.22479">
        <ele>189</ele>
        <time>2015-04-16T13:11:47Z</time>
      </trkpt>
      <trkpt lat="43.3447" lon="5.22481">
        <ele>189</ele>
        <time>2015-04-16T13:11:48Z</time>
      </trkpt>
      <trkpt lat="43.3447" lon="5.22482">
        <ele>189</ele>
        <time>2015-04-16T13:11:49Z</time>
      </trkpt>
      <trkpt lat="43.3447" lon="5.22484">
        <ele>189</ele>
        <time>2015-04-16T13:11:51Z</time>
      </trkpt>
      <trkpt lat="43.34472" lon="5.22485">
        <ele>189</ele>
        <time>2015-04-16T13:12:00Z</time>
      </trkpt>
      <trkpt lat="43.34472" lon="5.22487">
        <ele>189</ele>
        <time>2015-04-16T13:12:02Z</time>
      </trkpt>
      <trkpt lat="43.34473" lon="5.22489">
        <ele>189</ele>
        <time>2015-04-16T13:12:04Z</time>
      </trkpt>
      <trkpt lat="43.34473" lon="5.22491">
        <ele>189</ele>
        <time>2015-04-16T13:12:06Z</time>
      </trkpt>
      <trkpt lat="43.34473" lon="5.22493">
        <ele>189</ele>
        <time>2015-04-16T13:12:08Z</time>
      </trkpt>
      <trkpt lat="43.34474" lon="5.22495">
        <ele>189</ele>
        <time>2015-04-16T13:12:11Z</time>
      </trkpt>
      <trkpt lat="43.34475" lon="5.22497">
        <ele>189</ele>
        <time>2015-04-16T13:12:13Z</time>
      </trkpt>
      <trkpt lat="43.34475" lon="5.22499">
        <ele>189</ele>
        <time>2015-04-16T13:12:19Z</time>
      </trkpt>
      <trkpt lat="43.34476" lon="5.22501">
        <ele>189</ele>
        <time>2015-04-16T13:12:25Z</time>
      </trkpt>
      <trkpt lat="43.34476" lon="5.22503">
        <ele>189</ele>
        <time>2015-04-16T13:12:26Z</time>
      </trkpt>
      <trkpt lat="43.34477" lon="5.22504">
        <ele>189</ele>
        <time>2015-04-16T13:12:27Z</time>
      </trkpt>
      <trkpt lat="43.34478" lon="5.22507">
        <ele>189</ele>
        <time>2015-04-16T13:12:29Z</time>
      </trkpt>
      <trkpt lat="43.34479" lon="5.22508">
        <ele>189</ele>
        <time>2015-04-16T13:12:30Z</time>
      </trkpt>
      <trkpt lat="43.3448" lon="5.2251">
        <ele>189</ele>
        <time>2015-04-16T13:12:31Z</time>
      </trkpt>
      <trkpt lat="43.34481" lon="5.22512">
        <ele>189</ele>
        <time>2015-04-16T13:12:32Z</time>
      </trkpt>
      <trkpt lat="43.34481" lon="5.22513">
        <ele>189</ele>
        <time>2015-04-16T13:12:33Z</time>
      </trkpt>
      <trkpt lat="43.34482" lon="5.22515">
        <ele>189</ele>
        <time>2015-04-16T13:12:34Z</time>
      </trkpt>
      <trkpt lat="43.34483" lon="5.22516">
        <ele>189</ele>
        <time>2015-04-16T13:12:35Z</time>
      </trkpt>
      <trkpt lat="43.34483" lon="5.22518">
        <ele>189</ele>
        <time>2015-04-16T13:12:36Z</time>
      </trkpt>
      <trkpt lat="43.34485" lon="5.2252">
        <ele>189</ele>
        <time>2015-04-16T13:12:38Z</time>
      </trkpt>
      <trkpt lat="43.34486" lon="5.22522">
        <ele>189</ele>
        <time>2015-04-16T13:12:39Z</time>
      </trkpt>
      <trkpt lat="43.34487" lon="5.22524">
        <ele>189</ele>
        <time>2015-04-16T13:12:40Z</time>
      </trkpt>
      <trkpt lat="43.34488" lon="5.22525">
        <ele>189</ele>
        <time>2015-04-16T13:12:41Z</time>
      </trkpt>
      <trkpt lat="43.34489" lon="5.22527">
        <ele>189</ele>
        <time>2015-04-16T13:12:42Z</time>
      </trkpt>
      <trkpt lat="43.3449" lon="5.22529">
        <ele>189</ele>
        <time>2015-04-16T13:12:43Z</time>
      </trkpt>
      <trkpt lat="43.34491" lon="5.2253">
        <ele>189</ele>
        <time>2015-04-16T13:12:44Z</time>
      </trkpt>
      <trkpt lat="43.34492" lon="5.22532">
        <ele>189</ele>
        <time>2015-04-16T13:12:45Z</time>
      </trkpt>
      <trkpt lat="43.34493" lon="5.22533">
        <ele>189</ele>
        <time>2015-04-16T13:12:46Z</time>
      </trkpt>
      <trkpt lat="43.34494" lon="5.22535">
        <ele>189</ele>
        <time>2015-04-16T13:12:47Z</time>
      </trkpt>
      <trkpt lat="43.34495" lon="5.22536">
        <ele>189</ele>
        <time>2015-04-16T13:12:48Z</time>
      </trkpt>
      <trkpt lat="43.34497" lon="5.22539">
        <ele>189</ele>
        <time>2015-04-16T13:12:50Z</time>
      </trkpt>
      <trkpt lat="43.34499" lon="5.22541">
        <ele>189</ele>
        <time>2015-04-16T13:12:52Z</time>
      </trkpt>
      <trkpt lat="43.34501" lon="5.22544">
        <ele>189</ele>
        <time>2015-04-16T13:12:54Z</time>
      </trkpt>
      <trkpt lat="43.34503" lon="5.22547">
        <ele>189</ele>
        <time>2015-04-16T13:12:56Z</time>
      </trkpt>
      <trkpt lat="43.34504" lon="5.22548">
        <ele>189</ele>
        <time>2015-04-16T13:12:57Z</time>
      </trkpt>
      <trkpt lat="43.34504" lon="5.2255">
        <ele>189</ele>
        <time>2015-04-16T13:12:58Z</time>
      </trkpt>
      <trkpt lat="43.34505" lon="5.22551">
        <ele>189</ele>
        <time>2015-04-16T13:12:59Z</time>
      </trkpt>
      <trkpt lat="43.34506" lon="5.22553">
        <ele>189</ele>
        <time>2015-04-16T13:13:00Z</time>
      </trkpt>
      <trkpt lat="43.34507" lon="5.22554">
        <ele>189</ele>
        <time>2015-04-16T13:13:01Z</time>
      </trkpt>
      <trkpt lat="43.34508" lon="5.22556">
        <ele>189</ele>
        <time>2015-04-16T13:13:02Z</time>
      </trkpt>
      <trkpt lat="43.34509" lon="5.22558">
        <ele>189</ele>
        <time>2015-04-16T13:13:03Z</time>
      </trkpt>
      <trkpt lat="43.34509" lon="5.2256">
        <ele>189</ele>
        <time>2015-04-16T13:13:04Z</time>
      </trkpt>
      <trkpt lat="43.3451" lon="5.22561">
        <ele>190</ele>
        <time>2015-04-16T13:13:05Z</time>
      </trkpt>
      <trkpt lat="43.34511" lon="5.22563">
        <ele>190</ele>
        <time>2015-04-16T13:13:06Z</time>
      </trkpt>
      <trkpt lat="43.34512" lon="5.22565">
        <ele>190</ele>
        <time>2015-04-16T13:13:07Z</time>
      </trkpt>
      <trkpt lat="43.34513" lon="5.22566">
        <ele>190</ele>
        <time>2015-04-16T13:13:08Z</time>
      </trkpt>
      <trkpt lat="43.34514" lon="5.22568">
        <ele>191</ele>
        <time>2015-04-16T13:13:09Z</time>
      </trkpt>
      <trkpt lat="43.34515" lon="5.22569">
        <ele>191</ele>
        <time>2015-04-16T13:13:10Z</time>
      </trkpt>
      <trkpt lat="43.34516" lon="5.2257">
        <ele>191</ele>
        <time>2015-04-16T13:13:11Z</time>
      </trkpt>
      <trkpt lat="43.34517" lon="5.22571">
        <ele>191</ele>
        <time>2015-04-16T13:13:12Z</time>
      </trkpt>
      <trkpt lat="43.34518" lon="5.22572">
        <ele>191</ele>
        <time>2015-04-16T13:13:13Z</time>
      </trkpt>
      <trkpt lat="43.3452" lon="5.22573">
        <ele>192</ele>
        <time>2015-04-16T13:13:14Z</time>
      </trkpt>
      <trkpt lat="43.34521" lon="5.22574">
        <ele>192</ele>
        <time>2015-04-16T13:13:15Z</time>
      </trkpt>
      <trkpt lat="43.34522" lon="5.22575">
        <ele>192</ele>
        <time>2015-04-16T13:13:16Z</time>
      </trkpt>
      <trkpt lat="43.34524" lon="5.22575">
        <ele>192</ele>
        <time>2015-04-16T13:13:17Z</time>
      </trkpt>
      <trkpt lat="43.34525" lon="5.22576">
        <ele>192</ele>
        <time>2015-04-16T13:13:18Z</time>
      </trkpt>
      <trkpt lat="43.34527" lon="5.22576">
        <ele>193</ele>
        <time>2015-04-16T13:13:19Z</time>
      </trkpt>
      <trkpt lat="43.34528" lon="5.22576">
        <ele>193</ele>
        <time>2015-04-16T13:13:20Z</time>
      </trkpt>
      <trkpt lat="43.3453" lon="5.22577">
        <ele>193</ele>
        <time>2015-04-16T13:13:21Z</time>
      </trkpt>
      <trkpt lat="43.34531" lon="5.22578">
        <ele>193</ele>
        <time>2015-04-16T13:13:22Z</time>
      </trkpt>
      <trkpt lat="43.34533" lon="5.22578">
        <ele>193</ele>
        <time>2015-04-16T13:13:23Z</time>
      </trkpt>
      <trkpt lat="43.34534" lon="5.22578">
        <ele>193</ele>
        <time>2015-04-16T13:13:24Z</time>
      </trkpt>
      <trkpt lat="43.34536" lon="5.22579">
        <ele>193</ele>
        <time>2015-04-16T13:13:25Z</time>
      </trkpt>
      <trkpt lat="43.34537" lon="5.22579">
        <ele>193</ele>
        <time>2015-04-16T13:13:26Z</time>
      </trkpt>
      <trkpt lat="43.34539" lon="5.2258">
        <ele>193</ele>
        <time>2015-04-16T13:13:27Z</time>
      </trkpt>
      <trkpt lat="43.3454" lon="5.22581">
        <ele>193</ele>
        <time>2015-04-16T13:13:28Z</time>
      </trkpt>
      <trkpt lat="43.34541" lon="5.22582">
        <ele>193</ele>
        <time>2015-04-16T13:13:29Z</time>
      </trkpt>
      <trkpt lat="43.34542" lon="5.22583">
        <ele>193</ele>
        <time>2015-04-16T13:13:30Z</time>
      </trkpt>
      <trkpt lat="43.34544" lon="5.22583">
        <ele>193</ele>
        <time>2015-04-16T13:13:31Z</time>
      </trkpt>
      <trkpt lat="43.34545" lon="5.22584">
        <ele>193</ele>
        <time>2015-04-16T13:13:32Z</time>
      </trkpt>
      <trkpt lat="43.34546" lon="5.22585">
        <ele>194</ele>
        <time>2015-04-16T13:13:33Z</time>
      </trkpt>
      <trkpt lat="43.34547" lon="5.22586">
        <ele>194</ele>
        <time>2015-04-16T13:13:34Z</time>
      </trkpt>
      <trkpt lat="43.34549" lon="5.22587">
        <ele>194</ele>
        <time>2015-04-16T13:13:35Z</time>
      </trkpt>
      <trkpt lat="43.3455" lon="5.22588">
        <ele>194</ele>
        <time>2015-04-16T13:13:36Z</time>
      </trkpt>
      <trkpt lat="43.34551" lon="5.22588">
        <ele>194</ele>
        <time>2015-04-16T13:13:37Z</time>
      </trkpt>
      <trkpt lat="43.34553" lon="5.22589">
        <ele>194</ele>
        <time>2015-04-16T13:13:38Z</time>
      </trkpt>
      <trkpt lat="43.34554" lon="5.22589">
        <ele>194</ele>
        <time>2015-04-16T13:13:39Z</time>
      </trkpt>
      <trkpt lat="43.34555" lon="5.2259">
        <ele>194</ele>
        <time>2015-04-16T13:13:40Z</time>
      </trkpt>
      <trkpt lat="43.34557" lon="5.2259">
        <ele>194</ele>
        <time>2015-04-16T13:13:41Z</time>
      </trkpt>
      <trkpt lat="43.34558" lon="5.2259">
        <ele>194</ele>
        <time>2015-04-16T13:13:42Z</time>
      </trkpt>
      <trkpt lat="43.3456" lon="5.2259">
        <ele>195</ele>
        <time>2015-04-16T13:13:43Z</time>
      </trkpt>
      <trkpt lat="43.34562" lon="5.2259">
        <ele>195</ele>
        <time>2015-04-16T13:13:44Z</time>
      </trkpt>
      <trkpt lat="43.34563" lon="5.22591">
        <ele>195</ele>
        <time>2015-04-16T13:13:45Z</time>
      </trkpt>
      <trkpt lat="43.34564" lon="5.22591">
        <ele>195</ele>
        <time>2015-04-16T13:13:46Z</time>
      </trkpt>
      <trkpt lat="43.34566" lon="5.22591">
        <ele>195</ele>
        <time>2015-04-16T13:13:47Z</time>
      </trkpt>
      <trkpt lat="43.34567" lon="5.22591">
        <ele>195</ele>
        <time>2015-04-16T13:13:48Z</time>
      </trkpt>
      <trkpt lat="43.34569" lon="5.22591">
        <ele>195</ele>
        <time>2015-04-16T13:13:49Z</time>
      </trkpt>
      <trkpt lat="43.3457" lon="5.22591">
        <ele>195</ele>
        <time>2015-04-16T13:13:50Z</time>
      </trkpt>
      <trkpt lat="43.34572" lon="5.22591">
        <ele>195</ele>
        <time>2015-04-16T13:13:51Z</time>
      </trkpt>
      <trkpt lat="43.34573" lon="5.22592">
        <ele>195</ele>
        <time>2015-04-16T13:13:52Z</time>
      </trkpt>
      <trkpt lat="43.34575" lon="5.22592">
        <ele>195</ele>
        <time>2015-04-16T13:13:53Z</time>
      </trkpt>
      <trkpt lat="43.34576" lon="5.22593">
        <ele>195</ele>
        <time>2015-04-16T13:13:54Z</time>
      </trkpt>
      <trkpt lat="43.34578" lon="5.22594">
        <ele>195</ele>
        <time>2015-04-16T13:13:55Z</time>
      </trkpt>
      <trkpt lat="43.34579" lon="5.22595">
        <ele>195</ele>
        <time>2015-04-16T13:13:56Z</time>
      </trkpt>
      <trkpt lat="43.34581" lon="5.22596">
        <ele>195</ele>
        <time>2015-04-16T13:13:57Z</time>
      </trkpt>
      <trkpt lat="43.34582" lon="5.22597">
        <ele>195</ele>
        <time>2015-04-16T13:13:58Z</time>
      </trkpt>
      <trkpt lat="43.34583" lon="5.22599">
        <ele>195</ele>
        <time>2015-04-16T13:13:59Z</time>
      </trkpt>
      <trkpt lat="43.34584" lon="5.226">
        <ele>195</ele>
        <time>2015-04-16T13:14:00Z</time>
      </trkpt>
      <trkpt lat="43.34584" lon="5.22602">
        <ele>195</ele>
        <time>2015-04-16T13:14:01Z</time>
      </trkpt>
      <trkpt lat="43.34585" lon="5.22604">
        <ele>195</ele>
        <time>2015-04-16T13:14:02Z</time>
      </trkpt>
      <trkpt lat="43.34585" lon="5.22606">
        <ele>195</ele>
        <time>2015-04-16T13:14:03Z</time>
      </trkpt>
      <trkpt lat="43.34585" lon="5.22608">
        <ele>195</ele>
        <time>2015-04-16T13:14:04Z</time>
      </trkpt>
      <trkpt lat="43.34586" lon="5.2261">
        <ele>195</ele>
        <time>2015-04-16T13:14:05Z</time>
      </trkpt>
      <trkpt lat="43.34586" lon="5.22612">
        <ele>195</ele>
        <time>2015-04-16T13:14:06Z</time>
      </trkpt>
      <trkpt lat="43.34586" lon="5.22614">
        <ele>195</ele>
        <time>2015-04-16T13:14:07Z</time>
      </trkpt>
      <trkpt lat="43.34586" lon="5.22616">
        <ele>196</ele>
        <time>2015-04-16T13:14:08Z</time>
      </trkpt>
      <trkpt lat="43.34586" lon="5.22618">
        <ele>196</ele>
        <time>2015-04-16T13:14:09Z</time>
      </trkpt>
      <trkpt lat="43.34586" lon="5.2262">
        <ele>196</ele>
        <time>2015-04-16T13:14:10Z</time>
      </trkpt>
      <trkpt lat="43.34586" lon="5.22622">
        <ele>196</ele>
        <time>2015-04-16T13:14:11Z</time>
      </trkpt>
      <trkpt lat="43.34586" lon="5.22624">
        <ele>196</ele>
        <time>2015-04-16T13:14:12Z</time>
      </trkpt>
      <trkpt lat="43.34586" lon="5.22626">
        <ele>196</ele>
        <time>2015-04-16T13:14:13Z</time>
      </trkpt>
      <trkpt lat="43.34586" lon="5.22628">
        <ele>196</ele>
        <time>2015-04-16T13:14:14Z</time>
      </trkpt>
      <trkpt lat="43.34586" lon="5.2263">
        <ele>196</ele>
        <time>2015-04-16T13:14:15Z</time>
      </trkpt>
      <trkpt lat="43.34586" lon="5.22632">
        <ele>196</ele>
        <time>2015-04-16T13:14:16Z</time>
      </trkpt>
      <trkpt lat="43.34586" lon="5.22634">
        <ele>196</ele>
        <time>2015-04-16T13:14:17Z</time>
      </trkpt>
      <trkpt lat="43.34586" lon="5.22636">
        <ele>196</ele>
        <time>2015-04-16T13:14:18Z</time>
      </trkpt>
      <trkpt lat="43.34586" lon="5.22638">
        <ele>196</ele>
        <time>2015-04-16T13:14:19Z</time>
      </trkpt>
      <trkpt lat="43.34586" lon="5.22641">
        <ele>196</ele>
        <time>2015-04-16T13:14:20Z</time>
      </trkpt>
      <trkpt lat="43.34586" lon="5.22643">
        <ele>197</ele>
        <time>2015-04-16T13:14:21Z</time>
      </trkpt>
      <trkpt lat="43.34586" lon="5.22645">
        <ele>197</ele>
        <time>2015-04-16T13:14:22Z</time>
      </trkpt>
      <trkpt lat="43.34586" lon="5.22647">
        <ele>197</ele>
        <time>2015-04-16T13:14:23Z</time>
      </trkpt>
      <trkpt lat="43.34586" lon="5.22649">
        <ele>197</ele>
        <time>2015-04-16T13:14:24Z</time>
      </trkpt>
      <trkpt lat="43.34586" lon="5.22652">
        <ele>197</ele>
        <time>2015-04-16T13:14:25Z</time>
      </trkpt>
      <trkpt lat="43.34587" lon="5.22654">
        <ele>197</ele>
        <time>2015-04-16T13:14:26Z</time>
      </trkpt>
      <trkpt lat="43.34587" lon="5.22656">
        <ele>197</ele>
        <time>2015-04-16T13:14:27Z</time>
      </trkpt>
      <trkpt lat="43.34586" lon="5.22658">
        <ele>197</ele>
        <time>2015-04-16T13:14:28Z</time>
      </trkpt>
      <trkpt lat="43.34586" lon="5.2266">
        <ele>197</ele>
        <time>2015-04-16T13:14:29Z</time>
      </trkpt>
      <trkpt lat="43.34586" lon="5.22663">
        <ele>197</ele>
        <time>2015-04-16T13:14:30Z</time>
      </trkpt>
      <trkpt lat="43.34587" lon="5.22665">
        <ele>197</ele>
        <time>2015-04-16T13:14:31Z</time>
      </trkpt>
      <trkpt lat="43.34587" lon="5.22667">
        <ele>197</ele>
        <time>2015-04-16T13:14:32Z</time>
      </trkpt>
      <trkpt lat="43.34587" lon="5.22669">
        <ele>197</ele>
        <time>2015-04-16T13:14:33Z</time>
      </trkpt>
      <trkpt lat="43.34587" lon="5.22671">
        <ele>197</ele>
        <time>2015-04-16T13:14:34Z</time>
      </trkpt>
      <trkpt lat="43.34587" lon="5.22674">
        <ele>197</ele>
        <time>2015-04-16T13:14:35Z</time>
      </trkpt>
      <trkpt lat="43.34587" lon="5.22676">
        <ele>197</ele>
        <time>2015-04-16T13:14:36Z</time>
      </trkpt>
      <trkpt lat="43.34587" lon="5.22678">
        <ele>197</ele>
        <time>2015-04-16T13:14:37Z</time>
      </trkpt>
      <trkpt lat="43.34587" lon="5.22681">
        <ele>197</ele>
        <time>2015-04-16T13:14:38Z</time>
      </trkpt>
      <trkpt lat="43.34587" lon="5.22683">
        <ele>197</ele>
        <time>2015-04-16T13:14:39Z</time>
      </trkpt>
      <trkpt lat="43.34587" lon="5.22685">
        <ele>197</ele>
        <time>2015-04-16T13:14:40Z</time>
      </trkpt>
      <trkpt lat="43.34587" lon="5.22688">
        <ele>197</ele>
        <time>2015-04-16T13:14:41Z</time>
      </trkpt>
      <trkpt lat="43.34587" lon="5.2269">
        <ele>197</ele>
        <time>2015-04-16T13:14:42Z</time>
      </trkpt>
      <trkpt lat="43.34587" lon="5.22693">
        <ele>197</ele>
        <time>2015-04-16T13:14:43Z</time>
      </trkpt>
      <trkpt lat="43.34586" lon="5.22695">
        <ele>197</ele>
        <time>2015-04-16T13:14:44Z</time>
      </trkpt>
      <trkpt lat="43.34586" lon="5.22697">
        <ele>197</ele>
        <time>2015-04-16T13:14:45Z</time>
      </trkpt>
      <trkpt lat="43.34587" lon="5.227">
        <ele>198</ele>
        <time>2015-04-16T13:14:46Z</time>
      </trkpt>
      <trkpt lat="43.34586" lon="5.22702">
        <ele>198</ele>
        <time>2015-04-16T13:14:47Z</time>
      </trkpt>
      <trkpt lat="43.34586" lon="5.22704">
        <ele>198</ele>
        <time>2015-04-16T13:14:48Z</time>
      </trkpt>
      <trkpt lat="43.34586" lon="5.22706">
        <ele>198</ele>
        <time>2015-04-16T13:14:49Z</time>
      </trkpt>
      <trkpt lat="43.34586" lon="5.22709">
        <ele>198</ele>
        <time>2015-04-16T13:14:50Z</time>
      </trkpt>
      <trkpt lat="43.34586" lon="5.22711">
        <ele>198</ele>
        <time>2015-04-16T13:14:51Z</time>
      </trkpt>
      <trkpt lat="43.34586" lon="5.22714">
        <ele>198</ele>
        <time>2015-04-16T13:14:52Z</time>
      </trkpt>
      <trkpt lat="43.34585" lon="5.22716">
        <ele>199</ele>
        <time>2015-04-16T13:14:53Z</time>
      </trkpt>
      <trkpt lat="43.34585" lon="5.22718">
        <ele>199</ele>
        <time>2015-04-16T13:14:54Z</time>
      </trkpt>
      <trkpt lat="43.34584" lon="5.2272">
        <ele>199</ele>
        <time>2015-04-16T13:14:55Z</time>
      </trkpt>
      <trkpt lat="43.34584" lon="5.22723">
        <ele>199</ele>
        <time>2015-04-16T13:14:56Z</time>
      </trkpt>
      <trkpt lat="43.34584" lon="5.22725">
        <ele>199</ele>
        <time>2015-04-16T13:14:57Z</time>
      </trkpt>
      <trkpt lat="43.34583" lon="5.22727">
        <ele>200</ele>
        <time>2015-04-16T13:14:58Z</time>
      </trkpt>
      <trkpt lat="43.34583" lon="5.2273">
        <ele>200</ele>
        <time>2015-04-16T13:14:59Z</time>
      </trkpt>
      <trkpt lat="43.34582" lon="5.22732">
        <ele>200</ele>
        <time>2015-04-16T13:15:00Z</time>
      </trkpt>
      <trkpt lat="43.34582" lon="5.22734">
        <ele>200</ele>
        <time>2015-04-16T13:15:01Z</time>
      </trkpt>
      <trkpt lat="43.34581" lon="5.22737">
        <ele>200</ele>
        <time>2015-04-16T13:15:02Z</time>
      </trkpt>
      <trkpt lat="43.34581" lon="5.22739">
        <ele>200</ele>
        <time>2015-04-16T13:15:03Z</time>
      </trkpt>
      <trkpt lat="43.3458" lon="5.22741">
        <ele>201</ele>
        <time>2015-04-16T13:15:04Z</time>
      </trkpt>
      <trkpt lat="43.34579" lon="5.22744">
        <ele>201</ele>
        <time>2015-04-16T13:15:05Z</time>
      </trkpt>
      <trkpt lat="43.34579" lon="5.22746">
        <ele>201</ele>
        <time>2015-04-16T13:15:06Z</time>
      </trkpt>
      <trkpt lat="43.34578" lon="5.22748">
        <ele>201</ele>
        <time>2015-04-16T13:15:07Z</time>
      </trkpt>
      <trkpt lat="43.34578" lon="5.2275">
        <ele>201</ele>
        <time>2015-04-16T13:15:08Z</time>
      </trkpt>
      <trkpt lat="43.34578" lon="5.22753">
        <ele>201</ele>
        <time>2015-04-16T13:15:09Z</time>
      </trkpt>
      <trkpt lat="43.34577" lon="5.22755">
        <ele>201</ele>
        <time>2015-04-16T13:15:10Z</time>
      </trkpt>
      <trkpt lat="43.34577" lon="5.22757">
        <ele>201</ele>
        <time>2015-04-16T13:15:11Z</time>
      </trkpt>
      <trkpt lat="43.34576" lon="5.22759">
        <ele>201</ele>
        <time>2015-04-16T13:15:12Z</time>
      </trkpt>
      <trkpt lat="43.34575" lon="5.22762">
        <ele>202</ele>
        <time>2015-04-16T13:15:13Z</time>
      </trkpt>
      <trkpt lat="43.34575" lon="5.22764">
        <ele>202</ele>
        <time>2015-04-16T13:15:14Z</time>
      </trkpt>
      <trkpt lat="43.34574" lon="5.22766">
        <ele>202</ele>
        <time>2015-04-16T13:15:15Z</time>
      </trkpt>
      <trkpt lat="43.34574" lon="5.22769">
        <ele>202</ele>
        <time>2015-04-16T13:15:16Z</time>
      </trkpt>
      <trkpt lat="43.34573" lon="5.22771">
        <ele>202</ele>
        <time>2015-04-16T13:15:17Z</time>
      </trkpt>
      <trkpt lat="43.34573" lon="5.22773">
        <ele>202</ele>
        <time>2015-04-16T13:15:18Z</time>
      </trkpt>
      <trkpt lat="43.34573" lon="5.22775">
        <ele>202</ele>
        <time>2015-04-16T13:15:19Z</time>
      </trkpt>
      <trkpt lat="43.34573" lon="5.22777">
        <ele>202</ele>
        <time>2015-04-16T13:15:20Z</time>
      </trkpt>
      <trkpt lat="43.34573" lon="5.2278">
        <ele>202</ele>
        <time>2015-04-16T13:15:21Z</time>
      </trkpt>
      <trkpt lat="43.34573" lon="5.22782">
        <ele>202</ele>
        <time>2015-04-16T13:15:22Z</time>
      </trkpt>
      <trkpt lat="43.34572" lon="5.22784">
        <ele>203</ele>
        <time>2015-04-16T13:15:23Z</time>
      </trkpt>
      <trkpt lat="43.34572" lon="5.22787">
        <ele>203</ele>
        <time>2015-04-16T13:15:24Z</time>
      </trkpt>
      <trkpt lat="43.34572" lon="5.22789">
        <ele>203</ele>
        <time>2015-04-16T13:15:25Z</time>
      </trkpt>
      <trkpt lat="43.34572" lon="5.22791">
        <ele>203</ele>
        <time>2015-04-16T13:15:26Z</time>
      </trkpt>
      <trkpt lat="43.34573" lon="5.22793">
        <ele>203</ele>
        <time>2015-04-16T13:15:27Z</time>
      </trkpt>
      <trkpt lat="43.34573" lon="5.22796">
        <ele>203</ele>
        <time>2015-04-16T13:15:28Z</time>
      </trkpt>
      <trkpt lat="43.34573" lon="5.22798">
        <ele>203</ele>
        <time>2015-04-16T13:15:29Z</time>
      </trkpt>
      <trkpt lat="43.34573" lon="5.228">
        <ele>203</ele>
        <time>2015-04-16T13:15:30Z</time>
      </trkpt>
      <trkpt lat="43.34573" lon="5.22802">
        <ele>203</ele>
        <time>2015-04-16T13:15:31Z</time>
      </trkpt>
      <trkpt lat="43.34573" lon="5.22804">
        <ele>204</ele>
        <time>2015-04-16T13:15:32Z</time>
      </trkpt>
      <trkpt lat="43.34573" lon="5.22806">
        <ele>204</ele>
        <time>2015-04-16T13:15:33Z</time>
      </trkpt>
      <trkpt lat="43.34573" lon="5.22808">
        <ele>204</ele>
        <time>2015-04-16T13:15:34Z</time>
      </trkpt>
      <trkpt lat="43.34574" lon="5.22811">
        <ele>204</ele>
        <time>2015-04-16T13:15:35Z</time>
      </trkpt>
      <trkpt lat="43.34574" lon="5.22813">
        <ele>204</ele>
        <time>2015-04-16T13:15:36Z</time>
      </trkpt>
      <trkpt lat="43.34574" lon="5.22815">
        <ele>204</ele>
        <time>2015-04-16T13:15:37Z</time>
      </trkpt>
      <trkpt lat="43.34574" lon="5.22817">
        <ele>204</ele>
        <time>2015-04-16T13:15:38Z</time>
      </trkpt>
      <trkpt lat="43.34575" lon="5.22819">
        <ele>204</ele>
        <time>2015-04-16T13:15:39Z</time>
      </trkpt>
      <trkpt lat="43.34577" lon="5.22821">
        <ele>204</ele>
        <time>2015-04-16T13:15:41Z</time>
      </trkpt>
      <trkpt lat="43.34578" lon="5.22821">
        <ele>204</ele>
        <time>2015-04-16T13:15:42Z</time>
      </trkpt>
      <trkpt lat="43.3458" lon="5.22821">
        <ele>204</ele>
        <time>2015-04-16T13:15:44Z</time>
      </trkpt>
      <trkpt lat="43.34581" lon="5.22822">
        <ele>204</ele>
        <time>2015-04-16T13:15:45Z</time>
      </trkpt>
      <trkpt lat="43.34583" lon="5.22822">
        <ele>204</ele>
        <time>2015-04-16T13:15:47Z</time>
      </trkpt>
      <trkpt lat="43.34585" lon="5.22822">
        <ele>204</ele>
        <time>2015-04-16T13:15:48Z</time>
      </trkpt>
      <trkpt lat="43.34586" lon="5.22823">
        <ele>204</ele>
        <time>2015-04-16T13:15:49Z</time>
      </trkpt>
      <trkpt lat="43.34587" lon="5.22823">
        <ele>204</ele>
        <time>2015-04-16T13:15:50Z</time>
      </trkpt>
      <trkpt lat="43.34589" lon="5.22824">
        <ele>204</ele>
        <time>2015-04-16T13:15:51Z</time>
      </trkpt>
      <trkpt lat="43.3459" lon="5.22824">
        <ele>204</ele>
        <time>2015-04-16T13:15:52Z</time>
      </trkpt>
      <trkpt lat="43.34592" lon="5.22824">
        <ele>204</ele>
        <time>2015-04-16T13:15:53Z</time>
      </trkpt>
      <trkpt lat="43.34593" lon="5.22823">
        <ele>204</ele>
        <time>2015-04-16T13:15:54Z</time>
      </trkpt>
      <trkpt lat="43.34595" lon="5.22823">
        <ele>204</ele>
        <time>2015-04-16T13:15:55Z</time>
      </trkpt>
      <trkpt lat="43.34597" lon="5.22822">
        <ele>204</ele>
        <time>2015-04-16T13:15:56Z</time>
      </trkpt>
      <trkpt lat="43.34598" lon="5.22822">
        <ele>204</ele>
        <time>2015-04-16T13:15:57Z</time>
      </trkpt>
      <trkpt lat="43.346" lon="5.22821">
        <ele>204</ele>
        <time>2015-04-16T13:15:58Z</time>
      </trkpt>
      <trkpt lat="43.34601" lon="5.22821">
        <ele>204</ele>
        <time>2015-04-16T13:15:59Z</time>
      </trkpt>
      <trkpt lat="43.34602" lon="5.2282">
        <ele>204</ele>
        <time>2015-04-16T13:16:00Z</time>
      </trkpt>
      <trkpt lat="43.34604" lon="5.22819">
        <ele>204</ele>
        <time>2015-04-16T13:16:01Z</time>
      </trkpt>
      <trkpt lat="43.34605" lon="5.22817">
        <ele>204</ele>
        <time>2015-04-16T13:16:02Z</time>
      </trkpt>
      <trkpt lat="43.34606" lon="5.22816">
        <ele>204</ele>
        <time>2015-04-16T13:16:03Z</time>
      </trkpt>
      <trkpt lat="43.34608" lon="5.22814">
        <ele>204</ele>
        <time>2015-04-16T13:16:04Z</time>
      </trkpt>
      <trkpt lat="43.34609" lon="5.22813">
        <ele>204</ele>
        <time>2015-04-16T13:16:05Z</time>
      </trkpt>
      <trkpt lat="43.3461" lon="5.22811">
        <ele>204</ele>
        <time>2015-04-16T13:16:06Z</time>
      </trkpt>
      <trkpt lat="43.34611" lon="5.2281">
        <ele>204</ele>
        <time>2015-04-16T13:16:07Z</time>
      </trkpt>
      <trkpt lat="43.34613" lon="5.22808">
        <ele>204</ele>
        <time>2015-04-16T13:16:08Z</time>
      </trkpt>
      <trkpt lat="43.34614" lon="5.22807">
        <ele>204</ele>
        <time>2015-04-16T13:16:09Z</time>
      </trkpt>
      <trkpt lat="43.34615" lon="5.22805">
        <ele>204</ele>
        <time>2015-04-16T13:16:10Z</time>
      </trkpt>
      <trkpt lat="43.34616" lon="5.22803">
        <ele>204</ele>
        <time>2015-04-16T13:16:11Z</time>
      </trkpt>
      <trkpt lat="43.34617" lon="5.22801">
        <ele>204</ele>
        <time>2015-04-16T13:16:12Z</time>
      </trkpt>
      <trkpt lat="43.34618" lon="5.228">
        <ele>204</ele>
        <time>2015-04-16T13:16:13Z</time>
      </trkpt>
      <trkpt lat="43.34619" lon="5.22798">
        <ele>204</ele>
        <time>2015-04-16T13:16:14Z</time>
      </trkpt>
      <trkpt lat="43.34621" lon="5.22796">
        <ele>204</ele>
        <time>2015-04-16T13:16:15Z</time>
      </trkpt>
      <trkpt lat="43.34622" lon="5.22795">
        <ele>204</ele>
        <time>2015-04-16T13:16:16Z</time>
      </trkpt>
      <trkpt lat="43.34623" lon="5.22793">
        <ele>204</ele>
        <time>2015-04-16T13:16:17Z</time>
      </trkpt>
      <trkpt lat="43.34624" lon="5.22791">
        <ele>204</ele>
        <time>2015-04-16T13:16:18Z</time>
      </trkpt>
      <trkpt lat="43.34625" lon="5.2279">
        <ele>204</ele>
        <time>2015-04-16T13:16:19Z</time>
      </trkpt>
      <trkpt lat="43.34626" lon="5.22788">
        <ele>204</ele>
        <time>2015-04-16T13:16:20Z</time>
      </trkpt>
      <trkpt lat="43.34627" lon="5.22786">
        <ele>204</ele>
        <time>2015-04-16T13:16:21Z</time>
      </trkpt>
      <trkpt lat="43.34628" lon="5.22785">
        <ele>204</ele>
        <time>2015-04-16T13:16:22Z</time>
      </trkpt>
      <trkpt lat="43.34629" lon="5.22783">
        <ele>204</ele>
        <time>2015-04-16T13:16:23Z</time>
      </trkpt>
      <trkpt lat="43.34631" lon="5.22781">
        <ele>204</ele>
        <time>2015-04-16T13:16:24Z</time>
      </trkpt>
      <trkpt lat="43.34631" lon="5.22779">
        <ele>204</ele>
        <time>2015-04-16T13:16:25Z</time>
      </trkpt>
      <trkpt lat="43.34633" lon="5.22778">
        <ele>204</ele>
        <time>2015-04-16T13:16:26Z</time>
      </trkpt>
      <trkpt lat="43.34634" lon="5.22776">
        <ele>204</ele>
        <time>2015-04-16T13:16:27Z</time>
      </trkpt>
      <trkpt lat="43.34635" lon="5.22774">
        <ele>204</ele>
        <time>2015-04-16T13:16:28Z</time>
      </trkpt>
      <trkpt lat="43.34636" lon="5.22773">
        <ele>204</ele>
        <time>2015-04-16T13:16:29Z</time>
      </trkpt>
      <trkpt lat="43.34637" lon="5.22771">
        <ele>204</ele>
        <time>2015-04-16T13:16:30Z</time>
      </trkpt>
      <trkpt lat="43.34638" lon="5.2277">
        <ele>204</ele>
        <time>2015-04-16T13:16:31Z</time>
      </trkpt>
      <trkpt lat="43.34639" lon="5.22768">
        <ele>204</ele>
        <time>2015-04-16T13:16:32Z</time>
      </trkpt>
      <trkpt lat="43.34641" lon="5.22766">
        <ele>204</ele>
        <time>2015-04-16T13:16:33Z</time>
      </trkpt>
      <trkpt lat="43.34642" lon="5.22765">
        <ele>204</ele>
        <time>2015-04-16T13:16:34Z</time>
      </trkpt>
      <trkpt lat="43.34643" lon="5.22763">
        <ele>204</ele>
        <time>2015-04-16T13:16:35Z</time>
      </trkpt>
      <trkpt lat="43.34644" lon="5.22761">
        <ele>204</ele>
        <time>2015-04-16T13:16:36Z</time>
      </trkpt>
      <trkpt lat="43.34645" lon="5.2276">
        <ele>204</ele>
        <time>2015-04-16T13:16:37Z</time>
      </trkpt>
      <trkpt lat="43.34646" lon="5.22758">
        <ele>203</ele>
        <time>2015-04-16T13:16:38Z</time>
      </trkpt>
      <trkpt lat="43.34647" lon="5.22757">
        <ele>203</ele>
        <time>2015-04-16T13:16:39Z</time>
      </trkpt>
      <trkpt lat="43.34648" lon="5.22755">
        <ele>203</ele>
        <time>2015-04-16T13:16:40Z</time>
      </trkpt>
      <trkpt lat="43.34649" lon="5.22753">
        <ele>203</ele>
        <time>2015-04-16T13:16:41Z</time>
      </trkpt>
      <trkpt lat="43.3465" lon="5.22752">
        <ele>203</ele>
        <time>2015-04-16T13:16:42Z</time>
      </trkpt>
      <trkpt lat="43.34651" lon="5.2275">
        <ele>203</ele>
        <time>2015-04-16T13:16:43Z</time>
      </trkpt>
      <trkpt lat="43.34652" lon="5.22748">
        <ele>203</ele>
        <time>2015-04-16T13:16:44Z</time>
      </trkpt>
      <trkpt lat="43.34653" lon="5.22747">
        <ele>203</ele>
        <time>2015-04-16T13:16:45Z</time>
      </trkpt>
      <trkpt lat="43.34654" lon="5.22745">
        <ele>203</ele>
        <time>2015-04-16T13:16:46Z</time>
      </trkpt>
      <trkpt lat="43.34655" lon="5.22743">
        <ele>203</ele>
        <time>2015-04-16T13:16:47Z</time>
      </trkpt>
      <trkpt lat="43.34655" lon="5.22741">
        <ele>203</ele>
        <time>2015-04-16T13:16:48Z</time>
      </trkpt>
      <trkpt lat="43.34656" lon="5.22739">
        <ele>202</ele>
        <time>2015-04-16T13:16:49Z</time>
      </trkpt>
      <trkpt lat="43.34657" lon="5.22737">
        <ele>202</ele>
        <time>2015-04-16T13:16:50Z</time>
      </trkpt>
      <trkpt lat="43.34658" lon="5.22736">
        <ele>202</ele>
        <time>2015-04-16T13:16:51Z</time>
      </trkpt>
      <trkpt lat="43.34658" lon="5.22734">
        <ele>202</ele>
        <time>2015-04-16T13:16:52Z</time>
      </trkpt>
      <trkpt lat="43.34659" lon="5.22733">
        <ele>202</ele>
        <time>2015-04-16T13:16:53Z</time>
      </trkpt>
      <trkpt lat="43.3466" lon="5.22731">
        <ele>202</ele>
        <time>2015-04-16T13:16:54Z</time>
      </trkpt>
      <trkpt lat="43.3466" lon="5.22729">
        <ele>201</ele>
        <time>2015-04-16T13:16:55Z</time>
      </trkpt>
      <trkpt lat="43.34661" lon="5.22728">
        <ele>201</ele>
        <time>2015-04-16T13:16:56Z</time>
      </trkpt>
      <trkpt lat="43.34662" lon="5.22726">
        <ele>201</ele>
        <time>2015-04-16T13:16:57Z</time>
      </trkpt>
      <trkpt lat="43.34663" lon="5.22725">
        <ele>201</ele>
        <time>2015-04-16T13:16:58Z</time>
      </trkpt>
      <trkpt lat="43.34665" lon="5.22723">
        <ele>201</ele>
        <time>2015-04-16T13:16:59Z</time>
      </trkpt>
      <trkpt lat="43.34666" lon="5.22722">
        <ele>200</ele>
        <time>2015-04-16T13:17:00Z</time>
      </trkpt>
      <trkpt lat="43.34668" lon="5.22721">
        <ele>200</ele>
        <time>2015-04-16T13:17:01Z</time>
      </trkpt>
      <trkpt lat="43.34669" lon="5.2272">
        <ele>200</ele>
        <time>2015-04-16T13:17:02Z</time>
      </trkpt>
      <trkpt lat="43.34671" lon="5.22719">
        <ele>200</ele>
        <time>2015-04-16T13:17:03Z</time>
      </trkpt>
      <trkpt lat="43.34673" lon="5.22718">
        <ele>199</ele>
        <time>2015-04-16T13:17:04Z</time>
      </trkpt>
      <trkpt lat="43.34674" lon="5.22717">
        <ele>199</ele>
        <time>2015-04-16T13:17:05Z</time>
      </trkpt>
      <trkpt lat="43.34675" lon="5.22716">
        <ele>199</ele>
        <time>2015-04-16T13:17:06Z</time>
      </trkpt>
      <trkpt lat="43.34677" lon="5.22715">
        <ele>199</ele>
        <time>2015-04-16T13:17:07Z</time>
      </trkpt>
      <trkpt lat="43.34678" lon="5.22714">
        <ele>199</ele>
        <time>2015-04-16T13:17:08Z</time>
      </trkpt>
      <trkpt lat="43.34679" lon="5.22713">
        <ele>198</ele>
        <time>2015-04-16T13:17:09Z</time>
      </trkpt>
      <trkpt lat="43.3468" lon="5.22711">
        <ele>198</ele>
        <time>2015-04-16T13:17:10Z</time>
      </trkpt>
      <trkpt lat="43.34682" lon="5.2271">
        <ele>198</ele>
        <time>2015-04-16T13:17:11Z</time>
      </trkpt>
      <trkpt lat="43.34683" lon="5.22709">
        <ele>198</ele>
        <time>2015-04-16T13:17:12Z</time>
      </trkpt>
      <trkpt lat="43.34684" lon="5.22707">
        <ele>198</ele>
        <time>2015-04-16T13:17:13Z</time>
      </trkpt>
      <trkpt lat="43.34685" lon="5.22706">
        <ele>198</ele>
        <time>2015-04-16T13:17:14Z</time>
      </trkpt>
      <trkpt lat="43.34687" lon="5.22704">
        <ele>197</ele>
        <time>2015-04-16T13:17:15Z</time>
      </trkpt>
      <trkpt lat="43.34688" lon="5.22703">
        <ele>197</ele>
        <time>2015-04-16T13:17:16Z</time>
      </trkpt>
      <trkpt lat="43.34689" lon="5.22701">
        <ele>197</ele>
        <time>2015-04-16T13:17:17Z</time>
      </trkpt>
      <trkpt lat="43.3469" lon="5.22699">
        <ele>197</ele>
        <time>2015-04-16T13:17:18Z</time>
      </trkpt>
      <trkpt lat="43.34691" lon="5.22698">
        <ele>197</ele>
        <time>2015-04-16T13:17:19Z</time>
      </trkpt>
      <trkpt lat="43.34692" lon="5.22696">
        <ele>197</ele>
        <time>2015-04-16T13:17:20Z</time>
      </trkpt>
      <trkpt lat="43.34692" lon="5.22694">
        <ele>197</ele>
        <time>2015-04-16T13:17:21Z</time>
      </trkpt>
      <trkpt lat="43.34693" lon="5.22692">
        <ele>197</ele>
        <time>2015-04-16T13:17:22Z</time>
      </trkpt>
      <trkpt lat="43.34694" lon="5.2269">
        <ele>196</ele>
        <time>2015-04-16T13:17:23Z</time>
      </trkpt>
      <trkpt lat="43.34695" lon="5.22688">
        <ele>196</ele>
        <time>2015-04-16T13:17:24Z</time>
      </trkpt>
      <trkpt lat="43.34696" lon="5.22686">
        <ele>196</ele>
        <time>2015-04-16T13:17:25Z</time>
      </trkpt>
      <trkpt lat="43.34696" lon="5.22684">
        <ele>196</ele>
        <time>2015-04-16T13:17:26Z</time>
      </trkpt>
      <trkpt lat="43.34697" lon="5.22682">
        <ele>196</ele>
        <time>2015-04-16T13:17:27Z</time>
      </trkpt>
      <trkpt lat="43.34697" lon="5.2268">
        <ele>195</ele>
        <time>2015-04-16T13:17:28Z</time>
      </trkpt>
      <trkpt lat="43.34697" lon="5.22678">
        <ele>195</ele>
        <time>2015-04-16T13:17:29Z</time>
      </trkpt>
      <trkpt lat="43.34698" lon="5.22676">
        <ele>195</ele>
        <time>2015-04-16T13:17:30Z</time>
      </trkpt>
      <trkpt lat="43.34698" lon="5.22673">
        <ele>195</ele>
        <time>2015-04-16T13:17:31Z</time>
      </trkpt>
      <trkpt lat="43.34698" lon="5.22671">
        <ele>195</ele>
        <time>2015-04-16T13:17:32Z</time>
      </trkpt>
      <trkpt lat="43.34697" lon="5.22669">
        <ele>195</ele>
        <time>2015-04-16T13:17:33Z</time>
      </trkpt>
      <trkpt lat="43.34697" lon="5.22667">
        <ele>195</ele>
        <time>2015-04-16T13:17:34Z</time>
      </trkpt>
      <trkpt lat="43.34697" lon="5.22664">
        <ele>195</ele>
        <time>2015-04-16T13:17:35Z</time>
      </trkpt>
      <trkpt lat="43.34697" lon="5.22662">
        <ele>195</ele>
        <time>2015-04-16T13:17:36Z</time>
      </trkpt>
      <trkpt lat="43.34697" lon="5.2266">
        <ele>194</ele>
        <time>2015-04-16T13:17:37Z</time>
      </trkpt>
      <trkpt lat="43.34697" lon="5.22658">
        <ele>194</ele>
        <time>2015-04-16T13:17:38Z</time>
      </trkpt>
      <trkpt lat="43.34697" lon="5.22655">
        <ele>194</ele>
        <time>2015-04-16T13:17:39Z</time>
      </trkpt>
      <trkpt lat="43.34697" lon="5.22653">
        <ele>194</ele>
        <time>2015-04-16T13:17:40Z</time>
      </trkpt>
      <trkpt lat="43.34697" lon="5.22651">
        <ele>194</ele>
        <time>2015-04-16T13:17:41Z</time>
      </trkpt>
      <trkpt lat="43.34698" lon="5.22648">
        <ele>194</ele>
        <time>2015-04-16T13:17:42Z</time>
      </trkpt>
      <trkpt lat="43.34698" lon="5.22646">
        <ele>194</ele>
        <time>2015-04-16T13:17:43Z</time>
      </trkpt>
      <trkpt lat="43.34698" lon="5.22644">
        <ele>194</ele>
        <time>2015-04-16T13:17:44Z</time>
      </trkpt>
      <trkpt lat="43.34698" lon="5.22642">
        <ele>194</ele>
        <time>2015-04-16T13:17:45Z</time>
      </trkpt>
      <trkpt lat="43.34699" lon="5.2264">
        <ele>194</ele>
        <time>2015-04-16T13:17:46Z</time>
      </trkpt>
      <trkpt lat="43.34699" lon="5.22638">
        <ele>194</ele>
        <time>2015-04-16T13:17:47Z</time>
      </trkpt>
      <trkpt lat="43.347" lon="5.22635">
        <ele>194</ele>
        <time>2015-04-16T13:17:48Z</time>
      </trkpt>
      <trkpt lat="43.347" lon="5.22633">
        <ele>194</ele>
        <time>2015-04-16T13:17:49Z</time>
      </trkpt>
      <trkpt lat="43.347" lon="5.22631">
        <ele>194</ele>
        <time>2015-04-16T13:17:50Z</time>
      </trkpt>
      <trkpt lat="43.34701" lon="5.22629">
        <ele>194</ele>
        <time>2015-04-16T13:17:51Z</time>
      </trkpt>
      <trkpt lat="43.34701" lon="5.22626">
        <ele>194</ele>
        <time>2015-04-16T13:17:52Z</time>
      </trkpt>
      <trkpt lat="43.34702" lon="5.22624">
        <ele>194</ele>
        <time>2015-04-16T13:17:53Z</time>
      </trkpt>
      <trkpt lat="43.34702" lon="5.22622">
        <ele>194</ele>
        <time>2015-04-16T13:17:54Z</time>
      </trkpt>
      <trkpt lat="43.34703" lon="5.2262">
        <ele>194</ele>
        <time>2015-04-16T13:17:55Z</time>
      </trkpt>
      <trkpt lat="43.34703" lon="5.22618">
        <ele>194</ele>
        <time>2015-04-16T13:17:56Z</time>
      </trkpt>
      <trkpt lat="43.34704" lon="5.22616">
        <ele>194</ele>
        <time>2015-04-16T13:17:57Z</time>
      </trkpt>
      <trkpt lat="43.34705" lon="5.22614">
        <ele>194</ele>
        <time>2015-04-16T13:17:58Z</time>
      </trkpt>
      <trkpt lat="43.34705" lon="5.22613">
        <ele>194</ele>
        <time>2015-04-16T13:17:59Z</time>
      </trkpt>
      <trkpt lat="43.34705" lon="5.22611">
        <ele>194</ele>
        <time>2015-04-16T13:18:00Z</time>
      </trkpt>
      <trkpt lat="43.34706" lon="5.22609">
        <ele>194</ele>
        <time>2015-04-16T13:18:01Z</time>
      </trkpt>
      <trkpt lat="43.34706" lon="5.22607">
        <ele>194</ele>
        <time>2015-04-16T13:18:02Z</time>
      </trkpt>
      <trkpt lat="43.34706" lon="5.22605">
        <ele>194</ele>
        <time>2015-04-16T13:18:03Z</time>
      </trkpt>
      <trkpt lat="43.34706" lon="5.22603">
        <ele>194</ele>
        <time>2015-04-16T13:18:04Z</time>
      </trkpt>
      <trkpt lat="43.34706" lon="5.226">
        <ele>194</ele>
        <time>2015-04-16T13:18:05Z</time>
      </trkpt>
      <trkpt lat="43.34706" lon="5.22598">
        <ele>194</ele>
        <time>2015-04-16T13:18:06Z</time>
      </trkpt>
      <trkpt lat="43.34706" lon="5.22596">
        <ele>194</ele>
        <time>2015-04-16T13:18:07Z</time>
      </trkpt>
      <trkpt lat="43.34707" lon="5.22594">
        <ele>194</ele>
        <time>2015-04-16T13:18:08Z</time>
      </trkpt>
      <trkpt lat="43.34707" lon="5.22592">
        <ele>194</ele>
        <time>2015-04-16T13:18:09Z</time>
      </trkpt>
      <trkpt lat="43.34707" lon="5.22589">
        <ele>194</ele>
        <time>2015-04-16T13:18:10Z</time>
      </trkpt>
      <trkpt lat="43.34707" lon="5.22587">
        <ele>194</ele>
        <time>2015-04-16T13:18:11Z</time>
      </trkpt>
      <trkpt lat="43.34707" lon="5.22585">
        <ele>193</ele>
        <time>2015-04-16T13:18:12Z</time>
      </trkpt>
      <trkpt lat="43.34707" lon="5.22583">
        <ele>193</ele>
        <time>2015-04-16T13:18:13Z</time>
      </trkpt>
      <trkpt lat="43.34707" lon="5.22581">
        <ele>193</ele>
        <time>2015-04-16T13:18:14Z</time>
      </trkpt>
      <trkpt lat="43.34707" lon="5.22579">
        <ele>193</ele>
        <time>2015-04-16T13:18:15Z</time>
      </trkpt>
      <trkpt lat="43.34707" lon="5.22576">
        <ele>193</ele>
        <time>2015-04-16T13:18:16Z</time>
      </trkpt>
      <trkpt lat="43.34707" lon="5.22574">
        <ele>193</ele>
        <time>2015-04-16T13:18:17Z</time>
      </trkpt>
      <trkpt lat="43.34707" lon="5.22572">
        <ele>193</ele>
        <time>2015-04-16T13:18:18Z</time>
      </trkpt>
      <trkpt lat="43.34707" lon="5.2257">
        <ele>193</ele>
        <time>2015-04-16T13:18:19Z</time>
      </trkpt>
      <trkpt lat="43.34707" lon="5.22568">
        <ele>193</ele>
        <time>2015-04-16T13:18:20Z</time>
      </trkpt>
      <trkpt lat="43.34707" lon="5.22566">
        <ele>193</ele>
        <time>2015-04-16T13:18:21Z</time>
      </trkpt>
      <trkpt lat="43.34707" lon="5.22563">
        <ele>193</ele>
        <time>2015-04-16T13:18:22Z</time>
      </trkpt>
      <trkpt lat="43.34707" lon="5.22561">
        <ele>193</ele>
        <time>2015-04-16T13:18:23Z</time>
      </trkpt>
      <trkpt lat="43.34707" lon="5.22559">
        <ele>193</ele>
        <time>2015-04-16T13:18:24Z</time>
      </trkpt>
      <trkpt lat="43.34707" lon="5.22556">
        <ele>193</ele>
        <time>2015-04-16T13:18:25Z</time>
      </trkpt>
      <trkpt lat="43.34707" lon="5.22554">
        <ele>193</ele>
        <time>2015-04-16T13:18:26Z</time>
      </trkpt>
      <trkpt lat="43.34707" lon="5.22552">
        <ele>192</ele>
        <time>2015-04-16T13:18:27Z</time>
      </trkpt>
      <trkpt lat="43.34708" lon="5.2255">
        <ele>192</ele>
        <time>2015-04-16T13:18:28Z</time>
      </trkpt>
      <trkpt lat="43.34708" lon="5.22548">
        <ele>192</ele>
        <time>2015-04-16T13:18:29Z</time>
      </trkpt>
      <trkpt lat="43.34708" lon="5.22546">
        <ele>192</ele>
        <time>2015-04-16T13:18:30Z</time>
      </trkpt>
      <trkpt lat="43.34708" lon="5.22543">
        <ele>192</ele>
        <time>2015-04-16T13:18:31Z</time>
      </trkpt>
      <trkpt lat="43.34708" lon="5.22542">
        <ele>191</ele>
        <time>2015-04-16T13:18:32Z</time>
      </trkpt>
      <trkpt lat="43.34709" lon="5.22539">
        <ele>191</ele>
        <time>2015-04-16T13:18:33Z</time>
      </trkpt>
      <trkpt lat="43.34709" lon="5.22537">
        <ele>191</ele>
        <time>2015-04-16T13:18:34Z</time>
      </trkpt>
      <trkpt lat="43.34709" lon="5.22535">
        <ele>191</ele>
        <time>2015-04-16T13:18:35Z</time>
      </trkpt>
      <trkpt lat="43.3471" lon="5.22533">
        <ele>191</ele>
        <time>2015-04-16T13:18:36Z</time>
      </trkpt>
      <trkpt lat="43.3471" lon="5.22531">
        <ele>191</ele>
        <time>2015-04-16T13:18:37Z</time>
      </trkpt>
      <trkpt lat="43.3471" lon="5.22528">
        <ele>191</ele>
        <time>2015-04-16T13:18:38Z</time>
      </trkpt>
      <trkpt lat="43.3471" lon="5.22526">
        <ele>191</ele>
        <time>2015-04-16T13:18:39Z</time>
      </trkpt>
      <trkpt lat="43.3471" lon="5.22523">
        <ele>191</ele>
        <time>2015-04-16T13:18:40Z</time>
      </trkpt>
      <trkpt lat="43.3471" lon="5.22521">
        <ele>191</ele>
        <time>2015-04-16T13:18:41Z</time>
      </trkpt>
      <trkpt lat="43.3471" lon="5.22519">
        <ele>191</ele>
        <time>2015-04-16T13:18:42Z</time>
      </trkpt>
      <trkpt lat="43.34711" lon="5.22517">
        <ele>191</ele>
        <time>2015-04-16T13:18:43Z</time>
      </trkpt>
      <trkpt lat="43.34711" lon="5.22514">
        <ele>191</ele>
        <time>2015-04-16T13:18:44Z</time>
      </trkpt>
      <trkpt lat="43.34711" lon="5.22512">
        <ele>191</ele>
        <time>2015-04-16T13:18:45Z</time>
      </trkpt>
      <trkpt lat="43.34711" lon="5.2251">
        <ele>191</ele>
        <time>2015-04-16T13:18:46Z</time>
      </trkpt>
      <trkpt lat="43.34712" lon="5.22507">
        <ele>191</ele>
        <time>2015-04-16T13:18:47Z</time>
      </trkpt>
      <trkpt lat="43.34712" lon="5.22505">
        <ele>190</ele>
        <time>2015-04-16T13:18:48Z</time>
      </trkpt>
      <trkpt lat="43.34712" lon="5.22503">
        <ele>190</ele>
        <time>2015-04-16T13:18:49Z</time>
      </trkpt>
      <trkpt lat="43.34712" lon="5.22501">
        <ele>190</ele>
        <time>2015-04-16T13:18:50Z</time>
      </trkpt>
      <trkpt lat="43.34713" lon="5.22499">
        <ele>190</ele>
        <time>2015-04-16T13:18:51Z</time>
      </trkpt>
      <trkpt lat="43.34713" lon="5.22496">
        <ele>190</ele>
        <time>2015-04-16T13:18:52Z</time>
      </trkpt>
      <trkpt lat="43.34713" lon="5.22494">
        <ele>190</ele>
        <time>2015-04-16T13:18:53Z</time>
      </trkpt>
      <trkpt lat="43.34713" lon="5.22491">
        <ele>189</ele>
        <time>2015-04-16T13:18:54Z</time>
      </trkpt>
      <trkpt lat="43.34713" lon="5.22489">
        <ele>189</ele>
        <time>2015-04-16T13:18:55Z</time>
      </trkpt>
      <trkpt lat="43.34713" lon="5.22486">
        <ele>189</ele>
        <time>2015-04-16T13:18:56Z</time>
      </trkpt>
      <trkpt lat="43.34713" lon="5.22484">
        <ele>189</ele>
        <time>2015-04-16T13:18:57Z</time>
      </trkpt>
      <trkpt lat="43.34713" lon="5.22482">
        <ele>189</ele>
        <time>2015-04-16T13:18:58Z</time>
      </trkpt>
      <trkpt lat="43.34713" lon="5.2248">
        <ele>188</ele>
        <time>2015-04-16T13:18:59Z</time>
      </trkpt>
      <trkpt lat="43.34713" lon="5.22477">
        <ele>188</ele>
        <time>2015-04-16T13:19:00Z</time>
      </trkpt>
      <trkpt lat="43.34714" lon="5.22475">
        <ele>188</ele>
        <time>2015-04-16T13:19:01Z</time>
      </trkpt>
      <trkpt lat="43.34714" lon="5.22473">
        <ele>188</ele>
        <time>2015-04-16T13:19:02Z</time>
      </trkpt>
      <trkpt lat="43.34714" lon="5.22471">
        <ele>188</ele>
        <time>2015-04-16T13:19:03Z</time>
      </trkpt>
      <trkpt lat="43.34714" lon="5.22469">
        <ele>188</ele>
        <time>2015-04-16T13:19:04Z</time>
      </trkpt>
      <trkpt lat="43.34714" lon="5.22467">
        <ele>188</ele>
        <time>2015-04-16T13:19:05Z</time>
      </trkpt>
      <trkpt lat="43.34714" lon="5.22464">
        <ele>188</ele>
        <time>2015-04-16T13:19:06Z</time>
      </trkpt>
      <trkpt lat="43.34714" lon="5.22462">
        <ele>188</ele>
        <time>2015-04-16T13:19:07Z</time>
      </trkpt>
      <trkpt lat="43.34714" lon="5.2246">
        <ele>188</ele>
        <time>2015-04-16T13:19:08Z</time>
      </trkpt>
      <trkpt lat="43.34714" lon="5.22458">
        <ele>188</ele>
        <time>2015-04-16T13:19:09Z</time>
      </trkpt>
      <trkpt lat="43.34714" lon="5.22455">
        <ele>188</ele>
        <time>2015-04-16T13:19:10Z</time>
      </trkpt>
      <trkpt lat="43.34714" lon="5.22453">
        <ele>187</ele>
        <time>2015-04-16T13:19:11Z</time>
      </trkpt>
      <trkpt lat="43.34715" lon="5.2245">
        <ele>187</ele>
        <time>2015-04-16T13:19:12Z</time>
      </trkpt>
      <trkpt lat="43.34715" lon="5.22448">
        <ele>187</ele>
        <time>2015-04-16T13:19:13Z</time>
      </trkpt>
      <trkpt lat="43.34715" lon="5.22446">
        <ele>186</ele>
        <time>2015-04-16T13:19:14Z</time>
      </trkpt>
      <trkpt lat="43.34716" lon="5.22444">
        <ele>186</ele>
        <time>2015-04-16T13:19:15Z</time>
      </trkpt>
      <trkpt lat="43.34716" lon="5.22442">
        <ele>186</ele>
        <time>2015-04-16T13:19:16Z</time>
      </trkpt>
      <trkpt lat="43.34716" lon="5.22439">
        <ele>186</ele>
        <time>2015-04-16T13:19:17Z</time>
      </trkpt>
      <trkpt lat="43.34716" lon="5.22437">
        <ele>185</ele>
        <time>2015-04-16T13:19:18Z</time>
      </trkpt>
      <trkpt lat="43.34716" lon="5.22435">
        <ele>185</ele>
        <time>2015-04-16T13:19:19Z</time>
      </trkpt>
      <trkpt lat="43.34717" lon="5.22432">
        <ele>185</ele>
        <time>2015-04-16T13:19:20Z</time>
      </trkpt>
      <trkpt lat="43.34717" lon="5.2243">
        <ele>185</ele>
        <time>2015-04-16T13:19:21Z</time>
      </trkpt>
      <trkpt lat="43.34717" lon="5.22428">
        <ele>185</ele>
        <time>2015-04-16T13:19:22Z</time>
      </trkpt>
      <trkpt lat="43.34717" lon="5.22425">
        <ele>185</ele>
        <time>2015-04-16T13:19:23Z</time>
      </trkpt>
      <trkpt lat="43.34718" lon="5.22423">
        <ele>185</ele>
        <time>2015-04-16T13:19:24Z</time>
      </trkpt>
      <trkpt lat="43.34718" lon="5.22421">
        <ele>185</ele>
        <time>2015-04-16T13:19:25Z</time>
      </trkpt>
      <trkpt lat="43.34718" lon="5.22418">
        <ele>185</ele>
        <time>2015-04-16T13:19:26Z</time>
      </trkpt>
      <trkpt lat="43.34718" lon="5.22416">
        <ele>185</ele>
        <time>2015-04-16T13:19:27Z</time>
      </trkpt>
      <trkpt lat="43.34718" lon="5.22414">
        <ele>185</ele>
        <time>2015-04-16T13:19:28Z</time>
      </trkpt>
      <trkpt lat="43.34718" lon="5.22411">
        <ele>184</ele>
        <time>2015-04-16T13:19:29Z</time>
      </trkpt>
      <trkpt lat="43.34718" lon="5.22409">
        <ele>184</ele>
        <time>2015-04-16T13:19:30Z</time>
      </trkpt>
      <trkpt lat="43.34718" lon="5.22407">
        <ele>184</ele>
        <time>2015-04-16T13:19:31Z</time>
      </trkpt>
      <trkpt lat="43.34718" lon="5.22404">
        <ele>184</ele>
        <time>2015-04-16T13:19:32Z</time>
      </trkpt>
      <trkpt lat="43.34719" lon="5.22402">
        <ele>184</ele>
        <time>2015-04-16T13:19:33Z</time>
      </trkpt>
      <trkpt lat="43.34719" lon="5.224">
        <ele>184</ele>
        <time>2015-04-16T13:19:34Z</time>
      </trkpt>
      <trkpt lat="43.34719" lon="5.22398">
        <ele>184</ele>
        <time>2015-04-16T13:19:35Z</time>
      </trkpt>
      <trkpt lat="43.34719" lon="5.22396">
        <ele>184</ele>
        <time>2015-04-16T13:19:36Z</time>
      </trkpt>
      <trkpt lat="43.34719" lon="5.22393">
        <ele>184</ele>
        <time>2015-04-16T13:19:37Z</time>
      </trkpt>
      <trkpt lat="43.34719" lon="5.22391">
        <ele>184</ele>
        <time>2015-04-16T13:19:38Z</time>
      </trkpt>
      <trkpt lat="43.3472" lon="5.22389">
        <ele>183</ele>
        <time>2015-04-16T13:19:39Z</time>
      </trkpt>
      <trkpt lat="43.3472" lon="5.22387">
        <ele>183</ele>
        <time>2015-04-16T13:19:40Z</time>
      </trkpt>
      <trkpt lat="43.34721" lon="5.22385">
        <ele>183</ele>
        <time>2015-04-16T13:19:41Z</time>
      </trkpt>
      <trkpt lat="43.34721" lon="5.22382">
        <ele>183</ele>
        <time>2015-04-16T13:19:42Z</time>
      </trkpt>
      <trkpt lat="43.34721" lon="5.2238">
        <ele>183</ele>
        <time>2015-04-16T13:19:43Z</time>
      </trkpt>
      <trkpt lat="43.34721" lon="5.22378">
        <ele>183</ele>
        <time>2015-04-16T13:19:44Z</time>
      </trkpt>
      <trkpt lat="43.34722" lon="5.22376">
        <ele>183</ele>
        <time>2015-04-16T13:19:45Z</time>
      </trkpt>
      <trkpt lat="43.34722" lon="5.22374">
        <ele>183</ele>
        <time>2015-04-16T13:19:46Z</time>
      </trkpt>
      <trkpt lat="43.34723" lon="5.22372">
        <ele>183</ele>
        <time>2015-04-16T13:19:47Z</time>
      </trkpt>
      <trkpt lat="43.34723" lon="5.2237">
        <ele>183</ele>
        <time>2015-04-16T13:19:48Z</time>
      </trkpt>
      <trkpt lat="43.34724" lon="5.22368">
        <ele>183</ele>
        <time>2015-04-16T13:19:49Z</time>
      </trkpt>
      <trkpt lat="43.34725" lon="5.22366">
        <ele>183</ele>
        <time>2015-04-16T13:19:50Z</time>
      </trkpt>
      <trkpt lat="43.34726" lon="5.22364">
        <ele>183</ele>
        <time>2015-04-16T13:19:51Z</time>
      </trkpt>
      <trkpt lat="43.34726" lon="5.22362">
        <ele>183</ele>
        <time>2015-04-16T13:19:52Z</time>
      </trkpt>
      <trkpt lat="43.34727" lon="5.2236">
        <ele>183</ele>
        <time>2015-04-16T13:19:53Z</time>
      </trkpt>
      <trkpt lat="43.34728" lon="5.22358">
        <ele>182</ele>
        <time>2015-04-16T13:19:54Z</time>
      </trkpt>
      <trkpt lat="43.34728" lon="5.22356">
        <ele>182</ele>
        <time>2015-04-16T13:19:55Z</time>
      </trkpt>
      <trkpt lat="43.34729" lon="5.22354">
        <ele>182</ele>
        <time>2015-04-16T13:19:56Z</time>
      </trkpt>
      <trkpt lat="43.34729" lon="5.22352">
        <ele>182</ele>
        <time>2015-04-16T13:19:57Z</time>
      </trkpt>
      <trkpt lat="43.34729" lon="5.2235">
        <ele>182</ele>
        <time>2015-04-16T13:19:58Z</time>
      </trkpt>
      <trkpt lat="43.3473" lon="5.22347">
        <ele>182</ele>
        <time>2015-04-16T13:19:59Z</time>
      </trkpt>
      <trkpt lat="43.3473" lon="5.22345">
        <ele>182</ele>
        <time>2015-04-16T13:20:00Z</time>
      </trkpt>
      <trkpt lat="43.34731" lon="5.22343">
        <ele>182</ele>
        <time>2015-04-16T13:20:01Z</time>
      </trkpt>
      <trkpt lat="43.34731" lon="5.22341">
        <ele>182</ele>
        <time>2015-04-16T13:20:02Z</time>
      </trkpt>
      <trkpt lat="43.34732" lon="5.22339">
        <ele>182</ele>
        <time>2015-04-16T13:20:03Z</time>
      </trkpt>
      <trkpt lat="43.34732" lon="5.22337">
        <ele>182</ele>
        <time>2015-04-16T13:20:04Z</time>
      </trkpt>
      <trkpt lat="43.34733" lon="5.22335">
        <ele>182</ele>
        <time>2015-04-16T13:20:05Z</time>
      </trkpt>
      <trkpt lat="43.34734" lon="5.22333">
        <ele>182</ele>
        <time>2015-04-16T13:20:06Z</time>
      </trkpt>
      <trkpt lat="43.34734" lon="5.22332">
        <ele>182</ele>
        <time>2015-04-16T13:20:07Z</time>
      </trkpt>
      <trkpt lat="43.34735" lon="5.2233">
        <ele>182</ele>
        <time>2015-04-16T13:20:08Z</time>
      </trkpt>
      <trkpt lat="43.34735" lon="5.22328">
        <ele>181</ele>
        <time>2015-04-16T13:20:09Z</time>
      </trkpt>
      <trkpt lat="43.34736" lon="5.22326">
        <ele>181</ele>
        <time>2015-04-16T13:20:10Z</time>
      </trkpt>
      <trkpt lat="43.34737" lon="5.22324">
        <ele>181</ele>
        <time>2015-04-16T13:20:11Z</time>
      </trkpt>
      <trkpt lat="43.34737" lon="5.22322">
        <ele>181</ele>
        <time>2015-04-16T13:20:12Z</time>
      </trkpt>
      <trkpt lat="43.34737" lon="5.2232">
        <ele>181</ele>
        <time>2015-04-16T13:20:13Z</time>
      </trkpt>
      <trkpt lat="43.34737" lon="5.22318">
        <ele>181</ele>
        <time>2015-04-16T13:20:14Z</time>
      </trkpt>
      <trkpt lat="43.34737" lon="5.22316">
        <ele>181</ele>
        <time>2015-04-16T13:20:15Z</time>
      </trkpt>
      <trkpt lat="43.34737" lon="5.22313">
        <ele>181</ele>
        <time>2015-04-16T13:20:16Z</time>
      </trkpt>
      <trkpt lat="43.34737" lon="5.22311">
        <ele>181</ele>
        <time>2015-04-16T13:20:17Z</time>
      </trkpt>
      <trkpt lat="43.34737" lon="5.22309">
        <ele>181</ele>
        <time>2015-04-16T13:20:18Z</time>
      </trkpt>
      <trkpt lat="43.34737" lon="5.22307">
        <ele>181</ele>
        <time>2015-04-16T13:20:19Z</time>
      </trkpt>
      <trkpt lat="43.34737" lon="5.22305">
        <ele>181</ele>
        <time>2015-04-16T13:20:20Z</time>
      </trkpt>
      <trkpt lat="43.34737" lon="5.22302">
        <ele>181</ele>
        <time>2015-04-16T13:20:21Z</time>
      </trkpt>
      <trkpt lat="43.34737" lon="5.223">
        <ele>181</ele>
        <time>2015-04-16T13:20:22Z</time>
      </trkpt>
      <trkpt lat="43.34736" lon="5.22298">
        <ele>181</ele>
        <time>2015-04-16T13:20:23Z</time>
      </trkpt>
      <trkpt lat="43.34736" lon="5.22296">
        <ele>181</ele>
        <time>2015-04-16T13:20:24Z</time>
      </trkpt>
      <trkpt lat="43.34736" lon="5.22294">
        <ele>181</ele>
        <time>2015-04-16T13:20:25Z</time>
      </trkpt>
      <trkpt lat="43.34735" lon="5.22292">
        <ele>181</ele>
        <time>2015-04-16T13:20:26Z</time>
      </trkpt>
      <trkpt lat="43.34735" lon="5.2229">
        <ele>181</ele>
        <time>2015-04-16T13:20:27Z</time>
      </trkpt>
      <trkpt lat="43.34735" lon="5.22288">
        <ele>181</ele>
        <time>2015-04-16T13:20:28Z</time>
      </trkpt>
      <trkpt lat="43.34735" lon="5.22286">
        <ele>181</ele>
        <time>2015-04-16T13:20:29Z</time>
      </trkpt>
      <trkpt lat="43.34734" lon="5.22284">
        <ele>181</ele>
        <time>2015-04-16T13:20:30Z</time>
      </trkpt>
      <trkpt lat="43.34734" lon="5.22281">
        <ele>181</ele>
        <time>2015-04-16T13:20:31Z</time>
      </trkpt>
      <trkpt lat="43.34734" lon="5.22279">
        <ele>181</ele>
        <time>2015-04-16T13:20:32Z</time>
      </trkpt>
      <trkpt lat="43.34734" lon="5.22277">
        <ele>181</ele>
        <time>2015-04-16T13:20:33Z</time>
      </trkpt>
      <trkpt lat="43.34734" lon="5.22274">
        <ele>181</ele>
        <time>2015-04-16T13:20:34Z</time>
      </trkpt>
      <trkpt lat="43.34734" lon="5.22272">
        <ele>181</ele>
        <time>2015-04-16T13:20:35Z</time>
      </trkpt>
      <trkpt lat="43.34734" lon="5.2227">
        <ele>181</ele>
        <time>2015-04-16T13:20:36Z</time>
      </trkpt>
      <trkpt lat="43.34735" lon="5.22267">
        <ele>181</ele>
        <time>2015-04-16T13:20:37Z</time>
      </trkpt>
      <trkpt lat="43.34735" lon="5.22265">
        <ele>181</ele>
        <time>2015-04-16T13:20:38Z</time>
      </trkpt>
      <trkpt lat="43.34735" lon="5.22263">
        <ele>181</ele>
        <time>2015-04-16T13:20:39Z</time>
      </trkpt>
      <trkpt lat="43.34736" lon="5.22261">
        <ele>181</ele>
        <time>2015-04-16T13:20:40Z</time>
      </trkpt>
      <trkpt lat="43.34737" lon="5.22259">
        <ele>181</ele>
        <time>2015-04-16T13:20:41Z</time>
      </trkpt>
      <trkpt lat="43.34737" lon="5.22257">
        <ele>181</ele>
        <time>2015-04-16T13:20:42Z</time>
      </trkpt>
      <trkpt lat="43.34737" lon="5.22255">
        <ele>181</ele>
        <time>2015-04-16T13:20:43Z</time>
      </trkpt>
      <trkpt lat="43.34738" lon="5.22253">
        <ele>181</ele>
        <time>2015-04-16T13:20:44Z</time>
      </trkpt>
      <trkpt lat="43.34738" lon="5.2225">
        <ele>181</ele>
        <time>2015-04-16T13:20:45Z</time>
      </trkpt>
      <trkpt lat="43.34739" lon="5.22248">
        <ele>181</ele>
        <time>2015-04-16T13:20:46Z</time>
      </trkpt>
      <trkpt lat="43.34739" lon="5.22246">
        <ele>180</ele>
        <time>2015-04-16T13:20:47Z</time>
      </trkpt>
      <trkpt lat="43.3474" lon="5.22244">
        <ele>180</ele>
        <time>2015-04-16T13:20:48Z</time>
      </trkpt>
      <trkpt lat="43.3474" lon="5.22242">
        <ele>180</ele>
        <time>2015-04-16T13:20:49Z</time>
      </trkpt>
      <trkpt lat="43.34741" lon="5.2224">
        <ele>180</ele>
        <time>2015-04-16T13:20:50Z</time>
      </trkpt>
      <trkpt lat="43.34742" lon="5.22238">
        <ele>180</ele>
        <time>2015-04-16T13:20:51Z</time>
      </trkpt>
      <trkpt lat="43.34742" lon="5.22236">
        <ele>180</ele>
        <time>2015-04-16T13:20:52Z</time>
      </trkpt>
      <trkpt lat="43.34743" lon="5.22234">
        <ele>180</ele>
        <time>2015-04-16T13:20:53Z</time>
      </trkpt>
      <trkpt lat="43.34744" lon="5.22232">
        <ele>180</ele>
        <time>2015-04-16T13:20:54Z</time>
      </trkpt>
      <trkpt lat="43.34745" lon="5.2223">
        <ele>180</ele>
        <time>2015-04-16T13:20:55Z</time>
      </trkpt>
      <trkpt lat="43.34746" lon="5.22228">
        <ele>180</ele>
        <time>2015-04-16T13:20:56Z</time>
      </trkpt>
      <trkpt lat="43.34747" lon="5.22227">
        <ele>179</ele>
        <time>2015-04-16T13:20:57Z</time>
      </trkpt>
      <trkpt lat="43.34748" lon="5.22225">
        <ele>179</ele>
        <time>2015-04-16T13:20:58Z</time>
      </trkpt>
      <trkpt lat="43.34749" lon="5.22224">
        <ele>179</ele>
        <time>2015-04-16T13:20:59Z</time>
      </trkpt>
      <trkpt lat="43.3475" lon="5.22222">
        <ele>179</ele>
        <time>2015-04-16T13:21:00Z</time>
      </trkpt>
      <trkpt lat="43.34751" lon="5.2222">
        <ele>179</ele>
        <time>2015-04-16T13:21:01Z</time>
      </trkpt>
      <trkpt lat="43.34752" lon="5.22218">
        <ele>179</ele>
        <time>2015-04-16T13:21:02Z</time>
      </trkpt>
      <trkpt lat="43.34752" lon="5.22217">
        <ele>179</ele>
        <time>2015-04-16T13:21:03Z</time>
      </trkpt>
      <trkpt lat="43.34753" lon="5.22215">
        <ele>179</ele>
        <time>2015-04-16T13:21:04Z</time>
      </trkpt>
      <trkpt lat="43.34754" lon="5.22213">
        <ele>178</ele>
        <time>2015-04-16T13:21:05Z</time>
      </trkpt>
      <trkpt lat="43.34755" lon="5.22211">
        <ele>178</ele>
        <time>2015-04-16T13:21:06Z</time>
      </trkpt>
      <trkpt lat="43.34755" lon="5.22209">
        <ele>178</ele>
        <time>2015-04-16T13:21:07Z</time>
      </trkpt>
      <trkpt lat="43.34756" lon="5.22207">
        <ele>178</ele>
        <time>2015-04-16T13:21:08Z</time>
      </trkpt>
      <trkpt lat="43.34756" lon="5.22205">
        <ele>178</ele>
        <time>2015-04-16T13:21:09Z</time>
      </trkpt>
      <trkpt lat="43.34757" lon="5.22203">
        <ele>177</ele>
        <time>2015-04-16T13:21:10Z</time>
      </trkpt>
      <trkpt lat="43.34758" lon="5.22201">
        <ele>177</ele>
        <time>2015-04-16T13:21:11Z</time>
      </trkpt>
      <trkpt lat="43.34758" lon="5.22199">
        <ele>177</ele>
        <time>2015-04-16T13:21:12Z</time>
      </trkpt>
      <trkpt lat="43.34759" lon="5.22197">
        <ele>177</ele>
        <time>2015-04-16T13:21:13Z</time>
      </trkpt>
      <trkpt lat="43.3476" lon="5.22196">
        <ele>176</ele>
        <time>2015-04-16T13:21:14Z</time>
      </trkpt>
      <trkpt lat="43.3476" lon="5.22193">
        <ele>176</ele>
        <time>2015-04-16T13:21:15Z</time>
      </trkpt>
      <trkpt lat="43.34761" lon="5.22191">
        <ele>176</ele>
        <time>2015-04-16T13:21:16Z</time>
      </trkpt>
      <trkpt lat="43.34761" lon="5.22189">
        <ele>176</ele>
        <time>2015-04-16T13:21:17Z</time>
      </trkpt>
      <trkpt lat="43.34762" lon="5.22187">
        <ele>176</ele>
        <time>2015-04-16T13:21:18Z</time>
      </trkpt>
      <trkpt lat="43.34763" lon="5.22185">
        <ele>175</ele>
        <time>2015-04-16T13:21:19Z</time>
      </trkpt>
      <trkpt lat="43.34763" lon="5.22183">
        <ele>175</ele>
        <time>2015-04-16T13:21:20Z</time>
      </trkpt>
      <trkpt lat="43.34763" lon="5.22181">
        <ele>175</ele>
        <time>2015-04-16T13:21:21Z</time>
      </trkpt>
      <trkpt lat="43.34763" lon="5.22179">
        <ele>175</ele>
        <time>2015-04-16T13:21:22Z</time>
      </trkpt>
      <trkpt lat="43.34763" lon="5.22176">
        <ele>175</ele>
        <time>2015-04-16T13:21:23Z</time>
      </trkpt>
      <trkpt lat="43.34764" lon="5.22174">
        <ele>174</ele>
        <time>2015-04-16T13:21:24Z</time>
      </trkpt>
      <trkpt lat="43.34764" lon="5.22172">
        <ele>174</ele>
        <time>2015-04-16T13:21:25Z</time>
      </trkpt>
      <trkpt lat="43.34765" lon="5.2217">
        <ele>174</ele>
        <time>2015-04-16T13:21:26Z</time>
      </trkpt>
      <trkpt lat="43.34765" lon="5.22168">
        <ele>174</ele>
        <time>2015-04-16T13:21:27Z</time>
      </trkpt>
      <trkpt lat="43.34766" lon="5.22165">
        <ele>174</ele>
        <time>2015-04-16T13:21:28Z</time>
      </trkpt>
      <trkpt lat="43.34766" lon="5.22163">
        <ele>174</ele>
        <time>2015-04-16T13:21:29Z</time>
      </trkpt>
      <trkpt lat="43.34766" lon="5.22161">
        <ele>174</ele>
        <time>2015-04-16T13:21:30Z</time>
      </trkpt>
      <trkpt lat="43.34766" lon="5.22159">
        <ele>174</ele>
        <time>2015-04-16T13:21:31Z</time>
      </trkpt>
      <trkpt lat="43.34767" lon="5.22157">
        <ele>174</ele>
        <time>2015-04-16T13:21:32Z</time>
      </trkpt>
      <trkpt lat="43.34767" lon="5.22155">
        <ele>174</ele>
        <time>2015-04-16T13:21:33Z</time>
      </trkpt>
      <trkpt lat="43.34768" lon="5.22153">
        <ele>174</ele>
        <time>2015-04-16T13:21:34Z</time>
      </trkpt>
      <trkpt lat="43.34768" lon="5.22151">
        <ele>174</ele>
        <time>2015-04-16T13:21:35Z</time>
      </trkpt>
      <trkpt lat="43.34769" lon="5.22149">
        <ele>174</ele>
        <time>2015-04-16T13:21:36Z</time>
      </trkpt>
      <trkpt lat="43.34769" lon="5.22147">
        <ele>174</ele>
        <time>2015-04-16T13:21:37Z</time>
      </trkpt>
      <trkpt lat="43.3477" lon="5.22145">
        <ele>174</ele>
        <time>2015-04-16T13:21:38Z</time>
      </trkpt>
      <trkpt lat="43.3477" lon="5.22143">
        <ele>174</ele>
        <time>2015-04-16T13:21:39Z</time>
      </trkpt>
      <trkpt lat="43.34771" lon="5.22141">
        <ele>174</ele>
        <time>2015-04-16T13:21:40Z</time>
      </trkpt>
      <trkpt lat="43.34772" lon="5.22139">
        <ele>174</ele>
        <time>2015-04-16T13:21:41Z</time>
      </trkpt>
      <trkpt lat="43.34773" lon="5.22137">
        <ele>174</ele>
        <time>2015-04-16T13:21:42Z</time>
      </trkpt>
      <trkpt lat="43.34774" lon="5.22135">
        <ele>174</ele>
        <time>2015-04-16T13:21:43Z</time>
      </trkpt>
      <trkpt lat="43.34775" lon="5.22133">
        <ele>174</ele>
        <time>2015-04-16T13:21:44Z</time>
      </trkpt>
      <trkpt lat="43.34776" lon="5.22132">
        <ele>173</ele>
        <time>2015-04-16T13:21:45Z</time>
      </trkpt>
      <trkpt lat="43.34777" lon="5.2213">
        <ele>173</ele>
        <time>2015-04-16T13:21:46Z</time>
      </trkpt>
      <trkpt lat="43.34778" lon="5.22128">
        <ele>173</ele>
        <time>2015-04-16T13:21:47Z</time>
      </trkpt>
      <trkpt lat="43.34779" lon="5.22127">
        <ele>173</ele>
        <time>2015-04-16T13:21:48Z</time>
      </trkpt>
      <trkpt lat="43.3478" lon="5.22125">
        <ele>173</ele>
        <time>2015-04-16T13:21:49Z</time>
      </trkpt>
      <trkpt lat="43.34781" lon="5.22124">
        <ele>173</ele>
        <time>2015-04-16T13:21:50Z</time>
      </trkpt>
      <trkpt lat="43.34783" lon="5.22121">
        <ele>172</ele>
        <time>2015-04-16T13:21:52Z</time>
      </trkpt>
      <trkpt lat="43.34784" lon="5.2212">
        <ele>172</ele>
        <time>2015-04-16T13:21:53Z</time>
      </trkpt>
      <trkpt lat="43.34784" lon="5.22118">
        <ele>172</ele>
        <time>2015-04-16T13:21:54Z</time>
      </trkpt>
      <trkpt lat="43.34785" lon="5.22116">
        <ele>172</ele>
        <time>2015-04-16T13:21:55Z</time>
      </trkpt>
      <trkpt lat="43.34785" lon="5.22114">
        <ele>172</ele>
        <time>2015-04-16T13:21:56Z</time>
      </trkpt>
      <trkpt lat="43.34786" lon="5.22112">
        <ele>172</ele>
        <time>2015-04-16T13:21:57Z</time>
      </trkpt>
      <trkpt lat="43.34786" lon="5.2211">
        <ele>171</ele>
        <time>2015-04-16T13:21:58Z</time>
      </trkpt>
      <trkpt lat="43.34786" lon="5.22109">
        <ele>171</ele>
        <time>2015-04-16T13:21:59Z</time>
      </trkpt>
      <trkpt lat="43.34786" lon="5.22107">
        <ele>171</ele>
        <time>2015-04-16T13:22:00Z</time>
      </trkpt>
      <trkpt lat="43.34786" lon="5.22104">
        <ele>171</ele>
        <time>2015-04-16T13:22:01Z</time>
      </trkpt>
      <trkpt lat="43.34786" lon="5.22102">
        <ele>171</ele>
        <time>2015-04-16T13:22:02Z</time>
      </trkpt>
      <trkpt lat="43.34786" lon="5.221">
        <ele>171</ele>
        <time>2015-04-16T13:22:03Z</time>
      </trkpt>
      <trkpt lat="43.34786" lon="5.22098">
        <ele>171</ele>
        <time>2015-04-16T13:22:04Z</time>
      </trkpt>
      <trkpt lat="43.34786" lon="5.22096">
        <ele>171</ele>
        <time>2015-04-16T13:22:05Z</time>
      </trkpt>
      <trkpt lat="43.34785" lon="5.22093">
        <ele>171</ele>
        <time>2015-04-16T13:22:06Z</time>
      </trkpt>
      <trkpt lat="43.34785" lon="5.22091">
        <ele>171</ele>
        <time>2015-04-16T13:22:07Z</time>
      </trkpt>
      <trkpt lat="43.34786" lon="5.22089">
        <ele>170</ele>
        <time>2015-04-16T13:22:08Z</time>
      </trkpt>
      <trkpt lat="43.34786" lon="5.22087">
        <ele>170</ele>
        <time>2015-04-16T13:22:09Z</time>
      </trkpt>
      <trkpt lat="43.34786" lon="5.22085">
        <ele>170</ele>
        <time>2015-04-16T13:22:10Z</time>
      </trkpt>
      <trkpt lat="43.34787" lon="5.22082">
        <ele>170</ele>
        <time>2015-04-16T13:22:11Z</time>
      </trkpt>
      <trkpt lat="43.34787" lon="5.2208">
        <ele>170</ele>
        <time>2015-04-16T13:22:12Z</time>
      </trkpt>
      <trkpt lat="43.34787" lon="5.22078">
        <ele>170</ele>
        <time>2015-04-16T13:22:13Z</time>
      </trkpt>
      <trkpt lat="43.34787" lon="5.22076">
        <ele>170</ele>
        <time>2015-04-16T13:22:14Z</time>
      </trkpt>
      <trkpt lat="43.34787" lon="5.22074">
        <ele>170</ele>
        <time>2015-04-16T13:22:15Z</time>
      </trkpt>
      <trkpt lat="43.34787" lon="5.22072">
        <ele>170</ele>
        <time>2015-04-16T13:22:16Z</time>
      </trkpt>
      <trkpt lat="43.34787" lon="5.22069">
        <ele>170</ele>
        <time>2015-04-16T13:22:17Z</time>
      </trkpt>
      <trkpt lat="43.34787" lon="5.22067">
        <ele>170</ele>
        <time>2015-04-16T13:22:18Z</time>
      </trkpt>
      <trkpt lat="43.34787" lon="5.22066">
        <ele>170</ele>
        <time>2015-04-16T13:22:19Z</time>
      </trkpt>
      <trkpt lat="43.34786" lon="5.22063">
        <ele>170</ele>
        <time>2015-04-16T13:22:20Z</time>
      </trkpt>
      <trkpt lat="43.34785" lon="5.22061">
        <ele>170</ele>
        <time>2015-04-16T13:22:21Z</time>
      </trkpt>
      <trkpt lat="43.34784" lon="5.22059">
        <ele>170</ele>
        <time>2015-04-16T13:22:22Z</time>
      </trkpt>
      <trkpt lat="43.34784" lon="5.22058">
        <ele>170</ele>
        <time>2015-04-16T13:22:23Z</time>
      </trkpt>
      <trkpt lat="43.34783" lon="5.22056">
        <ele>170</ele>
        <time>2015-04-16T13:22:24Z</time>
      </trkpt>
      <trkpt lat="43.34782" lon="5.22054">
        <ele>170</ele>
        <time>2015-04-16T13:22:25Z</time>
      </trkpt>
      <trkpt lat="43.34782" lon="5.22052">
        <ele>170</ele>
        <time>2015-04-16T13:22:26Z</time>
      </trkpt>
      <trkpt lat="43.34781" lon="5.2205">
        <ele>170</ele>
        <time>2015-04-16T13:22:27Z</time>
      </trkpt>
      <trkpt lat="43.3478" lon="5.22048">
        <ele>170</ele>
        <time>2015-04-16T13:22:28Z</time>
      </trkpt>
      <trkpt lat="43.3478" lon="5.22046">
        <ele>170</ele>
        <time>2015-04-16T13:22:29Z</time>
      </trkpt>
      <trkpt lat="43.3478" lon="5.22043">
        <ele>170</ele>
        <time>2015-04-16T13:22:30Z</time>
      </trkpt>
      <trkpt lat="43.3478" lon="5.22041">
        <ele>170</ele>
        <time>2015-04-16T13:22:31Z</time>
      </trkpt>
      <trkpt lat="43.3478" lon="5.22039">
        <ele>169</ele>
        <time>2015-04-16T13:22:32Z</time>
      </trkpt>
      <trkpt lat="43.34781" lon="5.22037">
        <ele>169</ele>
        <time>2015-04-16T13:22:33Z</time>
      </trkpt>
      <trkpt lat="43.34782" lon="5.22035">
        <ele>169</ele>
        <time>2015-04-16T13:22:34Z</time>
      </trkpt>
      <trkpt lat="43.34782" lon="5.22033">
        <ele>169</ele>
        <time>2015-04-16T13:22:35Z</time>
      </trkpt>
      <trkpt lat="43.34783" lon="5.22031">
        <ele>168</ele>
        <time>2015-04-16T13:22:36Z</time>
      </trkpt>
      <trkpt lat="43.34783" lon="5.22029">
        <ele>168</ele>
        <time>2015-04-16T13:22:37Z</time>
      </trkpt>
      <trkpt lat="43.34784" lon="5.22027">
        <ele>168</ele>
        <time>2015-04-16T13:22:38Z</time>
      </trkpt>
      <trkpt lat="43.34784" lon="5.22025">
        <ele>168</ele>
        <time>2015-04-16T13:22:39Z</time>
      </trkpt>
      <trkpt lat="43.34784" lon="5.22022">
        <ele>168</ele>
        <time>2015-04-16T13:22:40Z</time>
      </trkpt>
      <trkpt lat="43.34784" lon="5.2202">
        <ele>168</ele>
        <time>2015-04-16T13:22:41Z</time>
      </trkpt>
      <trkpt lat="43.34784" lon="5.22018">
        <ele>168</ele>
        <time>2015-04-16T13:22:42Z</time>
      </trkpt>
      <trkpt lat="43.34784" lon="5.22016">
        <ele>168</ele>
        <time>2015-04-16T13:22:43Z</time>
      </trkpt>
      <trkpt lat="43.34785" lon="5.22014">
        <ele>167</ele>
        <time>2015-04-16T13:22:44Z</time>
      </trkpt>
      <trkpt lat="43.34786" lon="5.22013">
        <ele>167</ele>
        <time>2015-04-16T13:22:45Z</time>
      </trkpt>
      <trkpt lat="43.34786" lon="5.22011">
        <ele>167</ele>
        <time>2015-04-16T13:22:46Z</time>
      </trkpt>
      <trkpt lat="43.34787" lon="5.22009">
        <ele>167</ele>
        <time>2015-04-16T13:22:47Z</time>
      </trkpt>
      <trkpt lat="43.34787" lon="5.22007">
        <ele>167</ele>
        <time>2015-04-16T13:22:48Z</time>
      </trkpt>
      <trkpt lat="43.34788" lon="5.22005">
        <ele>167</ele>
        <time>2015-04-16T13:22:49Z</time>
      </trkpt>
      <trkpt lat="43.34789" lon="5.22003">
        <ele>166</ele>
        <time>2015-04-16T13:22:50Z</time>
      </trkpt>
      <trkpt lat="43.3479" lon="5.22002">
        <ele>166</ele>
        <time>2015-04-16T13:22:51Z</time>
      </trkpt>
      <trkpt lat="43.34792" lon="5.21999">
        <ele>166</ele>
        <time>2015-04-16T13:22:53Z</time>
      </trkpt>
      <trkpt lat="43.34792" lon="5.21997">
        <ele>166</ele>
        <time>2015-04-16T13:22:54Z</time>
      </trkpt>
      <trkpt lat="43.34793" lon="5.21995">
        <ele>166</ele>
        <time>2015-04-16T13:22:55Z</time>
      </trkpt>
      <trkpt lat="43.34793" lon="5.21994">
        <ele>166</ele>
        <time>2015-04-16T13:22:56Z</time>
      </trkpt>
      <trkpt lat="43.34793" lon="5.21992">
        <ele>166</ele>
        <time>2015-04-16T13:22:57Z</time>
      </trkpt>
      <trkpt lat="43.34794" lon="5.2199">
        <ele>166</ele>
        <time>2015-04-16T13:22:58Z</time>
      </trkpt>
      <trkpt lat="43.34794" lon="5.21988">
        <ele>165</ele>
        <time>2015-04-16T13:22:59Z</time>
      </trkpt>
      <trkpt lat="43.34795" lon="5.21986">
        <ele>165</ele>
        <time>2015-04-16T13:23:00Z</time>
      </trkpt>
      <trkpt lat="43.34795" lon="5.21984">
        <ele>165</ele>
        <time>2015-04-16T13:23:01Z</time>
      </trkpt>
      <trkpt lat="43.34796" lon="5.21982">
        <ele>165</ele>
        <time>2015-04-16T13:23:02Z</time>
      </trkpt>
      <trkpt lat="43.34796" lon="5.2198">
        <ele>165</ele>
        <time>2015-04-16T13:23:03Z</time>
      </trkpt>
      <trkpt lat="43.34796" lon="5.21978">
        <ele>165</ele>
        <time>2015-04-16T13:23:04Z</time>
      </trkpt>
      <trkpt lat="43.34797" lon="5.21976">
        <ele>165</ele>
        <time>2015-04-16T13:23:05Z</time>
      </trkpt>
      <trkpt lat="43.34797" lon="5.21975">
        <ele>165</ele>
        <time>2015-04-16T13:23:06Z</time>
      </trkpt>
      <trkpt lat="43.34797" lon="5.21972">
        <ele>165</ele>
        <time>2015-04-16T13:23:07Z</time>
      </trkpt>
      <trkpt lat="43.34797" lon="5.2197">
        <ele>165</ele>
        <time>2015-04-16T13:23:08Z</time>
      </trkpt>
      <trkpt lat="43.34798" lon="5.21968">
        <ele>165</ele>
        <time>2015-04-16T13:23:09Z</time>
      </trkpt>
      <trkpt lat="43.34798" lon="5.21966">
        <ele>165</ele>
        <time>2015-04-16T13:23:10Z</time>
      </trkpt>
      <trkpt lat="43.34798" lon="5.21964">
        <ele>165</ele>
        <time>2015-04-16T13:23:11Z</time>
      </trkpt>
      <trkpt lat="43.34799" lon="5.21962">
        <ele>165</ele>
        <time>2015-04-16T13:23:12Z</time>
      </trkpt>
      <trkpt lat="43.34799" lon="5.2196">
        <ele>165</ele>
        <time>2015-04-16T13:23:13Z</time>
      </trkpt>
      <trkpt lat="43.34799" lon="5.21958">
        <ele>165</ele>
        <time>2015-04-16T13:23:14Z</time>
      </trkpt>
      <trkpt lat="43.34799" lon="5.21956">
        <ele>165</ele>
        <time>2015-04-16T13:23:15Z</time>
      </trkpt>
      <trkpt lat="43.348" lon="5.21954">
        <ele>165</ele>
        <time>2015-04-16T13:23:16Z</time>
      </trkpt>
      <trkpt lat="43.348" lon="5.21952">
        <ele>165</ele>
        <time>2015-04-16T13:23:17Z</time>
      </trkpt>
      <trkpt lat="43.348" lon="5.2195">
        <ele>165</ele>
        <time>2015-04-16T13:23:18Z</time>
      </trkpt>
      <trkpt lat="43.34801" lon="5.21948">
        <ele>165</ele>
        <time>2015-04-16T13:23:19Z</time>
      </trkpt>
      <trkpt lat="43.34801" lon="5.21946">
        <ele>165</ele>
        <time>2015-04-16T13:23:20Z</time>
      </trkpt>
      <trkpt lat="43.34802" lon="5.21944">
        <ele>165</ele>
        <time>2015-04-16T13:23:21Z</time>
      </trkpt>
      <trkpt lat="43.34802" lon="5.21942">
        <ele>165</ele>
        <time>2015-04-16T13:23:22Z</time>
      </trkpt>
      <trkpt lat="43.34803" lon="5.2194">
        <ele>165</ele>
        <time>2015-04-16T13:23:23Z</time>
      </trkpt>
      <trkpt lat="43.34803" lon="5.21939">
        <ele>165</ele>
        <time>2015-04-16T13:23:24Z</time>
      </trkpt>
      <trkpt lat="43.34804" lon="5.21937">
        <ele>164</ele>
        <time>2015-04-16T13:23:25Z</time>
      </trkpt>
      <trkpt lat="43.34805" lon="5.21936">
        <ele>164</ele>
        <time>2015-04-16T13:23:26Z</time>
      </trkpt>
      <trkpt lat="43.34806" lon="5.21934">
        <ele>164</ele>
        <time>2015-04-16T13:23:27Z</time>
      </trkpt>
      <trkpt lat="43.34808" lon="5.21933">
        <ele>164</ele>
        <time>2015-04-16T13:23:28Z</time>
      </trkpt>
      <trkpt lat="43.34809" lon="5.2193">
        <ele>164</ele>
        <time>2015-04-16T13:23:30Z</time>
      </trkpt>
      <trkpt lat="43.34809" lon="5.21928">
        <ele>164</ele>
        <time>2015-04-16T13:23:31Z</time>
      </trkpt>
      <trkpt lat="43.3481" lon="5.21926">
        <ele>164</ele>
        <time>2015-04-16T13:23:32Z</time>
      </trkpt>
      <trkpt lat="43.3481" lon="5.21924">
        <ele>164</ele>
        <time>2015-04-16T13:23:33Z</time>
      </trkpt>
      <trkpt lat="43.3481" lon="5.21923">
        <ele>164</ele>
        <time>2015-04-16T13:23:34Z</time>
      </trkpt>
      <trkpt lat="43.34811" lon="5.21921">
        <ele>164</ele>
        <time>2015-04-16T13:23:35Z</time>
      </trkpt>
      <trkpt lat="43.3481" lon="5.21919">
        <ele>164</ele>
        <time>2015-04-16T13:23:36Z</time>
      </trkpt>
      <trkpt lat="43.3481" lon="5.21917">
        <ele>164</ele>
        <time>2015-04-16T13:23:37Z</time>
      </trkpt>
      <trkpt lat="43.34809" lon="5.21916">
        <ele>164</ele>
        <time>2015-04-16T13:23:38Z</time>
      </trkpt>
      <trkpt lat="43.34808" lon="5.21914">
        <ele>164</ele>
        <time>2015-04-16T13:23:39Z</time>
      </trkpt>
      <trkpt lat="43.34807" lon="5.21912">
        <ele>164</ele>
        <time>2015-04-16T13:23:40Z</time>
      </trkpt>
      <trkpt lat="43.34807" lon="5.2191">
        <ele>164</ele>
        <time>2015-04-16T13:23:41Z</time>
      </trkpt>
      <trkpt lat="43.34808" lon="5.21909">
        <ele>164</ele>
        <time>2015-04-16T13:23:42Z</time>
      </trkpt>
      <trkpt lat="43.34809" lon="5.21906">
        <ele>164</ele>
        <time>2015-04-16T13:23:44Z</time>
      </trkpt>
      <trkpt lat="43.34809" lon="5.21905">
        <ele>164</ele>
        <time>2015-04-16T13:23:45Z</time>
      </trkpt>
      <trkpt lat="43.3481" lon="5.21903">
        <ele>164</ele>
        <time>2015-04-16T13:23:46Z</time>
      </trkpt>
      <trkpt lat="43.34811" lon="5.21901">
        <ele>164</ele>
        <time>2015-04-16T13:23:47Z</time>
      </trkpt>
      <trkpt lat="43.34811" lon="5.21899">
        <ele>164</ele>
        <time>2015-04-16T13:23:48Z</time>
      </trkpt>
      <trkpt lat="43.34811" lon="5.21898">
        <ele>164</ele>
        <time>2015-04-16T13:23:49Z</time>
      </trkpt>
      <trkpt lat="43.34811" lon="5.21896">
        <ele>164</ele>
        <time>2015-04-16T13:23:50Z</time>
      </trkpt>
      <trkpt lat="43.34811" lon="5.21894">
        <ele>164</ele>
        <time>2015-04-16T13:23:51Z</time>
      </trkpt>
      <trkpt lat="43.34811" lon="5.21891">
        <ele>164</ele>
        <time>2015-04-16T13:23:52Z</time>
      </trkpt>
      <trkpt lat="43.34812" lon="5.21889">
        <ele>164</ele>
        <time>2015-04-16T13:23:53Z</time>
      </trkpt>
      <trkpt lat="43.34812" lon="5.21887">
        <ele>164</ele>
        <time>2015-04-16T13:23:54Z</time>
      </trkpt>
      <trkpt lat="43.34813" lon="5.21885">
        <ele>164</ele>
        <time>2015-04-16T13:23:55Z</time>
      </trkpt>
      <trkpt lat="43.34814" lon="5.21883">
        <ele>164</ele>
        <time>2015-04-16T13:23:56Z</time>
      </trkpt>
      <trkpt lat="43.34814" lon="5.21881">
        <ele>164</ele>
        <time>2015-04-16T13:23:57Z</time>
      </trkpt>
      <trkpt lat="43.34814" lon="5.21879">
        <ele>164</ele>
        <time>2015-04-16T13:23:58Z</time>
      </trkpt>
      <trkpt lat="43.34814" lon="5.21877">
        <ele>164</ele>
        <time>2015-04-16T13:23:59Z</time>
      </trkpt>
      <trkpt lat="43.34814" lon="5.21875">
        <ele>164</ele>
        <time>2015-04-16T13:24:00Z</time>
      </trkpt>
      <trkpt lat="43.34814" lon="5.21873">
        <ele>164</ele>
        <time>2015-04-16T13:24:01Z</time>
      </trkpt>
      <trkpt lat="43.34814" lon="5.21871">
        <ele>164</ele>
        <time>2015-04-16T13:24:02Z</time>
      </trkpt>
      <trkpt lat="43.34814" lon="5.21869">
        <ele>164</ele>
        <time>2015-04-16T13:24:03Z</time>
      </trkpt>
      <trkpt lat="43.34815" lon="5.21867">
        <ele>164</ele>
        <time>2015-04-16T13:24:04Z</time>
      </trkpt>
      <trkpt lat="43.34816" lon="5.21865">
        <ele>164</ele>
        <time>2015-04-16T13:24:05Z</time>
      </trkpt>
      <trkpt lat="43.34816" lon="5.21863">
        <ele>164</ele>
        <time>2015-04-16T13:24:06Z</time>
      </trkpt>
      <trkpt lat="43.34817" lon="5.21862">
        <ele>164</ele>
        <time>2015-04-16T13:24:07Z</time>
      </trkpt>
      <trkpt lat="43.34818" lon="5.2186">
        <ele>164</ele>
        <time>2015-04-16T13:24:09Z</time>
      </trkpt>
      <trkpt lat="43.34819" lon="5.21857">
        <ele>164</ele>
        <time>2015-04-16T13:24:11Z</time>
      </trkpt>
      <trkpt lat="43.3482" lon="5.21854">
        <ele>164</ele>
        <time>2015-04-16T13:24:13Z</time>
      </trkpt>
      <trkpt lat="43.34821" lon="5.21852">
        <ele>164</ele>
        <time>2015-04-16T13:24:14Z</time>
      </trkpt>
      <trkpt lat="43.34821" lon="5.2185">
        <ele>164</ele>
        <time>2015-04-16T13:24:15Z</time>
      </trkpt>
      <trkpt lat="43.34822" lon="5.21849">
        <ele>164</ele>
        <time>2015-04-16T13:24:16Z</time>
      </trkpt>
      <trkpt lat="43.34823" lon="5.21847">
        <ele>164</ele>
        <time>2015-04-16T13:24:17Z</time>
      </trkpt>
      <trkpt lat="43.34824" lon="5.21845">
        <ele>164</ele>
        <time>2015-04-16T13:24:18Z</time>
      </trkpt>
      <trkpt lat="43.34824" lon="5.21843">
        <ele>164</ele>
        <time>2015-04-16T13:24:19Z</time>
      </trkpt>
      <trkpt lat="43.34825" lon="5.21841">
        <ele>164</ele>
        <time>2015-04-16T13:24:20Z</time>
      </trkpt>
      <trkpt lat="43.34826" lon="5.2184">
        <ele>164</ele>
        <time>2015-04-16T13:24:21Z</time>
      </trkpt>
      <trkpt lat="43.34827" lon="5.21838">
        <ele>164</ele>
        <time>2015-04-16T13:24:22Z</time>
      </trkpt>
      <trkpt lat="43.34827" lon="5.21836">
        <ele>164</ele>
        <time>2015-04-16T13:24:23Z</time>
      </trkpt>
      <trkpt lat="43.34828" lon="5.21834">
        <ele>164</ele>
        <time>2015-04-16T13:24:24Z</time>
      </trkpt>
      <trkpt lat="43.34829" lon="5.21832">
        <ele>163</ele>
        <time>2015-04-16T13:24:25Z</time>
      </trkpt>
      <trkpt lat="43.34829" lon="5.2183">
        <ele>163</ele>
        <time>2015-04-16T13:24:26Z</time>
      </trkpt>
      <trkpt lat="43.3483" lon="5.21828">
        <ele>163</ele>
        <time>2015-04-16T13:24:27Z</time>
      </trkpt>
      <trkpt lat="43.3483" lon="5.21826">
        <ele>162</ele>
        <time>2015-04-16T13:24:28Z</time>
      </trkpt>
      <trkpt lat="43.34831" lon="5.21824">
        <ele>162</ele>
        <time>2015-04-16T13:24:29Z</time>
      </trkpt>
      <trkpt lat="43.34831" lon="5.21821">
        <ele>162</ele>
        <time>2015-04-16T13:24:30Z</time>
      </trkpt>
      <trkpt lat="43.34831" lon="5.21819">
        <ele>162</ele>
        <time>2015-04-16T13:24:31Z</time>
      </trkpt>
      <trkpt lat="43.34831" lon="5.21816">
        <ele>162</ele>
        <time>2015-04-16T13:24:32Z</time>
      </trkpt>
      <trkpt lat="43.34831" lon="5.21814">
        <ele>162</ele>
        <time>2015-04-16T13:24:33Z</time>
      </trkpt>
      <trkpt lat="43.34831" lon="5.21811">
        <ele>162</ele>
        <time>2015-04-16T13:24:34Z</time>
      </trkpt>
      <trkpt lat="43.34832" lon="5.21809">
        <ele>162</ele>
        <time>2015-04-16T13:24:35Z</time>
      </trkpt>
      <trkpt lat="43.34832" lon="5.21807">
        <ele>162</ele>
        <time>2015-04-16T13:24:36Z</time>
      </trkpt>
      <trkpt lat="43.34832" lon="5.21805">
        <ele>162</ele>
        <time>2015-04-16T13:24:37Z</time>
      </trkpt>
      <trkpt lat="43.34833" lon="5.21803">
        <ele>162</ele>
        <time>2015-04-16T13:24:38Z</time>
      </trkpt>
      <trkpt lat="43.34833" lon="5.21802">
        <ele>161</ele>
        <time>2015-04-16T13:24:39Z</time>
      </trkpt>
      <trkpt lat="43.34833" lon="5.218">
        <ele>161</ele>
        <time>2015-04-16T13:24:40Z</time>
      </trkpt>
      <trkpt lat="43.34833" lon="5.21798">
        <ele>161</ele>
        <time>2015-04-16T13:24:41Z</time>
      </trkpt>
      <trkpt lat="43.34834" lon="5.21796">
        <ele>161</ele>
        <time>2015-04-16T13:24:42Z</time>
      </trkpt>
      <trkpt lat="43.34834" lon="5.21794">
        <ele>161</ele>
        <time>2015-04-16T13:24:43Z</time>
      </trkpt>
      <trkpt lat="43.34834" lon="5.21791">
        <ele>161</ele>
        <time>2015-04-16T13:24:44Z</time>
      </trkpt>
      <trkpt lat="43.34835" lon="5.21789">
        <ele>161</ele>
        <time>2015-04-16T13:24:45Z</time>
      </trkpt>
      <trkpt lat="43.34835" lon="5.21787">
        <ele>161</ele>
        <time>2015-04-16T13:24:46Z</time>
      </trkpt>
      <trkpt lat="43.34835" lon="5.21785">
        <ele>161</ele>
        <time>2015-04-16T13:24:47Z</time>
      </trkpt>
      <trkpt lat="43.34836" lon="5.21783">
        <ele>161</ele>
        <time>2015-04-16T13:24:48Z</time>
      </trkpt>
      <trkpt lat="43.34836" lon="5.2178">
        <ele>161</ele>
        <time>2015-04-16T13:24:49Z</time>
      </trkpt>
      <trkpt lat="43.34836" lon="5.21778">
        <ele>161</ele>
        <time>2015-04-16T13:24:50Z</time>
      </trkpt>
      <trkpt lat="43.34836" lon="5.21776">
        <ele>161</ele>
        <time>2015-04-16T13:24:51Z</time>
      </trkpt>
      <trkpt lat="43.34837" lon="5.21773">
        <ele>161</ele>
        <time>2015-04-16T13:24:52Z</time>
      </trkpt>
      <trkpt lat="43.34837" lon="5.21771">
        <ele>161</ele>
        <time>2015-04-16T13:24:53Z</time>
      </trkpt>
      <trkpt lat="43.34837" lon="5.21769">
        <ele>161</ele>
        <time>2015-04-16T13:24:54Z</time>
      </trkpt>
      <trkpt lat="43.34837" lon="5.21767">
        <ele>160</ele>
        <time>2015-04-16T13:24:55Z</time>
      </trkpt>
      <trkpt lat="43.34838" lon="5.21765">
        <ele>160</ele>
        <time>2015-04-16T13:24:56Z</time>
      </trkpt>
      <trkpt lat="43.34838" lon="5.21763">
        <ele>160</ele>
        <time>2015-04-16T13:24:57Z</time>
      </trkpt>
      <trkpt lat="43.34838" lon="5.21761">
        <ele>160</ele>
        <time>2015-04-16T13:24:58Z</time>
      </trkpt>
      <trkpt lat="43.34839" lon="5.21759">
        <ele>160</ele>
        <time>2015-04-16T13:24:59Z</time>
      </trkpt>
      <trkpt lat="43.34839" lon="5.21757">
        <ele>159</ele>
        <time>2015-04-16T13:25:00Z</time>
      </trkpt>
      <trkpt lat="43.34839" lon="5.21755">
        <ele>159</ele>
        <time>2015-04-16T13:25:01Z</time>
      </trkpt>
      <trkpt lat="43.34839" lon="5.21753">
        <ele>159</ele>
        <time>2015-04-16T13:25:02Z</time>
      </trkpt>
      <trkpt lat="43.3484" lon="5.21751">
        <ele>159</ele>
        <time>2015-04-16T13:25:03Z</time>
      </trkpt>
      <trkpt lat="43.3484" lon="5.21749">
        <ele>159</ele>
        <time>2015-04-16T13:25:04Z</time>
      </trkpt>
      <trkpt lat="43.3484" lon="5.21747">
        <ele>159</ele>
        <time>2015-04-16T13:25:05Z</time>
      </trkpt>
      <trkpt lat="43.3484" lon="5.21745">
        <ele>159</ele>
        <time>2015-04-16T13:25:06Z</time>
      </trkpt>
      <trkpt lat="43.34841" lon="5.21744">
        <ele>159</ele>
        <time>2015-04-16T13:25:07Z</time>
      </trkpt>
      <trkpt lat="43.34842" lon="5.21741">
        <ele>159</ele>
        <time>2015-04-16T13:25:08Z</time>
      </trkpt>
      <trkpt lat="43.34842" lon="5.21739">
        <ele>159</ele>
        <time>2015-04-16T13:25:09Z</time>
      </trkpt>
      <trkpt lat="43.34843" lon="5.21738">
        <ele>159</ele>
        <time>2015-04-16T13:25:10Z</time>
      </trkpt>
      <trkpt lat="43.34843" lon="5.21736">
        <ele>159</ele>
        <time>2015-04-16T13:25:11Z</time>
      </trkpt>
      <trkpt lat="43.34843" lon="5.21734">
        <ele>159</ele>
        <time>2015-04-16T13:25:12Z</time>
      </trkpt>
      <trkpt lat="43.34843" lon="5.21732">
        <ele>159</ele>
        <time>2015-04-16T13:25:13Z</time>
      </trkpt>
      <trkpt lat="43.34843" lon="5.2173">
        <ele>159</ele>
        <time>2015-04-16T13:25:14Z</time>
      </trkpt>
      <trkpt lat="43.34844" lon="5.21728">
        <ele>159</ele>
        <time>2015-04-16T13:25:15Z</time>
      </trkpt>
      <trkpt lat="43.34844" lon="5.21726">
        <ele>159</ele>
        <time>2015-04-16T13:25:16Z</time>
      </trkpt>
      <trkpt lat="43.34844" lon="5.21724">
        <ele>159</ele>
        <time>2015-04-16T13:25:17Z</time>
      </trkpt>
      <trkpt lat="43.34845" lon="5.21722">
        <ele>159</ele>
        <time>2015-04-16T13:25:18Z</time>
      </trkpt>
      <trkpt lat="43.34845" lon="5.21721">
        <ele>159</ele>
        <time>2015-04-16T13:25:19Z</time>
      </trkpt>
      <trkpt lat="43.34845" lon="5.21719">
        <ele>159</ele>
        <time>2015-04-16T13:25:20Z</time>
      </trkpt>
      <trkpt lat="43.34845" lon="5.21717">
        <ele>159</ele>
        <time>2015-04-16T13:25:21Z</time>
      </trkpt>
      <trkpt lat="43.34846" lon="5.21715">
        <ele>159</ele>
        <time>2015-04-16T13:25:22Z</time>
      </trkpt>
      <trkpt lat="43.34846" lon="5.21713">
        <ele>159</ele>
        <time>2015-04-16T13:25:23Z</time>
      </trkpt>
      <trkpt lat="43.34847" lon="5.21711">
        <ele>159</ele>
        <time>2015-04-16T13:25:24Z</time>
      </trkpt>
      <trkpt lat="43.34847" lon="5.2171">
        <ele>159</ele>
        <time>2015-04-16T13:25:25Z</time>
      </trkpt>
      <trkpt lat="43.34848" lon="5.21708">
        <ele>158</ele>
        <time>2015-04-16T13:25:26Z</time>
      </trkpt>
      <trkpt lat="43.34848" lon="5.21705">
        <ele>158</ele>
        <time>2015-04-16T13:25:27Z</time>
      </trkpt>
      <trkpt lat="43.34848" lon="5.21703">
        <ele>158</ele>
        <time>2015-04-16T13:25:28Z</time>
      </trkpt>
      <trkpt lat="43.34848" lon="5.21701">
        <ele>158</ele>
        <time>2015-04-16T13:25:29Z</time>
      </trkpt>
      <trkpt lat="43.34848" lon="5.21699">
        <ele>158</ele>
        <time>2015-04-16T13:25:30Z</time>
      </trkpt>
      <trkpt lat="43.34847" lon="5.21697">
        <ele>158</ele>
        <time>2015-04-16T13:25:31Z</time>
      </trkpt>
      <trkpt lat="43.34847" lon="5.21695">
        <ele>158</ele>
        <time>2015-04-16T13:25:32Z</time>
      </trkpt>
      <trkpt lat="43.34846" lon="5.21694">
        <ele>158</ele>
        <time>2015-04-16T13:25:33Z</time>
      </trkpt>
      <trkpt lat="43.34845" lon="5.21692">
        <ele>158</ele>
        <time>2015-04-16T13:25:34Z</time>
      </trkpt>
      <trkpt lat="43.34845" lon="5.2169">
        <ele>158</ele>
        <time>2015-04-16T13:25:35Z</time>
      </trkpt>
      <trkpt lat="43.34844" lon="5.21688">
        <ele>158</ele>
        <time>2015-04-16T13:25:36Z</time>
      </trkpt>
      <trkpt lat="43.34843" lon="5.21687">
        <ele>158</ele>
        <time>2015-04-16T13:25:37Z</time>
      </trkpt>
      <trkpt lat="43.34842" lon="5.21685">
        <ele>158</ele>
        <time>2015-04-16T13:25:38Z</time>
      </trkpt>
      <trkpt lat="43.34841" lon="5.21684">
        <ele>158</ele>
        <time>2015-04-16T13:25:39Z</time>
      </trkpt>
      <trkpt lat="43.3484" lon="5.21683">
        <ele>158</ele>
        <time>2015-04-16T13:25:40Z</time>
      </trkpt>
      <trkpt lat="43.34839" lon="5.21682">
        <ele>158</ele>
        <time>2015-04-16T13:25:41Z</time>
      </trkpt>
      <trkpt lat="43.34837" lon="5.2168">
        <ele>158</ele>
        <time>2015-04-16T13:25:42Z</time>
      </trkpt>
      <trkpt lat="43.34836" lon="5.21679">
        <ele>158</ele>
        <time>2015-04-16T13:25:43Z</time>
      </trkpt>
      <trkpt lat="43.34835" lon="5.21678">
        <ele>158</ele>
        <time>2015-04-16T13:25:44Z</time>
      </trkpt>
      <trkpt lat="43.34834" lon="5.21677">
        <ele>158</ele>
        <time>2015-04-16T13:25:45Z</time>
      </trkpt>
      <trkpt lat="43.34833" lon="5.21676">
        <ele>158</ele>
        <time>2015-04-16T13:25:46Z</time>
      </trkpt>
      <trkpt lat="43.34832" lon="5.21675">
        <ele>158</ele>
        <time>2015-04-16T13:25:47Z</time>
      </trkpt>
      <trkpt lat="43.3483" lon="5.21674">
        <ele>158</ele>
        <time>2015-04-16T13:25:48Z</time>
      </trkpt>
      <trkpt lat="43.34829" lon="5.21673">
        <ele>158</ele>
        <time>2015-04-16T13:25:49Z</time>
      </trkpt>
      <trkpt lat="43.34827" lon="5.21672">
        <ele>158</ele>
        <time>2015-04-16T13:25:50Z</time>
      </trkpt>
      <trkpt lat="43.34826" lon="5.21672">
        <ele>158</ele>
        <time>2015-04-16T13:25:51Z</time>
      </trkpt>
      <trkpt lat="43.34824" lon="5.21672">
        <ele>158</ele>
        <time>2015-04-16T13:25:52Z</time>
      </trkpt>
      <trkpt lat="43.34823" lon="5.21672">
        <ele>158</ele>
        <time>2015-04-16T13:25:53Z</time>
      </trkpt>
      <trkpt lat="43.34821" lon="5.21672">
        <ele>158</ele>
        <time>2015-04-16T13:25:54Z</time>
      </trkpt>
      <trkpt lat="43.3482" lon="5.21671">
        <ele>158</ele>
        <time>2015-04-16T13:25:55Z</time>
      </trkpt>
      <trkpt lat="43.34819" lon="5.21671">
        <ele>158</ele>
        <time>2015-04-16T13:25:56Z</time>
      </trkpt>
      <trkpt lat="43.34817" lon="5.2167">
        <ele>158</ele>
        <time>2015-04-16T13:25:57Z</time>
      </trkpt>
      <trkpt lat="43.34816" lon="5.2167">
        <ele>158</ele>
        <time>2015-04-16T13:25:58Z</time>
      </trkpt>
      <trkpt lat="43.34814" lon="5.2167">
        <ele>158</ele>
        <time>2015-04-16T13:25:59Z</time>
      </trkpt>
      <trkpt lat="43.34813" lon="5.21669">
        <ele>158</ele>
        <time>2015-04-16T13:26:00Z</time>
      </trkpt>
      <trkpt lat="43.34811" lon="5.21669">
        <ele>158</ele>
        <time>2015-04-16T13:26:01Z</time>
      </trkpt>
      <trkpt lat="43.3481" lon="5.21669">
        <ele>158</ele>
        <time>2015-04-16T13:26:02Z</time>
      </trkpt>
      <trkpt lat="43.34808" lon="5.21668">
        <ele>158</ele>
        <time>2015-04-16T13:26:03Z</time>
      </trkpt>
      <trkpt lat="43.34807" lon="5.21668">
        <ele>157</ele>
        <time>2015-04-16T13:26:04Z</time>
      </trkpt>
      <trkpt lat="43.34806" lon="5.21667">
        <ele>157</ele>
        <time>2015-04-16T13:26:05Z</time>
      </trkpt>
      <trkpt lat="43.34804" lon="5.21667">
        <ele>156</ele>
        <time>2015-04-16T13:26:06Z</time>
      </trkpt>
      <trkpt lat="43.34803" lon="5.21667">
        <ele>155</ele>
        <time>2015-04-16T13:26:07Z</time>
      </trkpt>
      <trkpt lat="43.34801" lon="5.21667">
        <ele>155</ele>
        <time>2015-04-16T13:26:08Z</time>
      </trkpt>
      <trkpt lat="43.348" lon="5.21667">
        <ele>155</ele>
        <time>2015-04-16T13:26:09Z</time>
      </trkpt>
      <trkpt lat="43.34798" lon="5.21667">
        <ele>155</ele>
        <time>2015-04-16T13:26:10Z</time>
      </trkpt>
      <trkpt lat="43.34797" lon="5.21668">
        <ele>155</ele>
        <time>2015-04-16T13:26:11Z</time>
      </trkpt>
      <trkpt lat="43.34796" lon="5.21669">
        <ele>155</ele>
        <time>2015-04-16T13:26:12Z</time>
      </trkpt>
      <trkpt lat="43.34794" lon="5.2167">
        <ele>155</ele>
        <time>2015-04-16T13:26:13Z</time>
      </trkpt>
      <trkpt lat="43.34793" lon="5.2167">
        <ele>155</ele>
        <time>2015-04-16T13:26:14Z</time>
      </trkpt>
      <trkpt lat="43.34791" lon="5.21671">
        <ele>155</ele>
        <time>2015-04-16T13:26:15Z</time>
      </trkpt>
      <trkpt lat="43.3479" lon="5.21672">
        <ele>155</ele>
        <time>2015-04-16T13:26:16Z</time>
      </trkpt>
      <trkpt lat="43.34789" lon="5.21673">
        <ele>154</ele>
        <time>2015-04-16T13:26:17Z</time>
      </trkpt>
      <trkpt lat="43.34787" lon="5.21674">
        <ele>154</ele>
        <time>2015-04-16T13:26:18Z</time>
      </trkpt>
      <trkpt lat="43.34786" lon="5.21674">
        <ele>154</ele>
        <time>2015-04-16T13:26:19Z</time>
      </trkpt>
      <trkpt lat="43.34784" lon="5.21675">
        <ele>154</ele>
        <time>2015-04-16T13:26:20Z</time>
      </trkpt>
      <trkpt lat="43.34783" lon="5.21676">
        <ele>153</ele>
        <time>2015-04-16T13:26:21Z</time>
      </trkpt>
      <trkpt lat="43.34782" lon="5.21677">
        <ele>153</ele>
        <time>2015-04-16T13:26:22Z</time>
      </trkpt>
      <trkpt lat="43.3478" lon="5.21677">
        <ele>153</ele>
        <time>2015-04-16T13:26:23Z</time>
      </trkpt>
      <trkpt lat="43.34779" lon="5.21677">
        <ele>152</ele>
        <time>2015-04-16T13:26:24Z</time>
      </trkpt>
      <trkpt lat="43.34777" lon="5.21678">
        <ele>152</ele>
        <time>2015-04-16T13:26:25Z</time>
      </trkpt>
      <trkpt lat="43.34776" lon="5.21679">
        <ele>151</ele>
        <time>2015-04-16T13:26:26Z</time>
      </trkpt>
      <trkpt lat="43.34775" lon="5.21679">
        <ele>151</ele>
        <time>2015-04-16T13:26:27Z</time>
      </trkpt>
      <trkpt lat="43.34774" lon="5.2168">
        <ele>150</ele>
        <time>2015-04-16T13:26:28Z</time>
      </trkpt>
      <trkpt lat="43.34772" lon="5.2168">
        <ele>150</ele>
        <time>2015-04-16T13:26:29Z</time>
      </trkpt>
      <trkpt lat="43.3477" lon="5.21679">
        <ele>148</ele>
        <time>2015-04-16T13:26:31Z</time>
      </trkpt>
      <trkpt lat="43.34769" lon="5.21679">
        <ele>148</ele>
        <time>2015-04-16T13:26:32Z</time>
      </trkpt>
      <trkpt lat="43.34767" lon="5.21678">
        <ele>147</ele>
        <time>2015-04-16T13:26:33Z</time>
      </trkpt>
      <trkpt lat="43.34766" lon="5.21677">
        <ele>146</ele>
        <time>2015-04-16T13:26:34Z</time>
      </trkpt>
      <trkpt lat="43.34765" lon="5.21676">
        <ele>146</ele>
        <time>2015-04-16T13:26:35Z</time>
      </trkpt>
      <trkpt lat="43.34764" lon="5.21674">
        <ele>146</ele>
        <time>2015-04-16T13:26:36Z</time>
      </trkpt>
      <trkpt lat="43.34762" lon="5.21671">
        <ele>146</ele>
        <time>2015-04-16T13:26:38Z</time>
      </trkpt>
      <trkpt lat="43.34762" lon="5.21669">
        <ele>146</ele>
        <time>2015-04-16T13:26:39Z</time>
      </trkpt>
      <trkpt lat="43.34761" lon="5.21668">
        <ele>146</ele>
        <time>2015-04-16T13:26:40Z</time>
      </trkpt>
      <trkpt lat="43.34761" lon="5.21666">
        <ele>146</ele>
        <time>2015-04-16T13:26:41Z</time>
      </trkpt>
      <trkpt lat="43.3476" lon="5.21664">
        <ele>146</ele>
        <time>2015-04-16T13:26:42Z</time>
      </trkpt>
      <trkpt lat="43.3476" lon="5.21663">
        <ele>146</ele>
        <time>2015-04-16T13:26:43Z</time>
      </trkpt>
      <trkpt lat="43.34759" lon="5.21661">
        <ele>146</ele>
        <time>2015-04-16T13:26:44Z</time>
      </trkpt>
      <trkpt lat="43.34758" lon="5.2166">
        <ele>146</ele>
        <time>2015-04-16T13:26:45Z</time>
      </trkpt>
      <trkpt lat="43.34758" lon="5.21658">
        <ele>146</ele>
        <time>2015-04-16T13:26:46Z</time>
      </trkpt>
      <trkpt lat="43.34757" lon="5.21656">
        <ele>146</ele>
        <time>2015-04-16T13:26:47Z</time>
      </trkpt>
      <trkpt lat="43.34756" lon="5.21654">
        <ele>146</ele>
        <time>2015-04-16T13:26:48Z</time>
      </trkpt>
      <trkpt lat="43.34756" lon="5.21652">
        <ele>146</ele>
        <time>2015-04-16T13:26:49Z</time>
      </trkpt>
      <trkpt lat="43.34755" lon="5.2165">
        <ele>146</ele>
        <time>2015-04-16T13:26:50Z</time>
      </trkpt>
      <trkpt lat="43.34754" lon="5.21648">
        <ele>146</ele>
        <time>2015-04-16T13:26:51Z</time>
      </trkpt>
      <trkpt lat="43.34753" lon="5.21646">
        <ele>146</ele>
        <time>2015-04-16T13:26:52Z</time>
      </trkpt>
      <trkpt lat="43.34752" lon="5.21644">
        <ele>146</ele>
        <time>2015-04-16T13:26:53Z</time>
      </trkpt>
      <trkpt lat="43.34751" lon="5.21643">
        <ele>146</ele>
        <time>2015-04-16T13:26:54Z</time>
      </trkpt>
      <trkpt lat="43.3475" lon="5.21641">
        <ele>146</ele>
        <time>2015-04-16T13:26:55Z</time>
      </trkpt>
      <trkpt lat="43.3475" lon="5.21639">
        <ele>146</ele>
        <time>2015-04-16T13:26:56Z</time>
      </trkpt>
      <trkpt lat="43.34749" lon="5.21637">
        <ele>146</ele>
        <time>2015-04-16T13:26:57Z</time>
      </trkpt>
      <trkpt lat="43.34748" lon="5.21635">
        <ele>146</ele>
        <time>2015-04-16T13:26:58Z</time>
      </trkpt>
      <trkpt lat="43.34748" lon="5.21633">
        <ele>146</ele>
        <time>2015-04-16T13:26:59Z</time>
      </trkpt>
      <trkpt lat="43.34747" lon="5.21631">
        <ele>146</ele>
        <time>2015-04-16T13:27:00Z</time>
      </trkpt>
      <trkpt lat="43.34746" lon="5.2163">
        <ele>146</ele>
        <time>2015-04-16T13:27:01Z</time>
      </trkpt>
      <trkpt lat="43.34746" lon="5.21628">
        <ele>146</ele>
        <time>2015-04-16T13:27:02Z</time>
      </trkpt>
      <trkpt lat="43.34745" lon="5.21626">
        <ele>146</ele>
        <time>2015-04-16T13:27:03Z</time>
      </trkpt>
      <trkpt lat="43.34744" lon="5.21624">
        <ele>146</ele>
        <time>2015-04-16T13:27:04Z</time>
      </trkpt>
      <trkpt lat="43.34743" lon="5.21623">
        <ele>146</ele>
        <time>2015-04-16T13:27:05Z</time>
      </trkpt>
      <trkpt lat="43.34742" lon="5.21621">
        <ele>146</ele>
        <time>2015-04-16T13:27:06Z</time>
      </trkpt>
      <trkpt lat="43.34741" lon="5.21619">
        <ele>146</ele>
        <time>2015-04-16T13:27:07Z</time>
      </trkpt>
      <trkpt lat="43.3474" lon="5.21617">
        <ele>146</ele>
        <time>2015-04-16T13:27:08Z</time>
      </trkpt>
      <trkpt lat="43.34739" lon="5.21615">
        <ele>146</ele>
        <time>2015-04-16T13:27:09Z</time>
      </trkpt>
      <trkpt lat="43.34738" lon="5.21613">
        <ele>146</ele>
        <time>2015-04-16T13:27:10Z</time>
      </trkpt>
      <trkpt lat="43.34738" lon="5.21611">
        <ele>146</ele>
        <time>2015-04-16T13:27:11Z</time>
      </trkpt>
      <trkpt lat="43.34738" lon="5.21609">
        <ele>146</ele>
        <time>2015-04-16T13:27:12Z</time>
      </trkpt>
      <trkpt lat="43.34737" lon="5.21607">
        <ele>146</ele>
        <time>2015-04-16T13:27:13Z</time>
      </trkpt>
      <trkpt lat="43.34738" lon="5.21606">
        <ele>146</ele>
        <time>2015-04-16T13:27:14Z</time>
      </trkpt>
      <trkpt lat="43.34738" lon="5.21604">
        <ele>146</ele>
        <time>2015-04-16T13:27:15Z</time>
      </trkpt>
      <trkpt lat="43.34737" lon="5.21602">
        <ele>146</ele>
        <time>2015-04-16T13:27:16Z</time>
      </trkpt>
      <trkpt lat="43.34737" lon="5.21599">
        <ele>146</ele>
        <time>2015-04-16T13:27:18Z</time>
      </trkpt>
      <trkpt lat="43.34737" lon="5.21597">
        <ele>146</ele>
        <time>2015-04-16T13:27:19Z</time>
      </trkpt>
      <trkpt lat="43.34737" lon="5.21596">
        <ele>146</ele>
        <time>2015-04-16T13:27:20Z</time>
      </trkpt>
      <trkpt lat="43.34737" lon="5.21594">
        <ele>146</ele>
        <time>2015-04-16T13:27:21Z</time>
      </trkpt>
      <trkpt lat="43.34737" lon="5.21592">
        <ele>147</ele>
        <time>2015-04-16T13:27:22Z</time>
      </trkpt>
      <trkpt lat="43.34735" lon="5.2159">
        <ele>148</ele>
        <time>2015-04-16T13:27:24Z</time>
      </trkpt>
      <trkpt lat="43.34734" lon="5.21589">
        <ele>148</ele>
        <time>2015-04-16T13:27:25Z</time>
      </trkpt>
      <trkpt lat="43.34732" lon="5.21588">
        <ele>148</ele>
        <time>2015-04-16T13:27:26Z</time>
      </trkpt>
      <trkpt lat="43.34731" lon="5.21588">
        <ele>149</ele>
        <time>2015-04-16T13:27:27Z</time>
      </trkpt>
      <trkpt lat="43.34729" lon="5.21587">
        <ele>149</ele>
        <time>2015-04-16T13:27:28Z</time>
      </trkpt>
      <trkpt lat="43.34728" lon="5.21587">
        <ele>149</ele>
        <time>2015-04-16T13:27:29Z</time>
      </trkpt>
      <trkpt lat="43.34726" lon="5.21587">
        <ele>150</ele>
        <time>2015-04-16T13:27:30Z</time>
      </trkpt>
      <trkpt lat="43.34725" lon="5.21587">
        <ele>150</ele>
        <time>2015-04-16T13:27:31Z</time>
      </trkpt>
      <trkpt lat="43.34723" lon="5.21586">
        <ele>150</ele>
        <time>2015-04-16T13:27:32Z</time>
      </trkpt>
      <trkpt lat="43.34722" lon="5.21587">
        <ele>150</ele>
        <time>2015-04-16T13:27:33Z</time>
      </trkpt>
      <trkpt lat="43.3472" lon="5.21587">
        <ele>151</ele>
        <time>2015-04-16T13:27:35Z</time>
      </trkpt>
      <trkpt lat="43.34718" lon="5.21588">
        <ele>151</ele>
        <time>2015-04-16T13:27:36Z</time>
      </trkpt>
      <trkpt lat="43.34717" lon="5.21588">
        <ele>151</ele>
        <time>2015-04-16T13:27:37Z</time>
      </trkpt>
      <trkpt lat="43.34716" lon="5.21589">
        <ele>151</ele>
        <time>2015-04-16T13:27:38Z</time>
      </trkpt>
      <trkpt lat="43.34715" lon="5.21589">
        <ele>151</ele>
        <time>2015-04-16T13:27:39Z</time>
      </trkpt>
      <trkpt lat="43.34713" lon="5.2159">
        <ele>151</ele>
        <time>2015-04-16T13:27:40Z</time>
      </trkpt>
      <trkpt lat="43.34711" lon="5.21592">
        <ele>152</ele>
        <time>2015-04-16T13:27:42Z</time>
      </trkpt>
      <trkpt lat="43.34709" lon="5.21594">
        <ele>152</ele>
        <time>2015-04-16T13:27:44Z</time>
      </trkpt>
      <trkpt lat="43.34708" lon="5.21597">
        <ele>152</ele>
        <time>2015-04-16T13:27:46Z</time>
      </trkpt>
      <trkpt lat="43.34707" lon="5.21598">
        <ele>152</ele>
        <time>2015-04-16T13:27:47Z</time>
      </trkpt>
      <trkpt lat="43.34707" lon="5.216">
        <ele>152</ele>
        <time>2015-04-16T13:27:48Z</time>
      </trkpt>
      <trkpt lat="43.34705" lon="5.21603">
        <ele>152</ele>
        <time>2015-04-16T13:27:50Z</time>
      </trkpt>
      <trkpt lat="43.34705" lon="5.21604">
        <ele>152</ele>
        <time>2015-04-16T13:27:51Z</time>
      </trkpt>
      <trkpt lat="43.34705" lon="5.21606">
        <ele>152</ele>
        <time>2015-04-16T13:27:52Z</time>
      </trkpt>
      <trkpt lat="43.34704" lon="5.21607">
        <ele>152</ele>
        <time>2015-04-16T13:27:53Z</time>
      </trkpt>
      <trkpt lat="43.34703" lon="5.2161">
        <ele>152</ele>
        <time>2015-04-16T13:27:55Z</time>
      </trkpt>
      <trkpt lat="43.34703" lon="5.21612">
        <ele>152</ele>
        <time>2015-04-16T13:27:56Z</time>
      </trkpt>
      <trkpt lat="43.34703" lon="5.21613">
        <ele>152</ele>
        <time>2015-04-16T13:27:57Z</time>
      </trkpt>
      <trkpt lat="43.34702" lon="5.21615">
        <ele>152</ele>
        <time>2015-04-16T13:27:58Z</time>
      </trkpt>
      <trkpt lat="43.34701" lon="5.21616">
        <ele>153</ele>
        <time>2015-04-16T13:27:59Z</time>
      </trkpt>
      <trkpt lat="43.34701" lon="5.21618">
        <ele>153</ele>
        <time>2015-04-16T13:28:00Z</time>
      </trkpt>
      <trkpt lat="43.347" lon="5.21619">
        <ele>153</ele>
        <time>2015-04-16T13:28:01Z</time>
      </trkpt>
      <trkpt lat="43.347" lon="5.21621">
        <ele>154</ele>
        <time>2015-04-16T13:28:02Z</time>
      </trkpt>
      <trkpt lat="43.34699" lon="5.21624">
        <ele>155</ele>
        <time>2015-04-16T13:28:04Z</time>
      </trkpt>
      <trkpt lat="43.34698" lon="5.21625">
        <ele>155</ele>
        <time>2015-04-16T13:28:05Z</time>
      </trkpt>
      <trkpt lat="43.34697" lon="5.21628">
        <ele>155</ele>
        <time>2015-04-16T13:28:07Z</time>
      </trkpt>
      <trkpt lat="43.34697" lon="5.2163">
        <ele>155</ele>
        <time>2015-04-16T13:28:08Z</time>
      </trkpt>
      <trkpt lat="43.34696" lon="5.21631">
        <ele>155</ele>
        <time>2015-04-16T13:28:09Z</time>
      </trkpt>
      <trkpt lat="43.34696" lon="5.21633">
        <ele>155</ele>
        <time>2015-04-16T13:28:10Z</time>
      </trkpt>
      <trkpt lat="43.34696" lon="5.21635">
        <ele>155</ele>
        <time>2015-04-16T13:28:11Z</time>
      </trkpt>
      <trkpt lat="43.34696" lon="5.21637">
        <ele>156</ele>
        <time>2015-04-16T13:28:12Z</time>
      </trkpt>
      <trkpt lat="43.34695" lon="5.21638">
        <ele>156</ele>
        <time>2015-04-16T13:28:13Z</time>
      </trkpt>
      <trkpt lat="43.34695" lon="5.2164">
        <ele>156</ele>
        <time>2015-04-16T13:28:14Z</time>
      </trkpt>
      <trkpt lat="43.34694" lon="5.21642">
        <ele>157</ele>
        <time>2015-04-16T13:28:15Z</time>
      </trkpt>
      <trkpt lat="43.34693" lon="5.21643">
        <ele>157</ele>
        <time>2015-04-16T13:28:16Z</time>
      </trkpt>
      <trkpt lat="43.34693" lon="5.21645">
        <ele>157</ele>
        <time>2015-04-16T13:28:17Z</time>
      </trkpt>
      <trkpt lat="43.34692" lon="5.21647">
        <ele>157</ele>
        <time>2015-04-16T13:28:18Z</time>
      </trkpt>
      <trkpt lat="43.34692" lon="5.21649">
        <ele>157</ele>
        <time>2015-04-16T13:28:19Z</time>
      </trkpt>
      <trkpt lat="43.34692" lon="5.21651">
        <ele>157</ele>
        <time>2015-04-16T13:28:20Z</time>
      </trkpt>
      <trkpt lat="43.34691" lon="5.21652">
        <ele>157</ele>
        <time>2015-04-16T13:28:21Z</time>
      </trkpt>
      <trkpt lat="43.3469" lon="5.21654">
        <ele>157</ele>
        <time>2015-04-16T13:28:22Z</time>
      </trkpt>
      <trkpt lat="43.34689" lon="5.21656">
        <ele>157</ele>
        <time>2015-04-16T13:28:23Z</time>
      </trkpt>
      <trkpt lat="43.34688" lon="5.21657">
        <ele>157</ele>
        <time>2015-04-16T13:28:24Z</time>
      </trkpt>
      <trkpt lat="43.34687" lon="5.21659">
        <ele>157</ele>
        <time>2015-04-16T13:28:25Z</time>
      </trkpt>
      <trkpt lat="43.34685" lon="5.2166">
        <ele>157</ele>
        <time>2015-04-16T13:28:26Z</time>
      </trkpt>
      <trkpt lat="43.34684" lon="5.21661">
        <ele>157</ele>
        <time>2015-04-16T13:28:27Z</time>
      </trkpt>
      <trkpt lat="43.34682" lon="5.21662">
        <ele>157</ele>
        <time>2015-04-16T13:28:28Z</time>
      </trkpt>
      <trkpt lat="43.34681" lon="5.21662">
        <ele>157</ele>
        <time>2015-04-16T13:28:29Z</time>
      </trkpt>
      <trkpt lat="43.3468" lon="5.21663">
        <ele>157</ele>
        <time>2015-04-16T13:28:30Z</time>
      </trkpt>
      <trkpt lat="43.34678" lon="5.21663">
        <ele>157</ele>
        <time>2015-04-16T13:28:31Z</time>
      </trkpt>
      <trkpt lat="43.34677" lon="5.21663">
        <ele>157</ele>
        <time>2015-04-16T13:28:32Z</time>
      </trkpt>
      <trkpt lat="43.34675" lon="5.21663">
        <ele>157</ele>
        <time>2015-04-16T13:28:33Z</time>
      </trkpt>
      <trkpt lat="43.34674" lon="5.21664">
        <ele>157</ele>
        <time>2015-04-16T13:28:34Z</time>
      </trkpt>
      <trkpt lat="43.34673" lon="5.21665">
        <ele>157</ele>
        <time>2015-04-16T13:28:35Z</time>
      </trkpt>
      <trkpt lat="43.34671" lon="5.21666">
        <ele>157</ele>
        <time>2015-04-16T13:28:36Z</time>
      </trkpt>
      <trkpt lat="43.3467" lon="5.21667">
        <ele>157</ele>
        <time>2015-04-16T13:28:37Z</time>
      </trkpt>
      <trkpt lat="43.34669" lon="5.21668">
        <ele>157</ele>
        <time>2015-04-16T13:28:38Z</time>
      </trkpt>
      <trkpt lat="43.34668" lon="5.21669">
        <ele>157</ele>
        <time>2015-04-16T13:28:39Z</time>
      </trkpt>
      <trkpt lat="43.34667" lon="5.21671">
        <ele>157</ele>
        <time>2015-04-16T13:28:40Z</time>
      </trkpt>
      <trkpt lat="43.34666" lon="5.21673">
        <ele>157</ele>
        <time>2015-04-16T13:28:41Z</time>
      </trkpt>
      <trkpt lat="43.34665" lon="5.21675">
        <ele>157</ele>
        <time>2015-04-16T13:28:42Z</time>
      </trkpt>
      <trkpt lat="43.34664" lon="5.21676">
        <ele>157</ele>
        <time>2015-04-16T13:28:43Z</time>
      </trkpt>
      <trkpt lat="43.34663" lon="5.21678">
        <ele>157</ele>
        <time>2015-04-16T13:28:44Z</time>
      </trkpt>
      <trkpt lat="43.34661" lon="5.21679">
        <ele>157</ele>
        <time>2015-04-16T13:28:45Z</time>
      </trkpt>
      <trkpt lat="43.3466" lon="5.21681">
        <ele>157</ele>
        <time>2015-04-16T13:28:46Z</time>
      </trkpt>
      <trkpt lat="43.3466" lon="5.21683">
        <ele>157</ele>
        <time>2015-04-16T13:28:47Z</time>
      </trkpt>
      <trkpt lat="43.34658" lon="5.21685">
        <ele>158</ele>
        <time>2015-04-16T13:28:48Z</time>
      </trkpt>
      <trkpt lat="43.34658" lon="5.21687">
        <ele>158</ele>
        <time>2015-04-16T13:28:49Z</time>
      </trkpt>
      <trkpt lat="43.34657" lon="5.21689">
        <ele>158</ele>
        <time>2015-04-16T13:28:50Z</time>
      </trkpt>
      <trkpt lat="43.34655" lon="5.2169">
        <ele>158</ele>
        <time>2015-04-16T13:28:51Z</time>
      </trkpt>
      <trkpt lat="43.34654" lon="5.21692">
        <ele>159</ele>
        <time>2015-04-16T13:28:52Z</time>
      </trkpt>
      <trkpt lat="43.34653" lon="5.21694">
        <ele>159</ele>
        <time>2015-04-16T13:28:53Z</time>
      </trkpt>
      <trkpt lat="43.34652" lon="5.21695">
        <ele>159</ele>
        <time>2015-04-16T13:28:54Z</time>
      </trkpt>
      <trkpt lat="43.34652" lon="5.21697">
        <ele>160</ele>
        <time>2015-04-16T13:28:55Z</time>
      </trkpt>
      <trkpt lat="43.3465" lon="5.21699">
        <ele>160</ele>
        <time>2015-04-16T13:28:56Z</time>
      </trkpt>
      <trkpt lat="43.3465" lon="5.217">
        <ele>160</ele>
        <time>2015-04-16T13:28:57Z</time>
      </trkpt>
      <trkpt lat="43.34648" lon="5.21702">
        <ele>160</ele>
        <time>2015-04-16T13:28:58Z</time>
      </trkpt>
      <trkpt lat="43.34647" lon="5.21704">
        <ele>161</ele>
        <time>2015-04-16T13:28:59Z</time>
      </trkpt>
      <trkpt lat="43.34646" lon="5.21705">
        <ele>161</ele>
        <time>2015-04-16T13:29:00Z</time>
      </trkpt>
      <trkpt lat="43.34645" lon="5.21707">
        <ele>161</ele>
        <time>2015-04-16T13:29:01Z</time>
      </trkpt>
      <trkpt lat="43.34644" lon="5.21708">
        <ele>161</ele>
        <time>2015-04-16T13:29:02Z</time>
      </trkpt>
      <trkpt lat="43.34642" lon="5.21709">
        <ele>162</ele>
        <time>2015-04-16T13:29:03Z</time>
      </trkpt>
      <trkpt lat="43.34641" lon="5.2171">
        <ele>162</ele>
        <time>2015-04-16T13:29:04Z</time>
      </trkpt>
      <trkpt lat="43.3464" lon="5.21711">
        <ele>162</ele>
        <time>2015-04-16T13:29:05Z</time>
      </trkpt>
      <trkpt lat="43.34638" lon="5.21711">
        <ele>162</ele>
        <time>2015-04-16T13:29:06Z</time>
      </trkpt>
      <trkpt lat="43.34637" lon="5.21712">
        <ele>162</ele>
        <time>2015-04-16T13:29:07Z</time>
      </trkpt>
      <trkpt lat="43.34635" lon="5.21713">
        <ele>163</ele>
        <time>2015-04-16T13:29:09Z</time>
      </trkpt>
      <trkpt lat="43.34633" lon="5.21714">
        <ele>164</ele>
        <time>2015-04-16T13:29:11Z</time>
      </trkpt>
      <trkpt lat="43.34631" lon="5.21715">
        <ele>164</ele>
        <time>2015-04-16T13:29:12Z</time>
      </trkpt>
      <trkpt lat="43.3463" lon="5.21715">
        <ele>164</ele>
        <time>2015-04-16T13:29:13Z</time>
      </trkpt>
      <trkpt lat="43.34629" lon="5.21715">
        <ele>164</ele>
        <time>2015-04-16T13:29:14Z</time>
      </trkpt>
      <trkpt lat="43.34628" lon="5.21715">
        <ele>165</ele>
        <time>2015-04-16T13:29:15Z</time>
      </trkpt>
      <trkpt lat="43.34626" lon="5.21715">
        <ele>165</ele>
        <time>2015-04-16T13:29:16Z</time>
      </trkpt>
      <trkpt lat="43.34625" lon="5.21715">
        <ele>165</ele>
        <time>2015-04-16T13:29:17Z</time>
      </trkpt>
      <trkpt lat="43.34624" lon="5.21715">
        <ele>165</ele>
        <time>2015-04-16T13:29:18Z</time>
      </trkpt>
      <trkpt lat="43.34623" lon="5.21715">
        <ele>166</ele>
        <time>2015-04-16T13:29:19Z</time>
      </trkpt>
      <trkpt lat="43.34621" lon="5.21715">
        <ele>166</ele>
        <time>2015-04-16T13:29:21Z</time>
      </trkpt>
      <trkpt lat="43.34619" lon="5.21715">
        <ele>166</ele>
        <time>2015-04-16T13:29:23Z</time>
      </trkpt>
      <trkpt lat="43.34618" lon="5.21714">
        <ele>166</ele>
        <time>2015-04-16T13:29:24Z</time>
      </trkpt>
      <trkpt lat="43.34616" lon="5.21713">
        <ele>166</ele>
        <time>2015-04-16T13:29:25Z</time>
      </trkpt>
      <trkpt lat="43.34615" lon="5.21712">
        <ele>166</ele>
        <time>2015-04-16T13:29:26Z</time>
      </trkpt>
      <trkpt lat="43.34613" lon="5.2171">
        <ele>166</ele>
        <time>2015-04-16T13:29:28Z</time>
      </trkpt>
      <trkpt lat="43.34611" lon="5.21709">
        <ele>166</ele>
        <time>2015-04-16T13:29:30Z</time>
      </trkpt>
      <trkpt lat="43.3461" lon="5.21708">
        <ele>166</ele>
        <time>2015-04-16T13:29:31Z</time>
      </trkpt>
      <trkpt lat="43.34609" lon="5.21707">
        <ele>166</ele>
        <time>2015-04-16T13:29:32Z</time>
      </trkpt>
      <trkpt lat="43.34607" lon="5.21707">
        <ele>166</ele>
        <time>2015-04-16T13:29:33Z</time>
      </trkpt>
      <trkpt lat="43.34605" lon="5.21705">
        <ele>166</ele>
        <time>2015-04-16T13:29:35Z</time>
      </trkpt>
      <trkpt lat="43.34604" lon="5.21705">
        <ele>166</ele>
        <time>2015-04-16T13:29:36Z</time>
      </trkpt>
      <trkpt lat="43.34603" lon="5.21704">
        <ele>166</ele>
        <time>2015-04-16T13:29:37Z</time>
      </trkpt>
      <trkpt lat="43.34601" lon="5.21704">
        <ele>166</ele>
        <time>2015-04-16T13:29:38Z</time>
      </trkpt>
      <trkpt lat="43.346" lon="5.21703">
        <ele>166</ele>
        <time>2015-04-16T13:29:39Z</time>
      </trkpt>
      <trkpt lat="43.34599" lon="5.21703">
        <ele>166</ele>
        <time>2015-04-16T13:29:40Z</time>
      </trkpt>
      <trkpt lat="43.34597" lon="5.21703">
        <ele>166</ele>
        <time>2015-04-16T13:29:41Z</time>
      </trkpt>
      <trkpt lat="43.34596" lon="5.21702">
        <ele>166</ele>
        <time>2015-04-16T13:29:42Z</time>
      </trkpt>
      <trkpt lat="43.34594" lon="5.21702">
        <ele>166</ele>
        <time>2015-04-16T13:29:43Z</time>
      </trkpt>
      <trkpt lat="43.34593" lon="5.21701">
        <ele>166</ele>
        <time>2015-04-16T13:29:44Z</time>
      </trkpt>
      <trkpt lat="43.34592" lon="5.217">
        <ele>166</ele>
        <time>2015-04-16T13:29:45Z</time>
      </trkpt>
      <trkpt lat="43.3459" lon="5.217">
        <ele>166</ele>
        <time>2015-04-16T13:29:46Z</time>
      </trkpt>
      <trkpt lat="43.34588" lon="5.21699">
        <ele>166</ele>
        <time>2015-04-16T13:29:48Z</time>
      </trkpt>
      <trkpt lat="43.34587" lon="5.21699">
        <ele>166</ele>
        <time>2015-04-16T13:29:49Z</time>
      </trkpt>
      <trkpt lat="43.34586" lon="5.21699">
        <ele>166</ele>
        <time>2015-04-16T13:29:50Z</time>
      </trkpt>
      <trkpt lat="43.34584" lon="5.21699">
        <ele>166</ele>
        <time>2015-04-16T13:29:51Z</time>
      </trkpt>
      <trkpt lat="43.34583" lon="5.21698">
        <ele>166</ele>
        <time>2015-04-16T13:29:52Z</time>
      </trkpt>
      <trkpt lat="43.34581" lon="5.21698">
        <ele>166</ele>
        <time>2015-04-16T13:29:53Z</time>
      </trkpt>
      <trkpt lat="43.3458" lon="5.21698">
        <ele>166</ele>
        <time>2015-04-16T13:29:54Z</time>
      </trkpt>
      <trkpt lat="43.34578" lon="5.21697">
        <ele>166</ele>
        <time>2015-04-16T13:29:55Z</time>
      </trkpt>
      <trkpt lat="43.34577" lon="5.21697">
        <ele>166</ele>
        <time>2015-04-16T13:29:56Z</time>
      </trkpt>
      <trkpt lat="43.34575" lon="5.21697">
        <ele>166</ele>
        <time>2015-04-16T13:29:57Z</time>
      </trkpt>
      <trkpt lat="43.34573" lon="5.21696">
        <ele>166</ele>
        <time>2015-04-16T13:29:58Z</time>
      </trkpt>
      <trkpt lat="43.34572" lon="5.21695">
        <ele>166</ele>
        <time>2015-04-16T13:29:59Z</time>
      </trkpt>
      <trkpt lat="43.3457" lon="5.21695">
        <ele>166</ele>
        <time>2015-04-16T13:30:00Z</time>
      </trkpt>
      <trkpt lat="43.34569" lon="5.21694">
        <ele>166</ele>
        <time>2015-04-16T13:30:01Z</time>
      </trkpt>
      <trkpt lat="43.34567" lon="5.21693">
        <ele>166</ele>
        <time>2015-04-16T13:30:02Z</time>
      </trkpt>
      <trkpt lat="43.34566" lon="5.21692">
        <ele>166</ele>
        <time>2015-04-16T13:30:03Z</time>
      </trkpt>
      <trkpt lat="43.34564" lon="5.21692">
        <ele>166</ele>
        <time>2015-04-16T13:30:04Z</time>
      </trkpt>
      <trkpt lat="43.34563" lon="5.21691">
        <ele>166</ele>
        <time>2015-04-16T13:30:05Z</time>
      </trkpt>
      <trkpt lat="43.34561" lon="5.2169">
        <ele>166</ele>
        <time>2015-04-16T13:30:06Z</time>
      </trkpt>
      <trkpt lat="43.3456" lon="5.2169">
        <ele>166</ele>
        <time>2015-04-16T13:30:07Z</time>
      </trkpt>
      <trkpt lat="43.34558" lon="5.21689">
        <ele>166</ele>
        <time>2015-04-16T13:30:08Z</time>
      </trkpt>
      <trkpt lat="43.34557" lon="5.21688">
        <ele>166</ele>
        <time>2015-04-16T13:30:09Z</time>
      </trkpt>
      <trkpt lat="43.34555" lon="5.21687">
        <ele>166</ele>
        <time>2015-04-16T13:30:10Z</time>
      </trkpt>
      <trkpt lat="43.34554" lon="5.21686">
        <ele>166</ele>
        <time>2015-04-16T13:30:11Z</time>
      </trkpt>
      <trkpt lat="43.34552" lon="5.21684">
        <ele>166</ele>
        <time>2015-04-16T13:30:12Z</time>
      </trkpt>
      <trkpt lat="43.34552" lon="5.21682">
        <ele>166</ele>
        <time>2015-04-16T13:30:13Z</time>
      </trkpt>
      <trkpt lat="43.34551" lon="5.2168">
        <ele>166</ele>
        <time>2015-04-16T13:30:14Z</time>
      </trkpt>
      <trkpt lat="43.3455" lon="5.21678">
        <ele>166</ele>
        <time>2015-04-16T13:30:15Z</time>
      </trkpt>
      <trkpt lat="43.3455" lon="5.21676">
        <ele>166</ele>
        <time>2015-04-16T13:30:16Z</time>
      </trkpt>
      <trkpt lat="43.34551" lon="5.21673">
        <ele>166</ele>
        <time>2015-04-16T13:30:17Z</time>
      </trkpt>
      <trkpt lat="43.34551" lon="5.21671">
        <ele>166</ele>
        <time>2015-04-16T13:30:18Z</time>
      </trkpt>
      <trkpt lat="43.34552" lon="5.21669">
        <ele>166</ele>
        <time>2015-04-16T13:30:19Z</time>
      </trkpt>
      <trkpt lat="43.34553" lon="5.21667">
        <ele>166</ele>
        <time>2015-04-16T13:30:20Z</time>
      </trkpt>
      <trkpt lat="43.34553" lon="5.21665">
        <ele>165</ele>
        <time>2015-04-16T13:30:21Z</time>
      </trkpt>
      <trkpt lat="43.34554" lon="5.21664">
        <ele>165</ele>
        <time>2015-04-16T13:30:22Z</time>
      </trkpt>
      <trkpt lat="43.34555" lon="5.21662">
        <ele>165</ele>
        <time>2015-04-16T13:30:23Z</time>
      </trkpt>
      <trkpt lat="43.34555" lon="5.21659">
        <ele>165</ele>
        <time>2015-04-16T13:30:24Z</time>
      </trkpt>
      <trkpt lat="43.34556" lon="5.21657">
        <ele>165</ele>
        <time>2015-04-16T13:30:25Z</time>
      </trkpt>
      <trkpt lat="43.34556" lon="5.21655">
        <ele>165</ele>
        <time>2015-04-16T13:30:26Z</time>
      </trkpt>
      <trkpt lat="43.34556" lon="5.21654">
        <ele>165</ele>
        <time>2015-04-16T13:30:27Z</time>
      </trkpt>
      <trkpt lat="43.34556" lon="5.21652">
        <ele>165</ele>
        <time>2015-04-16T13:30:28Z</time>
      </trkpt>
      <trkpt lat="43.34557" lon="5.21651">
        <ele>165</ele>
        <time>2015-04-16T13:30:29Z</time>
      </trkpt>
      <trkpt lat="43.34557" lon="5.21649">
        <ele>165</ele>
        <time>2015-04-16T13:30:30Z</time>
      </trkpt>
      <trkpt lat="43.34557" lon="5.21647">
        <ele>165</ele>
        <time>2015-04-16T13:30:31Z</time>
      </trkpt>
      <trkpt lat="43.34557" lon="5.21645">
        <ele>164</ele>
        <time>2015-04-16T13:30:32Z</time>
      </trkpt>
      <trkpt lat="43.34557" lon="5.21643">
        <ele>164</ele>
        <time>2015-04-16T13:30:33Z</time>
      </trkpt>
      <trkpt lat="43.34556" lon="5.21641">
        <ele>164</ele>
        <time>2015-04-16T13:30:34Z</time>
      </trkpt>
      <trkpt lat="43.34556" lon="5.21639">
        <ele>164</ele>
        <time>2015-04-16T13:30:35Z</time>
      </trkpt>
      <trkpt lat="43.34556" lon="5.21637">
        <ele>164</ele>
        <time>2015-04-16T13:30:36Z</time>
      </trkpt>
      <trkpt lat="43.34555" lon="5.21635">
        <ele>164</ele>
        <time>2015-04-16T13:30:37Z</time>
      </trkpt>
      <trkpt lat="43.34555" lon="5.21633">
        <ele>164</ele>
        <time>2015-04-16T13:30:38Z</time>
      </trkpt>
      <trkpt lat="43.34554" lon="5.21631">
        <ele>164</ele>
        <time>2015-04-16T13:30:39Z</time>
      </trkpt>
      <trkpt lat="43.34554" lon="5.21629">
        <ele>164</ele>
        <time>2015-04-16T13:30:40Z</time>
      </trkpt>
      <trkpt lat="43.34553" lon="5.21627">
        <ele>164</ele>
        <time>2015-04-16T13:30:41Z</time>
      </trkpt>
      <trkpt lat="43.34552" lon="5.21625">
        <ele>164</ele>
        <time>2015-04-16T13:30:42Z</time>
      </trkpt>
      <trkpt lat="43.34551" lon="5.21623">
        <ele>164</ele>
        <time>2015-04-16T13:30:43Z</time>
      </trkpt>
      <trkpt lat="43.34551" lon="5.21621">
        <ele>164</ele>
        <time>2015-04-16T13:30:44Z</time>
      </trkpt>
      <trkpt lat="43.3455" lon="5.21619">
        <ele>164</ele>
        <time>2015-04-16T13:30:45Z</time>
      </trkpt>
      <trkpt lat="43.34549" lon="5.21618">
        <ele>164</ele>
        <time>2015-04-16T13:30:46Z</time>
      </trkpt>
      <trkpt lat="43.34548" lon="5.21616">
        <ele>164</ele>
        <time>2015-04-16T13:30:47Z</time>
      </trkpt>
      <trkpt lat="43.34547" lon="5.21614">
        <ele>164</ele>
        <time>2015-04-16T13:30:48Z</time>
      </trkpt>
      <trkpt lat="43.34545" lon="5.21613">
        <ele>164</ele>
        <time>2015-04-16T13:30:49Z</time>
      </trkpt>
      <trkpt lat="43.34544" lon="5.21611">
        <ele>164</ele>
        <time>2015-04-16T13:30:50Z</time>
      </trkpt>
      <trkpt lat="43.34543" lon="5.2161">
        <ele>164</ele>
        <time>2015-04-16T13:30:51Z</time>
      </trkpt>
      <trkpt lat="43.34542" lon="5.21609">
        <ele>164</ele>
        <time>2015-04-16T13:30:52Z</time>
      </trkpt>
      <trkpt lat="43.3454" lon="5.21608">
        <ele>164</ele>
        <time>2015-04-16T13:30:53Z</time>
      </trkpt>
      <trkpt lat="43.34539" lon="5.21606">
        <ele>164</ele>
        <time>2015-04-16T13:30:54Z</time>
      </trkpt>
      <trkpt lat="43.34538" lon="5.21605">
        <ele>164</ele>
        <time>2015-04-16T13:30:55Z</time>
      </trkpt>
      <trkpt lat="43.34537" lon="5.21604">
        <ele>164</ele>
        <time>2015-04-16T13:30:56Z</time>
      </trkpt>
      <trkpt lat="43.34536" lon="5.21602">
        <ele>164</ele>
        <time>2015-04-16T13:30:57Z</time>
      </trkpt>
      <trkpt lat="43.34535" lon="5.21601">
        <ele>164</ele>
        <time>2015-04-16T13:30:58Z</time>
      </trkpt>
      <trkpt lat="43.34534" lon="5.21599">
        <ele>164</ele>
        <time>2015-04-16T13:30:59Z</time>
      </trkpt>
      <trkpt lat="43.34533" lon="5.21598">
        <ele>164</ele>
        <time>2015-04-16T13:31:00Z</time>
      </trkpt>
      <trkpt lat="43.34531" lon="5.21596">
        <ele>164</ele>
        <time>2015-04-16T13:31:01Z</time>
      </trkpt>
      <trkpt lat="43.3453" lon="5.21595">
        <ele>163</ele>
        <time>2015-04-16T13:31:02Z</time>
      </trkpt>
      <trkpt lat="43.34529" lon="5.21593">
        <ele>163</ele>
        <time>2015-04-16T13:31:03Z</time>
      </trkpt>
      <trkpt lat="43.34528" lon="5.21592">
        <ele>163</ele>
        <time>2015-04-16T13:31:04Z</time>
      </trkpt>
      <trkpt lat="43.34528" lon="5.2159">
        <ele>163</ele>
        <time>2015-04-16T13:31:05Z</time>
      </trkpt>
      <trkpt lat="43.34527" lon="5.21588">
        <ele>162</ele>
        <time>2015-04-16T13:31:06Z</time>
      </trkpt>
      <trkpt lat="43.34526" lon="5.21587">
        <ele>162</ele>
        <time>2015-04-16T13:31:07Z</time>
      </trkpt>
      <trkpt lat="43.34525" lon="5.21585">
        <ele>162</ele>
        <time>2015-04-16T13:31:08Z</time>
      </trkpt>
      <trkpt lat="43.34524" lon="5.21583">
        <ele>162</ele>
        <time>2015-04-16T13:31:09Z</time>
      </trkpt>
      <trkpt lat="43.34523" lon="5.21582">
        <ele>162</ele>
        <time>2015-04-16T13:31:10Z</time>
      </trkpt>
      <trkpt lat="43.34523" lon="5.2158">
        <ele>161</ele>
        <time>2015-04-16T13:31:11Z</time>
      </trkpt>
      <trkpt lat="43.34522" lon="5.21578">
        <ele>161</ele>
        <time>2015-04-16T13:31:12Z</time>
      </trkpt>
      <trkpt lat="43.34521" lon="5.21576">
        <ele>161</ele>
        <time>2015-04-16T13:31:13Z</time>
      </trkpt>
      <trkpt lat="43.34521" lon="5.21574">
        <ele>161</ele>
        <time>2015-04-16T13:31:14Z</time>
      </trkpt>
      <trkpt lat="43.3452" lon="5.21572">
        <ele>161</ele>
        <time>2015-04-16T13:31:15Z</time>
      </trkpt>
      <trkpt lat="43.34519" lon="5.21571">
        <ele>161</ele>
        <time>2015-04-16T13:31:16Z</time>
      </trkpt>
      <trkpt lat="43.34518" lon="5.21569">
        <ele>160</ele>
        <time>2015-04-16T13:31:17Z</time>
      </trkpt>
      <trkpt lat="43.34518" lon="5.21567">
        <ele>160</ele>
        <time>2015-04-16T13:31:18Z</time>
      </trkpt>
      <trkpt lat="43.34517" lon="5.21565">
        <ele>160</ele>
        <time>2015-04-16T13:31:19Z</time>
      </trkpt>
      <trkpt lat="43.34516" lon="5.21564">
        <ele>160</ele>
        <time>2015-04-16T13:31:20Z</time>
      </trkpt>
      <trkpt lat="43.34515" lon="5.21562">
        <ele>160</ele>
        <time>2015-04-16T13:31:21Z</time>
      </trkpt>
      <trkpt lat="43.34514" lon="5.21561">
        <ele>159</ele>
        <time>2015-04-16T13:31:22Z</time>
      </trkpt>
      <trkpt lat="43.34513" lon="5.21559">
        <ele>159</ele>
        <time>2015-04-16T13:31:23Z</time>
      </trkpt>
      <trkpt lat="43.34512" lon="5.21557">
        <ele>159</ele>
        <time>2015-04-16T13:31:24Z</time>
      </trkpt>
      <trkpt lat="43.34512" lon="5.21555">
        <ele>159</ele>
        <time>2015-04-16T13:31:25Z</time>
      </trkpt>
      <trkpt lat="43.34511" lon="5.21554">
        <ele>159</ele>
        <time>2015-04-16T13:31:26Z</time>
      </trkpt>
      <trkpt lat="43.34511" lon="5.21552">
        <ele>159</ele>
        <time>2015-04-16T13:31:27Z</time>
      </trkpt>
      <trkpt lat="43.3451" lon="5.2155">
        <ele>158</ele>
        <time>2015-04-16T13:31:28Z</time>
      </trkpt>
      <trkpt lat="43.34509" lon="5.21548">
        <ele>158</ele>
        <time>2015-04-16T13:31:29Z</time>
      </trkpt>
      <trkpt lat="43.34509" lon="5.21546">
        <ele>158</ele>
        <time>2015-04-16T13:31:30Z</time>
      </trkpt>
      <trkpt lat="43.34508" lon="5.21544">
        <ele>158</ele>
        <time>2015-04-16T13:31:31Z</time>
      </trkpt>
      <trkpt lat="43.34507" lon="5.21542">
        <ele>158</ele>
        <time>2015-04-16T13:31:32Z</time>
      </trkpt>
      <trkpt lat="43.34507" lon="5.2154">
        <ele>157</ele>
        <time>2015-04-16T13:31:33Z</time>
      </trkpt>
      <trkpt lat="43.34506" lon="5.21538">
        <ele>157</ele>
        <time>2015-04-16T13:31:34Z</time>
      </trkpt>
      <trkpt lat="43.34506" lon="5.21536">
        <ele>157</ele>
        <time>2015-04-16T13:31:35Z</time>
      </trkpt>
      <trkpt lat="43.34505" lon="5.21534">
        <ele>157</ele>
        <time>2015-04-16T13:31:36Z</time>
      </trkpt>
      <trkpt lat="43.34504" lon="5.21532">
        <ele>157</ele>
        <time>2015-04-16T13:31:37Z</time>
      </trkpt>
      <trkpt lat="43.34504" lon="5.2153">
        <ele>157</ele>
        <time>2015-04-16T13:31:38Z</time>
      </trkpt>
      <trkpt lat="43.34503" lon="5.21528">
        <ele>156</ele>
        <time>2015-04-16T13:31:39Z</time>
      </trkpt>
      <trkpt lat="43.34502" lon="5.21526">
        <ele>156</ele>
        <time>2015-04-16T13:31:40Z</time>
      </trkpt>
      <trkpt lat="43.34502" lon="5.21525">
        <ele>156</ele>
        <time>2015-04-16T13:31:41Z</time>
      </trkpt>
      <trkpt lat="43.34501" lon="5.21523">
        <ele>156</ele>
        <time>2015-04-16T13:31:42Z</time>
      </trkpt>
      <trkpt lat="43.345" lon="5.21521">
        <ele>156</ele>
        <time>2015-04-16T13:31:43Z</time>
      </trkpt>
      <trkpt lat="43.34499" lon="5.21519">
        <ele>155</ele>
        <time>2015-04-16T13:31:44Z</time>
      </trkpt>
      <trkpt lat="43.34499" lon="5.21517">
        <ele>155</ele>
        <time>2015-04-16T13:31:45Z</time>
      </trkpt>
      <trkpt lat="43.34498" lon="5.21515">
        <ele>155</ele>
        <time>2015-04-16T13:31:46Z</time>
      </trkpt>
      <trkpt lat="43.34497" lon="5.21514">
        <ele>155</ele>
        <time>2015-04-16T13:31:47Z</time>
      </trkpt>
      <trkpt lat="43.34497" lon="5.21512">
        <ele>155</ele>
        <time>2015-04-16T13:31:48Z</time>
      </trkpt>
      <trkpt lat="43.34496" lon="5.2151">
        <ele>155</ele>
        <time>2015-04-16T13:31:49Z</time>
      </trkpt>
      <trkpt lat="43.34495" lon="5.21508">
        <ele>154</ele>
        <time>2015-04-16T13:31:50Z</time>
      </trkpt>
      <trkpt lat="43.34495" lon="5.21506">
        <ele>154</ele>
        <time>2015-04-16T13:31:51Z</time>
      </trkpt>
      <trkpt lat="43.34494" lon="5.21504">
        <ele>154</ele>
        <time>2015-04-16T13:31:52Z</time>
      </trkpt>
      <trkpt lat="43.34493" lon="5.21503">
        <ele>154</ele>
        <time>2015-04-16T13:31:53Z</time>
      </trkpt>
      <trkpt lat="43.34492" lon="5.21501">
        <ele>154</ele>
        <time>2015-04-16T13:31:54Z</time>
      </trkpt>
      <trkpt lat="43.34492" lon="5.21499">
        <ele>154</ele>
        <time>2015-04-16T13:31:55Z</time>
      </trkpt>
      <trkpt lat="43.34491" lon="5.21497">
        <ele>154</ele>
        <time>2015-04-16T13:31:56Z</time>
      </trkpt>
      <trkpt lat="43.34491" lon="5.21495">
        <ele>153</ele>
        <time>2015-04-16T13:31:57Z</time>
      </trkpt>
      <trkpt lat="43.3449" lon="5.21493">
        <ele>153</ele>
        <time>2015-04-16T13:31:58Z</time>
      </trkpt>
      <trkpt lat="43.3449" lon="5.21491">
        <ele>153</ele>
        <time>2015-04-16T13:31:59Z</time>
      </trkpt>
      <trkpt lat="43.34489" lon="5.21489">
        <ele>153</ele>
        <time>2015-04-16T13:32:00Z</time>
      </trkpt>
      <trkpt lat="43.34489" lon="5.21487">
        <ele>152</ele>
        <time>2015-04-16T13:32:01Z</time>
      </trkpt>
      <trkpt lat="43.34488" lon="5.21485">
        <ele>152</ele>
        <time>2015-04-16T13:32:02Z</time>
      </trkpt>
      <trkpt lat="43.34488" lon="5.21483">
        <ele>152</ele>
        <time>2015-04-16T13:32:03Z</time>
      </trkpt>
      <trkpt lat="43.34488" lon="5.2148">
        <ele>152</ele>
        <time>2015-04-16T13:32:04Z</time>
      </trkpt>
      <trkpt lat="43.34487" lon="5.21478">
        <ele>151</ele>
        <time>2015-04-16T13:32:05Z</time>
      </trkpt>
      <trkpt lat="43.34487" lon="5.21476">
        <ele>151</ele>
        <time>2015-04-16T13:32:06Z</time>
      </trkpt>
      <trkpt lat="43.34486" lon="5.21474">
        <ele>150</ele>
        <time>2015-04-16T13:32:07Z</time>
      </trkpt>
      <trkpt lat="43.34486" lon="5.21472">
        <ele>150</ele>
        <time>2015-04-16T13:32:08Z</time>
      </trkpt>
      <trkpt lat="43.34486" lon="5.2147">
        <ele>150</ele>
        <time>2015-04-16T13:32:09Z</time>
      </trkpt>
      <trkpt lat="43.34486" lon="5.21467">
        <ele>149</ele>
        <time>2015-04-16T13:32:10Z</time>
      </trkpt>
      <trkpt lat="43.34486" lon="5.21465">
        <ele>149</ele>
        <time>2015-04-16T13:32:11Z</time>
      </trkpt>
      <trkpt lat="43.34486" lon="5.21463">
        <ele>149</ele>
        <time>2015-04-16T13:32:12Z</time>
      </trkpt>
      <trkpt lat="43.34486" lon="5.21461">
        <ele>149</ele>
        <time>2015-04-16T13:32:13Z</time>
      </trkpt>
      <trkpt lat="43.34486" lon="5.21459">
        <ele>149</ele>
        <time>2015-04-16T13:32:14Z</time>
      </trkpt>
      <trkpt lat="43.34486" lon="5.21457">
        <ele>149</ele>
        <time>2015-04-16T13:32:15Z</time>
      </trkpt>
      <trkpt lat="43.34486" lon="5.21455">
        <ele>149</ele>
        <time>2015-04-16T13:32:16Z</time>
      </trkpt>
      <trkpt lat="43.34486" lon="5.21453">
        <ele>149</ele>
        <time>2015-04-16T13:32:17Z</time>
      </trkpt>
      <trkpt lat="43.34486" lon="5.21451">
        <ele>149</ele>
        <time>2015-04-16T13:32:18Z</time>
      </trkpt>
      <trkpt lat="43.34486" lon="5.21449">
        <ele>149</ele>
        <time>2015-04-16T13:32:19Z</time>
      </trkpt>
      <trkpt lat="43.34487" lon="5.21447">
        <ele>149</ele>
        <time>2015-04-16T13:32:20Z</time>
      </trkpt>
      <trkpt lat="43.34487" lon="5.21444">
        <ele>148</ele>
        <time>2015-04-16T13:32:21Z</time>
      </trkpt>
      <trkpt lat="43.34488" lon="5.21442">
        <ele>148</ele>
        <time>2015-04-16T13:32:22Z</time>
      </trkpt>
      <trkpt lat="43.34488" lon="5.2144">
        <ele>148</ele>
        <time>2015-04-16T13:32:23Z</time>
      </trkpt>
      <trkpt lat="43.34488" lon="5.21438">
        <ele>147</ele>
        <time>2015-04-16T13:32:24Z</time>
      </trkpt>
      <trkpt lat="43.34488" lon="5.21436">
        <ele>147</ele>
        <time>2015-04-16T13:32:25Z</time>
      </trkpt>
      <trkpt lat="43.34489" lon="5.21434">
        <ele>147</ele>
        <time>2015-04-16T13:32:26Z</time>
      </trkpt>
      <trkpt lat="43.34489" lon="5.21432">
        <ele>147</ele>
        <time>2015-04-16T13:32:27Z</time>
      </trkpt>
      <trkpt lat="43.34489" lon="5.2143">
        <ele>147</ele>
        <time>2015-04-16T13:32:28Z</time>
      </trkpt>
      <trkpt lat="43.34489" lon="5.21428">
        <ele>146</ele>
        <time>2015-04-16T13:32:29Z</time>
      </trkpt>
      <trkpt lat="43.34489" lon="5.21425">
        <ele>146</ele>
        <time>2015-04-16T13:32:30Z</time>
      </trkpt>
      <trkpt lat="43.34489" lon="5.21423">
        <ele>146</ele>
        <time>2015-04-16T13:32:31Z</time>
      </trkpt>
      <trkpt lat="43.34489" lon="5.21421">
        <ele>146</ele>
        <time>2015-04-16T13:32:32Z</time>
      </trkpt>
      <trkpt lat="43.3449" lon="5.21419">
        <ele>145</ele>
        <time>2015-04-16T13:32:33Z</time>
      </trkpt>
      <trkpt lat="43.3449" lon="5.21418">
        <ele>145</ele>
        <time>2015-04-16T13:32:34Z</time>
      </trkpt>
      <trkpt lat="43.34491" lon="5.21416">
        <ele>145</ele>
        <time>2015-04-16T13:32:35Z</time>
      </trkpt>
      <trkpt lat="43.34491" lon="5.21414">
        <ele>145</ele>
        <time>2015-04-16T13:32:36Z</time>
      </trkpt>
      <trkpt lat="43.34491" lon="5.21412">
        <ele>144</ele>
        <time>2015-04-16T13:32:37Z</time>
      </trkpt>
      <trkpt lat="43.34492" lon="5.2141">
        <ele>144</ele>
        <time>2015-04-16T13:32:38Z</time>
      </trkpt>
      <trkpt lat="43.34492" lon="5.21408">
        <ele>144</ele>
        <time>2015-04-16T13:32:39Z</time>
      </trkpt>
      <trkpt lat="43.34492" lon="5.21405">
        <ele>143</ele>
        <time>2015-04-16T13:32:40Z</time>
      </trkpt>
      <trkpt lat="43.34492" lon="5.21403">
        <ele>143</ele>
        <time>2015-04-16T13:32:41Z</time>
      </trkpt>
      <trkpt lat="43.34493" lon="5.21401">
        <ele>143</ele>
        <time>2015-04-16T13:32:42Z</time>
      </trkpt>
      <trkpt lat="43.34493" lon="5.21399">
        <ele>142</ele>
        <time>2015-04-16T13:32:43Z</time>
      </trkpt>
      <trkpt lat="43.34494" lon="5.21397">
        <ele>142</ele>
        <time>2015-04-16T13:32:44Z</time>
      </trkpt>
      <trkpt lat="43.34494" lon="5.21395">
        <ele>142</ele>
        <time>2015-04-16T13:32:45Z</time>
      </trkpt>
      <trkpt lat="43.34494" lon="5.21393">
        <ele>141</ele>
        <time>2015-04-16T13:32:46Z</time>
      </trkpt>
      <trkpt lat="43.34494" lon="5.21391">
        <ele>141</ele>
        <time>2015-04-16T13:32:47Z</time>
      </trkpt>
      <trkpt lat="43.34495" lon="5.21389">
        <ele>141</ele>
        <time>2015-04-16T13:32:48Z</time>
      </trkpt>
      <trkpt lat="43.34495" lon="5.21387">
        <ele>141</ele>
        <time>2015-04-16T13:32:49Z</time>
      </trkpt>
      <trkpt lat="43.34495" lon="5.21385">
        <ele>140</ele>
        <time>2015-04-16T13:32:50Z</time>
      </trkpt>
      <trkpt lat="43.34496" lon="5.21383">
        <ele>140</ele>
        <time>2015-04-16T13:32:51Z</time>
      </trkpt>
      <trkpt lat="43.34496" lon="5.21381">
        <ele>140</ele>
        <time>2015-04-16T13:32:52Z</time>
      </trkpt>
      <trkpt lat="43.34496" lon="5.21378">
        <ele>140</ele>
        <time>2015-04-16T13:32:53Z</time>
      </trkpt>
      <trkpt lat="43.34496" lon="5.21376">
        <ele>140</ele>
        <time>2015-04-16T13:32:54Z</time>
      </trkpt>
      <trkpt lat="43.34497" lon="5.21374">
        <ele>140</ele>
        <time>2015-04-16T13:32:55Z</time>
      </trkpt>
      <trkpt lat="43.34497" lon="5.21372">
        <ele>140</ele>
        <time>2015-04-16T13:32:56Z</time>
      </trkpt>
      <trkpt lat="43.34497" lon="5.2137">
        <ele>139</ele>
        <time>2015-04-16T13:32:57Z</time>
      </trkpt>
      <trkpt lat="43.34497" lon="5.21368">
        <ele>139</ele>
        <time>2015-04-16T13:32:58Z</time>
      </trkpt>
      <trkpt lat="43.34497" lon="5.21365">
        <ele>139</ele>
        <time>2015-04-16T13:32:59Z</time>
      </trkpt>
      <trkpt lat="43.34497" lon="5.21363">
        <ele>139</ele>
        <time>2015-04-16T13:33:00Z</time>
      </trkpt>
      <trkpt lat="43.34498" lon="5.21361">
        <ele>138</ele>
        <time>2015-04-16T13:33:01Z</time>
      </trkpt>
      <trkpt lat="43.34498" lon="5.21359">
        <ele>138</ele>
        <time>2015-04-16T13:33:02Z</time>
      </trkpt>
      <trkpt lat="43.34497" lon="5.21357">
        <ele>138</ele>
        <time>2015-04-16T13:33:03Z</time>
      </trkpt>
      <trkpt lat="43.34497" lon="5.21354">
        <ele>138</ele>
        <time>2015-04-16T13:33:04Z</time>
      </trkpt>
      <trkpt lat="43.34498" lon="5.21352">
        <ele>138</ele>
        <time>2015-04-16T13:33:05Z</time>
      </trkpt>
      <trkpt lat="43.34497" lon="5.2135">
        <ele>138</ele>
        <time>2015-04-16T13:33:06Z</time>
      </trkpt>
      <trkpt lat="43.34497" lon="5.21348">
        <ele>138</ele>
        <time>2015-04-16T13:33:07Z</time>
      </trkpt>
      <trkpt lat="43.34497" lon="5.21346">
        <ele>137</ele>
        <time>2015-04-16T13:33:08Z</time>
      </trkpt>
      <trkpt lat="43.34497" lon="5.21343">
        <ele>137</ele>
        <time>2015-04-16T13:33:09Z</time>
      </trkpt>
      <trkpt lat="43.34497" lon="5.21341">
        <ele>137</ele>
        <time>2015-04-16T13:33:10Z</time>
      </trkpt>
      <trkpt lat="43.34496" lon="5.21339">
        <ele>137</ele>
        <time>2015-04-16T13:33:11Z</time>
      </trkpt>
      <trkpt lat="43.34496" lon="5.21337">
        <ele>137</ele>
        <time>2015-04-16T13:33:12Z</time>
      </trkpt>
      <trkpt lat="43.34496" lon="5.21335">
        <ele>137</ele>
        <time>2015-04-16T13:33:13Z</time>
      </trkpt>
      <trkpt lat="43.34496" lon="5.21332">
        <ele>137</ele>
        <time>2015-04-16T13:33:14Z</time>
      </trkpt>
      <trkpt lat="43.34495" lon="5.2133">
        <ele>137</ele>
        <time>2015-04-16T13:33:15Z</time>
      </trkpt>
      <trkpt lat="43.34495" lon="5.21328">
        <ele>137</ele>
        <time>2015-04-16T13:33:16Z</time>
      </trkpt>
      <trkpt lat="43.34494" lon="5.21326">
        <ele>137</ele>
        <time>2015-04-16T13:33:17Z</time>
      </trkpt>
      <trkpt lat="43.34494" lon="5.21324">
        <ele>137</ele>
        <time>2015-04-16T13:33:18Z</time>
      </trkpt>
      <trkpt lat="43.34493" lon="5.21322">
        <ele>137</ele>
        <time>2015-04-16T13:33:19Z</time>
      </trkpt>
      <trkpt lat="43.34493" lon="5.2132">
        <ele>137</ele>
        <time>2015-04-16T13:33:20Z</time>
      </trkpt>
      <trkpt lat="43.34492" lon="5.21317">
        <ele>137</ele>
        <time>2015-04-16T13:33:21Z</time>
      </trkpt>
      <trkpt lat="43.34492" lon="5.21315">
        <ele>137</ele>
        <time>2015-04-16T13:33:22Z</time>
      </trkpt>
      <trkpt lat="43.34491" lon="5.21313">
        <ele>137</ele>
        <time>2015-04-16T13:33:23Z</time>
      </trkpt>
      <trkpt lat="43.34491" lon="5.21311">
        <ele>137</ele>
        <time>2015-04-16T13:33:24Z</time>
      </trkpt>
      <trkpt lat="43.3449" lon="5.21309">
        <ele>137</ele>
        <time>2015-04-16T13:33:25Z</time>
      </trkpt>
      <trkpt lat="43.34489" lon="5.21307">
        <ele>137</ele>
        <time>2015-04-16T13:33:26Z</time>
      </trkpt>
      <trkpt lat="43.34488" lon="5.21305">
        <ele>137</ele>
        <time>2015-04-16T13:33:27Z</time>
      </trkpt>
      <trkpt lat="43.34487" lon="5.21304">
        <ele>137</ele>
        <time>2015-04-16T13:33:28Z</time>
      </trkpt>
      <trkpt lat="43.34487" lon="5.21302">
        <ele>137</ele>
        <time>2015-04-16T13:33:29Z</time>
      </trkpt>
      <trkpt lat="43.34486" lon="5.213">
        <ele>137</ele>
        <time>2015-04-16T13:33:30Z</time>
      </trkpt>
      <trkpt lat="43.34485" lon="5.21298">
        <ele>137</ele>
        <time>2015-04-16T13:33:31Z</time>
      </trkpt>
      <trkpt lat="43.34484" lon="5.21296">
        <ele>137</ele>
        <time>2015-04-16T13:33:32Z</time>
      </trkpt>
      <trkpt lat="43.34483" lon="5.21294">
        <ele>137</ele>
        <time>2015-04-16T13:33:33Z</time>
      </trkpt>
      <trkpt lat="43.34483" lon="5.21292">
        <ele>137</ele>
        <time>2015-04-16T13:33:34Z</time>
      </trkpt>
      <trkpt lat="43.34482" lon="5.2129">
        <ele>137</ele>
        <time>2015-04-16T13:33:35Z</time>
      </trkpt>
      <trkpt lat="43.34481" lon="5.21288">
        <ele>137</ele>
        <time>2015-04-16T13:33:36Z</time>
      </trkpt>
      <trkpt lat="43.3448" lon="5.21286">
        <ele>137</ele>
        <time>2015-04-16T13:33:37Z</time>
      </trkpt>
      <trkpt lat="43.3448" lon="5.21284">
        <ele>137</ele>
        <time>2015-04-16T13:33:38Z</time>
      </trkpt>
      <trkpt lat="43.34479" lon="5.21282">
        <ele>137</ele>
        <time>2015-04-16T13:33:39Z</time>
      </trkpt>
      <trkpt lat="43.34478" lon="5.2128">
        <ele>137</ele>
        <time>2015-04-16T13:33:40Z</time>
      </trkpt>
      <trkpt lat="43.34477" lon="5.21278">
        <ele>137</ele>
        <time>2015-04-16T13:33:41Z</time>
      </trkpt>
      <trkpt lat="43.34476" lon="5.21276">
        <ele>137</ele>
        <time>2015-04-16T13:33:42Z</time>
      </trkpt>
      <trkpt lat="43.34476" lon="5.21274">
        <ele>137</ele>
        <time>2015-04-16T13:33:43Z</time>
      </trkpt>
      <trkpt lat="43.34475" lon="5.21272">
        <ele>137</ele>
        <time>2015-04-16T13:33:44Z</time>
      </trkpt>
      <trkpt lat="43.34474" lon="5.2127">
        <ele>137</ele>
        <time>2015-04-16T13:33:45Z</time>
      </trkpt>
      <trkpt lat="43.34473" lon="5.21268">
        <ele>137</ele>
        <time>2015-04-16T13:33:46Z</time>
      </trkpt>
      <trkpt lat="43.34473" lon="5.21266">
        <ele>137</ele>
        <time>2015-04-16T13:33:47Z</time>
      </trkpt>
      <trkpt lat="43.34472" lon="5.21264">
        <ele>137</ele>
        <time>2015-04-16T13:33:48Z</time>
      </trkpt>
      <trkpt lat="43.34471" lon="5.21263">
        <ele>137</ele>
        <time>2015-04-16T13:33:49Z</time>
      </trkpt>
      <trkpt lat="43.3447" lon="5.21261">
        <ele>137</ele>
        <time>2015-04-16T13:33:50Z</time>
      </trkpt>
      <trkpt lat="43.34469" lon="5.21259">
        <ele>137</ele>
        <time>2015-04-16T13:33:51Z</time>
      </trkpt>
      <trkpt lat="43.34468" lon="5.21257">
        <ele>137</ele>
        <time>2015-04-16T13:33:52Z</time>
      </trkpt>
      <trkpt lat="43.34467" lon="5.21255">
        <ele>137</ele>
        <time>2015-04-16T13:33:53Z</time>
      </trkpt>
      <trkpt lat="43.34466" lon="5.21253">
        <ele>137</ele>
        <time>2015-04-16T13:33:54Z</time>
      </trkpt>
      <trkpt lat="43.34465" lon="5.21251">
        <ele>137</ele>
        <time>2015-04-16T13:33:55Z</time>
      </trkpt>
      <trkpt lat="43.34464" lon="5.2125">
        <ele>137</ele>
        <time>2015-04-16T13:33:56Z</time>
      </trkpt>
      <trkpt lat="43.34463" lon="5.21248">
        <ele>137</ele>
        <time>2015-04-16T13:33:57Z</time>
      </trkpt>
      <trkpt lat="43.34462" lon="5.21246">
        <ele>137</ele>
        <time>2015-04-16T13:33:58Z</time>
      </trkpt>
      <trkpt lat="43.34461" lon="5.21245">
        <ele>137</ele>
        <time>2015-04-16T13:33:59Z</time>
      </trkpt>
      <trkpt lat="43.3446" lon="5.21243">
        <ele>137</ele>
        <time>2015-04-16T13:34:00Z</time>
      </trkpt>
      <trkpt lat="43.3446" lon="5.21241">
        <ele>137</ele>
        <time>2015-04-16T13:34:01Z</time>
      </trkpt>
      <trkpt lat="43.34458" lon="5.2124">
        <ele>137</ele>
        <time>2015-04-16T13:34:02Z</time>
      </trkpt>
      <trkpt lat="43.34457" lon="5.21238">
        <ele>137</ele>
        <time>2015-04-16T13:34:03Z</time>
      </trkpt>
      <trkpt lat="43.34456" lon="5.21236">
        <ele>137</ele>
        <time>2015-04-16T13:34:04Z</time>
      </trkpt>
      <trkpt lat="43.34455" lon="5.21235">
        <ele>137</ele>
        <time>2015-04-16T13:34:05Z</time>
      </trkpt>
      <trkpt lat="43.34454" lon="5.21233">
        <ele>137</ele>
        <time>2015-04-16T13:34:06Z</time>
      </trkpt>
      <trkpt lat="43.34452" lon="5.21232">
        <ele>137</ele>
        <time>2015-04-16T13:34:07Z</time>
      </trkpt>
      <trkpt lat="43.34451" lon="5.2123">
        <ele>137</ele>
        <time>2015-04-16T13:34:08Z</time>
      </trkpt>
      <trkpt lat="43.3445" lon="5.21229">
        <ele>137</ele>
        <time>2015-04-16T13:34:09Z</time>
      </trkpt>
      <trkpt lat="43.34449" lon="5.21227">
        <ele>137</ele>
        <time>2015-04-16T13:34:10Z</time>
      </trkpt>
      <trkpt lat="43.34448" lon="5.21226">
        <ele>137</ele>
        <time>2015-04-16T13:34:11Z</time>
      </trkpt>
      <trkpt lat="43.34447" lon="5.21224">
        <ele>137</ele>
        <time>2015-04-16T13:34:12Z</time>
      </trkpt>
      <trkpt lat="43.34446" lon="5.21222">
        <ele>137</ele>
        <time>2015-04-16T13:34:13Z</time>
      </trkpt>
      <trkpt lat="43.34444" lon="5.21221">
        <ele>137</ele>
        <time>2015-04-16T13:34:14Z</time>
      </trkpt>
      <trkpt lat="43.34443" lon="5.21219">
        <ele>137</ele>
        <time>2015-04-16T13:34:15Z</time>
      </trkpt>
      <trkpt lat="43.34442" lon="5.21218">
        <ele>136</ele>
        <time>2015-04-16T13:34:16Z</time>
      </trkpt>
      <trkpt lat="43.34441" lon="5.21216">
        <ele>136</ele>
        <time>2015-04-16T13:34:17Z</time>
      </trkpt>
      <trkpt lat="43.3444" lon="5.21214">
        <ele>136</ele>
        <time>2015-04-16T13:34:18Z</time>
      </trkpt>
      <trkpt lat="43.34439" lon="5.21213">
        <ele>136</ele>
        <time>2015-04-16T13:34:19Z</time>
      </trkpt>
      <trkpt lat="43.34438" lon="5.21211">
        <ele>136</ele>
        <time>2015-04-16T13:34:20Z</time>
      </trkpt>
      <trkpt lat="43.34436" lon="5.21209">
        <ele>135</ele>
        <time>2015-04-16T13:34:21Z</time>
      </trkpt>
      <trkpt lat="43.34436" lon="5.21208">
        <ele>135</ele>
        <time>2015-04-16T13:34:22Z</time>
      </trkpt>
      <trkpt lat="43.34435" lon="5.21206">
        <ele>135</ele>
        <time>2015-04-16T13:34:23Z</time>
      </trkpt>
      <trkpt lat="43.34434" lon="5.21204">
        <ele>135</ele>
        <time>2015-04-16T13:34:24Z</time>
      </trkpt>
      <trkpt lat="43.34433" lon="5.21203">
        <ele>135</ele>
        <time>2015-04-16T13:34:25Z</time>
      </trkpt>
      <trkpt lat="43.34432" lon="5.21201">
        <ele>135</ele>
        <time>2015-04-16T13:34:26Z</time>
      </trkpt>
      <trkpt lat="43.34431" lon="5.21199">
        <ele>135</ele>
        <time>2015-04-16T13:34:27Z</time>
      </trkpt>
      <trkpt lat="43.3443" lon="5.21197">
        <ele>135</ele>
        <time>2015-04-16T13:34:28Z</time>
      </trkpt>
      <trkpt lat="43.3443" lon="5.21195">
        <ele>135</ele>
        <time>2015-04-16T13:34:29Z</time>
      </trkpt>
      <trkpt lat="43.34429" lon="5.21193">
        <ele>134</ele>
        <time>2015-04-16T13:34:30Z</time>
      </trkpt>
      <trkpt lat="43.34429" lon="5.21191">
        <ele>134</ele>
        <time>2015-04-16T13:34:31Z</time>
      </trkpt>
      <trkpt lat="43.34428" lon="5.21189">
        <ele>134</ele>
        <time>2015-04-16T13:34:32Z</time>
      </trkpt>
      <trkpt lat="43.34428" lon="5.21187">
        <ele>134</ele>
        <time>2015-04-16T13:34:33Z</time>
      </trkpt>
      <trkpt lat="43.34428" lon="5.21185">
        <ele>134</ele>
        <time>2015-04-16T13:34:34Z</time>
      </trkpt>
      <trkpt lat="43.34428" lon="5.21182">
        <ele>133</ele>
        <time>2015-04-16T13:34:35Z</time>
      </trkpt>
      <trkpt lat="43.34428" lon="5.2118">
        <ele>133</ele>
        <time>2015-04-16T13:34:36Z</time>
      </trkpt>
      <trkpt lat="43.34429" lon="5.21178">
        <ele>133</ele>
        <time>2015-04-16T13:34:37Z</time>
      </trkpt>
      <trkpt lat="43.34429" lon="5.21176">
        <ele>133</ele>
        <time>2015-04-16T13:34:38Z</time>
      </trkpt>
      <trkpt lat="43.3443" lon="5.21174">
        <ele>132</ele>
        <time>2015-04-16T13:34:39Z</time>
      </trkpt>
      <trkpt lat="43.34431" lon="5.21172">
        <ele>132</ele>
        <time>2015-04-16T13:34:40Z</time>
      </trkpt>
      <trkpt lat="43.34431" lon="5.2117">
        <ele>132</ele>
        <time>2015-04-16T13:34:41Z</time>
      </trkpt>
      <trkpt lat="43.34432" lon="5.21168">
        <ele>131</ele>
        <time>2015-04-16T13:34:42Z</time>
      </trkpt>
      <trkpt lat="43.34433" lon="5.21166">
        <ele>131</ele>
        <time>2015-04-16T13:34:43Z</time>
      </trkpt>
      <trkpt lat="43.34433" lon="5.21163">
        <ele>131</ele>
        <time>2015-04-16T13:34:44Z</time>
      </trkpt>
      <trkpt lat="43.34434" lon="5.21161">
        <ele>131</ele>
        <time>2015-04-16T13:34:45Z</time>
      </trkpt>
      <trkpt lat="43.34435" lon="5.21159">
        <ele>131</ele>
        <time>2015-04-16T13:34:46Z</time>
      </trkpt>
      <trkpt lat="43.34435" lon="5.21157">
        <ele>130</ele>
        <time>2015-04-16T13:34:47Z</time>
      </trkpt>
      <trkpt lat="43.34436" lon="5.21155">
        <ele>130</ele>
        <time>2015-04-16T13:34:48Z</time>
      </trkpt>
      <trkpt lat="43.34436" lon="5.21153">
        <ele>130</ele>
        <time>2015-04-16T13:34:49Z</time>
      </trkpt>
      <trkpt lat="43.34436" lon="5.21151">
        <ele>130</ele>
        <time>2015-04-16T13:34:50Z</time>
      </trkpt>
      <trkpt lat="43.34437" lon="5.21148">
        <ele>130</ele>
        <time>2015-04-16T13:34:51Z</time>
      </trkpt>
      <trkpt lat="43.34438" lon="5.21146">
        <ele>130</ele>
        <time>2015-04-16T13:34:52Z</time>
      </trkpt>
      <trkpt lat="43.34438" lon="5.21144">
        <ele>130</ele>
        <time>2015-04-16T13:34:53Z</time>
      </trkpt>
      <trkpt lat="43.34438" lon="5.21142">
        <ele>129</ele>
        <time>2015-04-16T13:34:54Z</time>
      </trkpt>
      <trkpt lat="43.34438" lon="5.2114">
        <ele>129</ele>
        <time>2015-04-16T13:34:55Z</time>
      </trkpt>
      <trkpt lat="43.34438" lon="5.21138">
        <ele>129</ele>
        <time>2015-04-16T13:34:56Z</time>
      </trkpt>
      <trkpt lat="43.34438" lon="5.21135">
        <ele>129</ele>
        <time>2015-04-16T13:34:57Z</time>
      </trkpt>
      <trkpt lat="43.34438" lon="5.21133">
        <ele>129</ele>
        <time>2015-04-16T13:34:58Z</time>
      </trkpt>
      <trkpt lat="43.34437" lon="5.2113">
        <ele>129</ele>
        <time>2015-04-16T13:34:59Z</time>
      </trkpt>
      <trkpt lat="43.34437" lon="5.21128">
        <ele>129</ele>
        <time>2015-04-16T13:35:00Z</time>
      </trkpt>
      <trkpt lat="43.34438" lon="5.21126">
        <ele>129</ele>
        <time>2015-04-16T13:35:01Z</time>
      </trkpt>
      <trkpt lat="43.34438" lon="5.21124">
        <ele>129</ele>
        <time>2015-04-16T13:35:02Z</time>
      </trkpt>
      <trkpt lat="43.34438" lon="5.21122">
        <ele>129</ele>
        <time>2015-04-16T13:35:03Z</time>
      </trkpt>
      <trkpt lat="43.34438" lon="5.21119">
        <ele>128</ele>
        <time>2015-04-16T13:35:04Z</time>
      </trkpt>
      <trkpt lat="43.34437" lon="5.21117">
        <ele>128</ele>
        <time>2015-04-16T13:35:05Z</time>
      </trkpt>
      <trkpt lat="43.34438" lon="5.21115">
        <ele>128</ele>
        <time>2015-04-16T13:35:06Z</time>
      </trkpt>
      <trkpt lat="43.34438" lon="5.21113">
        <ele>128</ele>
        <time>2015-04-16T13:35:07Z</time>
      </trkpt>
      <trkpt lat="43.34438" lon="5.21111">
        <ele>128</ele>
        <time>2015-04-16T13:35:08Z</time>
      </trkpt>
      <trkpt lat="43.34438" lon="5.21109">
        <ele>128</ele>
        <time>2015-04-16T13:35:09Z</time>
      </trkpt>
      <trkpt lat="43.34438" lon="5.21107">
        <ele>127</ele>
        <time>2015-04-16T13:35:10Z</time>
      </trkpt>
      <trkpt lat="43.34438" lon="5.21105">
        <ele>127</ele>
        <time>2015-04-16T13:35:11Z</time>
      </trkpt>
      <trkpt lat="43.34438" lon="5.21103">
        <ele>127</ele>
        <time>2015-04-16T13:35:12Z</time>
      </trkpt>
      <trkpt lat="43.34438" lon="5.211">
        <ele>127</ele>
        <time>2015-04-16T13:35:13Z</time>
      </trkpt>
      <trkpt lat="43.34438" lon="5.21098">
        <ele>127</ele>
        <time>2015-04-16T13:35:14Z</time>
      </trkpt>
      <trkpt lat="43.34438" lon="5.21096">
        <ele>127</ele>
        <time>2015-04-16T13:35:15Z</time>
      </trkpt>
      <trkpt lat="43.34438" lon="5.21094">
        <ele>126</ele>
        <time>2015-04-16T13:35:16Z</time>
      </trkpt>
      <trkpt lat="43.34439" lon="5.21092">
        <ele>126</ele>
        <time>2015-04-16T13:35:17Z</time>
      </trkpt>
      <trkpt lat="43.34439" lon="5.2109">
        <ele>126</ele>
        <time>2015-04-16T13:35:18Z</time>
      </trkpt>
      <trkpt lat="43.34439" lon="5.21087">
        <ele>126</ele>
        <time>2015-04-16T13:35:19Z</time>
      </trkpt>
      <trkpt lat="43.34439" lon="5.21085">
        <ele>126</ele>
        <time>2015-04-16T13:35:20Z</time>
      </trkpt>
      <trkpt lat="43.3444" lon="5.21083">
        <ele>125</ele>
        <time>2015-04-16T13:35:21Z</time>
      </trkpt>
      <trkpt lat="43.3444" lon="5.21081">
        <ele>125</ele>
        <time>2015-04-16T13:35:22Z</time>
      </trkpt>
      <trkpt lat="43.3444" lon="5.21079">
        <ele>125</ele>
        <time>2015-04-16T13:35:23Z</time>
      </trkpt>
      <trkpt lat="43.3444" lon="5.21077">
        <ele>125</ele>
        <time>2015-04-16T13:35:24Z</time>
      </trkpt>
      <trkpt lat="43.3444" lon="5.21074">
        <ele>124</ele>
        <time>2015-04-16T13:35:25Z</time>
      </trkpt>
      <trkpt lat="43.3444" lon="5.21072">
        <ele>124</ele>
        <time>2015-04-16T13:35:26Z</time>
      </trkpt>
      <trkpt lat="43.34439" lon="5.2107">
        <ele>124</ele>
        <time>2015-04-16T13:35:27Z</time>
      </trkpt>
      <trkpt lat="43.34439" lon="5.21067">
        <ele>124</ele>
        <time>2015-04-16T13:35:28Z</time>
      </trkpt>
      <trkpt lat="43.34439" lon="5.21065">
        <ele>123</ele>
        <time>2015-04-16T13:35:29Z</time>
      </trkpt>
      <trkpt lat="43.34438" lon="5.21063">
        <ele>123</ele>
        <time>2015-04-16T13:35:30Z</time>
      </trkpt>
      <trkpt lat="43.34438" lon="5.21061">
        <ele>123</ele>
        <time>2015-04-16T13:35:31Z</time>
      </trkpt>
      <trkpt lat="43.34438" lon="5.21059">
        <ele>123</ele>
        <time>2015-04-16T13:35:32Z</time>
      </trkpt>
      <trkpt lat="43.34438" lon="5.21057">
        <ele>123</ele>
        <time>2015-04-16T13:35:33Z</time>
      </trkpt>
      <trkpt lat="43.34437" lon="5.21055">
        <ele>123</ele>
        <time>2015-04-16T13:35:34Z</time>
      </trkpt>
      <trkpt lat="43.34436" lon="5.21053">
        <ele>123</ele>
        <time>2015-04-16T13:35:35Z</time>
      </trkpt>
      <trkpt lat="43.34436" lon="5.2105">
        <ele>123</ele>
        <time>2015-04-16T13:35:36Z</time>
      </trkpt>
      <trkpt lat="43.34435" lon="5.21048">
        <ele>123</ele>
        <time>2015-04-16T13:35:37Z</time>
      </trkpt>
      <trkpt lat="43.34434" lon="5.21046">
        <ele>123</ele>
        <time>2015-04-16T13:35:38Z</time>
      </trkpt>
      <trkpt lat="43.34433" lon="5.21044">
        <ele>123</ele>
        <time>2015-04-16T13:35:39Z</time>
      </trkpt>
      <trkpt lat="43.34432" lon="5.21042">
        <ele>123</ele>
        <time>2015-04-16T13:35:40Z</time>
      </trkpt>
      <trkpt lat="43.34431" lon="5.21041">
        <ele>123</ele>
        <time>2015-04-16T13:35:41Z</time>
      </trkpt>
      <trkpt lat="43.3443" lon="5.21039">
        <ele>123</ele>
        <time>2015-04-16T13:35:42Z</time>
      </trkpt>
      <trkpt lat="43.34429" lon="5.21037">
        <ele>123</ele>
        <time>2015-04-16T13:35:43Z</time>
      </trkpt>
      <trkpt lat="43.34428" lon="5.21036">
        <ele>122</ele>
        <time>2015-04-16T13:35:44Z</time>
      </trkpt>
      <trkpt lat="43.34427" lon="5.21034">
        <ele>122</ele>
        <time>2015-04-16T13:35:45Z</time>
      </trkpt>
      <trkpt lat="43.34425" lon="5.21032">
        <ele>122</ele>
        <time>2015-04-16T13:35:46Z</time>
      </trkpt>
      <trkpt lat="43.34424" lon="5.21031">
        <ele>122</ele>
        <time>2015-04-16T13:35:47Z</time>
      </trkpt>
      <trkpt lat="43.34423" lon="5.2103">
        <ele>121</ele>
        <time>2015-04-16T13:35:48Z</time>
      </trkpt>
      <trkpt lat="43.34421" lon="5.21029">
        <ele>121</ele>
        <time>2015-04-16T13:35:49Z</time>
      </trkpt>
      <trkpt lat="43.34419" lon="5.21028">
        <ele>121</ele>
        <time>2015-04-16T13:35:50Z</time>
      </trkpt>
      <trkpt lat="43.34417" lon="5.21028">
        <ele>121</ele>
        <time>2015-04-16T13:35:51Z</time>
      </trkpt>
      <trkpt lat="43.34416" lon="5.21027">
        <ele>120</ele>
        <time>2015-04-16T13:35:52Z</time>
      </trkpt>
      <trkpt lat="43.34414" lon="5.21027">
        <ele>120</ele>
        <time>2015-04-16T13:35:53Z</time>
      </trkpt>
      <trkpt lat="43.34412" lon="5.21027">
        <ele>120</ele>
        <time>2015-04-16T13:35:54Z</time>
      </trkpt>
      <trkpt lat="43.34411" lon="5.21027">
        <ele>120</ele>
        <time>2015-04-16T13:35:55Z</time>
      </trkpt>
      <trkpt lat="43.34409" lon="5.21027">
        <ele>119</ele>
        <time>2015-04-16T13:35:56Z</time>
      </trkpt>
      <trkpt lat="43.34407" lon="5.21027">
        <ele>119</ele>
        <time>2015-04-16T13:35:57Z</time>
      </trkpt>
      <trkpt lat="43.34406" lon="5.21028">
        <ele>119</ele>
        <time>2015-04-16T13:35:58Z</time>
      </trkpt>
      <trkpt lat="43.34404" lon="5.21028">
        <ele>119</ele>
        <time>2015-04-16T13:35:59Z</time>
      </trkpt>
      <trkpt lat="43.34402" lon="5.21029">
        <ele>119</ele>
        <time>2015-04-16T13:36:00Z</time>
      </trkpt>
      <trkpt lat="43.344" lon="5.21029">
        <ele>119</ele>
        <time>2015-04-16T13:36:01Z</time>
      </trkpt>
      <trkpt lat="43.34399" lon="5.2103">
        <ele>119</ele>
        <time>2015-04-16T13:36:02Z</time>
      </trkpt>
      <trkpt lat="43.34397" lon="5.21031">
        <ele>119</ele>
        <time>2015-04-16T13:36:03Z</time>
      </trkpt>
      <trkpt lat="43.34395" lon="5.21031">
        <ele>119</ele>
        <time>2015-04-16T13:36:04Z</time>
      </trkpt>
      <trkpt lat="43.34393" lon="5.21032">
        <ele>119</ele>
        <time>2015-04-16T13:36:05Z</time>
      </trkpt>
      <trkpt lat="43.34391" lon="5.21032">
        <ele>119</ele>
        <time>2015-04-16T13:36:06Z</time>
      </trkpt>
      <trkpt lat="43.34389" lon="5.21033">
        <ele>118</ele>
        <time>2015-04-16T13:36:07Z</time>
      </trkpt>
      <trkpt lat="43.34388" lon="5.21033">
        <ele>118</ele>
        <time>2015-04-16T13:36:08Z</time>
      </trkpt>
      <trkpt lat="43.34386" lon="5.21034">
        <ele>118</ele>
        <time>2015-04-16T13:36:09Z</time>
      </trkpt>
      <trkpt lat="43.34385" lon="5.21034">
        <ele>118</ele>
        <time>2015-04-16T13:36:10Z</time>
      </trkpt>
      <trkpt lat="43.34383" lon="5.21035">
        <ele>118</ele>
        <time>2015-04-16T13:36:11Z</time>
      </trkpt>
      <trkpt lat="43.34381" lon="5.21036">
        <ele>118</ele>
        <time>2015-04-16T13:36:12Z</time>
      </trkpt>
      <trkpt lat="43.3438" lon="5.21036">
        <ele>118</ele>
        <time>2015-04-16T13:36:13Z</time>
      </trkpt>
      <trkpt lat="43.34378" lon="5.21037">
        <ele>118</ele>
        <time>2015-04-16T13:36:14Z</time>
      </trkpt>
      <trkpt lat="43.34376" lon="5.21037">
        <ele>118</ele>
        <time>2015-04-16T13:36:15Z</time>
      </trkpt>
      <trkpt lat="43.34375" lon="5.21037">
        <ele>118</ele>
        <time>2015-04-16T13:36:16Z</time>
      </trkpt>
      <trkpt lat="43.34373" lon="5.21038">
        <ele>118</ele>
        <time>2015-04-16T13:36:17Z</time>
      </trkpt>
      <trkpt lat="43.34371" lon="5.21038">
        <ele>118</ele>
        <time>2015-04-16T13:36:18Z</time>
      </trkpt>
      <trkpt lat="43.3437" lon="5.21038">
        <ele>118</ele>
        <time>2015-04-16T13:36:19Z</time>
      </trkpt>
      <trkpt lat="43.34368" lon="5.21039">
        <ele>117</ele>
        <time>2015-04-16T13:36:20Z</time>
      </trkpt>
      <trkpt lat="43.34366" lon="5.21039">
        <ele>117</ele>
        <time>2015-04-16T13:36:21Z</time>
      </trkpt>
      <trkpt lat="43.34365" lon="5.2104">
        <ele>117</ele>
        <time>2015-04-16T13:36:22Z</time>
      </trkpt>
      <trkpt lat="43.34363" lon="5.2104">
        <ele>117</ele>
        <time>2015-04-16T13:36:23Z</time>
      </trkpt>
      <trkpt lat="43.34361" lon="5.21041">
        <ele>117</ele>
        <time>2015-04-16T13:36:24Z</time>
      </trkpt>
      <trkpt lat="43.34359" lon="5.21042">
        <ele>117</ele>
        <time>2015-04-16T13:36:25Z</time>
      </trkpt>
      <trkpt lat="43.34358" lon="5.21042">
        <ele>117</ele>
        <time>2015-04-16T13:36:26Z</time>
      </trkpt>
      <trkpt lat="43.34356" lon="5.21042">
        <ele>117</ele>
        <time>2015-04-16T13:36:27Z</time>
      </trkpt>
      <trkpt lat="43.34354" lon="5.21043">
        <ele>117</ele>
        <time>2015-04-16T13:36:28Z</time>
      </trkpt>
      <trkpt lat="43.34352" lon="5.21043">
        <ele>117</ele>
        <time>2015-04-16T13:36:29Z</time>
      </trkpt>
      <trkpt lat="43.34351" lon="5.21043">
        <ele>116</ele>
        <time>2015-04-16T13:36:30Z</time>
      </trkpt>
      <trkpt lat="43.34349" lon="5.21043">
        <ele>116</ele>
        <time>2015-04-16T13:36:31Z</time>
      </trkpt>
      <trkpt lat="43.34347" lon="5.21043">
        <ele>116</ele>
        <time>2015-04-16T13:36:32Z</time>
      </trkpt>
      <trkpt lat="43.34346" lon="5.21043">
        <ele>116</ele>
        <time>2015-04-16T13:36:33Z</time>
      </trkpt>
      <trkpt lat="43.34344" lon="5.21043">
        <ele>115</ele>
        <time>2015-04-16T13:36:34Z</time>
      </trkpt>
      <trkpt lat="43.34342" lon="5.21043">
        <ele>115</ele>
        <time>2015-04-16T13:36:35Z</time>
      </trkpt>
      <trkpt lat="43.34341" lon="5.21043">
        <ele>115</ele>
        <time>2015-04-16T13:36:36Z</time>
      </trkpt>
      <trkpt lat="43.34339" lon="5.21042">
        <ele>115</ele>
        <time>2015-04-16T13:36:37Z</time>
      </trkpt>
      <trkpt lat="43.34337" lon="5.21042">
        <ele>115</ele>
        <time>2015-04-16T13:36:38Z</time>
      </trkpt>
      <trkpt lat="43.34335" lon="5.21042">
        <ele>114</ele>
        <time>2015-04-16T13:36:39Z</time>
      </trkpt>
      <trkpt lat="43.34334" lon="5.21041">
        <ele>114</ele>
        <time>2015-04-16T13:36:40Z</time>
      </trkpt>
      <trkpt lat="43.34332" lon="5.21041">
        <ele>114</ele>
        <time>2015-04-16T13:36:41Z</time>
      </trkpt>
      <trkpt lat="43.3433" lon="5.21041">
        <ele>114</ele>
        <time>2015-04-16T13:36:42Z</time>
      </trkpt>
      <trkpt lat="43.34328" lon="5.21041">
        <ele>114</ele>
        <time>2015-04-16T13:36:43Z</time>
      </trkpt>
      <trkpt lat="43.34326" lon="5.2104">
        <ele>114</ele>
        <time>2015-04-16T13:36:44Z</time>
      </trkpt>
      <trkpt lat="43.34324" lon="5.21039">
        <ele>113</ele>
        <time>2015-04-16T13:36:45Z</time>
      </trkpt>
      <trkpt lat="43.34322" lon="5.21039">
        <ele>113</ele>
        <time>2015-04-16T13:36:46Z</time>
      </trkpt>
      <trkpt lat="43.34321" lon="5.21038">
        <ele>113</ele>
        <time>2015-04-16T13:36:47Z</time>
      </trkpt>
      <trkpt lat="43.34319" lon="5.21037">
        <ele>113</ele>
        <time>2015-04-16T13:36:48Z</time>
      </trkpt>
      <trkpt lat="43.34318" lon="5.21037">
        <ele>113</ele>
        <time>2015-04-16T13:36:49Z</time>
      </trkpt>
      <trkpt lat="43.34316" lon="5.21036">
        <ele>113</ele>
        <time>2015-04-16T13:36:50Z</time>
      </trkpt>
      <trkpt lat="43.34314" lon="5.21035">
        <ele>112</ele>
        <time>2015-04-16T13:36:51Z</time>
      </trkpt>
      <trkpt lat="43.34313" lon="5.21034">
        <ele>112</ele>
        <time>2015-04-16T13:36:52Z</time>
      </trkpt>
      <trkpt lat="43.34311" lon="5.21033">
        <ele>112</ele>
        <time>2015-04-16T13:36:53Z</time>
      </trkpt>
      <trkpt lat="43.3431" lon="5.21032">
        <ele>112</ele>
        <time>2015-04-16T13:36:54Z</time>
      </trkpt>
      <trkpt lat="43.34308" lon="5.21031">
        <ele>111</ele>
        <time>2015-04-16T13:36:55Z</time>
      </trkpt>
      <trkpt lat="43.34307" lon="5.2103">
        <ele>111</ele>
        <time>2015-04-16T13:36:56Z</time>
      </trkpt>
      <trkpt lat="43.34305" lon="5.21028">
        <ele>111</ele>
        <time>2015-04-16T13:36:57Z</time>
      </trkpt>
      <trkpt lat="43.34304" lon="5.21027">
        <ele>111</ele>
        <time>2015-04-16T13:36:58Z</time>
      </trkpt>
      <trkpt lat="43.34302" lon="5.21025">
        <ele>111</ele>
        <time>2015-04-16T13:36:59Z</time>
      </trkpt>
      <trkpt lat="43.34301" lon="5.21024">
        <ele>110</ele>
        <time>2015-04-16T13:37:00Z</time>
      </trkpt>
      <trkpt lat="43.343" lon="5.21022">
        <ele>110</ele>
        <time>2015-04-16T13:37:01Z</time>
      </trkpt>
      <trkpt lat="43.34298" lon="5.2102">
        <ele>110</ele>
        <time>2015-04-16T13:37:02Z</time>
      </trkpt>
      <trkpt lat="43.34297" lon="5.21019">
        <ele>110</ele>
        <time>2015-04-16T13:37:03Z</time>
      </trkpt>
      <trkpt lat="43.34296" lon="5.21017">
        <ele>109</ele>
        <time>2015-04-16T13:37:04Z</time>
      </trkpt>
      <trkpt lat="43.34295" lon="5.21015">
        <ele>109</ele>
        <time>2015-04-16T13:37:05Z</time>
      </trkpt>
      <trkpt lat="43.34294" lon="5.21013">
        <ele>109</ele>
        <time>2015-04-16T13:37:06Z</time>
      </trkpt>
      <trkpt lat="43.34293" lon="5.21011">
        <ele>109</ele>
        <time>2015-04-16T13:37:07Z</time>
      </trkpt>
      <trkpt lat="43.34292" lon="5.21009">
        <ele>109</ele>
        <time>2015-04-16T13:37:08Z</time>
      </trkpt>
      <trkpt lat="43.34291" lon="5.21007">
        <ele>109</ele>
        <time>2015-04-16T13:37:09Z</time>
      </trkpt>
      <trkpt lat="43.3429" lon="5.21005">
        <ele>108</ele>
        <time>2015-04-16T13:37:10Z</time>
      </trkpt>
      <trkpt lat="43.3429" lon="5.21002">
        <ele>108</ele>
        <time>2015-04-16T13:37:11Z</time>
      </trkpt>
      <trkpt lat="43.34289" lon="5.21">
        <ele>108</ele>
        <time>2015-04-16T13:37:12Z</time>
      </trkpt>
      <trkpt lat="43.34288" lon="5.20998">
        <ele>108</ele>
        <time>2015-04-16T13:37:13Z</time>
      </trkpt>
      <trkpt lat="43.34288" lon="5.20996">
        <ele>107</ele>
        <time>2015-04-16T13:37:14Z</time>
      </trkpt>
      <trkpt lat="43.34287" lon="5.20994">
        <ele>107</ele>
        <time>2015-04-16T13:37:15Z</time>
      </trkpt>
      <trkpt lat="43.34286" lon="5.20992">
        <ele>107</ele>
        <time>2015-04-16T13:37:16Z</time>
      </trkpt>
      <trkpt lat="43.34286" lon="5.2099">
        <ele>107</ele>
        <time>2015-04-16T13:37:17Z</time>
      </trkpt>
      <trkpt lat="43.34285" lon="5.20988">
        <ele>107</ele>
        <time>2015-04-16T13:37:18Z</time>
      </trkpt>
      <trkpt lat="43.34284" lon="5.20986">
        <ele>107</ele>
        <time>2015-04-16T13:37:19Z</time>
      </trkpt>
      <trkpt lat="43.34283" lon="5.20984">
        <ele>107</ele>
        <time>2015-04-16T13:37:20Z</time>
      </trkpt>
      <trkpt lat="43.34283" lon="5.20982">
        <ele>107</ele>
        <time>2015-04-16T13:37:21Z</time>
      </trkpt>
      <trkpt lat="43.34282" lon="5.2098">
        <ele>107</ele>
        <time>2015-04-16T13:37:22Z</time>
      </trkpt>
      <trkpt lat="43.34281" lon="5.20978">
        <ele>107</ele>
        <time>2015-04-16T13:37:23Z</time>
      </trkpt>
      <trkpt lat="43.3428" lon="5.20976">
        <ele>107</ele>
        <time>2015-04-16T13:37:24Z</time>
      </trkpt>
      <trkpt lat="43.34279" lon="5.20974">
        <ele>107</ele>
        <time>2015-04-16T13:37:25Z</time>
      </trkpt>
      <trkpt lat="43.34278" lon="5.20972">
        <ele>107</ele>
        <time>2015-04-16T13:37:26Z</time>
      </trkpt>
      <trkpt lat="43.34278" lon="5.2097">
        <ele>107</ele>
        <time>2015-04-16T13:37:27Z</time>
      </trkpt>
      <trkpt lat="43.34277" lon="5.20968">
        <ele>107</ele>
        <time>2015-04-16T13:37:28Z</time>
      </trkpt>
      <trkpt lat="43.34276" lon="5.20966">
        <ele>107</ele>
        <time>2015-04-16T13:37:29Z</time>
      </trkpt>
      <trkpt lat="43.34275" lon="5.20964">
        <ele>107</ele>
        <time>2015-04-16T13:37:30Z</time>
      </trkpt>
      <trkpt lat="43.34275" lon="5.20962">
        <ele>107</ele>
        <time>2015-04-16T13:37:31Z</time>
      </trkpt>
      <trkpt lat="43.34274" lon="5.2096">
        <ele>107</ele>
        <time>2015-04-16T13:37:32Z</time>
      </trkpt>
      <trkpt lat="43.34273" lon="5.20958">
        <ele>107</ele>
        <time>2015-04-16T13:37:33Z</time>
      </trkpt>
      <trkpt lat="43.34272" lon="5.20956">
        <ele>107</ele>
        <time>2015-04-16T13:37:34Z</time>
      </trkpt>
      <trkpt lat="43.34271" lon="5.20954">
        <ele>106</ele>
        <time>2015-04-16T13:37:35Z</time>
      </trkpt>
      <trkpt lat="43.3427" lon="5.20952">
        <ele>106</ele>
        <time>2015-04-16T13:37:36Z</time>
      </trkpt>
      <trkpt lat="43.34269" lon="5.2095">
        <ele>106</ele>
        <time>2015-04-16T13:37:37Z</time>
      </trkpt>
      <trkpt lat="43.34269" lon="5.20947">
        <ele>106</ele>
        <time>2015-04-16T13:37:38Z</time>
      </trkpt>
      <trkpt lat="43.34268" lon="5.20946">
        <ele>105</ele>
        <time>2015-04-16T13:37:39Z</time>
      </trkpt>
      <trkpt lat="43.34267" lon="5.20944">
        <ele>105</ele>
        <time>2015-04-16T13:37:40Z</time>
      </trkpt>
      <trkpt lat="43.34266" lon="5.20942">
        <ele>105</ele>
        <time>2015-04-16T13:37:41Z</time>
      </trkpt>
      <trkpt lat="43.34264" lon="5.2094">
        <ele>105</ele>
        <time>2015-04-16T13:37:42Z</time>
      </trkpt>
      <trkpt lat="43.34263" lon="5.20938">
        <ele>104</ele>
        <time>2015-04-16T13:37:43Z</time>
      </trkpt>
      <trkpt lat="43.34262" lon="5.20937">
        <ele>104</ele>
        <time>2015-04-16T13:37:44Z</time>
      </trkpt>
      <trkpt lat="43.3426" lon="5.20936">
        <ele>103</ele>
        <time>2015-04-16T13:37:45Z</time>
      </trkpt>
      <trkpt lat="43.34258" lon="5.20935">
        <ele>103</ele>
        <time>2015-04-16T13:37:46Z</time>
      </trkpt>
      <trkpt lat="43.34256" lon="5.20934">
        <ele>103</ele>
        <time>2015-04-16T13:37:47Z</time>
      </trkpt>
      <trkpt lat="43.34254" lon="5.20934">
        <ele>103</ele>
        <time>2015-04-16T13:37:48Z</time>
      </trkpt>
      <trkpt lat="43.34253" lon="5.20933">
        <ele>103</ele>
        <time>2015-04-16T13:37:49Z</time>
      </trkpt>
      <trkpt lat="43.34251" lon="5.20933">
        <ele>103</ele>
        <time>2015-04-16T13:37:50Z</time>
      </trkpt>
      <trkpt lat="43.34249" lon="5.20933">
        <ele>103</ele>
        <time>2015-04-16T13:37:51Z</time>
      </trkpt>
      <trkpt lat="43.34248" lon="5.20933">
        <ele>102</ele>
        <time>2015-04-16T13:37:52Z</time>
      </trkpt>
      <trkpt lat="43.34246" lon="5.20933">
        <ele>102</ele>
        <time>2015-04-16T13:37:53Z</time>
      </trkpt>
      <trkpt lat="43.34244" lon="5.20933">
        <ele>102</ele>
        <time>2015-04-16T13:37:54Z</time>
      </trkpt>
      <trkpt lat="43.34242" lon="5.20933">
        <ele>102</ele>
        <time>2015-04-16T13:37:55Z</time>
      </trkpt>
      <trkpt lat="43.3424" lon="5.20934">
        <ele>102</ele>
        <time>2015-04-16T13:37:56Z</time>
      </trkpt>
      <trkpt lat="43.34239" lon="5.20934">
        <ele>102</ele>
        <time>2015-04-16T13:37:57Z</time>
      </trkpt>
      <trkpt lat="43.34237" lon="5.20934">
        <ele>102</ele>
        <time>2015-04-16T13:37:58Z</time>
      </trkpt>
      <trkpt lat="43.34235" lon="5.20933">
        <ele>102</ele>
        <time>2015-04-16T13:37:59Z</time>
      </trkpt>
      <trkpt lat="43.34234" lon="5.20933">
        <ele>102</ele>
        <time>2015-04-16T13:38:00Z</time>
      </trkpt>
      <trkpt lat="43.34232" lon="5.20932">
        <ele>102</ele>
        <time>2015-04-16T13:38:01Z</time>
      </trkpt>
      <trkpt lat="43.34231" lon="5.20931">
        <ele>102</ele>
        <time>2015-04-16T13:38:02Z</time>
      </trkpt>
      <trkpt lat="43.34229" lon="5.20931">
        <ele>102</ele>
        <time>2015-04-16T13:38:03Z</time>
      </trkpt>
      <trkpt lat="43.34227" lon="5.2093">
        <ele>102</ele>
        <time>2015-04-16T13:38:04Z</time>
      </trkpt>
      <trkpt lat="43.34226" lon="5.20928">
        <ele>102</ele>
        <time>2015-04-16T13:38:05Z</time>
      </trkpt>
      <trkpt lat="43.34225" lon="5.20927">
        <ele>102</ele>
        <time>2015-04-16T13:38:06Z</time>
      </trkpt>
      <trkpt lat="43.34223" lon="5.20925">
        <ele>102</ele>
        <time>2015-04-16T13:38:07Z</time>
      </trkpt>
      <trkpt lat="43.34222" lon="5.20923">
        <ele>102</ele>
        <time>2015-04-16T13:38:08Z</time>
      </trkpt>
      <trkpt lat="43.34221" lon="5.20921">
        <ele>102</ele>
        <time>2015-04-16T13:38:09Z</time>
      </trkpt>
      <trkpt lat="43.34219" lon="5.2092">
        <ele>102</ele>
        <time>2015-04-16T13:38:10Z</time>
      </trkpt>
      <trkpt lat="43.34218" lon="5.20918">
        <ele>102</ele>
        <time>2015-04-16T13:38:11Z</time>
      </trkpt>
      <trkpt lat="43.34217" lon="5.20916">
        <ele>102</ele>
        <time>2015-04-16T13:38:12Z</time>
      </trkpt>
      <trkpt lat="43.34217" lon="5.20914">
        <ele>102</ele>
        <time>2015-04-16T13:38:13Z</time>
      </trkpt>
      <trkpt lat="43.34216" lon="5.20913">
        <ele>102</ele>
        <time>2015-04-16T13:38:14Z</time>
      </trkpt>
      <trkpt lat="43.34215" lon="5.20911">
        <ele>102</ele>
        <time>2015-04-16T13:38:15Z</time>
      </trkpt>
      <trkpt lat="43.34214" lon="5.20909">
        <ele>102</ele>
        <time>2015-04-16T13:38:16Z</time>
      </trkpt>
      <trkpt lat="43.34213" lon="5.20907">
        <ele>102</ele>
        <time>2015-04-16T13:38:17Z</time>
      </trkpt>
      <trkpt lat="43.34212" lon="5.20905">
        <ele>102</ele>
        <time>2015-04-16T13:38:18Z</time>
      </trkpt>
      <trkpt lat="43.34211" lon="5.20903">
        <ele>102</ele>
        <time>2015-04-16T13:38:19Z</time>
      </trkpt>
      <trkpt lat="43.3421" lon="5.20902">
        <ele>102</ele>
        <time>2015-04-16T13:38:20Z</time>
      </trkpt>
      <trkpt lat="43.34209" lon="5.209">
        <ele>102</ele>
        <time>2015-04-16T13:38:21Z</time>
      </trkpt>
      <trkpt lat="43.34208" lon="5.20898">
        <ele>102</ele>
        <time>2015-04-16T13:38:22Z</time>
      </trkpt>
      <trkpt lat="43.34207" lon="5.20896">
        <ele>102</ele>
        <time>2015-04-16T13:38:23Z</time>
      </trkpt>
      <trkpt lat="43.34206" lon="5.20894">
        <ele>102</ele>
        <time>2015-04-16T13:38:24Z</time>
      </trkpt>
      <trkpt lat="43.34205" lon="5.20892">
        <ele>102</ele>
        <time>2015-04-16T13:38:25Z</time>
      </trkpt>
      <trkpt lat="43.34203" lon="5.2089">
        <ele>102</ele>
        <time>2015-04-16T13:38:26Z</time>
      </trkpt>
      <trkpt lat="43.34203" lon="5.20888">
        <ele>102</ele>
        <time>2015-04-16T13:38:27Z</time>
      </trkpt>
      <trkpt lat="43.34202" lon="5.20886">
        <ele>102</ele>
        <time>2015-04-16T13:38:28Z</time>
      </trkpt>
      <trkpt lat="43.34201" lon="5.20885">
        <ele>102</ele>
        <time>2015-04-16T13:38:29Z</time>
      </trkpt>
      <trkpt lat="43.34199" lon="5.20883">
        <ele>102</ele>
        <time>2015-04-16T13:38:30Z</time>
      </trkpt>
      <trkpt lat="43.34198" lon="5.20881">
        <ele>102</ele>
        <time>2015-04-16T13:38:31Z</time>
      </trkpt>
      <trkpt lat="43.34198" lon="5.20879">
        <ele>102</ele>
        <time>2015-04-16T13:38:32Z</time>
      </trkpt>
      <trkpt lat="43.34196" lon="5.20878">
        <ele>102</ele>
        <time>2015-04-16T13:38:33Z</time>
      </trkpt>
      <trkpt lat="43.34195" lon="5.20876">
        <ele>102</ele>
        <time>2015-04-16T13:38:34Z</time>
      </trkpt>
      <trkpt lat="43.34194" lon="5.20874">
        <ele>102</ele>
        <time>2015-04-16T13:38:35Z</time>
      </trkpt>
      <trkpt lat="43.34193" lon="5.20872">
        <ele>102</ele>
        <time>2015-04-16T13:38:36Z</time>
      </trkpt>
      <trkpt lat="43.34192" lon="5.2087">
        <ele>102</ele>
        <time>2015-04-16T13:38:37Z</time>
      </trkpt>
      <trkpt lat="43.34191" lon="5.20868">
        <ele>102</ele>
        <time>2015-04-16T13:38:38Z</time>
      </trkpt>
      <trkpt lat="43.3419" lon="5.20866">
        <ele>102</ele>
        <time>2015-04-16T13:38:39Z</time>
      </trkpt>
      <trkpt lat="43.34189" lon="5.20864">
        <ele>102</ele>
        <time>2015-04-16T13:38:40Z</time>
      </trkpt>
      <trkpt lat="43.34188" lon="5.20862">
        <ele>102</ele>
        <time>2015-04-16T13:38:41Z</time>
      </trkpt>
      <trkpt lat="43.34187" lon="5.2086">
        <ele>102</ele>
        <time>2015-04-16T13:38:42Z</time>
      </trkpt>
      <trkpt lat="43.34186" lon="5.20859">
        <ele>102</ele>
        <time>2015-04-16T13:38:43Z</time>
      </trkpt>
      <trkpt lat="43.34185" lon="5.20857">
        <ele>102</ele>
        <time>2015-04-16T13:38:44Z</time>
      </trkpt>
      <trkpt lat="43.34184" lon="5.20856">
        <ele>102</ele>
        <time>2015-04-16T13:38:45Z</time>
      </trkpt>
      <trkpt lat="43.34183" lon="5.20854">
        <ele>102</ele>
        <time>2015-04-16T13:38:46Z</time>
      </trkpt>
      <trkpt lat="43.34182" lon="5.20852">
        <ele>102</ele>
        <time>2015-04-16T13:38:47Z</time>
      </trkpt>
      <trkpt lat="43.34181" lon="5.2085">
        <ele>102</ele>
        <time>2015-04-16T13:38:48Z</time>
      </trkpt>
      <trkpt lat="43.3418" lon="5.20848">
        <ele>102</ele>
        <time>2015-04-16T13:38:49Z</time>
      </trkpt>
      <trkpt lat="43.34179" lon="5.20847">
        <ele>102</ele>
        <time>2015-04-16T13:38:50Z</time>
      </trkpt>
      <trkpt lat="43.34177" lon="5.20845">
        <ele>102</ele>
        <time>2015-04-16T13:38:51Z</time>
      </trkpt>
      <trkpt lat="43.34176" lon="5.20843">
        <ele>102</ele>
        <time>2015-04-16T13:38:52Z</time>
      </trkpt>
      <trkpt lat="43.34175" lon="5.20841">
        <ele>102</ele>
        <time>2015-04-16T13:38:53Z</time>
      </trkpt>
      <trkpt lat="43.34174" lon="5.2084">
        <ele>102</ele>
        <time>2015-04-16T13:38:54Z</time>
      </trkpt>
      <trkpt lat="43.34173" lon="5.20838">
        <ele>102</ele>
        <time>2015-04-16T13:38:55Z</time>
      </trkpt>
      <trkpt lat="43.34172" lon="5.20836">
        <ele>102</ele>
        <time>2015-04-16T13:38:56Z</time>
      </trkpt>
      <trkpt lat="43.34171" lon="5.20835">
        <ele>102</ele>
        <time>2015-04-16T13:38:57Z</time>
      </trkpt>
      <trkpt lat="43.34169" lon="5.20833">
        <ele>102</ele>
        <time>2015-04-16T13:38:58Z</time>
      </trkpt>
      <trkpt lat="43.34168" lon="5.20832">
        <ele>102</ele>
        <time>2015-04-16T13:38:59Z</time>
      </trkpt>
      <trkpt lat="43.34167" lon="5.20831">
        <ele>102</ele>
        <time>2015-04-16T13:39:00Z</time>
      </trkpt>
      <trkpt lat="43.34165" lon="5.2083">
        <ele>102</ele>
        <time>2015-04-16T13:39:01Z</time>
      </trkpt>
      <trkpt lat="43.34164" lon="5.20829">
        <ele>102</ele>
        <time>2015-04-16T13:39:02Z</time>
      </trkpt>
      <trkpt lat="43.34162" lon="5.20829">
        <ele>102</ele>
        <time>2015-04-16T13:39:03Z</time>
      </trkpt>
      <trkpt lat="43.34161" lon="5.20828">
        <ele>102</ele>
        <time>2015-04-16T13:39:04Z</time>
      </trkpt>
      <trkpt lat="43.34159" lon="5.20828">
        <ele>102</ele>
        <time>2015-04-16T13:39:05Z</time>
      </trkpt>
      <trkpt lat="43.34158" lon="5.20828">
        <ele>102</ele>
        <time>2015-04-16T13:39:06Z</time>
      </trkpt>
      <trkpt lat="43.34156" lon="5.20828">
        <ele>102</ele>
        <time>2015-04-16T13:39:07Z</time>
      </trkpt>
      <trkpt lat="43.34155" lon="5.20828">
        <ele>102</ele>
        <time>2015-04-16T13:39:08Z</time>
      </trkpt>
      <trkpt lat="43.34153" lon="5.20828">
        <ele>102</ele>
        <time>2015-04-16T13:39:09Z</time>
      </trkpt>
      <trkpt lat="43.34152" lon="5.20828">
        <ele>102</ele>
        <time>2015-04-16T13:39:10Z</time>
      </trkpt>
      <trkpt lat="43.3415" lon="5.20828">
        <ele>102</ele>
        <time>2015-04-16T13:39:11Z</time>
      </trkpt>
      <trkpt lat="43.34149" lon="5.20828">
        <ele>102</ele>
        <time>2015-04-16T13:39:12Z</time>
      </trkpt>
      <trkpt lat="43.34148" lon="5.20828">
        <ele>102</ele>
        <time>2015-04-16T13:39:13Z</time>
      </trkpt>
      <trkpt lat="43.34146" lon="5.20829">
        <ele>102</ele>
        <time>2015-04-16T13:39:14Z</time>
      </trkpt>
      <trkpt lat="43.34145" lon="5.20829">
        <ele>102</ele>
        <time>2015-04-16T13:39:15Z</time>
      </trkpt>
      <trkpt lat="43.34143" lon="5.20828">
        <ele>102</ele>
        <time>2015-04-16T13:39:16Z</time>
      </trkpt>
      <trkpt lat="43.34142" lon="5.20828">
        <ele>102</ele>
        <time>2015-04-16T13:39:17Z</time>
      </trkpt>
      <trkpt lat="43.3414" lon="5.20828">
        <ele>102</ele>
        <time>2015-04-16T13:39:18Z</time>
      </trkpt>
      <trkpt lat="43.34138" lon="5.20828">
        <ele>102</ele>
        <time>2015-04-16T13:39:19Z</time>
      </trkpt>
      <trkpt lat="43.34137" lon="5.20828">
        <ele>102</ele>
        <time>2015-04-16T13:39:20Z</time>
      </trkpt>
      <trkpt lat="43.34136" lon="5.20828">
        <ele>102</ele>
        <time>2015-04-16T13:39:21Z</time>
      </trkpt>
      <trkpt lat="43.34134" lon="5.20827">
        <ele>102</ele>
        <time>2015-04-16T13:39:22Z</time>
      </trkpt>
      <trkpt lat="43.34133" lon="5.20827">
        <ele>102</ele>
        <time>2015-04-16T13:39:23Z</time>
      </trkpt>
      <trkpt lat="43.34131" lon="5.20826">
        <ele>102</ele>
        <time>2015-04-16T13:39:24Z</time>
      </trkpt>
      <trkpt lat="43.34129" lon="5.20825">
        <ele>102</ele>
        <time>2015-04-16T13:39:25Z</time>
      </trkpt>
      <trkpt lat="43.34128" lon="5.20825">
        <ele>102</ele>
        <time>2015-04-16T13:39:26Z</time>
      </trkpt>
      <trkpt lat="43.34126" lon="5.20825">
        <ele>102</ele>
        <time>2015-04-16T13:39:27Z</time>
      </trkpt>
      <trkpt lat="43.34125" lon="5.20824">
        <ele>102</ele>
        <time>2015-04-16T13:39:28Z</time>
      </trkpt>
      <trkpt lat="43.34123" lon="5.20824">
        <ele>102</ele>
        <time>2015-04-16T13:39:29Z</time>
      </trkpt>
      <trkpt lat="43.34121" lon="5.20823">
        <ele>102</ele>
        <time>2015-04-16T13:39:30Z</time>
      </trkpt>
      <trkpt lat="43.3412" lon="5.20822">
        <ele>102</ele>
        <time>2015-04-16T13:39:31Z</time>
      </trkpt>
      <trkpt lat="43.34119" lon="5.20821">
        <ele>102</ele>
        <time>2015-04-16T13:39:32Z</time>
      </trkpt>
      <trkpt lat="43.34118" lon="5.20819">
        <ele>103</ele>
        <time>2015-04-16T13:39:33Z</time>
      </trkpt>
      <trkpt lat="43.34116" lon="5.20818">
        <ele>103</ele>
        <time>2015-04-16T13:39:34Z</time>
      </trkpt>
      <trkpt lat="43.34115" lon="5.20817">
        <ele>103</ele>
        <time>2015-04-16T13:39:35Z</time>
      </trkpt>
      <trkpt lat="43.34114" lon="5.20816">
        <ele>103</ele>
        <time>2015-04-16T13:39:36Z</time>
      </trkpt>
      <trkpt lat="43.34113" lon="5.20814">
        <ele>103</ele>
        <time>2015-04-16T13:39:37Z</time>
      </trkpt>
      <trkpt lat="43.34111" lon="5.20813">
        <ele>104</ele>
        <time>2015-04-16T13:39:38Z</time>
      </trkpt>
      <trkpt lat="43.34111" lon="5.20812">
        <ele>104</ele>
        <time>2015-04-16T13:39:39Z</time>
      </trkpt>
      <trkpt lat="43.34109" lon="5.20809">
        <ele>104</ele>
        <time>2015-04-16T13:39:41Z</time>
      </trkpt>
      <trkpt lat="43.34108" lon="5.20808">
        <ele>104</ele>
        <time>2015-04-16T13:39:42Z</time>
      </trkpt>
      <trkpt lat="43.34108" lon="5.20806">
        <ele>104</ele>
        <time>2015-04-16T13:39:43Z</time>
      </trkpt>
      <trkpt lat="43.34107" lon="5.20804">
        <ele>105</ele>
        <time>2015-04-16T13:39:45Z</time>
      </trkpt>
      <trkpt lat="43.34107" lon="5.20802">
        <ele>105</ele>
        <time>2015-04-16T13:39:47Z</time>
      </trkpt>
      <trkpt lat="43.34108" lon="5.20802">
        <ele>105</ele>
        <time>2015-04-16T13:40:11Z</time>
      </trkpt>
      <trkpt lat="43.34108" lon="5.20804">
        <ele>105</ele>
        <time>2015-04-16T13:40:34Z</time>
      </trkpt>
      <trkpt lat="43.34108" lon="5.20802">
        <ele>105</ele>
        <time>2015-04-16T13:40:53Z</time>
      </trkpt>
      <trkpt lat="43.34109" lon="5.20803">
        <ele>105</ele>
        <time>2015-04-16T13:41:13Z</time>
      </trkpt>
      <trkpt lat="43.34108" lon="5.20803">
        <ele>105</ele>
        <time>2015-04-16T13:42:13Z</time>
      </trkpt>
      <trkpt lat="43.34108" lon="5.20801">
        <ele>105</ele>
        <time>2015-04-16T13:42:33Z</time>
      </trkpt>
      <trkpt lat="43.34109" lon="5.20799">
        <ele>105</ele>
        <time>2015-04-16T13:42:35Z</time>
      </trkpt>
      <trkpt lat="43.34111" lon="5.20797">
        <ele>105</ele>
        <time>2015-04-16T13:42:37Z</time>
      </trkpt>
      <trkpt lat="43.34111" lon="5.20795">
        <ele>105</ele>
        <time>2015-04-16T13:42:39Z</time>
      </trkpt>
      <trkpt lat="43.34111" lon="5.20794">
        <ele>105</ele>
        <time>2015-04-16T13:42:40Z</time>
      </trkpt>
      <trkpt lat="43.34111" lon="5.20792">
        <ele>104</ele>
        <time>2015-04-16T13:42:41Z</time>
      </trkpt>
      <trkpt lat="43.34111" lon="5.20791">
        <ele>104</ele>
        <time>2015-04-16T13:42:42Z</time>
      </trkpt>
      <trkpt lat="43.3411" lon="5.20789">
        <ele>104</ele>
        <time>2015-04-16T13:42:43Z</time>
      </trkpt>
      <trkpt lat="43.3411" lon="5.20787">
        <ele>104</ele>
        <time>2015-04-16T13:42:44Z</time>
      </trkpt>
      <trkpt lat="43.34109" lon="5.20786">
        <ele>104</ele>
        <time>2015-04-16T13:42:45Z</time>
      </trkpt>
      <trkpt lat="43.34109" lon="5.20784">
        <ele>104</ele>
        <time>2015-04-16T13:42:46Z</time>
      </trkpt>
      <trkpt lat="43.34108" lon="5.20783">
        <ele>104</ele>
        <time>2015-04-16T13:42:47Z</time>
      </trkpt>
      <trkpt lat="43.34108" lon="5.20781">
        <ele>104</ele>
        <time>2015-04-16T13:42:48Z</time>
      </trkpt>
      <trkpt lat="43.34108" lon="5.20779">
        <ele>103</ele>
        <time>2015-04-16T13:42:49Z</time>
      </trkpt>
      <trkpt lat="43.34108" lon="5.20778">
        <ele>103</ele>
        <time>2015-04-16T13:42:50Z</time>
      </trkpt>
      <trkpt lat="43.34108" lon="5.20776">
        <ele>103</ele>
        <time>2015-04-16T13:42:51Z</time>
      </trkpt>
      <trkpt lat="43.34109" lon="5.20774">
        <ele>103</ele>
        <time>2015-04-16T13:42:52Z</time>
      </trkpt>
      <trkpt lat="43.34109" lon="5.20773">
        <ele>103</ele>
        <time>2015-04-16T13:42:53Z</time>
      </trkpt>
      <trkpt lat="43.34109" lon="5.2077">
        <ele>103</ele>
        <time>2015-04-16T13:42:55Z</time>
      </trkpt>
      <trkpt lat="43.3411" lon="5.20768">
        <ele>102</ele>
        <time>2015-04-16T13:42:56Z</time>
      </trkpt>
      <trkpt lat="43.34111" lon="5.20766">
        <ele>102</ele>
        <time>2015-04-16T13:42:57Z</time>
      </trkpt>
      <trkpt lat="43.34111" lon="5.20764">
        <ele>102</ele>
        <time>2015-04-16T13:42:58Z</time>
      </trkpt>
      <trkpt lat="43.34112" lon="5.20762">
        <ele>102</ele>
        <time>2015-04-16T13:42:59Z</time>
      </trkpt>
      <trkpt lat="43.34113" lon="5.20761">
        <ele>102</ele>
        <time>2015-04-16T13:43:00Z</time>
      </trkpt>
      <trkpt lat="43.34113" lon="5.20759">
        <ele>102</ele>
        <time>2015-04-16T13:43:01Z</time>
      </trkpt>
      <trkpt lat="43.34113" lon="5.20757">
        <ele>102</ele>
        <time>2015-04-16T13:43:02Z</time>
      </trkpt>
      <trkpt lat="43.34114" lon="5.20755">
        <ele>102</ele>
        <time>2015-04-16T13:43:03Z</time>
      </trkpt>
      <trkpt lat="43.34114" lon="5.20753">
        <ele>102</ele>
        <time>2015-04-16T13:43:04Z</time>
      </trkpt>
      <trkpt lat="43.34113" lon="5.20751">
        <ele>102</ele>
        <time>2015-04-16T13:43:05Z</time>
      </trkpt>
      <trkpt lat="43.34113" lon="5.20749">
        <ele>102</ele>
        <time>2015-04-16T13:43:06Z</time>
      </trkpt>
      <trkpt lat="43.34112" lon="5.20747">
        <ele>102</ele>
        <time>2015-04-16T13:43:07Z</time>
      </trkpt>
      <trkpt lat="43.34112" lon="5.20745">
        <ele>102</ele>
        <time>2015-04-16T13:43:08Z</time>
      </trkpt>
      <trkpt lat="43.34112" lon="5.20743">
        <ele>102</ele>
        <time>2015-04-16T13:43:09Z</time>
      </trkpt>
      <trkpt lat="43.34111" lon="5.20741">
        <ele>102</ele>
        <time>2015-04-16T13:43:10Z</time>
      </trkpt>
      <trkpt lat="43.34111" lon="5.2074">
        <ele>102</ele>
        <time>2015-04-16T13:43:11Z</time>
      </trkpt>
      <trkpt lat="43.3411" lon="5.20738">
        <ele>102</ele>
        <time>2015-04-16T13:43:12Z</time>
      </trkpt>
      <trkpt lat="43.3411" lon="5.20736">
        <ele>102</ele>
        <time>2015-04-16T13:43:13Z</time>
      </trkpt>
      <trkpt lat="43.3411" lon="5.20734">
        <ele>102</ele>
        <time>2015-04-16T13:43:14Z</time>
      </trkpt>
      <trkpt lat="43.34109" lon="5.20732">
        <ele>102</ele>
        <time>2015-04-16T13:43:15Z</time>
      </trkpt>
      <trkpt lat="43.34109" lon="5.2073">
        <ele>102</ele>
        <time>2015-04-16T13:43:16Z</time>
      </trkpt>
      <trkpt lat="43.34109" lon="5.20729">
        <ele>102</ele>
        <time>2015-04-16T13:43:17Z</time>
      </trkpt>
      <trkpt lat="43.34109" lon="5.20727">
        <ele>102</ele>
        <time>2015-04-16T13:43:18Z</time>
      </trkpt>
      <trkpt lat="43.34109" lon="5.20725">
        <ele>102</ele>
        <time>2015-04-16T13:43:19Z</time>
      </trkpt>
      <trkpt lat="43.34109" lon="5.20723">
        <ele>102</ele>
        <time>2015-04-16T13:43:20Z</time>
      </trkpt>
      <trkpt lat="43.34108" lon="5.20721">
        <ele>102</ele>
        <time>2015-04-16T13:43:21Z</time>
      </trkpt>
      <trkpt lat="43.34108" lon="5.2072">
        <ele>102</ele>
        <time>2015-04-16T13:43:22Z</time>
      </trkpt>
      <trkpt lat="43.34108" lon="5.20718">
        <ele>102</ele>
        <time>2015-04-16T13:43:23Z</time>
      </trkpt>
      <trkpt lat="43.34108" lon="5.20716">
        <ele>102</ele>
        <time>2015-04-16T13:43:24Z</time>
      </trkpt>
      <trkpt lat="43.34108" lon="5.20715">
        <ele>102</ele>
        <time>2015-04-16T13:43:25Z</time>
      </trkpt>
      <trkpt lat="43.34109" lon="5.20713">
        <ele>102</ele>
        <time>2015-04-16T13:43:26Z</time>
      </trkpt>
      <trkpt lat="43.34109" lon="5.20711">
        <ele>102</ele>
        <time>2015-04-16T13:43:27Z</time>
      </trkpt>
      <trkpt lat="43.34109" lon="5.20709">
        <ele>102</ele>
        <time>2015-04-16T13:43:28Z</time>
      </trkpt>
      <trkpt lat="43.34108" lon="5.20708">
        <ele>102</ele>
        <time>2015-04-16T13:43:29Z</time>
      </trkpt>
      <trkpt lat="43.34108" lon="5.20706">
        <ele>102</ele>
        <time>2015-04-16T13:43:30Z</time>
      </trkpt>
      <trkpt lat="43.34108" lon="5.20704">
        <ele>102</ele>
        <time>2015-04-16T13:43:31Z</time>
      </trkpt>
      <trkpt lat="43.34108" lon="5.20702">
        <ele>102</ele>
        <time>2015-04-16T13:43:32Z</time>
      </trkpt>
      <trkpt lat="43.34108" lon="5.207">
        <ele>102</ele>
        <time>2015-04-16T13:43:33Z</time>
      </trkpt>
      <trkpt lat="43.34108" lon="5.20698">
        <ele>102</ele>
        <time>2015-04-16T13:43:34Z</time>
      </trkpt>
      <trkpt lat="43.34109" lon="5.20696">
        <ele>102</ele>
        <time>2015-04-16T13:43:35Z</time>
      </trkpt>
      <trkpt lat="43.34109" lon="5.20694">
        <ele>102</ele>
        <time>2015-04-16T13:43:36Z</time>
      </trkpt>
      <trkpt lat="43.34109" lon="5.20692">
        <ele>102</ele>
        <time>2015-04-16T13:43:37Z</time>
      </trkpt>
      <trkpt lat="43.34109" lon="5.2069">
        <ele>102</ele>
        <time>2015-04-16T13:43:38Z</time>
      </trkpt>
      <trkpt lat="43.34108" lon="5.20688">
        <ele>102</ele>
        <time>2015-04-16T13:43:39Z</time>
      </trkpt>
      <trkpt lat="43.34108" lon="5.20686">
        <ele>102</ele>
        <time>2015-04-16T13:43:40Z</time>
      </trkpt>
      <trkpt lat="43.34107" lon="5.20685">
        <ele>102</ele>
        <time>2015-04-16T13:43:41Z</time>
      </trkpt>
      <trkpt lat="43.34106" lon="5.20683">
        <ele>102</ele>
        <time>2015-04-16T13:43:42Z</time>
      </trkpt>
      <trkpt lat="43.34104" lon="5.20682">
        <ele>101</ele>
        <time>2015-04-16T13:43:43Z</time>
      </trkpt>
      <trkpt lat="43.34103" lon="5.20681">
        <ele>101</ele>
        <time>2015-04-16T13:43:44Z</time>
      </trkpt>
      <trkpt lat="43.34101" lon="5.2068">
        <ele>101</ele>
        <time>2015-04-16T13:43:45Z</time>
      </trkpt>
      <trkpt lat="43.341" lon="5.20679">
        <ele>101</ele>
        <time>2015-04-16T13:43:46Z</time>
      </trkpt>
      <trkpt lat="43.34099" lon="5.20678">
        <ele>101</ele>
        <time>2015-04-16T13:43:47Z</time>
      </trkpt>
      <trkpt lat="43.34097" lon="5.20677">
        <ele>101</ele>
        <time>2015-04-16T13:43:48Z</time>
      </trkpt>
      <trkpt lat="43.34096" lon="5.20676">
        <ele>101</ele>
        <time>2015-04-16T13:43:49Z</time>
      </trkpt>
      <trkpt lat="43.34095" lon="5.20675">
        <ele>101</ele>
        <time>2015-04-16T13:43:50Z</time>
      </trkpt>
      <trkpt lat="43.34094" lon="5.20674">
        <ele>101</ele>
        <time>2015-04-16T13:43:51Z</time>
      </trkpt>
      <trkpt lat="43.34092" lon="5.20672">
        <ele>101</ele>
        <time>2015-04-16T13:43:52Z</time>
      </trkpt>
      <trkpt lat="43.34091" lon="5.20671">
        <ele>101</ele>
        <time>2015-04-16T13:43:53Z</time>
      </trkpt>
      <trkpt lat="43.3409" lon="5.20669">
        <ele>101</ele>
        <time>2015-04-16T13:43:54Z</time>
      </trkpt>
      <trkpt lat="43.34089" lon="5.20668">
        <ele>101</ele>
        <time>2015-04-16T13:43:55Z</time>
      </trkpt>
      <trkpt lat="43.34087" lon="5.20667">
        <ele>101</ele>
        <time>2015-04-16T13:43:56Z</time>
      </trkpt>
      <trkpt lat="43.34086" lon="5.20666">
        <ele>101</ele>
        <time>2015-04-16T13:43:57Z</time>
      </trkpt>
      <trkpt lat="43.34084" lon="5.20665">
        <ele>101</ele>
        <time>2015-04-16T13:43:58Z</time>
      </trkpt>
      <trkpt lat="43.34083" lon="5.20663">
        <ele>101</ele>
        <time>2015-04-16T13:43:59Z</time>
      </trkpt>
      <trkpt lat="43.34082" lon="5.20662">
        <ele>101</ele>
        <time>2015-04-16T13:44:00Z</time>
      </trkpt>
      <trkpt lat="43.34081" lon="5.20661">
        <ele>101</ele>
        <time>2015-04-16T13:44:01Z</time>
      </trkpt>
      <trkpt lat="43.34079" lon="5.2066">
        <ele>101</ele>
        <time>2015-04-16T13:44:02Z</time>
      </trkpt>
      <trkpt lat="43.34078" lon="5.20659">
        <ele>101</ele>
        <time>2015-04-16T13:44:03Z</time>
      </trkpt>
      <trkpt lat="43.34077" lon="5.20658">
        <ele>101</ele>
        <time>2015-04-16T13:44:04Z</time>
      </trkpt>
      <trkpt lat="43.34075" lon="5.20658">
        <ele>101</ele>
        <time>2015-04-16T13:44:05Z</time>
      </trkpt>
      <trkpt lat="43.34074" lon="5.20657">
        <ele>101</ele>
        <time>2015-04-16T13:44:06Z</time>
      </trkpt>
      <trkpt lat="43.34072" lon="5.20656">
        <ele>101</ele>
        <time>2015-04-16T13:44:07Z</time>
      </trkpt>
      <trkpt lat="43.34071" lon="5.20655">
        <ele>101</ele>
        <time>2015-04-16T13:44:08Z</time>
      </trkpt>
      <trkpt lat="43.34069" lon="5.20654">
        <ele>100</ele>
        <time>2015-04-16T13:44:09Z</time>
      </trkpt>
      <trkpt lat="43.34068" lon="5.20653">
        <ele>100</ele>
        <time>2015-04-16T13:44:10Z</time>
      </trkpt>
      <trkpt lat="43.34066" lon="5.20652">
        <ele>100</ele>
        <time>2015-04-16T13:44:11Z</time>
      </trkpt>
      <trkpt lat="43.34065" lon="5.20651">
        <ele>100</ele>
        <time>2015-04-16T13:44:12Z</time>
      </trkpt>
      <trkpt lat="43.34064" lon="5.2065">
        <ele>99</ele>
        <time>2015-04-16T13:44:13Z</time>
      </trkpt>
      <trkpt lat="43.34062" lon="5.2065">
        <ele>99</ele>
        <time>2015-04-16T13:44:14Z</time>
      </trkpt>
      <trkpt lat="43.34061" lon="5.20649">
        <ele>99</ele>
        <time>2015-04-16T13:44:15Z</time>
      </trkpt>
      <trkpt lat="43.34059" lon="5.20648">
        <ele>99</ele>
        <time>2015-04-16T13:44:16Z</time>
      </trkpt>
      <trkpt lat="43.34058" lon="5.20647">
        <ele>98</ele>
        <time>2015-04-16T13:44:17Z</time>
      </trkpt>
      <trkpt lat="43.34056" lon="5.20646">
        <ele>98</ele>
        <time>2015-04-16T13:44:18Z</time>
      </trkpt>
      <trkpt lat="43.34055" lon="5.20645">
        <ele>98</ele>
        <time>2015-04-16T13:44:19Z</time>
      </trkpt>
      <trkpt lat="43.34053" lon="5.20644">
        <ele>97</ele>
        <time>2015-04-16T13:44:20Z</time>
      </trkpt>
      <trkpt lat="43.34052" lon="5.20643">
        <ele>97</ele>
        <time>2015-04-16T13:44:21Z</time>
      </trkpt>
      <trkpt lat="43.3405" lon="5.20643">
        <ele>97</ele>
        <time>2015-04-16T13:44:22Z</time>
      </trkpt>
      <trkpt lat="43.34049" lon="5.20642">
        <ele>97</ele>
        <time>2015-04-16T13:44:23Z</time>
      </trkpt>
      <trkpt lat="43.34047" lon="5.20641">
        <ele>96</ele>
        <time>2015-04-16T13:44:24Z</time>
      </trkpt>
      <trkpt lat="43.34045" lon="5.20641">
        <ele>96</ele>
        <time>2015-04-16T13:44:25Z</time>
      </trkpt>
      <trkpt lat="43.34044" lon="5.2064">
        <ele>96</ele>
        <time>2015-04-16T13:44:26Z</time>
      </trkpt>
      <trkpt lat="43.34042" lon="5.20639">
        <ele>96</ele>
        <time>2015-04-16T13:44:27Z</time>
      </trkpt>
      <trkpt lat="43.34041" lon="5.20638">
        <ele>96</ele>
        <time>2015-04-16T13:44:28Z</time>
      </trkpt>
      <trkpt lat="43.34039" lon="5.20638">
        <ele>96</ele>
        <time>2015-04-16T13:44:29Z</time>
      </trkpt>
      <trkpt lat="43.34037" lon="5.20637">
        <ele>96</ele>
        <time>2015-04-16T13:44:30Z</time>
      </trkpt>
      <trkpt lat="43.34036" lon="5.20636">
        <ele>96</ele>
        <time>2015-04-16T13:44:31Z</time>
      </trkpt>
      <trkpt lat="43.34035" lon="5.20635">
        <ele>96</ele>
        <time>2015-04-16T13:44:32Z</time>
      </trkpt>
      <trkpt lat="43.34033" lon="5.20634">
        <ele>96</ele>
        <time>2015-04-16T13:44:33Z</time>
      </trkpt>
      <trkpt lat="43.34032" lon="5.20634">
        <ele>96</ele>
        <time>2015-04-16T13:44:34Z</time>
      </trkpt>
      <trkpt lat="43.3403" lon="5.20633">
        <ele>95</ele>
        <time>2015-04-16T13:44:35Z</time>
      </trkpt>
      <trkpt lat="43.34029" lon="5.20633">
        <ele>95</ele>
        <time>2015-04-16T13:44:36Z</time>
      </trkpt>
      <trkpt lat="43.34027" lon="5.20632">
        <ele>95</ele>
        <time>2015-04-16T13:44:37Z</time>
      </trkpt>
      <trkpt lat="43.34026" lon="5.20631">
        <ele>95</ele>
        <time>2015-04-16T13:44:38Z</time>
      </trkpt>
      <trkpt lat="43.34024" lon="5.20631">
        <ele>95</ele>
        <time>2015-04-16T13:44:39Z</time>
      </trkpt>
      <trkpt lat="43.34023" lon="5.20631">
        <ele>95</ele>
        <time>2015-04-16T13:44:40Z</time>
      </trkpt>
      <trkpt lat="43.34021" lon="5.20632">
        <ele>95</ele>
        <time>2015-04-16T13:44:41Z</time>
      </trkpt>
      <trkpt lat="43.3402" lon="5.20632">
        <ele>95</ele>
        <time>2015-04-16T13:44:42Z</time>
      </trkpt>
      <trkpt lat="43.34019" lon="5.20633">
        <ele>95</ele>
        <time>2015-04-16T13:44:43Z</time>
      </trkpt>
      <trkpt lat="43.34017" lon="5.20633">
        <ele>95</ele>
        <time>2015-04-16T13:44:44Z</time>
      </trkpt>
      <trkpt lat="43.34016" lon="5.20634">
        <ele>95</ele>
        <time>2015-04-16T13:44:45Z</time>
      </trkpt>
      <trkpt lat="43.34014" lon="5.20635">
        <ele>95</ele>
        <time>2015-04-16T13:44:46Z</time>
      </trkpt>
      <trkpt lat="43.34013" lon="5.20635">
        <ele>95</ele>
        <time>2015-04-16T13:44:47Z</time>
      </trkpt>
      <trkpt lat="43.34011" lon="5.20636">
        <ele>95</ele>
        <time>2015-04-16T13:44:48Z</time>
      </trkpt>
      <trkpt lat="43.3401" lon="5.20637">
        <ele>95</ele>
        <time>2015-04-16T13:44:49Z</time>
      </trkpt>
      <trkpt lat="43.34008" lon="5.20638">
        <ele>95</ele>
        <time>2015-04-16T13:44:50Z</time>
      </trkpt>
      <trkpt lat="43.34006" lon="5.20638">
        <ele>95</ele>
        <time>2015-04-16T13:44:51Z</time>
      </trkpt>
      <trkpt lat="43.34005" lon="5.20639">
        <ele>95</ele>
        <time>2015-04-16T13:44:52Z</time>
      </trkpt>
      <trkpt lat="43.34003" lon="5.20639">
        <ele>95</ele>
        <time>2015-04-16T13:44:53Z</time>
      </trkpt>
      <trkpt lat="43.34002" lon="5.2064">
        <ele>95</ele>
        <time>2015-04-16T13:44:54Z</time>
      </trkpt>
      <trkpt lat="43.34" lon="5.20641">
        <ele>95</ele>
        <time>2015-04-16T13:44:55Z</time>
      </trkpt>
      <trkpt lat="43.33999" lon="5.20641">
        <ele>94</ele>
        <time>2015-04-16T13:44:56Z</time>
      </trkpt>
      <trkpt lat="43.33997" lon="5.20642">
        <ele>94</ele>
        <time>2015-04-16T13:44:57Z</time>
      </trkpt>
      <trkpt lat="43.33995" lon="5.20642">
        <ele>94</ele>
        <time>2015-04-16T13:44:58Z</time>
      </trkpt>
      <trkpt lat="43.33994" lon="5.20642">
        <ele>94</ele>
        <time>2015-04-16T13:44:59Z</time>
      </trkpt>
      <trkpt lat="43.33992" lon="5.20643">
        <ele>94</ele>
        <time>2015-04-16T13:45:00Z</time>
      </trkpt>
      <trkpt lat="43.33991" lon="5.20643">
        <ele>94</ele>
        <time>2015-04-16T13:45:01Z</time>
      </trkpt>
      <trkpt lat="43.33989" lon="5.20643">
        <ele>94</ele>
        <time>2015-04-16T13:45:02Z</time>
      </trkpt>
      <trkpt lat="43.33987" lon="5.20643">
        <ele>94</ele>
        <time>2015-04-16T13:45:03Z</time>
      </trkpt>
      <trkpt lat="43.33986" lon="5.20643">
        <ele>94</ele>
        <time>2015-04-16T13:45:04Z</time>
      </trkpt>
      <trkpt lat="43.33984" lon="5.20643">
        <ele>94</ele>
        <time>2015-04-16T13:45:05Z</time>
      </trkpt>
      <trkpt lat="43.33983" lon="5.20642">
        <ele>94</ele>
        <time>2015-04-16T13:45:06Z</time>
      </trkpt>
      <trkpt lat="43.33981" lon="5.20641">
        <ele>93</ele>
        <time>2015-04-16T13:45:07Z</time>
      </trkpt>
      <trkpt lat="43.3398" lon="5.2064">
        <ele>93</ele>
        <time>2015-04-16T13:45:08Z</time>
      </trkpt>
      <trkpt lat="43.33978" lon="5.20639">
        <ele>93</ele>
        <time>2015-04-16T13:45:09Z</time>
      </trkpt>
      <trkpt lat="43.33977" lon="5.20638">
        <ele>93</ele>
        <time>2015-04-16T13:45:10Z</time>
      </trkpt>
      <trkpt lat="43.33975" lon="5.20637">
        <ele>93</ele>
        <time>2015-04-16T13:45:11Z</time>
      </trkpt>
      <trkpt lat="43.33974" lon="5.20636">
        <ele>93</ele>
        <time>2015-04-16T13:45:12Z</time>
      </trkpt>
      <trkpt lat="43.33973" lon="5.20635">
        <ele>93</ele>
        <time>2015-04-16T13:45:13Z</time>
      </trkpt>
      <trkpt lat="43.33971" lon="5.20633">
        <ele>93</ele>
        <time>2015-04-16T13:45:14Z</time>
      </trkpt>
      <trkpt lat="43.3397" lon="5.20632">
        <ele>93</ele>
        <time>2015-04-16T13:45:15Z</time>
      </trkpt>
      <trkpt lat="43.33969" lon="5.2063">
        <ele>93</ele>
        <time>2015-04-16T13:45:16Z</time>
      </trkpt>
      <trkpt lat="43.33968" lon="5.20628">
        <ele>93</ele>
        <time>2015-04-16T13:45:17Z</time>
      </trkpt>
      <trkpt lat="43.33967" lon="5.20626">
        <ele>93</ele>
        <time>2015-04-16T13:45:18Z</time>
      </trkpt>
      <trkpt lat="43.33966" lon="5.20625">
        <ele>93</ele>
        <time>2015-04-16T13:45:19Z</time>
      </trkpt>
      <trkpt lat="43.33965" lon="5.20623">
        <ele>92</ele>
        <time>2015-04-16T13:45:20Z</time>
      </trkpt>
      <trkpt lat="43.33963" lon="5.20622">
        <ele>92</ele>
        <time>2015-04-16T13:45:21Z</time>
      </trkpt>
      <trkpt lat="43.33962" lon="5.2062">
        <ele>92</ele>
        <time>2015-04-16T13:45:22Z</time>
      </trkpt>
      <trkpt lat="43.33961" lon="5.20619">
        <ele>92</ele>
        <time>2015-04-16T13:45:23Z</time>
      </trkpt>
      <trkpt lat="43.3396" lon="5.20618">
        <ele>92</ele>
        <time>2015-04-16T13:45:24Z</time>
      </trkpt>
      <trkpt lat="43.33958" lon="5.20616">
        <ele>92</ele>
        <time>2015-04-16T13:45:25Z</time>
      </trkpt>
      <trkpt lat="43.33957" lon="5.20615">
        <ele>92</ele>
        <time>2015-04-16T13:45:26Z</time>
      </trkpt>
      <trkpt lat="43.33955" lon="5.20614">
        <ele>92</ele>
        <time>2015-04-16T13:45:27Z</time>
      </trkpt>
      <trkpt lat="43.33954" lon="5.20612">
        <ele>92</ele>
        <time>2015-04-16T13:45:28Z</time>
      </trkpt>
      <trkpt lat="43.33953" lon="5.20611">
        <ele>92</ele>
        <time>2015-04-16T13:45:29Z</time>
      </trkpt>
      <trkpt lat="43.33952" lon="5.2061">
        <ele>92</ele>
        <time>2015-04-16T13:45:30Z</time>
      </trkpt>
      <trkpt lat="43.3395" lon="5.20609">
        <ele>91</ele>
        <time>2015-04-16T13:45:31Z</time>
      </trkpt>
      <trkpt lat="43.33949" lon="5.20607">
        <ele>91</ele>
        <time>2015-04-16T13:45:32Z</time>
      </trkpt>
      <trkpt lat="43.33947" lon="5.20606">
        <ele>91</ele>
        <time>2015-04-16T13:45:33Z</time>
      </trkpt>
      <trkpt lat="43.33946" lon="5.20605">
        <ele>91</ele>
        <time>2015-04-16T13:45:34Z</time>
      </trkpt>
      <trkpt lat="43.33945" lon="5.20604">
        <ele>91</ele>
        <time>2015-04-16T13:45:35Z</time>
      </trkpt>
      <trkpt lat="43.33944" lon="5.20603">
        <ele>91</ele>
        <time>2015-04-16T13:45:36Z</time>
      </trkpt>
      <trkpt lat="43.33942" lon="5.20601">
        <ele>91</ele>
        <time>2015-04-16T13:45:37Z</time>
      </trkpt>
      <trkpt lat="43.33941" lon="5.206">
        <ele>91</ele>
        <time>2015-04-16T13:45:38Z</time>
      </trkpt>
      <trkpt lat="43.33939" lon="5.20599">
        <ele>91</ele>
        <time>2015-04-16T13:45:39Z</time>
      </trkpt>
      <trkpt lat="43.33938" lon="5.20598">
        <ele>91</ele>
        <time>2015-04-16T13:45:40Z</time>
      </trkpt>
      <trkpt lat="43.33936" lon="5.20597">
        <ele>90</ele>
        <time>2015-04-16T13:45:41Z</time>
      </trkpt>
      <trkpt lat="43.33935" lon="5.20596">
        <ele>90</ele>
        <time>2015-04-16T13:45:42Z</time>
      </trkpt>
      <trkpt lat="43.33934" lon="5.20595">
        <ele>90</ele>
        <time>2015-04-16T13:45:43Z</time>
      </trkpt>
      <trkpt lat="43.33932" lon="5.20594">
        <ele>90</ele>
        <time>2015-04-16T13:45:44Z</time>
      </trkpt>
      <trkpt lat="43.33931" lon="5.20593">
        <ele>90</ele>
        <time>2015-04-16T13:45:45Z</time>
      </trkpt>
      <trkpt lat="43.33929" lon="5.20592">
        <ele>90</ele>
        <time>2015-04-16T13:45:46Z</time>
      </trkpt>
      <trkpt lat="43.33928" lon="5.20591">
        <ele>90</ele>
        <time>2015-04-16T13:45:47Z</time>
      </trkpt>
      <trkpt lat="43.33927" lon="5.2059">
        <ele>90</ele>
        <time>2015-04-16T13:45:48Z</time>
      </trkpt>
      <trkpt lat="43.33925" lon="5.20589">
        <ele>90</ele>
        <time>2015-04-16T13:45:49Z</time>
      </trkpt>
      <trkpt lat="43.33924" lon="5.20588">
        <ele>90</ele>
        <time>2015-04-16T13:45:50Z</time>
      </trkpt>
      <trkpt lat="43.33922" lon="5.20587">
        <ele>90</ele>
        <time>2015-04-16T13:45:51Z</time>
      </trkpt>
      <trkpt lat="43.33921" lon="5.20586">
        <ele>90</ele>
        <time>2015-04-16T13:45:52Z</time>
      </trkpt>
      <trkpt lat="43.33919" lon="5.20586">
        <ele>90</ele>
        <time>2015-04-16T13:45:53Z</time>
      </trkpt>
      <trkpt lat="43.33918" lon="5.20585">
        <ele>90</ele>
        <time>2015-04-16T13:45:54Z</time>
      </trkpt>
      <trkpt lat="43.33916" lon="5.20585">
        <ele>90</ele>
        <time>2015-04-16T13:45:55Z</time>
      </trkpt>
      <trkpt lat="43.33914" lon="5.20585">
        <ele>89</ele>
        <time>2015-04-16T13:45:56Z</time>
      </trkpt>
      <trkpt lat="43.33913" lon="5.20585">
        <ele>89</ele>
        <time>2015-04-16T13:45:57Z</time>
      </trkpt>
      <trkpt lat="43.33911" lon="5.20584">
        <ele>89</ele>
        <time>2015-04-16T13:45:58Z</time>
      </trkpt>
      <trkpt lat="43.3391" lon="5.20584">
        <ele>89</ele>
        <time>2015-04-16T13:45:59Z</time>
      </trkpt>
      <trkpt lat="43.33908" lon="5.20584">
        <ele>89</ele>
        <time>2015-04-16T13:46:00Z</time>
      </trkpt>
      <trkpt lat="43.33907" lon="5.20584">
        <ele>88</ele>
        <time>2015-04-16T13:46:01Z</time>
      </trkpt>
      <trkpt lat="43.33905" lon="5.20585">
        <ele>88</ele>
        <time>2015-04-16T13:46:02Z</time>
      </trkpt>
      <trkpt lat="43.33904" lon="5.20585">
        <ele>88</ele>
        <time>2015-04-16T13:46:03Z</time>
      </trkpt>
      <trkpt lat="43.33902" lon="5.20585">
        <ele>88</ele>
        <time>2015-04-16T13:46:04Z</time>
      </trkpt>
      <trkpt lat="43.33901" lon="5.20585">
        <ele>87</ele>
        <time>2015-04-16T13:46:05Z</time>
      </trkpt>
      <trkpt lat="43.33899" lon="5.20585">
        <ele>87</ele>
        <time>2015-04-16T13:46:06Z</time>
      </trkpt>
      <trkpt lat="43.33897" lon="5.20586">
        <ele>86</ele>
        <time>2015-04-16T13:46:07Z</time>
      </trkpt>
      <trkpt lat="43.33896" lon="5.20586">
        <ele>86</ele>
        <time>2015-04-16T13:46:08Z</time>
      </trkpt>
      <trkpt lat="43.33894" lon="5.20587">
        <ele>86</ele>
        <time>2015-04-16T13:46:09Z</time>
      </trkpt>
      <trkpt lat="43.33893" lon="5.20587">
        <ele>85</ele>
        <time>2015-04-16T13:46:10Z</time>
      </trkpt>
      <trkpt lat="43.33891" lon="5.20588">
        <ele>85</ele>
        <time>2015-04-16T13:46:11Z</time>
      </trkpt>
      <trkpt lat="43.3389" lon="5.20589">
        <ele>85</ele>
        <time>2015-04-16T13:46:12Z</time>
      </trkpt>
      <trkpt lat="43.33888" lon="5.20589">
        <ele>84</ele>
        <time>2015-04-16T13:46:13Z</time>
      </trkpt>
      <trkpt lat="43.33887" lon="5.2059">
        <ele>84</ele>
        <time>2015-04-16T13:46:14Z</time>
      </trkpt>
      <trkpt lat="43.33885" lon="5.2059">
        <ele>84</ele>
        <time>2015-04-16T13:46:15Z</time>
      </trkpt>
      <trkpt lat="43.33884" lon="5.20591">
        <ele>84</ele>
        <time>2015-04-16T13:46:16Z</time>
      </trkpt>
      <trkpt lat="43.33882" lon="5.20591">
        <ele>83</ele>
        <time>2015-04-16T13:46:17Z</time>
      </trkpt>
      <trkpt lat="43.3388" lon="5.20592">
        <ele>83</ele>
        <time>2015-04-16T13:46:18Z</time>
      </trkpt>
      <trkpt lat="43.33879" lon="5.20593">
        <ele>83</ele>
        <time>2015-04-16T13:46:19Z</time>
      </trkpt>
      <trkpt lat="43.33878" lon="5.20594">
        <ele>83</ele>
        <time>2015-04-16T13:46:20Z</time>
      </trkpt>
      <trkpt lat="43.33876" lon="5.20594">
        <ele>83</ele>
        <time>2015-04-16T13:46:21Z</time>
      </trkpt>
      <trkpt lat="43.33875" lon="5.20596">
        <ele>83</ele>
        <time>2015-04-16T13:46:22Z</time>
      </trkpt>
      <trkpt lat="43.33873" lon="5.20597">
        <ele>83</ele>
        <time>2015-04-16T13:46:23Z</time>
      </trkpt>
      <trkpt lat="43.33872" lon="5.20598">
        <ele>82</ele>
        <time>2015-04-16T13:46:24Z</time>
      </trkpt>
      <trkpt lat="43.3387" lon="5.20599">
        <ele>82</ele>
        <time>2015-04-16T13:46:25Z</time>
      </trkpt>
      <trkpt lat="43.33869" lon="5.20599">
        <ele>82</ele>
        <time>2015-04-16T13:46:26Z</time>
      </trkpt>
      <trkpt lat="43.33868" lon="5.20601">
        <ele>82</ele>
        <time>2015-04-16T13:46:27Z</time>
      </trkpt>
      <trkpt lat="43.33866" lon="5.20602">
        <ele>82</ele>
        <time>2015-04-16T13:46:28Z</time>
      </trkpt>
      <trkpt lat="43.33865" lon="5.20603">
        <ele>82</ele>
        <time>2015-04-16T13:46:29Z</time>
      </trkpt>
      <trkpt lat="43.33863" lon="5.20604">
        <ele>81</ele>
        <time>2015-04-16T13:46:30Z</time>
      </trkpt>
      <trkpt lat="43.33862" lon="5.20605">
        <ele>81</ele>
        <time>2015-04-16T13:46:31Z</time>
      </trkpt>
      <trkpt lat="43.3386" lon="5.20606">
        <ele>81</ele>
        <time>2015-04-16T13:46:32Z</time>
      </trkpt>
      <trkpt lat="43.33859" lon="5.20606">
        <ele>80</ele>
        <time>2015-04-16T13:46:33Z</time>
      </trkpt>
      <trkpt lat="43.33858" lon="5.20607">
        <ele>80</ele>
        <time>2015-04-16T13:46:34Z</time>
      </trkpt>
      <trkpt lat="43.33857" lon="5.20608">
        <ele>79</ele>
        <time>2015-04-16T13:46:35Z</time>
      </trkpt>
      <trkpt lat="43.33855" lon="5.20609">
        <ele>78</ele>
        <time>2015-04-16T13:46:36Z</time>
      </trkpt>
      <trkpt lat="43.33854" lon="5.2061">
        <ele>78</ele>
        <time>2015-04-16T13:46:37Z</time>
      </trkpt>
      <trkpt lat="43.33852" lon="5.20611">
        <ele>77</ele>
        <time>2015-04-16T13:46:38Z</time>
      </trkpt>
      <trkpt lat="43.33851" lon="5.20611">
        <ele>77</ele>
        <time>2015-04-16T13:46:39Z</time>
      </trkpt>
      <trkpt lat="43.3385" lon="5.20612">
        <ele>76</ele>
        <time>2015-04-16T13:46:40Z</time>
      </trkpt>
      <trkpt lat="43.33849" lon="5.20613">
        <ele>76</ele>
        <time>2015-04-16T13:46:41Z</time>
      </trkpt>
      <trkpt lat="43.33847" lon="5.20613">
        <ele>75</ele>
        <time>2015-04-16T13:46:42Z</time>
      </trkpt>
      <trkpt lat="43.33846" lon="5.20614">
        <ele>74</ele>
        <time>2015-04-16T13:46:43Z</time>
      </trkpt>
      <trkpt lat="43.33844" lon="5.20615">
        <ele>74</ele>
        <time>2015-04-16T13:46:44Z</time>
      </trkpt>
      <trkpt lat="43.33842" lon="5.20615">
        <ele>74</ele>
        <time>2015-04-16T13:46:45Z</time>
      </trkpt>
      <trkpt lat="43.33841" lon="5.20616">
        <ele>74</ele>
        <time>2015-04-16T13:46:46Z</time>
      </trkpt>
      <trkpt lat="43.33839" lon="5.20617">
        <ele>73</ele>
        <time>2015-04-16T13:46:47Z</time>
      </trkpt>
      <trkpt lat="43.33838" lon="5.20617">
        <ele>73</ele>
        <time>2015-04-16T13:46:48Z</time>
      </trkpt>
      <trkpt lat="43.33836" lon="5.20617">
        <ele>73</ele>
        <time>2015-04-16T13:46:49Z</time>
      </trkpt>
      <trkpt lat="43.33835" lon="5.20617">
        <ele>73</ele>
        <time>2015-04-16T13:46:50Z</time>
      </trkpt>
      <trkpt lat="43.33833" lon="5.20616">
        <ele>73</ele>
        <time>2015-04-16T13:46:51Z</time>
      </trkpt>
      <trkpt lat="43.33831" lon="5.20616">
        <ele>73</ele>
        <time>2015-04-16T13:46:52Z</time>
      </trkpt>
      <trkpt lat="43.3383" lon="5.20616">
        <ele>73</ele>
        <time>2015-04-16T13:46:53Z</time>
      </trkpt>
      <trkpt lat="43.33828" lon="5.20615">
        <ele>73</ele>
        <time>2015-04-16T13:46:54Z</time>
      </trkpt>
      <trkpt lat="43.33827" lon="5.20614">
        <ele>73</ele>
        <time>2015-04-16T13:46:55Z</time>
      </trkpt>
      <trkpt lat="43.33825" lon="5.20614">
        <ele>73</ele>
        <time>2015-04-16T13:46:56Z</time>
      </trkpt>
      <trkpt lat="43.33824" lon="5.20613">
        <ele>73</ele>
        <time>2015-04-16T13:46:57Z</time>
      </trkpt>
      <trkpt lat="43.33822" lon="5.20612">
        <ele>72</ele>
        <time>2015-04-16T13:46:58Z</time>
      </trkpt>
      <trkpt lat="43.33821" lon="5.20611">
        <ele>72</ele>
        <time>2015-04-16T13:46:59Z</time>
      </trkpt>
      <trkpt lat="43.33819" lon="5.20611">
        <ele>72</ele>
        <time>2015-04-16T13:47:00Z</time>
      </trkpt>
      <trkpt lat="43.33818" lon="5.2061">
        <ele>72</ele>
        <time>2015-04-16T13:47:01Z</time>
      </trkpt>
      <trkpt lat="43.33817" lon="5.20608">
        <ele>72</ele>
        <time>2015-04-16T13:47:02Z</time>
      </trkpt>
      <trkpt lat="43.33815" lon="5.20607">
        <ele>72</ele>
        <time>2015-04-16T13:47:03Z</time>
      </trkpt>
      <trkpt lat="43.33814" lon="5.20606">
        <ele>72</ele>
        <time>2015-04-16T13:47:04Z</time>
      </trkpt>
      <trkpt lat="43.33813" lon="5.20604">
        <ele>72</ele>
        <time>2015-04-16T13:47:05Z</time>
      </trkpt>
      <trkpt lat="43.33812" lon="5.20603">
        <ele>72</ele>
        <time>2015-04-16T13:47:06Z</time>
      </trkpt>
      <trkpt lat="43.33811" lon="5.20601">
        <ele>72</ele>
        <time>2015-04-16T13:47:07Z</time>
      </trkpt>
      <trkpt lat="43.3381" lon="5.206">
        <ele>72</ele>
        <time>2015-04-16T13:47:08Z</time>
      </trkpt>
      <trkpt lat="43.33809" lon="5.20598">
        <ele>72</ele>
        <time>2015-04-16T13:47:09Z</time>
      </trkpt>
      <trkpt lat="43.33808" lon="5.20596">
        <ele>72</ele>
        <time>2015-04-16T13:47:10Z</time>
      </trkpt>
      <trkpt lat="43.33807" lon="5.20594">
        <ele>72</ele>
        <time>2015-04-16T13:47:11Z</time>
      </trkpt>
      <trkpt lat="43.33807" lon="5.20592">
        <ele>72</ele>
        <time>2015-04-16T13:47:12Z</time>
      </trkpt>
      <trkpt lat="43.33806" lon="5.2059">
        <ele>72</ele>
        <time>2015-04-16T13:47:13Z</time>
      </trkpt>
      <trkpt lat="43.33805" lon="5.20588">
        <ele>72</ele>
        <time>2015-04-16T13:47:14Z</time>
      </trkpt>
      <trkpt lat="43.33804" lon="5.20586">
        <ele>72</ele>
        <time>2015-04-16T13:47:15Z</time>
      </trkpt>
      <trkpt lat="43.33804" lon="5.20584">
        <ele>72</ele>
        <time>2015-04-16T13:47:16Z</time>
      </trkpt>
      <trkpt lat="43.33803" lon="5.20582">
        <ele>72</ele>
        <time>2015-04-16T13:47:17Z</time>
      </trkpt>
      <trkpt lat="43.33802" lon="5.2058">
        <ele>72</ele>
        <time>2015-04-16T13:47:18Z</time>
      </trkpt>
      <trkpt lat="43.33802" lon="5.20578">
        <ele>72</ele>
        <time>2015-04-16T13:47:19Z</time>
      </trkpt>
      <trkpt lat="43.33801" lon="5.20575">
        <ele>72</ele>
        <time>2015-04-16T13:47:20Z</time>
      </trkpt>
      <trkpt lat="43.33801" lon="5.20573">
        <ele>72</ele>
        <time>2015-04-16T13:47:21Z</time>
      </trkpt>
      <trkpt lat="43.33801" lon="5.20571">
        <ele>72</ele>
        <time>2015-04-16T13:47:22Z</time>
      </trkpt>
      <trkpt lat="43.33801" lon="5.20569">
        <ele>72</ele>
        <time>2015-04-16T13:47:23Z</time>
      </trkpt>
      <trkpt lat="43.33801" lon="5.20566">
        <ele>72</ele>
        <time>2015-04-16T13:47:24Z</time>
      </trkpt>
      <trkpt lat="43.33801" lon="5.20564">
        <ele>72</ele>
        <time>2015-04-16T13:47:25Z</time>
      </trkpt>
      <trkpt lat="43.33802" lon="5.20562">
        <ele>72</ele>
        <time>2015-04-16T13:47:26Z</time>
      </trkpt>
      <trkpt lat="43.33802" lon="5.20559">
        <ele>72</ele>
        <time>2015-04-16T13:47:27Z</time>
      </trkpt>
      <trkpt lat="43.33802" lon="5.20557">
        <ele>72</ele>
        <time>2015-04-16T13:47:28Z</time>
      </trkpt>
      <trkpt lat="43.33802" lon="5.20555">
        <ele>72</ele>
        <time>2015-04-16T13:47:29Z</time>
      </trkpt>
      <trkpt lat="43.33803" lon="5.20553">
        <ele>72</ele>
        <time>2015-04-16T13:47:30Z</time>
      </trkpt>
      <trkpt lat="43.33803" lon="5.20551">
        <ele>72</ele>
        <time>2015-04-16T13:47:31Z</time>
      </trkpt>
      <trkpt lat="43.33804" lon="5.20549">
        <ele>72</ele>
        <time>2015-04-16T13:47:32Z</time>
      </trkpt>
      <trkpt lat="43.33804" lon="5.20547">
        <ele>72</ele>
        <time>2015-04-16T13:47:33Z</time>
      </trkpt>
      <trkpt lat="43.33804" lon="5.20545">
        <ele>72</ele>
        <time>2015-04-16T13:47:34Z</time>
      </trkpt>
      <trkpt lat="43.33805" lon="5.20543">
        <ele>72</ele>
        <time>2015-04-16T13:47:35Z</time>
      </trkpt>
      <trkpt lat="43.33805" lon="5.20541">
        <ele>72</ele>
        <time>2015-04-16T13:47:36Z</time>
      </trkpt>
      <trkpt lat="43.33806" lon="5.20539">
        <ele>72</ele>
        <time>2015-04-16T13:47:37Z</time>
      </trkpt>
      <trkpt lat="43.33806" lon="5.20537">
        <ele>72</ele>
        <time>2015-04-16T13:47:38Z</time>
      </trkpt>
      <trkpt lat="43.33807" lon="5.20535">
        <ele>72</ele>
        <time>2015-04-16T13:47:39Z</time>
      </trkpt>
      <trkpt lat="43.33807" lon="5.20533">
        <ele>72</ele>
        <time>2015-04-16T13:47:40Z</time>
      </trkpt>
      <trkpt lat="43.33807" lon="5.20531">
        <ele>72</ele>
        <time>2015-04-16T13:47:41Z</time>
      </trkpt>
      <trkpt lat="43.33807" lon="5.20529">
        <ele>71</ele>
        <time>2015-04-16T13:47:42Z</time>
      </trkpt>
      <trkpt lat="43.33807" lon="5.20526">
        <ele>71</ele>
        <time>2015-04-16T13:47:43Z</time>
      </trkpt>
      <trkpt lat="43.33808" lon="5.20525">
        <ele>71</ele>
        <time>2015-04-16T13:47:44Z</time>
      </trkpt>
      <trkpt lat="43.33809" lon="5.20522">
        <ele>71</ele>
        <time>2015-04-16T13:47:45Z</time>
      </trkpt>
      <trkpt lat="43.33809" lon="5.20521">
        <ele>71</ele>
        <time>2015-04-16T13:47:46Z</time>
      </trkpt>
      <trkpt lat="43.3381" lon="5.20519">
        <ele>71</ele>
        <time>2015-04-16T13:47:47Z</time>
      </trkpt>
      <trkpt lat="43.3381" lon="5.20517">
        <ele>71</ele>
        <time>2015-04-16T13:47:48Z</time>
      </trkpt>
      <trkpt lat="43.33811" lon="5.20515">
        <ele>70</ele>
        <time>2015-04-16T13:47:49Z</time>
      </trkpt>
      <trkpt lat="43.33811" lon="5.20513">
        <ele>70</ele>
        <time>2015-04-16T13:47:50Z</time>
      </trkpt>
      <trkpt lat="43.33812" lon="5.20511">
        <ele>70</ele>
        <time>2015-04-16T13:47:51Z</time>
      </trkpt>
      <trkpt lat="43.33813" lon="5.20509">
        <ele>70</ele>
        <time>2015-04-16T13:47:52Z</time>
      </trkpt>
      <trkpt lat="43.33813" lon="5.20507">
        <ele>70</ele>
        <time>2015-04-16T13:47:53Z</time>
      </trkpt>
      <trkpt lat="43.33814" lon="5.20505">
        <ele>70</ele>
        <time>2015-04-16T13:47:54Z</time>
      </trkpt>
      <trkpt lat="43.33815" lon="5.20503">
        <ele>69</ele>
        <time>2015-04-16T13:47:55Z</time>
      </trkpt>
      <trkpt lat="43.33815" lon="5.20501">
        <ele>69</ele>
        <time>2015-04-16T13:47:56Z</time>
      </trkpt>
      <trkpt lat="43.33816" lon="5.205">
        <ele>69</ele>
        <time>2015-04-16T13:47:57Z</time>
      </trkpt>
      <trkpt lat="43.33817" lon="5.20498">
        <ele>69</ele>
        <time>2015-04-16T13:47:58Z</time>
      </trkpt>
      <trkpt lat="43.33818" lon="5.20496">
        <ele>69</ele>
        <time>2015-04-16T13:47:59Z</time>
      </trkpt>
      <trkpt lat="43.33818" lon="5.20494">
        <ele>68</ele>
        <time>2015-04-16T13:48:00Z</time>
      </trkpt>
      <trkpt lat="43.33819" lon="5.20492">
        <ele>68</ele>
        <time>2015-04-16T13:48:01Z</time>
      </trkpt>
      <trkpt lat="43.3382" lon="5.2049">
        <ele>68</ele>
        <time>2015-04-16T13:48:02Z</time>
      </trkpt>
      <trkpt lat="43.33821" lon="5.20488">
        <ele>68</ele>
        <time>2015-04-16T13:48:03Z</time>
      </trkpt>
      <trkpt lat="43.33822" lon="5.20486">
        <ele>68</ele>
        <time>2015-04-16T13:48:04Z</time>
      </trkpt>
      <trkpt lat="43.33823" lon="5.20485">
        <ele>68</ele>
        <time>2015-04-16T13:48:05Z</time>
      </trkpt>
      <trkpt lat="43.33823" lon="5.20483">
        <ele>68</ele>
        <time>2015-04-16T13:48:06Z</time>
      </trkpt>
      <trkpt lat="43.33824" lon="5.20481">
        <ele>68</ele>
        <time>2015-04-16T13:48:07Z</time>
      </trkpt>
      <trkpt lat="43.33825" lon="5.2048">
        <ele>68</ele>
        <time>2015-04-16T13:48:08Z</time>
      </trkpt>
      <trkpt lat="43.33825" lon="5.20478">
        <ele>68</ele>
        <time>2015-04-16T13:48:09Z</time>
      </trkpt>
      <trkpt lat="43.33825" lon="5.20476">
        <ele>67</ele>
        <time>2015-04-16T13:48:10Z</time>
      </trkpt>
      <trkpt lat="43.33826" lon="5.20474">
        <ele>67</ele>
        <time>2015-04-16T13:48:11Z</time>
      </trkpt>
      <trkpt lat="43.33825" lon="5.20472">
        <ele>67</ele>
        <time>2015-04-16T13:48:12Z</time>
      </trkpt>
      <trkpt lat="43.33825" lon="5.2047">
        <ele>67</ele>
        <time>2015-04-16T13:48:13Z</time>
      </trkpt>
      <trkpt lat="43.33824" lon="5.20468">
        <ele>67</ele>
        <time>2015-04-16T13:48:14Z</time>
      </trkpt>
      <trkpt lat="43.33823" lon="5.20466">
        <ele>67</ele>
        <time>2015-04-16T13:48:15Z</time>
      </trkpt>
      <trkpt lat="43.33822" lon="5.20464">
        <ele>67</ele>
        <time>2015-04-16T13:48:16Z</time>
      </trkpt>
      <trkpt lat="43.33821" lon="5.20462">
        <ele>67</ele>
        <time>2015-04-16T13:48:17Z</time>
      </trkpt>
      <trkpt lat="43.3382" lon="5.2046">
        <ele>67</ele>
        <time>2015-04-16T13:48:18Z</time>
      </trkpt>
      <trkpt lat="43.33819" lon="5.20459">
        <ele>67</ele>
        <time>2015-04-16T13:48:19Z</time>
      </trkpt>
      <trkpt lat="43.33817" lon="5.20457">
        <ele>67</ele>
        <time>2015-04-16T13:48:20Z</time>
      </trkpt>
      <trkpt lat="43.33816" lon="5.20455">
        <ele>67</ele>
        <time>2015-04-16T13:48:21Z</time>
      </trkpt>
      <trkpt lat="43.33815" lon="5.20454">
        <ele>67</ele>
        <time>2015-04-16T13:48:22Z</time>
      </trkpt>
      <trkpt lat="43.33813" lon="5.20452">
        <ele>67</ele>
        <time>2015-04-16T13:48:23Z</time>
      </trkpt>
      <trkpt lat="43.33812" lon="5.20451">
        <ele>67</ele>
        <time>2015-04-16T13:48:24Z</time>
      </trkpt>
      <trkpt lat="43.3381" lon="5.20449">
        <ele>67</ele>
        <time>2015-04-16T13:48:25Z</time>
      </trkpt>
      <trkpt lat="43.3381" lon="5.20447">
        <ele>67</ele>
        <time>2015-04-16T13:48:26Z</time>
      </trkpt>
      <trkpt lat="43.33808" lon="5.20446">
        <ele>67</ele>
        <time>2015-04-16T13:48:27Z</time>
      </trkpt>
      <trkpt lat="43.33807" lon="5.20444">
        <ele>67</ele>
        <time>2015-04-16T13:48:28Z</time>
      </trkpt>
      <trkpt lat="43.33807" lon="5.20442">
        <ele>67</ele>
        <time>2015-04-16T13:48:29Z</time>
      </trkpt>
      <trkpt lat="43.33805" lon="5.2044">
        <ele>67</ele>
        <time>2015-04-16T13:48:30Z</time>
      </trkpt>
      <trkpt lat="43.33804" lon="5.20438">
        <ele>67</ele>
        <time>2015-04-16T13:48:31Z</time>
      </trkpt>
      <trkpt lat="43.33804" lon="5.20436">
        <ele>67</ele>
        <time>2015-04-16T13:48:32Z</time>
      </trkpt>
      <trkpt lat="43.33802" lon="5.20434">
        <ele>67</ele>
        <time>2015-04-16T13:48:33Z</time>
      </trkpt>
      <trkpt lat="43.33802" lon="5.20432">
        <ele>67</ele>
        <time>2015-04-16T13:48:34Z</time>
      </trkpt>
      <trkpt lat="43.33801" lon="5.2043">
        <ele>67</ele>
        <time>2015-04-16T13:48:35Z</time>
      </trkpt>
      <trkpt lat="43.338" lon="5.20428">
        <ele>67</ele>
        <time>2015-04-16T13:48:36Z</time>
      </trkpt>
      <trkpt lat="43.338" lon="5.20426">
        <ele>67</ele>
        <time>2015-04-16T13:48:37Z</time>
      </trkpt>
      <trkpt lat="43.33799" lon="5.20424">
        <ele>67</ele>
        <time>2015-04-16T13:48:38Z</time>
      </trkpt>
      <trkpt lat="43.33799" lon="5.20421">
        <ele>67</ele>
        <time>2015-04-16T13:48:39Z</time>
      </trkpt>
      <trkpt lat="43.33799" lon="5.20419">
        <ele>67</ele>
        <time>2015-04-16T13:48:40Z</time>
      </trkpt>
      <trkpt lat="43.33799" lon="5.20416">
        <ele>67</ele>
        <time>2015-04-16T13:48:41Z</time>
      </trkpt>
      <trkpt lat="43.33799" lon="5.20414">
        <ele>67</ele>
        <time>2015-04-16T13:48:42Z</time>
      </trkpt>
      <trkpt lat="43.338" lon="5.20411">
        <ele>67</ele>
        <time>2015-04-16T13:48:43Z</time>
      </trkpt>
      <trkpt lat="43.338" lon="5.20409">
        <ele>67</ele>
        <time>2015-04-16T13:48:44Z</time>
      </trkpt>
      <trkpt lat="43.33801" lon="5.20407">
        <ele>67</ele>
        <time>2015-04-16T13:48:45Z</time>
      </trkpt>
      <trkpt lat="43.33802" lon="5.20405">
        <ele>67</ele>
        <time>2015-04-16T13:48:46Z</time>
      </trkpt>
      <trkpt lat="43.33802" lon="5.20403">
        <ele>67</ele>
        <time>2015-04-16T13:48:47Z</time>
      </trkpt>
      <trkpt lat="43.33803" lon="5.20401">
        <ele>67</ele>
        <time>2015-04-16T13:48:48Z</time>
      </trkpt>
      <trkpt lat="43.33804" lon="5.20399">
        <ele>67</ele>
        <time>2015-04-16T13:48:49Z</time>
      </trkpt>
      <trkpt lat="43.33805" lon="5.20398">
        <ele>67</ele>
        <time>2015-04-16T13:48:50Z</time>
      </trkpt>
      <trkpt lat="43.33807" lon="5.20396">
        <ele>67</ele>
        <time>2015-04-16T13:48:51Z</time>
      </trkpt>
      <trkpt lat="43.33808" lon="5.20394">
        <ele>67</ele>
        <time>2015-04-16T13:48:52Z</time>
      </trkpt>
      <trkpt lat="43.33809" lon="5.20392">
        <ele>67</ele>
        <time>2015-04-16T13:48:53Z</time>
      </trkpt>
      <trkpt lat="43.3381" lon="5.2039">
        <ele>67</ele>
        <time>2015-04-16T13:48:54Z</time>
      </trkpt>
      <trkpt lat="43.33811" lon="5.20389">
        <ele>67</ele>
        <time>2015-04-16T13:48:55Z</time>
      </trkpt>
      <trkpt lat="43.33812" lon="5.20387">
        <ele>67</ele>
        <time>2015-04-16T13:48:56Z</time>
      </trkpt>
      <trkpt lat="43.33814" lon="5.20386">
        <ele>67</ele>
        <time>2015-04-16T13:48:57Z</time>
      </trkpt>
      <trkpt lat="43.33815" lon="5.20384">
        <ele>67</ele>
        <time>2015-04-16T13:48:58Z</time>
      </trkpt>
      <trkpt lat="43.33816" lon="5.20383">
        <ele>67</ele>
        <time>2015-04-16T13:48:59Z</time>
      </trkpt>
      <trkpt lat="43.33818" lon="5.20382">
        <ele>67</ele>
        <time>2015-04-16T13:49:00Z</time>
      </trkpt>
      <trkpt lat="43.33819" lon="5.20381">
        <ele>67</ele>
        <time>2015-04-16T13:49:01Z</time>
      </trkpt>
      <trkpt lat="43.33821" lon="5.20378">
        <ele>67</ele>
        <time>2015-04-16T13:49:03Z</time>
      </trkpt>
      <trkpt lat="43.33823" lon="5.20377">
        <ele>67</ele>
        <time>2015-04-16T13:49:04Z</time>
      </trkpt>
      <trkpt lat="43.33823" lon="5.20375">
        <ele>67</ele>
        <time>2015-04-16T13:49:05Z</time>
      </trkpt>
      <trkpt lat="43.33825" lon="5.20374">
        <ele>67</ele>
        <time>2015-04-16T13:49:06Z</time>
      </trkpt>
      <trkpt lat="43.33826" lon="5.20372">
        <ele>67</ele>
        <time>2015-04-16T13:49:07Z</time>
      </trkpt>
      <trkpt lat="43.33827" lon="5.20371">
        <ele>67</ele>
        <time>2015-04-16T13:49:08Z</time>
      </trkpt>
      <trkpt lat="43.33829" lon="5.20368">
        <ele>67</ele>
        <time>2015-04-16T13:49:10Z</time>
      </trkpt>
      <trkpt lat="43.3383" lon="5.20366">
        <ele>67</ele>
        <time>2015-04-16T13:49:11Z</time>
      </trkpt>
      <trkpt lat="43.33831" lon="5.20365">
        <ele>67</ele>
        <time>2015-04-16T13:49:12Z</time>
      </trkpt>
      <trkpt lat="43.33833" lon="5.20363">
        <ele>67</ele>
        <time>2015-04-16T13:49:13Z</time>
      </trkpt>
      <trkpt lat="43.33834" lon="5.20361">
        <ele>67</ele>
        <time>2015-04-16T13:49:14Z</time>
      </trkpt>
      <trkpt lat="43.33835" lon="5.20359">
        <ele>67</ele>
        <time>2015-04-16T13:49:15Z</time>
      </trkpt>
      <trkpt lat="43.33836" lon="5.20357">
        <ele>67</ele>
        <time>2015-04-16T13:49:16Z</time>
      </trkpt>
      <trkpt lat="43.33836" lon="5.20355">
        <ele>67</ele>
        <time>2015-04-16T13:49:17Z</time>
      </trkpt>
      <trkpt lat="43.33837" lon="5.20353">
        <ele>67</ele>
        <time>2015-04-16T13:49:18Z</time>
      </trkpt>
      <trkpt lat="43.33838" lon="5.20351">
        <ele>67</ele>
        <time>2015-04-16T13:49:19Z</time>
      </trkpt>
      <trkpt lat="43.33838" lon="5.20349">
        <ele>67</ele>
        <time>2015-04-16T13:49:20Z</time>
      </trkpt>
      <trkpt lat="43.33839" lon="5.20346">
        <ele>67</ele>
        <time>2015-04-16T13:49:21Z</time>
      </trkpt>
      <trkpt lat="43.33839" lon="5.20344">
        <ele>67</ele>
        <time>2015-04-16T13:49:22Z</time>
      </trkpt>
      <trkpt lat="43.3384" lon="5.20342">
        <ele>67</ele>
        <time>2015-04-16T13:49:23Z</time>
      </trkpt>
      <trkpt lat="43.3384" lon="5.2034">
        <ele>67</ele>
        <time>2015-04-16T13:49:24Z</time>
      </trkpt>
      <trkpt lat="43.33841" lon="5.20338">
        <ele>67</ele>
        <time>2015-04-16T13:49:25Z</time>
      </trkpt>
      <trkpt lat="43.33841" lon="5.20336">
        <ele>67</ele>
        <time>2015-04-16T13:49:26Z</time>
      </trkpt>
      <trkpt lat="43.33842" lon="5.20334">
        <ele>67</ele>
        <time>2015-04-16T13:49:27Z</time>
      </trkpt>
      <trkpt lat="43.33843" lon="5.20333">
        <ele>68</ele>
        <time>2015-04-16T13:49:28Z</time>
      </trkpt>
      <trkpt lat="43.33844" lon="5.20331">
        <ele>68</ele>
        <time>2015-04-16T13:49:29Z</time>
      </trkpt>
      <trkpt lat="43.33845" lon="5.2033">
        <ele>68</ele>
        <time>2015-04-16T13:49:30Z</time>
      </trkpt>
      <trkpt lat="43.33845" lon="5.20328">
        <ele>68</ele>
        <time>2015-04-16T13:49:31Z</time>
      </trkpt>
      <trkpt lat="43.33846" lon="5.20325">
        <ele>68</ele>
        <time>2015-04-16T13:49:32Z</time>
      </trkpt>
      <trkpt lat="43.33846" lon="5.20323">
        <ele>68</ele>
        <time>2015-04-16T13:49:33Z</time>
      </trkpt>
      <trkpt lat="43.33847" lon="5.20321">
        <ele>68</ele>
        <time>2015-04-16T13:49:34Z</time>
      </trkpt>
      <trkpt lat="43.33848" lon="5.20319">
        <ele>68</ele>
        <time>2015-04-16T13:49:35Z</time>
      </trkpt>
      <trkpt lat="43.33849" lon="5.20317">
        <ele>68</ele>
        <time>2015-04-16T13:49:36Z</time>
      </trkpt>
      <trkpt lat="43.33849" lon="5.20316">
        <ele>68</ele>
        <time>2015-04-16T13:49:37Z</time>
      </trkpt>
      <trkpt lat="43.3385" lon="5.20313">
        <ele>68</ele>
        <time>2015-04-16T13:49:38Z</time>
      </trkpt>
      <trkpt lat="43.33851" lon="5.20311">
        <ele>68</ele>
        <time>2015-04-16T13:49:39Z</time>
      </trkpt>
      <trkpt lat="43.33852" lon="5.20309">
        <ele>68</ele>
        <time>2015-04-16T13:49:40Z</time>
      </trkpt>
      <trkpt lat="43.33853" lon="5.20307">
        <ele>68</ele>
        <time>2015-04-16T13:49:41Z</time>
      </trkpt>
      <trkpt lat="43.33854" lon="5.20305">
        <ele>68</ele>
        <time>2015-04-16T13:49:42Z</time>
      </trkpt>
      <trkpt lat="43.33855" lon="5.20303">
        <ele>68</ele>
        <time>2015-04-16T13:49:43Z</time>
      </trkpt>
      <trkpt lat="43.33855" lon="5.20301">
        <ele>68</ele>
        <time>2015-04-16T13:49:44Z</time>
      </trkpt>
      <trkpt lat="43.33856" lon="5.20298">
        <ele>68</ele>
        <time>2015-04-16T13:49:45Z</time>
      </trkpt>
      <trkpt lat="43.33857" lon="5.20296">
        <ele>68</ele>
        <time>2015-04-16T13:49:46Z</time>
      </trkpt>
      <trkpt lat="43.33858" lon="5.20294">
        <ele>68</ele>
        <time>2015-04-16T13:49:47Z</time>
      </trkpt>
      <trkpt lat="43.33858" lon="5.20292">
        <ele>69</ele>
        <time>2015-04-16T13:49:48Z</time>
      </trkpt>
      <trkpt lat="43.33859" lon="5.20291">
        <ele>69</ele>
        <time>2015-04-16T13:49:49Z</time>
      </trkpt>
      <trkpt lat="43.3386" lon="5.20289">
        <ele>69</ele>
        <time>2015-04-16T13:49:50Z</time>
      </trkpt>
      <trkpt lat="43.3386" lon="5.20286">
        <ele>70</ele>
        <time>2015-04-16T13:49:51Z</time>
      </trkpt>
      <trkpt lat="43.33861" lon="5.20284">
        <ele>70</ele>
        <time>2015-04-16T13:49:52Z</time>
      </trkpt>
      <trkpt lat="43.33862" lon="5.20282">
        <ele>71</ele>
        <time>2015-04-16T13:49:53Z</time>
      </trkpt>
      <trkpt lat="43.33863" lon="5.2028">
        <ele>71</ele>
        <time>2015-04-16T13:49:54Z</time>
      </trkpt>
      <trkpt lat="43.33863" lon="5.20277">
        <ele>71</ele>
        <time>2015-04-16T13:49:55Z</time>
      </trkpt>
      <trkpt lat="43.33864" lon="5.20275">
        <ele>72</ele>
        <time>2015-04-16T13:49:56Z</time>
      </trkpt>
      <trkpt lat="43.33865" lon="5.20273">
        <ele>72</ele>
        <time>2015-04-16T13:49:57Z</time>
      </trkpt>
      <trkpt lat="43.33865" lon="5.20271">
        <ele>72</ele>
        <time>2015-04-16T13:49:58Z</time>
      </trkpt>
      <trkpt lat="43.33866" lon="5.20269">
        <ele>72</ele>
        <time>2015-04-16T13:49:59Z</time>
      </trkpt>
      <trkpt lat="43.33867" lon="5.20267">
        <ele>73</ele>
        <time>2015-04-16T13:50:00Z</time>
      </trkpt>
      <trkpt lat="43.33868" lon="5.20265">
        <ele>73</ele>
        <time>2015-04-16T13:50:01Z</time>
      </trkpt>
      <trkpt lat="43.33868" lon="5.20263">
        <ele>73</ele>
        <time>2015-04-16T13:50:02Z</time>
      </trkpt>
      <trkpt lat="43.33869" lon="5.20261">
        <ele>73</ele>
        <time>2015-04-16T13:50:03Z</time>
      </trkpt>
      <trkpt lat="43.33869" lon="5.20259">
        <ele>73</ele>
        <time>2015-04-16T13:50:04Z</time>
      </trkpt>
      <trkpt lat="43.3387" lon="5.20257">
        <ele>74</ele>
        <time>2015-04-16T13:50:05Z</time>
      </trkpt>
      <trkpt lat="43.3387" lon="5.20255">
        <ele>74</ele>
        <time>2015-04-16T13:50:06Z</time>
      </trkpt>
      <trkpt lat="43.33871" lon="5.20252">
        <ele>75</ele>
        <time>2015-04-16T13:50:08Z</time>
      </trkpt>
      <trkpt lat="43.33872" lon="5.2025">
        <ele>75</ele>
        <time>2015-04-16T13:50:09Z</time>
      </trkpt>
      <trkpt lat="43.33873" lon="5.20248">
        <ele>75</ele>
        <time>2015-04-16T13:50:10Z</time>
      </trkpt>
      <trkpt lat="43.33874" lon="5.20246">
        <ele>75</ele>
        <time>2015-04-16T13:50:11Z</time>
      </trkpt>
      <trkpt lat="43.33875" lon="5.20244">
        <ele>76</ele>
        <time>2015-04-16T13:50:12Z</time>
      </trkpt>
      <trkpt lat="43.33875" lon="5.20242">
        <ele>76</ele>
        <time>2015-04-16T13:50:13Z</time>
      </trkpt>
      <trkpt lat="43.33876" lon="5.2024">
        <ele>76</ele>
        <time>2015-04-16T13:50:14Z</time>
      </trkpt>
      <trkpt lat="43.33877" lon="5.20238">
        <ele>76</ele>
        <time>2015-04-16T13:50:15Z</time>
      </trkpt>
      <trkpt lat="43.33878" lon="5.20236">
        <ele>76</ele>
        <time>2015-04-16T13:50:16Z</time>
      </trkpt>
      <trkpt lat="43.33878" lon="5.20234">
        <ele>76</ele>
        <time>2015-04-16T13:50:17Z</time>
      </trkpt>
      <trkpt lat="43.33879" lon="5.20232">
        <ele>76</ele>
        <time>2015-04-16T13:50:18Z</time>
      </trkpt>
      <trkpt lat="43.3388" lon="5.2023">
        <ele>76</ele>
        <time>2015-04-16T13:50:19Z</time>
      </trkpt>
      <trkpt lat="43.33881" lon="5.20228">
        <ele>76</ele>
        <time>2015-04-16T13:50:20Z</time>
      </trkpt>
      <trkpt lat="43.33883" lon="5.20227">
        <ele>76</ele>
        <time>2015-04-16T13:50:21Z</time>
      </trkpt>
      <trkpt lat="43.33884" lon="5.20225">
        <ele>76</ele>
        <time>2015-04-16T13:50:22Z</time>
      </trkpt>
      <trkpt lat="43.33885" lon="5.20223">
        <ele>76</ele>
        <time>2015-04-16T13:50:23Z</time>
      </trkpt>
      <trkpt lat="43.33886" lon="5.20222">
        <ele>77</ele>
        <time>2015-04-16T13:50:24Z</time>
      </trkpt>
      <trkpt lat="43.33887" lon="5.2022">
        <ele>77</ele>
        <time>2015-04-16T13:50:25Z</time>
      </trkpt>
      <trkpt lat="43.33888" lon="5.20219">
        <ele>77</ele>
        <time>2015-04-16T13:50:27Z</time>
      </trkpt>
      <trkpt lat="43.33889" lon="5.20217">
        <ele>77</ele>
        <time>2015-04-16T13:50:27Z</time>
      </trkpt>
      <trkpt lat="43.33889" lon="5.20215">
        <ele>78</ele>
        <time>2015-04-16T13:50:28Z</time>
      </trkpt>
      <trkpt lat="43.3389" lon="5.20213">
        <ele>78</ele>
        <time>2015-04-16T13:50:29Z</time>
      </trkpt>
      <trkpt lat="43.33891" lon="5.20212">
        <ele>78</ele>
        <time>2015-04-16T13:50:30Z</time>
      </trkpt>
      <trkpt lat="43.33892" lon="5.2021">
        <ele>78</ele>
        <time>2015-04-16T13:50:31Z</time>
      </trkpt>
      <trkpt lat="43.33893" lon="5.20208">
        <ele>79</ele>
        <time>2015-04-16T13:50:32Z</time>
      </trkpt>
      <trkpt lat="43.33894" lon="5.20206">
        <ele>79</ele>
        <time>2015-04-16T13:50:33Z</time>
      </trkpt>
      <trkpt lat="43.33894" lon="5.20205">
        <ele>79</ele>
        <time>2015-04-16T13:50:34Z</time>
      </trkpt>
      <trkpt lat="43.33895" lon="5.20203">
        <ele>79</ele>
        <time>2015-04-16T13:50:35Z</time>
      </trkpt>
      <trkpt lat="43.33896" lon="5.20201">
        <ele>79</ele>
        <time>2015-04-16T13:50:36Z</time>
      </trkpt>
      <trkpt lat="43.33896" lon="5.20199">
        <ele>80</ele>
        <time>2015-04-16T13:50:37Z</time>
      </trkpt>
      <trkpt lat="43.33897" lon="5.20197">
        <ele>80</ele>
        <time>2015-04-16T13:50:38Z</time>
      </trkpt>
      <trkpt lat="43.33897" lon="5.20194">
        <ele>80</ele>
        <time>2015-04-16T13:50:39Z</time>
      </trkpt>
      <trkpt lat="43.33898" lon="5.20192">
        <ele>80</ele>
        <time>2015-04-16T13:50:40Z</time>
      </trkpt>
      <trkpt lat="43.33898" lon="5.2019">
        <ele>80</ele>
        <time>2015-04-16T13:50:41Z</time>
      </trkpt>
      <trkpt lat="43.33899" lon="5.20188">
        <ele>80</ele>
        <time>2015-04-16T13:50:42Z</time>
      </trkpt>
      <trkpt lat="43.33899" lon="5.20187">
        <ele>80</ele>
        <time>2015-04-16T13:50:43Z</time>
      </trkpt>
      <trkpt lat="43.33899" lon="5.20185">
        <ele>80</ele>
        <time>2015-04-16T13:50:44Z</time>
      </trkpt>
      <trkpt lat="43.339" lon="5.20183">
        <ele>80</ele>
        <time>2015-04-16T13:50:45Z</time>
      </trkpt>
      <trkpt lat="43.339" lon="5.20181">
        <ele>80</ele>
        <time>2015-04-16T13:50:46Z</time>
      </trkpt>
      <trkpt lat="43.339" lon="5.20179">
        <ele>80</ele>
        <time>2015-04-16T13:50:47Z</time>
      </trkpt>
      <trkpt lat="43.33901" lon="5.20177">
        <ele>80</ele>
        <time>2015-04-16T13:50:48Z</time>
      </trkpt>
      <trkpt lat="43.33901" lon="5.20175">
        <ele>80</ele>
        <time>2015-04-16T13:50:49Z</time>
      </trkpt>
      <trkpt lat="43.33902" lon="5.20173">
        <ele>80</ele>
        <time>2015-04-16T13:50:50Z</time>
      </trkpt>
      <trkpt lat="43.33902" lon="5.20171">
        <ele>80</ele>
        <time>2015-04-16T13:50:51Z</time>
      </trkpt>
      <trkpt lat="43.33902" lon="5.20169">
        <ele>80</ele>
        <time>2015-04-16T13:50:52Z</time>
      </trkpt>
      <trkpt lat="43.33902" lon="5.20167">
        <ele>80</ele>
        <time>2015-04-16T13:50:53Z</time>
      </trkpt>
      <trkpt lat="43.33902" lon="5.20165">
        <ele>80</ele>
        <time>2015-04-16T13:50:54Z</time>
      </trkpt>
      <trkpt lat="43.33902" lon="5.20163">
        <ele>80</ele>
        <time>2015-04-16T13:50:55Z</time>
      </trkpt>
      <trkpt lat="43.33902" lon="5.20161">
        <ele>80</ele>
        <time>2015-04-16T13:50:56Z</time>
      </trkpt>
      <trkpt lat="43.33902" lon="5.20159">
        <ele>80</ele>
        <time>2015-04-16T13:50:57Z</time>
      </trkpt>
      <trkpt lat="43.33902" lon="5.20157">
        <ele>80</ele>
        <time>2015-04-16T13:50:58Z</time>
      </trkpt>
      <trkpt lat="43.33901" lon="5.20155">
        <ele>80</ele>
        <time>2015-04-16T13:50:59Z</time>
      </trkpt>
      <trkpt lat="43.339" lon="5.20154">
        <ele>80</ele>
        <time>2015-04-16T13:51:00Z</time>
      </trkpt>
      <trkpt lat="43.339" lon="5.20152">
        <ele>80</ele>
        <time>2015-04-16T13:51:01Z</time>
      </trkpt>
      <trkpt lat="43.339" lon="5.2015">
        <ele>80</ele>
        <time>2015-04-16T13:51:02Z</time>
      </trkpt>
      <trkpt lat="43.33899" lon="5.20148">
        <ele>81</ele>
        <time>2015-04-16T13:51:03Z</time>
      </trkpt>
      <trkpt lat="43.33899" lon="5.20146">
        <ele>81</ele>
        <time>2015-04-16T13:51:04Z</time>
      </trkpt>
      <trkpt lat="43.33898" lon="5.20145">
        <ele>81</ele>
        <time>2015-04-16T13:51:05Z</time>
      </trkpt>
      <trkpt lat="43.33898" lon="5.20143">
        <ele>81</ele>
        <time>2015-04-16T13:51:06Z</time>
      </trkpt>
      <trkpt lat="43.33897" lon="5.20141">
        <ele>82</ele>
        <time>2015-04-16T13:51:07Z</time>
      </trkpt>
      <trkpt lat="43.33897" lon="5.2014">
        <ele>82</ele>
        <time>2015-04-16T13:51:08Z</time>
      </trkpt>
      <trkpt lat="43.33896" lon="5.20138">
        <ele>82</ele>
        <time>2015-04-16T13:51:09Z</time>
      </trkpt>
      <trkpt lat="43.33896" lon="5.20137">
        <ele>82</ele>
        <time>2015-04-16T13:51:10Z</time>
      </trkpt>
      <trkpt lat="43.33895" lon="5.20135">
        <ele>83</ele>
        <time>2015-04-16T13:51:11Z</time>
      </trkpt>
      <trkpt lat="43.33895" lon="5.20133">
        <ele>83</ele>
        <time>2015-04-16T13:51:12Z</time>
      </trkpt>
      <trkpt lat="43.33894" lon="5.20131">
        <ele>83</ele>
        <time>2015-04-16T13:51:13Z</time>
      </trkpt>
      <trkpt lat="43.33894" lon="5.2013">
        <ele>84</ele>
        <time>2015-04-16T13:51:14Z</time>
      </trkpt>
      <trkpt lat="43.33893" lon="5.20128">
        <ele>84</ele>
        <time>2015-04-16T13:51:15Z</time>
      </trkpt>
      <trkpt lat="43.33893" lon="5.20127">
        <ele>85</ele>
        <time>2015-04-16T13:51:16Z</time>
      </trkpt>
      <trkpt lat="43.33892" lon="5.20125">
        <ele>85</ele>
        <time>2015-04-16T13:51:17Z</time>
      </trkpt>
      <trkpt lat="43.33892" lon="5.20123">
        <ele>85</ele>
        <time>2015-04-16T13:51:18Z</time>
      </trkpt>
      <trkpt lat="43.33892" lon="5.20121">
        <ele>85</ele>
        <time>2015-04-16T13:51:19Z</time>
      </trkpt>
      <trkpt lat="43.33891" lon="5.2012">
        <ele>85</ele>
        <time>2015-04-16T13:51:20Z</time>
      </trkpt>
      <trkpt lat="43.33891" lon="5.20118">
        <ele>86</ele>
        <time>2015-04-16T13:51:21Z</time>
      </trkpt>
      <trkpt lat="43.3389" lon="5.20116">
        <ele>86</ele>
        <time>2015-04-16T13:51:22Z</time>
      </trkpt>
      <trkpt lat="43.3389" lon="5.20114">
        <ele>86</ele>
        <time>2015-04-16T13:51:23Z</time>
      </trkpt>
      <trkpt lat="43.3389" lon="5.20112">
        <ele>86</ele>
        <time>2015-04-16T13:51:24Z</time>
      </trkpt>
      <trkpt lat="43.3389" lon="5.20109">
        <ele>86</ele>
        <time>2015-04-16T13:51:25Z</time>
      </trkpt>
      <trkpt lat="43.33889" lon="5.20107">
        <ele>86</ele>
        <time>2015-04-16T13:51:26Z</time>
      </trkpt>
      <trkpt lat="43.33889" lon="5.20105">
        <ele>86</ele>
        <time>2015-04-16T13:51:27Z</time>
      </trkpt>
      <trkpt lat="43.33889" lon="5.20103">
        <ele>86</ele>
        <time>2015-04-16T13:51:28Z</time>
      </trkpt>
      <trkpt lat="43.33888" lon="5.201">
        <ele>86</ele>
        <time>2015-04-16T13:51:29Z</time>
      </trkpt>
      <trkpt lat="43.33888" lon="5.20098">
        <ele>86</ele>
        <time>2015-04-16T13:51:30Z</time>
      </trkpt>
      <trkpt lat="43.33888" lon="5.20096">
        <ele>86</ele>
        <time>2015-04-16T13:51:31Z</time>
      </trkpt>
      <trkpt lat="43.33888" lon="5.20094">
        <ele>86</ele>
        <time>2015-04-16T13:51:32Z</time>
      </trkpt>
      <trkpt lat="43.33888" lon="5.20091">
        <ele>87</ele>
        <time>2015-04-16T13:51:33Z</time>
      </trkpt>
      <trkpt lat="43.33889" lon="5.2009">
        <ele>87</ele>
        <time>2015-04-16T13:51:34Z</time>
      </trkpt>
      <trkpt lat="43.33889" lon="5.20088">
        <ele>87</ele>
        <time>2015-04-16T13:51:35Z</time>
      </trkpt>
      <trkpt lat="43.33889" lon="5.20086">
        <ele>87</ele>
        <time>2015-04-16T13:51:36Z</time>
      </trkpt>
      <trkpt lat="43.33889" lon="5.20084">
        <ele>88</ele>
        <time>2015-04-16T13:51:37Z</time>
      </trkpt>
      <trkpt lat="43.33889" lon="5.20083">
        <ele>88</ele>
        <time>2015-04-16T13:51:38Z</time>
      </trkpt>
      <trkpt lat="43.3389" lon="5.20081">
        <ele>89</ele>
        <time>2015-04-16T13:51:39Z</time>
      </trkpt>
      <trkpt lat="43.3389" lon="5.20078">
        <ele>90</ele>
        <time>2015-04-16T13:51:41Z</time>
      </trkpt>
      <trkpt lat="43.33891" lon="5.20077">
        <ele>90</ele>
        <time>2015-04-16T13:51:42Z</time>
      </trkpt>
      <trkpt lat="43.33891" lon="5.20075">
        <ele>90</ele>
        <time>2015-04-16T13:51:43Z</time>
      </trkpt>
      <trkpt lat="43.33892" lon="5.20073">
        <ele>91</ele>
        <time>2015-04-16T13:51:44Z</time>
      </trkpt>
      <trkpt lat="43.33892" lon="5.20071">
        <ele>91</ele>
        <time>2015-04-16T13:51:45Z</time>
      </trkpt>
      <trkpt lat="43.33892" lon="5.20069">
        <ele>92</ele>
        <time>2015-04-16T13:51:46Z</time>
      </trkpt>
      <trkpt lat="43.33893" lon="5.20067">
        <ele>93</ele>
        <time>2015-04-16T13:51:47Z</time>
      </trkpt>
      <trkpt lat="43.33893" lon="5.20065">
        <ele>94</ele>
        <time>2015-04-16T13:51:48Z</time>
      </trkpt>
      <trkpt lat="43.33893" lon="5.20063">
        <ele>94</ele>
        <time>2015-04-16T13:51:49Z</time>
      </trkpt>
      <trkpt lat="43.33893" lon="5.20061">
        <ele>95</ele>
        <time>2015-04-16T13:51:50Z</time>
      </trkpt>
      <trkpt lat="43.33894" lon="5.2006">
        <ele>96</ele>
        <time>2015-04-16T13:51:51Z</time>
      </trkpt>
      <trkpt lat="43.33894" lon="5.20058">
        <ele>96</ele>
        <time>2015-04-16T13:51:52Z</time>
      </trkpt>
      <trkpt lat="43.33894" lon="5.20056">
        <ele>96</ele>
        <time>2015-04-16T13:51:53Z</time>
      </trkpt>
      <trkpt lat="43.33894" lon="5.20054">
        <ele>97</ele>
        <time>2015-04-16T13:51:54Z</time>
      </trkpt>
      <trkpt lat="43.33895" lon="5.20051">
        <ele>97</ele>
        <time>2015-04-16T13:51:55Z</time>
      </trkpt>
      <trkpt lat="43.33895" lon="5.2005">
        <ele>97</ele>
        <time>2015-04-16T13:51:56Z</time>
      </trkpt>
      <trkpt lat="43.33896" lon="5.20048">
        <ele>97</ele>
        <time>2015-04-16T13:51:57Z</time>
      </trkpt>
      <trkpt lat="43.33896" lon="5.20045">
        <ele>98</ele>
        <time>2015-04-16T13:51:58Z</time>
      </trkpt>
      <trkpt lat="43.33897" lon="5.20043">
        <ele>98</ele>
        <time>2015-04-16T13:51:59Z</time>
      </trkpt>
      <trkpt lat="43.33897" lon="5.2004">
        <ele>99</ele>
        <time>2015-04-16T13:52:01Z</time>
      </trkpt>
      <trkpt lat="43.33897" lon="5.20037">
        <ele>99</ele>
        <time>2015-04-16T13:52:02Z</time>
      </trkpt>
      <trkpt lat="43.33898" lon="5.20036">
        <ele>100</ele>
        <time>2015-04-16T13:52:03Z</time>
      </trkpt>
      <trkpt lat="43.33899" lon="5.20034">
        <ele>100</ele>
        <time>2015-04-16T13:52:04Z</time>
      </trkpt>
      <trkpt lat="43.33899" lon="5.20032">
        <ele>101</ele>
        <time>2015-04-16T13:52:05Z</time>
      </trkpt>
      <trkpt lat="43.33899" lon="5.2003">
        <ele>101</ele>
        <time>2015-04-16T13:52:06Z</time>
      </trkpt>
      <trkpt lat="43.339" lon="5.20028">
        <ele>101</ele>
        <time>2015-04-16T13:52:07Z</time>
      </trkpt>
      <trkpt lat="43.33901" lon="5.20026">
        <ele>101</ele>
        <time>2015-04-16T13:52:09Z</time>
      </trkpt>
      <trkpt lat="43.33901" lon="5.20024">
        <ele>101</ele>
        <time>2015-04-16T13:52:10Z</time>
      </trkpt>
      <trkpt lat="43.33902" lon="5.20022">
        <ele>101</ele>
        <time>2015-04-16T13:52:11Z</time>
      </trkpt>
      <trkpt lat="43.33903" lon="5.2002">
        <ele>101</ele>
        <time>2015-04-16T13:52:12Z</time>
      </trkpt>
      <trkpt lat="43.33904" lon="5.20019">
        <ele>101</ele>
        <time>2015-04-16T13:52:13Z</time>
      </trkpt>
      <trkpt lat="43.33904" lon="5.20017">
        <ele>101</ele>
        <time>2015-04-16T13:52:14Z</time>
      </trkpt>
      <trkpt lat="43.33904" lon="5.20015">
        <ele>101</ele>
        <time>2015-04-16T13:52:15Z</time>
      </trkpt>
      <trkpt lat="43.33905" lon="5.20013">
        <ele>101</ele>
        <time>2015-04-16T13:52:16Z</time>
      </trkpt>
      <trkpt lat="43.33907" lon="5.2001">
        <ele>101</ele>
        <time>2015-04-16T13:52:18Z</time>
      </trkpt>
      <trkpt lat="43.33907" lon="5.20008">
        <ele>102</ele>
        <time>2015-04-16T13:52:19Z</time>
      </trkpt>
      <trkpt lat="43.33907" lon="5.20006">
        <ele>103</ele>
        <time>2015-04-16T13:52:20Z</time>
      </trkpt>
      <trkpt lat="43.33908" lon="5.20004">
        <ele>103</ele>
        <time>2015-04-16T13:52:21Z</time>
      </trkpt>
      <trkpt lat="43.33908" lon="5.20002">
        <ele>104</ele>
        <time>2015-04-16T13:52:22Z</time>
      </trkpt>
      <trkpt lat="43.33908" lon="5.20001">
        <ele>104</ele>
        <time>2015-04-16T13:52:23Z</time>
      </trkpt>
      <trkpt lat="43.33908" lon="5.19999">
        <ele>104</ele>
        <time>2015-04-16T13:52:24Z</time>
      </trkpt>
      <trkpt lat="43.3391" lon="5.19998">
        <ele>104</ele>
        <time>2015-04-16T13:52:26Z</time>
      </trkpt>
      <trkpt lat="43.33911" lon="5.19996">
        <ele>104</ele>
        <time>2015-04-16T13:52:32Z</time>
      </trkpt>
      <trkpt lat="43.33911" lon="5.19994">
        <ele>104</ele>
        <time>2015-04-16T13:52:34Z</time>
      </trkpt>
      <trkpt lat="43.33911" lon="5.19992">
        <ele>104</ele>
        <time>2015-04-16T13:52:35Z</time>
      </trkpt>
      <trkpt lat="43.33912" lon="5.1999">
        <ele>104</ele>
        <time>2015-04-16T13:52:36Z</time>
      </trkpt>
      <trkpt lat="43.33912" lon="5.19989">
        <ele>104</ele>
        <time>2015-04-16T13:52:37Z</time>
      </trkpt>
      <trkpt lat="43.33914" lon="5.19987">
        <ele>104</ele>
        <time>2015-04-16T13:52:39Z</time>
      </trkpt>
      <trkpt lat="43.33914" lon="5.19985">
        <ele>104</ele>
        <time>2015-04-16T13:52:40Z</time>
      </trkpt>
      <trkpt lat="43.33915" lon="5.19983">
        <ele>104</ele>
        <time>2015-04-16T13:52:41Z</time>
      </trkpt>
      <trkpt lat="43.33915" lon="5.19981">
        <ele>104</ele>
        <time>2015-04-16T13:52:42Z</time>
      </trkpt>
      <trkpt lat="43.33915" lon="5.1998">
        <ele>104</ele>
        <time>2015-04-16T13:52:43Z</time>
      </trkpt>
      <trkpt lat="43.33916" lon="5.19978">
        <ele>104</ele>
        <time>2015-04-16T13:52:44Z</time>
      </trkpt>
      <trkpt lat="43.33916" lon="5.19976">
        <ele>104</ele>
        <time>2015-04-16T13:52:45Z</time>
      </trkpt>
      <trkpt lat="43.33917" lon="5.19974">
        <ele>104</ele>
        <time>2015-04-16T13:52:46Z</time>
      </trkpt>
      <trkpt lat="43.33917" lon="5.19973">
        <ele>104</ele>
        <time>2015-04-16T13:52:47Z</time>
      </trkpt>
      <trkpt lat="43.33918" lon="5.1997">
        <ele>104</ele>
        <time>2015-04-16T13:52:48Z</time>
      </trkpt>
      <trkpt lat="43.33918" lon="5.19969">
        <ele>104</ele>
        <time>2015-04-16T13:52:49Z</time>
      </trkpt>
      <trkpt lat="43.33919" lon="5.19967">
        <ele>104</ele>
        <time>2015-04-16T13:52:50Z</time>
      </trkpt>
      <trkpt lat="43.33919" lon="5.19964">
        <ele>104</ele>
        <time>2015-04-16T13:52:51Z</time>
      </trkpt>
      <trkpt lat="43.3392" lon="5.19963">
        <ele>104</ele>
        <time>2015-04-16T13:52:52Z</time>
      </trkpt>
      <trkpt lat="43.3392" lon="5.19961">
        <ele>104</ele>
        <time>2015-04-16T13:52:53Z</time>
      </trkpt>
      <trkpt lat="43.33921" lon="5.19959">
        <ele>104</ele>
        <time>2015-04-16T13:52:54Z</time>
      </trkpt>
      <trkpt lat="43.33921" lon="5.19957">
        <ele>104</ele>
        <time>2015-04-16T13:52:55Z</time>
      </trkpt>
      <trkpt lat="43.33921" lon="5.19955">
        <ele>104</ele>
        <time>2015-04-16T13:52:56Z</time>
      </trkpt>
      <trkpt lat="43.33921" lon="5.19953">
        <ele>104</ele>
        <time>2015-04-16T13:52:57Z</time>
      </trkpt>
      <trkpt lat="43.33922" lon="5.19951">
        <ele>104</ele>
        <time>2015-04-16T13:52:58Z</time>
      </trkpt>
      <trkpt lat="43.33923" lon="5.19949">
        <ele>104</ele>
        <time>2015-04-16T13:52:59Z</time>
      </trkpt>
      <trkpt lat="43.33923" lon="5.19947">
        <ele>104</ele>
        <time>2015-04-16T13:53:00Z</time>
      </trkpt>
      <trkpt lat="43.33923" lon="5.19945">
        <ele>104</ele>
        <time>2015-04-16T13:53:01Z</time>
      </trkpt>
      <trkpt lat="43.33924" lon="5.19943">
        <ele>104</ele>
        <time>2015-04-16T13:53:02Z</time>
      </trkpt>
      <trkpt lat="43.33923" lon="5.1994">
        <ele>104</ele>
        <time>2015-04-16T13:53:03Z</time>
      </trkpt>
      <trkpt lat="43.33923" lon="5.19938">
        <ele>104</ele>
        <time>2015-04-16T13:53:04Z</time>
      </trkpt>
      <trkpt lat="43.33923" lon="5.19936">
        <ele>104</ele>
        <time>2015-04-16T13:53:05Z</time>
      </trkpt>
      <trkpt lat="43.33923" lon="5.19934">
        <ele>104</ele>
        <time>2015-04-16T13:53:06Z</time>
      </trkpt>
      <trkpt lat="43.33923" lon="5.19932">
        <ele>104</ele>
        <time>2015-04-16T13:53:07Z</time>
      </trkpt>
      <trkpt lat="43.33923" lon="5.1993">
        <ele>104</ele>
        <time>2015-04-16T13:53:08Z</time>
      </trkpt>
      <trkpt lat="43.33923" lon="5.19927">
        <ele>104</ele>
        <time>2015-04-16T13:53:09Z</time>
      </trkpt>
      <trkpt lat="43.33922" lon="5.19925">
        <ele>104</ele>
        <time>2015-04-16T13:53:10Z</time>
      </trkpt>
      <trkpt lat="43.33923" lon="5.19923">
        <ele>105</ele>
        <time>2015-04-16T13:53:11Z</time>
      </trkpt>
      <trkpt lat="43.33924" lon="5.19921">
        <ele>105</ele>
        <time>2015-04-16T13:53:12Z</time>
      </trkpt>
      <trkpt lat="43.33924" lon="5.19919">
        <ele>106</ele>
        <time>2015-04-16T13:53:13Z</time>
      </trkpt>
      <trkpt lat="43.33925" lon="5.19918">
        <ele>106</ele>
        <time>2015-04-16T13:53:14Z</time>
      </trkpt>
      <trkpt lat="43.33925" lon="5.19916">
        <ele>106</ele>
        <time>2015-04-16T13:53:15Z</time>
      </trkpt>
      <trkpt lat="43.33925" lon="5.19914">
        <ele>107</ele>
        <time>2015-04-16T13:53:16Z</time>
      </trkpt>
      <trkpt lat="43.33926" lon="5.19912">
        <ele>107</ele>
        <time>2015-04-16T13:53:17Z</time>
      </trkpt>
      <trkpt lat="43.33926" lon="5.1991">
        <ele>107</ele>
        <time>2015-04-16T13:53:18Z</time>
      </trkpt>
      <trkpt lat="43.33926" lon="5.19909">
        <ele>107</ele>
        <time>2015-04-16T13:53:19Z</time>
      </trkpt>
      <trkpt lat="43.33926" lon="5.19907">
        <ele>107</ele>
        <time>2015-04-16T13:53:20Z</time>
      </trkpt>
      <trkpt lat="43.33926" lon="5.19905">
        <ele>107</ele>
        <time>2015-04-16T13:53:21Z</time>
      </trkpt>
      <trkpt lat="43.33927" lon="5.19903">
        <ele>107</ele>
        <time>2015-04-16T13:53:22Z</time>
      </trkpt>
      <trkpt lat="43.33928" lon="5.19901">
        <ele>107</ele>
        <time>2015-04-16T13:53:23Z</time>
      </trkpt>
      <trkpt lat="43.33928" lon="5.19899">
        <ele>107</ele>
        <time>2015-04-16T13:53:24Z</time>
      </trkpt>
      <trkpt lat="43.33929" lon="5.19898">
        <ele>108</ele>
        <time>2015-04-16T13:53:25Z</time>
      </trkpt>
      <trkpt lat="43.33929" lon="5.19896">
        <ele>108</ele>
        <time>2015-04-16T13:53:26Z</time>
      </trkpt>
      <trkpt lat="43.3393" lon="5.19894">
        <ele>108</ele>
        <time>2015-04-16T13:53:28Z</time>
      </trkpt>
      <trkpt lat="43.3393" lon="5.19892">
        <ele>109</ele>
        <time>2015-04-16T13:53:30Z</time>
      </trkpt>
      <trkpt lat="43.3393" lon="5.1989">
        <ele>109</ele>
        <time>2015-04-16T13:53:31Z</time>
      </trkpt>
      <trkpt lat="43.33931" lon="5.19888">
        <ele>110</ele>
        <time>2015-04-16T13:53:33Z</time>
      </trkpt>
      <trkpt lat="43.33932" lon="5.19887">
        <ele>110</ele>
        <time>2015-04-16T13:53:35Z</time>
      </trkpt>
      <trkpt lat="43.33934" lon="5.19888">
        <ele>110</ele>
        <time>2015-04-16T13:53:37Z</time>
      </trkpt>
      <trkpt lat="43.33933" lon="5.1989">
        <ele>110</ele>
        <time>2015-04-16T13:53:45Z</time>
      </trkpt>
      <trkpt lat="43.33932" lon="5.1989">
        <ele>110</ele>
        <time>2015-04-16T13:53:49Z</time>
      </trkpt>
      <trkpt lat="43.33931" lon="5.1989">
        <ele>112</ele>
        <time>2015-04-16T13:53:51Z</time>
      </trkpt>
      <trkpt lat="43.33932" lon="5.1989">
        <ele>114</ele>
        <time>2015-04-16T13:54:06Z</time>
      </trkpt>
      <trkpt lat="43.33934" lon="5.19887">
        <ele>114</ele>
        <time>2015-04-16T13:54:08Z</time>
      </trkpt>
      <trkpt lat="43.33934" lon="5.19886">
        <ele>114</ele>
        <time>2015-04-16T13:54:10Z</time>
      </trkpt>
      <trkpt lat="43.33935" lon="5.19885">
        <ele>114</ele>
        <time>2015-04-16T13:54:15Z</time>
      </trkpt>
      <trkpt lat="43.33933" lon="5.19885">
        <ele>114</ele>
        <time>2015-04-16T13:54:20Z</time>
      </trkpt>
      <trkpt lat="43.33933" lon="5.19885">
        <ele>114</ele>
        <time>2015-04-16T13:54:23Z</time>
      </trkpt>
    </trkseg>
  </trk>
</gpx>